<?xml version='1.0' encoding='UTF-8'?><gpx version="1.1" creator="JPX - https://github.com/jenetics/jpx" xmlns="http://www.topografix.com/GPX/1/1"><trk><trkseg><trkpt lat="45.711274655982116" lon="6.948892257915816"><ele>1467.0</ele><time>2026-04-08T08:01:28.999Z</time></trkpt><trkpt lat="45.711248862689686" lon="6.948782713907607"><ele>1467.0</ele><time>2026-04-08T08:01:32.999Z</time></trkpt><trkpt lat="45.711249769057545" lon="6.948903231540281"><ele>1467.0</ele><time>2026-04-08T08:01:45.999Z</time></trkpt><trkpt lat="45.71129585447916" lon="6.948977160278491"><ele>1467.0</ele><time>2026-04-08T08:01:46.999Z</time></trkpt><trkpt lat="45.71121251339206" lon="6.948890927037164"><ele>1467.0</ele><time>2026-04-08T08:04:10.999Z</time></trkpt><trkpt lat="45.711122102745925" lon="6.94884201872527"><ele>1467.0</ele><time>2026-04-08T08:04:12.999Z</time></trkpt><trkpt lat="45.71104752738641" lon="6.948756899964204"><ele>1467.1666666666667</ele><time>2026-04-08T08:04:15.999Z</time></trkpt><trkpt lat="45.71093004379087" lon="6.948667777992448"><ele>1467.3333333333333</ele><time>2026-04-08T08:04:17.999Z</time></trkpt><trkpt lat="45.71086736500878" lon="6.948623791499524"><ele>1467.5</ele><time>2026-04-08T08:04:18.999Z</time></trkpt><trkpt lat="45.71080416349144" lon="6.948603116566914"><ele>1467.6666666666665</ele><time>2026-04-08T08:04:19.999Z</time></trkpt><trkpt lat="45.71071269059903" lon="6.9485340737560515"><ele>1467.8333333333333</ele><time>2026-04-08T08:04:21.999Z</time></trkpt><trkpt lat="45.71065291229452" lon="6.94847681386382"><ele>1468.0</ele><time>2026-04-08T08:04:22.999Z</time></trkpt><trkpt lat="45.71053667918839" lon="6.948418091740835"><ele>1468.0</ele><time>2026-04-08T08:04:24.999Z</time></trkpt><trkpt lat="45.710439239498626" lon="6.948395819057388"><ele>1468.0</ele><time>2026-04-08T08:04:26.999Z</time></trkpt><trkpt lat="45.71036884217282" lon="6.9483666405322415"><ele>1468.0</ele><time>2026-04-08T08:04:28.999Z</time></trkpt><trkpt lat="45.710303967637266" lon="6.948298390970383"><ele>1468.0</ele><time>2026-04-08T08:04:30.999Z</time></trkpt><trkpt lat="45.7102322329999" lon="6.948216541058901"><ele>1468.0</ele><time>2026-04-08T08:04:33.999Z</time></trkpt><trkpt lat="45.710164623770495" lon="6.948143003682056"><ele>1468.0</ele><time>2026-04-08T08:04:35.999Z</time></trkpt><trkpt lat="45.710097059151394" lon="6.948102314674202"><ele>1471.1666666666665</ele><time>2026-04-08T08:04:37.999Z</time></trkpt><trkpt lat="45.71004155795943" lon="6.94804005613911"><ele>1474.3333333333333</ele><time>2026-04-08T08:04:40.999Z</time></trkpt><trkpt lat="45.70995987768472" lon="6.94793101210772"><ele>1477.5</ele><time>2026-04-08T08:04:43.999Z</time></trkpt><trkpt lat="45.70988898994391" lon="6.94786628756953"><ele>1480.6666666666667</ele><time>2026-04-08T08:04:46.999Z</time></trkpt><trkpt lat="45.709813903340624" lon="6.9478367888355"><ele>1483.8333333333335</ele><time>2026-04-08T08:04:49.999Z</time></trkpt><trkpt lat="45.70975339071639" lon="6.947775242291681"><ele>1487.0</ele><time>2026-04-08T08:04:52Z</time></trkpt><trkpt lat="45.70968272230319" lon="6.947726729832886"><ele>1487.0</ele><time>2026-04-08T08:04:54Z</time></trkpt><trkpt lat="45.70961164355483" lon="6.947688359766763"><ele>1487.0</ele><time>2026-04-08T08:04:56Z</time></trkpt><trkpt lat="45.709543775525084" lon="6.94766399697414"><ele>1487.0</ele><time>2026-04-08T08:04:58Z</time></trkpt><trkpt lat="45.70946409230336" lon="6.947620550368136"><ele>1487.0</ele><time>2026-04-08T08:05:01Z</time></trkpt><trkpt lat="45.70934874136899" lon="6.94755426781122"><ele>1487.0</ele><time>2026-04-08T08:05:10Z</time></trkpt><trkpt lat="45.70926888567688" lon="6.947475219217365"><ele>1495.3333333333335</ele><time>2026-04-08T08:05:12Z</time></trkpt><trkpt lat="45.709195509465076" lon="6.9474351539549"><ele>1503.6666666666667</ele><time>2026-04-08T08:05:14Z</time></trkpt><trkpt lat="45.7091362229961" lon="6.947377728190279"><ele>1512.0</ele><time>2026-04-08T08:05:16Z</time></trkpt><trkpt lat="45.709062642982" lon="6.947330030261232"><ele>1520.3333333333335</ele><time>2026-04-08T08:05:18Z</time></trkpt><trkpt lat="45.70898393287603" lon="6.947262456621152"><ele>1528.6666666666667</ele><time>2026-04-08T08:05:20Z</time></trkpt><trkpt lat="45.708926279800856" lon="6.947200254883969"><ele>1537.0</ele><time>2026-04-08T08:05:22Z</time></trkpt><trkpt lat="45.7088535699601" lon="6.947168523571174"><ele>1537.0000000000002</ele><time>2026-04-08T08:05:24Z</time></trkpt><trkpt lat="45.70877443039454" lon="6.9471260907230015"><ele>1537.0</ele><time>2026-04-08T08:05:26Z</time></trkpt><trkpt lat="45.70870474719739" lon="6.947036864466695"><ele>1537.0</ele><time>2026-04-08T08:05:28Z</time></trkpt><trkpt lat="45.708615718844" lon="6.946969937980635"><ele>1537.0</ele><time>2026-04-08T08:05:31Z</time></trkpt><trkpt lat="45.70854497616299" lon="6.94695613450032"><ele>1537.0000000000002</ele><time>2026-04-08T08:05:33Z</time></trkpt><trkpt lat="45.708476197273306" lon="6.9468809484996354"><ele>1537.0</ele><time>2026-04-08T08:05:36Z</time></trkpt><trkpt lat="45.70842529137083" lon="6.946824931652475"><ele>1542.1666666666667</ele><time>2026-04-08T08:05:38Z</time></trkpt><trkpt lat="45.70835952105481" lon="6.946783391615481"><ele>1547.3333333333335</ele><time>2026-04-08T08:05:40Z</time></trkpt><trkpt lat="45.708285408622544" lon="6.946733484721196"><ele>1552.5</ele><time>2026-04-08T08:05:42Z</time></trkpt><trkpt lat="45.70820156227446" lon="6.946723236391183"><ele>1557.6666666666665</ele><time>2026-04-08T08:05:44Z</time></trkpt><trkpt lat="45.708131651901866" lon="6.9466831108674665"><ele>1562.8333333333333</ele><time>2026-04-08T08:05:45.999Z</time></trkpt><trkpt lat="45.70808438562442" lon="6.946613907975528"><ele>1568.0</ele><time>2026-04-08T08:05:47.999Z</time></trkpt><trkpt lat="45.708007242095626" lon="6.946575113579263"><ele>1572.3333333333333</ele><time>2026-04-08T08:05:49.999Z</time></trkpt><trkpt lat="45.70794656259632" lon="6.946530718274795"><ele>1576.6666666666665</ele><time>2026-04-08T08:05:51.999Z</time></trkpt><trkpt lat="45.70786266280922" lon="6.946493784211044"><ele>1581.0</ele><time>2026-04-08T08:05:54.999Z</time></trkpt><trkpt lat="45.707794133253046" lon="6.946478504925168"><ele>1585.3333333333335</ele><time>2026-04-08T08:05:56.999Z</time></trkpt><trkpt lat="45.70772304898049" lon="6.946460024913518"><ele>1589.6666666666667</ele><time>2026-04-08T08:05:58.999Z</time></trkpt><trkpt lat="45.70764637727494" lon="6.946427546568004"><ele>1594.0</ele><time>2026-04-08T08:06:00.999Z</time></trkpt><trkpt lat="45.70756464561275" lon="6.946366240941453"><ele>1599.8333333333335</ele><time>2026-04-08T08:06:03.999Z</time></trkpt><trkpt lat="45.707499175731286" lon="6.946318930338235"><ele>1605.6666666666667</ele><time>2026-04-08T08:06:05.999Z</time></trkpt><trkpt lat="45.70742773579934" lon="6.946276766515681"><ele>1611.5</ele><time>2026-04-08T08:06:07.999Z</time></trkpt><trkpt lat="45.70735421513855" lon="6.9462427283750205"><ele>1617.3333333333335</ele><time>2026-04-08T08:06:09.999Z</time></trkpt><trkpt lat="45.707278971078104" lon="6.946194093604854"><ele>1623.1666666666667</ele><time>2026-04-08T08:06:12.999Z</time></trkpt><trkpt lat="45.707227247281786" lon="6.946107240244368"><ele>1629.0</ele><time>2026-04-08T08:06:15.999Z</time></trkpt><trkpt lat="45.707170008162734" lon="6.946057067543914"><ele>1629.0</ele><time>2026-04-08T08:06:17.999Z</time></trkpt><trkpt lat="45.70710236443608" lon="6.946043293841019"><ele>1629.0</ele><time>2026-04-08T08:06:20.999Z</time></trkpt><trkpt lat="45.70703930381372" lon="6.9460048243777575"><ele>1629.0</ele><time>2026-04-08T08:06:22.999Z</time></trkpt><trkpt lat="45.70698513833919" lon="6.945935377120196"><ele>1629.0</ele><time>2026-04-08T08:06:25.999Z</time></trkpt><trkpt lat="45.70695418719561" lon="6.945822493114937"><ele>1629.0</ele><time>2026-04-08T08:06:29.999Z</time></trkpt><trkpt lat="45.70689172627345" lon="6.94578432944259"><ele>1629.0</ele><time>2026-04-08T08:06:33.999Z</time></trkpt><trkpt lat="45.706820696835415" lon="6.9457393391843345"><ele>1629.0</ele><time>2026-04-08T08:06:35.999Z</time></trkpt><trkpt lat="45.7067568260409" lon="6.945692686577078"><ele>1642.8000000000002</ele><time>2026-04-08T08:06:37.999Z</time></trkpt><trkpt lat="45.706680740597946" lon="6.945622171047536"><ele>1656.6000000000001</ele><time>2026-04-08T08:06:40.999Z</time></trkpt><trkpt lat="45.70662036387833" lon="6.94556970574491"><ele>1670.4</ele><time>2026-04-08T08:06:42.999Z</time></trkpt><trkpt lat="45.70647426792942" lon="6.945495657590081"><ele>1684.2</ele><time>2026-04-08T08:06:44.999Z</time></trkpt><trkpt lat="45.70641005934335" lon="6.945474784133575"><ele>1698.0</ele><time>2026-04-08T08:06:45.999Z</time></trkpt><trkpt lat="45.70633734622165" lon="6.945392862146096"><ele>1698.0</ele><time>2026-04-08T08:06:48.999Z</time></trkpt><trkpt lat="45.70628755301265" lon="6.945335767183584"><ele>1698.0</ele><time>2026-04-08T08:06:51.999Z</time></trkpt><trkpt lat="45.70622412509307" lon="6.945285007384052"><ele>1698.0</ele><time>2026-04-08T08:06:53.999Z</time></trkpt><trkpt lat="45.70616137108941" lon="6.945274526875161"><ele>1698.0</ele><time>2026-04-08T08:06:55.999Z</time></trkpt><trkpt lat="45.70608983650293" lon="6.945251128213568"><ele>1698.0</ele><time>2026-04-08T08:06:58Z</time></trkpt><trkpt lat="45.705985928042985" lon="6.9452473429952475"><ele>1698.0</ele><time>2026-04-08T08:07:00Z</time></trkpt><trkpt lat="45.705918704003764" lon="6.945158664502321"><ele>1705.3333333333333</ele><time>2026-04-08T08:07:02Z</time></trkpt><trkpt lat="45.70586491999575" lon="6.945106976076467"><ele>1712.6666666666665</ele><time>2026-04-08T08:07:04Z</time></trkpt><trkpt lat="45.705785756176965" lon="6.945069606799948"><ele>1720.0</ele><time>2026-04-08T08:07:07Z</time></trkpt><trkpt lat="45.705721709920674" lon="6.9450343853558705"><ele>1727.3333333333333</ele><time>2026-04-08T08:07:09Z</time></trkpt><trkpt lat="45.70565654859953" lon="6.944912407571134"><ele>1734.6666666666665</ele><time>2026-04-08T08:07:18Z</time></trkpt><trkpt lat="45.70559535959133" lon="6.944860954768781"><ele>1742.0</ele><time>2026-04-08T08:07:19Z</time></trkpt><trkpt lat="45.70551150479743" lon="6.944781688689091"><ele>1746.1666666666665</ele><time>2026-04-08T08:07:21Z</time></trkpt><trkpt lat="45.70545024391299" lon="6.944736638784496"><ele>1750.3333333333333</ele><time>2026-04-08T08:07:22Z</time></trkpt><trkpt lat="45.70538248021947" lon="6.944687043237193"><ele>1754.5</ele><time>2026-04-08T08:07:24Z</time></trkpt><trkpt lat="45.70530939230169" lon="6.944604301543935"><ele>1758.6666666666665</ele><time>2026-04-08T08:07:26Z</time></trkpt><trkpt lat="45.7052196745663" lon="6.944559959018748"><ele>1762.8333333333333</ele><time>2026-04-08T08:07:29Z</time></trkpt><trkpt lat="45.70512189065002" lon="6.944514411083912"><ele>1767.0</ele><time>2026-04-08T08:07:31Z</time></trkpt><trkpt lat="45.70503448691298" lon="6.94447356998641"><ele>1777.8333333333333</ele><time>2026-04-08T08:07:33Z</time></trkpt><trkpt lat="45.70497493157018" lon="6.944411965873098"><ele>1788.6666666666665</ele><time>2026-04-08T08:07:35Z</time></trkpt><trkpt lat="45.70488984414686" lon="6.944381204270275"><ele>1799.5</ele><time>2026-04-08T08:07:37.999Z</time></trkpt><trkpt lat="45.70482082855009" lon="6.944313763704816"><ele>1810.3333333333333</ele><time>2026-04-08T08:07:39.999Z</time></trkpt><trkpt lat="45.704743911041504" lon="6.944273224815127"><ele>1821.1666666666665</ele><time>2026-04-08T08:07:41.999Z</time></trkpt><trkpt lat="45.7046915668291" lon="6.944208730133376"><ele>1832.0</ele><time>2026-04-08T08:07:44.999Z</time></trkpt><trkpt lat="45.70463318773626" lon="6.944173398300712"><ele>1837.3333333333333</ele><time>2026-04-08T08:07:46.999Z</time></trkpt><trkpt lat="45.70458139250411" lon="6.944117081319729"><ele>1842.6666666666665</ele><time>2026-04-08T08:07:48.999Z</time></trkpt><trkpt lat="45.704526141889886" lon="6.944057390870977"><ele>1848.0</ele><time>2026-04-08T08:07:50.999Z</time></trkpt><trkpt lat="45.70446041225934" lon="6.9440385098797215"><ele>1853.3333333333335</ele><time>2026-04-08T08:07:53.999Z</time></trkpt><trkpt lat="45.70436447721059" lon="6.943990119649317"><ele>1858.6666666666667</ele><time>2026-04-08T08:07:55.999Z</time></trkpt><trkpt lat="45.704268026155844" lon="6.94395049639558"><ele>1864.0</ele><time>2026-04-08T08:07:57.999Z</time></trkpt><trkpt lat="45.70419559745532" lon="6.9438977429673745"><ele>1873.6666666666667</ele><time>2026-04-08T08:08:00.999Z</time></trkpt><trkpt lat="45.70410527674224" lon="6.943835069753618"><ele>1883.3333333333335</ele><time>2026-04-08T08:08:03.999Z</time></trkpt><trkpt lat="45.70402759742876" lon="6.943766603517203"><ele>1893.0</ele><time>2026-04-08T08:08:07.999Z</time></trkpt><trkpt lat="45.70397024683954" lon="6.943708609149414"><ele>1902.6666666666665</ele><time>2026-04-08T08:08:10.999Z</time></trkpt><trkpt lat="45.70388948024851" lon="6.943659125257737"><ele>1912.3333333333333</ele><time>2026-04-08T08:08:13.999Z</time></trkpt><trkpt lat="45.703827906476725" lon="6.943606180345908"><ele>1922.0</ele><time>2026-04-08T08:08:16.999Z</time></trkpt><trkpt lat="45.70377343062223" lon="6.943551414221151"><ele>1921.9999999999998</ele><time>2026-04-08T08:08:19.999Z</time></trkpt><trkpt lat="45.703718785698406" lon="6.943489301381923"><ele>1922.0</ele><time>2026-04-08T08:08:22.999Z</time></trkpt><trkpt lat="45.70364696472455" lon="6.94341930655192"><ele>1922.0</ele><time>2026-04-08T08:08:25.999Z</time></trkpt><trkpt lat="45.70364448830381" lon="6.943320908349095"><ele>1922.0</ele><time>2026-04-08T08:08:30.999Z</time></trkpt><trkpt lat="45.70357537483284" lon="6.943225182574154"><ele>1921.9999999999998</ele><time>2026-04-08T08:08:36.999Z</time></trkpt><trkpt lat="45.703499649499456" lon="6.943130854079254"><ele>1922.0</ele><time>2026-04-08T08:08:42.999Z</time></trkpt><trkpt lat="45.70342829654523" lon="6.943099974153004"><ele>1933.4999999999998</ele><time>2026-04-08T08:08:44.999Z</time></trkpt><trkpt lat="45.70335733329338" lon="6.943067349527349"><ele>1945.0</ele><time>2026-04-08T08:08:46.999Z</time></trkpt><trkpt lat="45.7033037622315" lon="6.943013653903939"><ele>1956.5</ele><time>2026-04-08T08:08:48.999Z</time></trkpt><trkpt lat="45.70324100181727" lon="6.942952778473497"><ele>1968.0</ele><time>2026-04-08T08:08:50.999Z</time></trkpt><trkpt lat="45.70315027187323" lon="6.942913115286907"><ele>1979.4999999999998</ele><time>2026-04-08T08:08:53.999Z</time></trkpt><trkpt lat="45.70307348219649" lon="6.94284279677684"><ele>1991.0</ele><time>2026-04-08T08:08:56.999Z</time></trkpt><trkpt lat="45.70299457883047" lon="6.942780586820927"><ele>1991.0</ele><time>2026-04-08T08:08:59.999Z</time></trkpt><trkpt lat="45.70293198610361" lon="6.942739751569637"><ele>1991.0000000000002</ele><time>2026-04-08T08:09:01.999Z</time></trkpt><trkpt lat="45.702874460168886" lon="6.942702175575521"><ele>1991.0</ele><time>2026-04-08T08:09:04Z</time></trkpt><trkpt lat="45.702802688402315" lon="6.942656592464117"><ele>1991.0</ele><time>2026-04-08T08:09:06Z</time></trkpt><trkpt lat="45.70274106541588" lon="6.942620382713325"><ele>1991.0000000000002</ele><time>2026-04-08T08:09:08Z</time></trkpt><trkpt lat="45.702677657147476" lon="6.94255853146636"><ele>1991.0</ele><time>2026-04-08T08:09:11Z</time></trkpt><trkpt lat="45.70260166143666" lon="6.942514952284761"><ele>1991.0</ele><time>2026-04-08T08:09:13Z</time></trkpt><trkpt lat="45.70253690546803" lon="6.942420705565506"><ele>1996.4285714285716</ele><time>2026-04-08T08:09:16Z</time></trkpt><trkpt lat="45.70246780160301" lon="6.942379847680145"><ele>2001.8571428571431</ele><time>2026-04-08T08:09:18Z</time></trkpt><trkpt lat="45.70240815169714" lon="6.942334243705724"><ele>2007.2857142857142</ele><time>2026-04-08T08:09:20Z</time></trkpt><trkpt lat="45.70235392140293" lon="6.942282227074239"><ele>2012.7142857142858</ele><time>2026-04-08T08:09:22Z</time></trkpt><trkpt lat="45.70228842311451" lon="6.942257991057608"><ele>2018.142857142857</ele><time>2026-04-08T08:09:24Z</time></trkpt><trkpt lat="45.70223029945032" lon="6.942210985454635"><ele>2023.5714285714284</ele><time>2026-04-08T08:09:25.999Z</time></trkpt><trkpt lat="45.70214079075117" lon="6.942139985227051"><ele>2028.9999999999998</ele><time>2026-04-08T08:09:28.999Z</time></trkpt><trkpt lat="45.70208597450046" lon="6.942082083360991"><ele>2028.9999999999998</ele><time>2026-04-08T08:09:30.999Z</time></trkpt><trkpt lat="45.70200992418607" lon="6.942037394836902"><ele>2029.0</ele><time>2026-04-08T08:09:32.999Z</time></trkpt><trkpt lat="45.70194216875994" lon="6.941998896291026"><ele>2028.9999999999998</ele><time>2026-04-08T08:09:34.999Z</time></trkpt><trkpt lat="45.701885210495824" lon="6.941947442202231"><ele>2028.9999999999998</ele><time>2026-04-08T08:09:36.999Z</time></trkpt><trkpt lat="45.70180715864216" lon="6.941888793378768"><ele>2029.0</ele><time>2026-04-08T08:09:38.999Z</time></trkpt><trkpt lat="45.70174752746824" lon="6.941858736486136"><ele>2028.9999999999998</ele><time>2026-04-08T08:09:40.999Z</time></trkpt><trkpt lat="45.70168170775282" lon="6.941816268008851"><ele>2028.9999999999998</ele><time>2026-04-08T08:09:42.999Z</time></trkpt><trkpt lat="45.70161275396748" lon="6.941761753680026"><ele>2031.1428571428569</ele><time>2026-04-08T08:09:44.999Z</time></trkpt><trkpt lat="45.70154115802986" lon="6.9417089132074565"><ele>2033.2857142857142</ele><time>2026-04-08T08:09:46.999Z</time></trkpt><trkpt lat="45.70147930031253" lon="6.9416643684259824"><ele>2035.4285714285713</ele><time>2026-04-08T08:09:48.999Z</time></trkpt><trkpt lat="45.701406241796754" lon="6.94160974042708"><ele>2037.5714285714284</ele><time>2026-04-08T08:09:50.999Z</time></trkpt><trkpt lat="45.70133708008196" lon="6.941563846287018"><ele>2039.7142857142858</ele><time>2026-04-08T08:09:52.999Z</time></trkpt><trkpt lat="45.70127136533606" lon="6.941513585096865"><ele>2041.857142857143</ele><time>2026-04-08T08:09:54.999Z</time></trkpt><trkpt lat="45.70121237520985" lon="6.941469940351476"><ele>2044.0</ele><time>2026-04-08T08:09:56.999Z</time></trkpt><trkpt lat="45.70115703972762" lon="6.941426205837536"><ele>2044.0000000000002</ele><time>2026-04-08T08:09:58.999Z</time></trkpt><trkpt lat="45.70109696608984" lon="6.941379909732995"><ele>2044.0</ele><time>2026-04-08T08:10:00.999Z</time></trkpt><trkpt lat="45.70101715571349" lon="6.94132458484718"><ele>2044.0</ele><time>2026-04-08T08:10:02.999Z</time></trkpt><trkpt lat="45.700957519001605" lon="6.941285469050349"><ele>2044.0</ele><time>2026-04-08T08:10:04.999Z</time></trkpt><trkpt lat="45.70088961391912" lon="6.941234823243816"><ele>2044.0000000000002</ele><time>2026-04-08T08:10:06.999Z</time></trkpt><trkpt lat="45.70080678647674" lon="6.941193242737035"><ele>2044.0</ele><time>2026-04-08T08:10:08.999Z</time></trkpt><trkpt lat="45.7007352307332" lon="6.941134334317259"><ele>2044.1666666666667</ele><time>2026-04-08T08:10:10.999Z</time></trkpt><trkpt lat="45.700672487795856" lon="6.941059766944988"><ele>2044.3333333333335</ele><time>2026-04-08T08:10:13.999Z</time></trkpt><trkpt lat="45.70061007424235" lon="6.941005964882396"><ele>2044.5</ele><time>2026-04-08T08:10:15.999Z</time></trkpt><trkpt lat="45.700540051066405" lon="6.9409545777553046"><ele>2044.6666666666665</ele><time>2026-04-08T08:10:17.999Z</time></trkpt><trkpt lat="45.70046507984068" lon="6.940871947053136"><ele>2044.8333333333333</ele><time>2026-04-08T08:10:20.999Z</time></trkpt><trkpt lat="45.70038139356229" lon="6.9408453504997585"><ele>2045.0</ele><time>2026-04-08T08:10:23.999Z</time></trkpt><trkpt lat="45.700310899275266" lon="6.940809271695765"><ele>2052.6666666666665</ele><time>2026-04-08T08:10:25.999Z</time></trkpt><trkpt lat="45.70024070328499" lon="6.940767663056109"><ele>2060.333333333333</ele><time>2026-04-08T08:10:27.999Z</time></trkpt><trkpt lat="45.70014369084926" lon="6.940717907157391"><ele>2068.0</ele><time>2026-04-08T08:10:30.999Z</time></trkpt><trkpt lat="45.70008459599484" lon="6.940675310151999"><ele>2075.6666666666665</ele><time>2026-04-08T08:10:32.999Z</time></trkpt><trkpt lat="45.70001837311047" lon="6.940634907818549"><ele>2083.3333333333335</ele><time>2026-04-08T08:10:34.999Z</time></trkpt><trkpt lat="45.69995945801036" lon="6.940579748713938"><ele>2091.0</ele><time>2026-04-08T08:10:36.999Z</time></trkpt><trkpt lat="45.69988795804103" lon="6.94054803668095"><ele>2091.0</ele><time>2026-04-08T08:10:38.999Z</time></trkpt><trkpt lat="45.69982533362748" lon="6.940492622416888"><ele>2091.0</ele><time>2026-04-08T08:10:40.999Z</time></trkpt><trkpt lat="45.69976988756116" lon="6.940441543813772"><ele>2091.0</ele><time>2026-04-08T08:10:42.999Z</time></trkpt><trkpt lat="45.69971414746122" lon="6.940389455508995"><ele>2091.0</ele><time>2026-04-08T08:10:44.999Z</time></trkpt><trkpt lat="45.6996527088996" lon="6.940345423531457"><ele>2091.0</ele><time>2026-04-08T08:10:46.999Z</time></trkpt><trkpt lat="45.69958884749853" lon="6.940281683992391"><ele>2091.0</ele><time>2026-04-08T08:10:49.999Z</time></trkpt><trkpt lat="45.69951674975257" lon="6.940263502146096"><ele>2091.0</ele><time>2026-04-08T08:10:51.999Z</time></trkpt><trkpt lat="45.69944194637944" lon="6.940233829883497"><ele>2095.285714285714</ele><time>2026-04-08T08:10:53.999Z</time></trkpt><trkpt lat="45.69937763744801" lon="6.940158611980726"><ele>2099.5714285714284</ele><time>2026-04-08T08:10:56.998Z</time></trkpt><trkpt lat="45.69931488627578" lon="6.940099351520796"><ele>2103.857142857143</ele><time>2026-04-08T08:10:58.998Z</time></trkpt><trkpt lat="45.69926126316536" lon="6.9400223735662045"><ele>2108.142857142857</ele><time>2026-04-08T08:11:01.998Z</time></trkpt><trkpt lat="45.69920691590053" lon="6.939975423876351"><ele>2112.4285714285716</ele><time>2026-04-08T08:11:03.998Z</time></trkpt><trkpt lat="45.69913996992351" lon="6.939917962005279"><ele>2116.714285714286</ele><time>2026-04-08T08:11:05.998Z</time></trkpt><trkpt lat="45.699076024875254" lon="6.939879535416073"><ele>2121.0</ele><time>2026-04-08T08:11:07.998Z</time></trkpt><trkpt lat="45.69900627961749" lon="6.939823522199616"><ele>2126.2</ele><time>2026-04-08T08:11:11Z</time></trkpt><trkpt lat="45.698939382179276" lon="6.939775189904271"><ele>2131.3999999999996</ele><time>2026-04-08T08:11:13Z</time></trkpt><trkpt lat="45.69888230090108" lon="6.939733622017855"><ele>2136.6</ele><time>2026-04-08T08:11:15Z</time></trkpt><trkpt lat="45.69881521611902" lon="6.939664984617326"><ele>2141.7999999999997</ele><time>2026-04-08T08:11:18Z</time></trkpt><trkpt lat="45.698752657095625" lon="6.939609267100672"><ele>2147.0</ele><time>2026-04-08T08:11:20Z</time></trkpt><trkpt lat="45.698548517458335" lon="6.939925484271101"><ele>2154.5</ele><time>2026-04-08T08:12:43.238Z</time></trkpt><trkpt lat="45.69838755343376" lon="6.939386362246729"><ele>2162.0</ele><time>2026-04-08T08:12:44.556Z</time></trkpt><trkpt lat="45.69834732626397" lon="6.939273429726582"><ele>2161.0</ele><time>2026-04-08T08:12:50.548Z</time></trkpt><trkpt lat="45.69833256894464" lon="6.939143476461506"><ele>2160.0</ele><time>2026-04-08T08:13:00.701Z</time></trkpt><trkpt lat="45.69845692332577" lon="6.938969919656308"><ele>2159.0</ele><time>2026-04-08T08:13:03.57Z</time></trkpt><trkpt lat="45.69856046345543" lon="6.9387751583801265"><ele>2158.0</ele><time>2026-04-08T08:13:05.998Z</time></trkpt><trkpt lat="45.699273735753636" lon="6.938761337537877"><ele>2158.0</ele><time>2026-04-08T08:13:10.998Z</time></trkpt><trkpt lat="45.69908032351478" lon="6.938821873969593"><ele>2158.0</ele><time>2026-04-08T08:13:11.998Z</time></trkpt><trkpt lat="45.69858330493898" lon="6.9389475969134855"><ele>2158.0</ele><time>2026-04-08T08:13:14.998Z</time></trkpt><trkpt lat="45.698511530288286" lon="6.938954842598927"><ele>2158.0</ele><time>2026-04-08T08:13:16Z</time></trkpt><trkpt lat="45.6984463197742" lon="6.938977174373132"><ele>2158.0</ele><time>2026-04-08T08:13:19Z</time></trkpt><trkpt lat="45.69837719115388" lon="6.939003165532627"><ele>2158.0</ele><time>2026-04-08T08:13:25Z</time></trkpt><trkpt lat="45.698434999944745" lon="6.93905764800412"><ele>2158.0</ele><time>2026-04-08T08:13:51.999Z</time></trkpt><trkpt lat="45.69851486188309" lon="6.939072999392931"><ele>2158.0</ele><time>2026-04-08T08:13:54.999Z</time></trkpt><trkpt lat="45.69857194582064" lon="6.939117596435248"><ele>2158.0</ele><time>2026-04-08T08:13:58.999Z</time></trkpt><trkpt lat="45.698642865337085" lon="6.939113174100781"><ele>2158.0</ele><time>2026-04-08T08:14:02.999Z</time></trkpt><trkpt lat="45.6987164386162" lon="6.939045609703283"><ele>2158.0</ele><time>2026-04-08T08:14:05.999Z</time></trkpt><trkpt lat="45.698787193893345" lon="6.939005273396185"><ele>2158.0</ele><time>2026-04-08T08:14:07.999Z</time></trkpt><trkpt lat="45.69888333923459" lon="6.939037081955444"><ele>2158.0</ele><time>2026-04-08T08:14:09.999Z</time></trkpt><trkpt lat="45.698896197019785" lon="6.939128474490366"><ele>2158.0</ele><time>2026-04-08T08:14:13.999Z</time></trkpt><trkpt lat="45.69895502603312" lon="6.9391946667647915"><ele>2158.0</ele><time>2026-04-08T08:14:15.999Z</time></trkpt><trkpt lat="45.69902320841328" lon="6.939099876004105"><ele>2158.0</ele><time>2026-04-08T08:14:18.999Z</time></trkpt><trkpt lat="45.69908312151326" lon="6.938975014363866"><ele>2158.0</ele><time>2026-04-08T08:14:21.999Z</time></trkpt><trkpt lat="45.6991405352295" lon="6.938919823544576"><ele>2158.0</ele><time>2026-04-08T08:14:23.999Z</time></trkpt><trkpt lat="45.69935841536769" lon="6.938817995165696"><ele>2158.0</ele><time>2026-04-08T08:14:28.999Z</time></trkpt><trkpt lat="45.69946234106632" lon="6.938762315831829"><ele>2152.0</ele><time>2026-04-08T08:14:30.999Z</time></trkpt><trkpt lat="45.699533996880064" lon="6.938699848504401"><ele>2146.0</ele><time>2026-04-08T08:14:32.999Z</time></trkpt><trkpt lat="45.69965221460446" lon="6.938653057233429"><ele>2140.0</ele><time>2026-04-08T08:14:34.999Z</time></trkpt><trkpt lat="45.699732615341254" lon="6.938564885498274"><ele>2134.0</ele><time>2026-04-08T08:14:36.999Z</time></trkpt><trkpt lat="45.699804821738546" lon="6.9384853310836965"><ele>2128.0</ele><time>2026-04-08T08:14:38.999Z</time></trkpt><trkpt lat="45.69986910560825" lon="6.938384800562676"><ele>2130.4</ele><time>2026-04-08T08:14:40.999Z</time></trkpt><trkpt lat="45.69993229864715" lon="6.9382444696264765"><ele>2132.8</ele><time>2026-04-08T08:14:42.999Z</time></trkpt><trkpt lat="45.69998871356816" lon="6.9381833774467445"><ele>2135.2</ele><time>2026-04-08T08:14:43.999Z</time></trkpt><trkpt lat="45.70003920496195" lon="6.938047967670449"><ele>2137.6</ele><time>2026-04-08T08:14:45.999Z</time></trkpt><trkpt lat="45.700108848823795" lon="6.937907418527385"><ele>2140.0</ele><time>2026-04-08T08:14:47.999Z</time></trkpt><trkpt lat="45.70017751884382" lon="6.9378011670916395"><ele>2135.0</ele><time>2026-04-08T08:14:49.999Z</time></trkpt><trkpt lat="45.70027058755873" lon="6.937703655323108"><ele>2130.0</ele><time>2026-04-08T08:14:51.999Z</time></trkpt><trkpt lat="45.70035130870187" lon="6.93762643576076"><ele>2125.0</ele><time>2026-04-08T08:14:53.999Z</time></trkpt><trkpt lat="45.700440138006456" lon="6.937562023193848"><ele>2120.0</ele><time>2026-04-08T08:14:55.999Z</time></trkpt><trkpt lat="45.70048509865462" lon="6.937668373805059"><ele>2115.0</ele><time>2026-04-08T08:14:58.999Z</time></trkpt><trkpt lat="45.700508318330364" lon="6.937784794884255"><ele>2115.0</ele><time>2026-04-08T08:14:59.999Z</time></trkpt><trkpt lat="45.70051778823014" lon="6.937918692880698"><ele>2115.0</ele><time>2026-04-08T08:15:01.999Z</time></trkpt><trkpt lat="45.70051160768596" lon="6.9380494223448475"><ele>2115.0</ele><time>2026-04-08T08:15:03.999Z</time></trkpt><trkpt lat="45.70048746638126" lon="6.938204990966546"><ele>2115.0</ele><time>2026-04-08T08:15:05.999Z</time></trkpt><trkpt lat="45.7004702840221" lon="6.938347148076878"><ele>2115.0</ele><time>2026-04-08T08:15:07.999Z</time></trkpt><trkpt lat="45.70051962859085" lon="6.938453959686781"><ele>2115.0</ele><time>2026-04-08T08:15:09.999Z</time></trkpt><trkpt lat="45.700709063123846" lon="6.938339221007239"><ele>2115.0</ele><time>2026-04-08T08:15:13.999Z</time></trkpt><trkpt lat="45.70081573449019" lon="6.938338506778906"><ele>2115.0</ele><time>2026-04-08T08:15:15.998Z</time></trkpt><trkpt lat="45.70085795576773" lon="6.938493848069758"><ele>2115.0</ele><time>2026-04-08T08:15:17.998Z</time></trkpt><trkpt lat="45.70087787156985" lon="6.9385846549720025"><ele>2113.0</ele><time>2026-04-08T08:15:18.998Z</time></trkpt><trkpt lat="45.70092867487434" lon="6.938645498097203"><ele>2111.0</ele><time>2026-04-08T08:15:19.998Z</time></trkpt><trkpt lat="45.70099139643359" lon="6.938616650681378"><ele>2109.0</ele><time>2026-04-08T08:15:20.998Z</time></trkpt><trkpt lat="45.70106244043548" lon="6.938625173681381"><ele>2107.0</ele><time>2026-04-08T08:15:22Z</time></trkpt><trkpt lat="45.70116451095174" lon="6.938578127270334"><ele>2105.0</ele><time>2026-04-08T08:15:24Z</time></trkpt><trkpt lat="45.701259629100214" lon="6.938555530039621"><ele>2103.0</ele><time>2026-04-08T08:15:26Z</time></trkpt><trkpt lat="45.701524942714734" lon="6.938602127227805"><ele>2100.5</ele><time>2026-04-08T08:15:33Z</time></trkpt><trkpt lat="45.70158412823989" lon="6.938667127917274"><ele>2098.0</ele><time>2026-04-08T08:15:35Z</time></trkpt><trkpt lat="45.701621765545084" lon="6.9388156200118605"><ele>2095.5</ele><time>2026-04-08T08:15:37Z</time></trkpt><trkpt lat="45.701684006174354" lon="6.938838610900363"><ele>2093.0</ele><time>2026-04-08T08:15:38Z</time></trkpt><trkpt lat="45.70177848532543" lon="6.938760203784524"><ele>2090.5</ele><time>2026-04-08T08:15:40Z</time></trkpt><trkpt lat="45.701843163531755" lon="6.938812832431913"><ele>2088.0</ele><time>2026-04-08T08:15:42Z</time></trkpt><trkpt lat="45.70188465917027" lon="6.938886740592505"><ele>2085.6666666666665</ele><time>2026-04-08T08:15:44Z</time></trkpt><trkpt lat="45.701951328454065" lon="6.938873733867339"><ele>2083.3333333333335</ele><time>2026-04-08T08:15:46Z</time></trkpt><trkpt lat="45.70204633886313" lon="6.938912670149296"><ele>2081.0</ele><time>2026-04-08T08:15:48Z</time></trkpt><trkpt lat="45.70212005287349" lon="6.939030310095691"><ele>2078.666666666667</ele><time>2026-04-08T08:15:50.999Z</time></trkpt><trkpt lat="45.702184952163265" lon="6.93914156796568"><ele>2076.3333333333335</ele><time>2026-04-08T08:15:52.999Z</time></trkpt><trkpt lat="45.70225179946989" lon="6.939117689806697"><ele>2074.0</ele><time>2026-04-08T08:15:55.999Z</time></trkpt><trkpt lat="45.70229421799405" lon="6.939049484038995"><ele>2074.0</ele><time>2026-04-08T08:16:03.999Z</time></trkpt><trkpt lat="45.7023415412712" lon="6.9389820333247805"><ele>2074.0</ele><time>2026-04-08T08:16:36.999Z</time></trkpt><trkpt lat="45.70238319276306" lon="6.938913994663717"><ele>2074.0</ele><time>2026-04-08T08:17:00.999Z</time></trkpt><trkpt lat="45.702335389591646" lon="6.9388475093102"><ele>2074.0</ele><time>2026-04-08T08:17:12.999Z</time></trkpt><trkpt lat="45.702330651318434" lon="6.938755602331352"><ele>2074.0</ele><time>2026-04-08T08:17:21.999Z</time></trkpt><trkpt lat="45.7022738271288" lon="6.9386589636965095"><ele>2074.0</ele><time>2026-04-08T08:17:28Z</time></trkpt><trkpt lat="45.70219411834332" lon="6.938580618912853"><ele>2074.0</ele><time>2026-04-08T08:17:31Z</time></trkpt><trkpt lat="45.702129551671646" lon="6.938471167444815"><ele>2074.0</ele><time>2026-04-08T08:17:32Z</time></trkpt><trkpt lat="45.702087159647036" lon="6.938401558652545"><ele>2074.0</ele><time>2026-04-08T08:17:33Z</time></trkpt><trkpt lat="45.70203593527914" lon="6.93833993036384"><ele>2074.0</ele><time>2026-04-08T08:17:34Z</time></trkpt><trkpt lat="45.70195534703501" lon="6.938242286739236"><ele>2074.0</ele><time>2026-04-08T08:17:37Z</time></trkpt><trkpt lat="45.70192563296962" lon="6.938158505653026"><ele>2074.0</ele><time>2026-04-08T08:17:41Z</time></trkpt><trkpt lat="45.70188864868942" lon="6.938076946229112"><ele>2074.0</ele><time>2026-04-08T08:17:45Z</time></trkpt><trkpt lat="45.701840886440486" lon="6.937997998406194"><ele>2074.0</ele><time>2026-04-08T08:17:48Z</time></trkpt><trkpt lat="45.701782620382964" lon="6.937883452163301"><ele>2078.5</ele><time>2026-04-08T08:17:50Z</time></trkpt><trkpt lat="45.701728450701054" lon="6.937791436179536"><ele>2083.0</ele><time>2026-04-08T08:17:52Z</time></trkpt><trkpt lat="45.70169394460725" lon="6.937692684518554"><ele>2087.5</ele><time>2026-04-08T08:17:54Z</time></trkpt><trkpt lat="45.70164274442985" lon="6.93760738984497"><ele>2092.0</ele><time>2026-04-08T08:17:56Z</time></trkpt><trkpt lat="45.70159596166115" lon="6.937516056001702"><ele>2096.5</ele><time>2026-04-08T08:17:58Z</time></trkpt><trkpt lat="45.70154610285927" lon="6.937415785323317"><ele>2101.0</ele><time>2026-04-08T08:18:00Z</time></trkpt><trkpt lat="45.70148891118501" lon="6.937333591867789"><ele>2102.3333333333335</ele><time>2026-04-08T08:18:02Z</time></trkpt><trkpt lat="45.70142760331548" lon="6.937262088199313"><ele>2103.666666666667</ele><time>2026-04-08T08:18:03.999Z</time></trkpt><trkpt lat="45.70136502061739" lon="6.93717626900248"><ele>2105.0</ele><time>2026-04-08T08:18:05.999Z</time></trkpt><trkpt lat="45.70131830456483" lon="6.93708906326006"><ele>2106.3333333333335</ele><time>2026-04-08T08:18:07.999Z</time></trkpt><trkpt lat="45.70127064470063" lon="6.937000986736402"><ele>2107.6666666666665</ele><time>2026-04-08T08:18:09.999Z</time></trkpt><trkpt lat="45.701225874978874" lon="6.936929645639214"><ele>2109.0</ele><time>2026-04-08T08:18:11.999Z</time></trkpt><trkpt lat="45.701166539373496" lon="6.936846817777968"><ele>2109.0</ele><time>2026-04-08T08:18:13.999Z</time></trkpt><trkpt lat="45.701117011133974" lon="6.936771649451493"><ele>2109.0</ele><time>2026-04-08T08:18:16.999Z</time></trkpt><trkpt lat="45.70104206490357" lon="6.936663949132103"><ele>2109.0</ele><time>2026-04-08T08:18:18.999Z</time></trkpt><trkpt lat="45.70098785323893" lon="6.936550000780828"><ele>2109.0</ele><time>2026-04-08T08:18:21.999Z</time></trkpt><trkpt lat="45.700950835371216" lon="6.93646675506578"><ele>2109.0</ele><time>2026-04-08T08:18:23.999Z</time></trkpt><trkpt lat="45.70089953722903" lon="6.936383436652091"><ele>2109.0</ele><time>2026-04-08T08:18:25.999Z</time></trkpt><trkpt lat="45.70085292794752" lon="6.9362998379094485"><ele>2113.6666666666665</ele><time>2026-04-08T08:18:27.999Z</time></trkpt><trkpt lat="45.70080867107997" lon="6.936218604495611"><ele>2118.3333333333335</ele><time>2026-04-08T08:18:29.999Z</time></trkpt><trkpt lat="45.70074242597935" lon="6.936111315092149"><ele>2123.0</ele><time>2026-04-08T08:18:31.999Z</time></trkpt><trkpt lat="45.70068857088223" lon="6.936020897931036"><ele>2127.666666666667</ele><time>2026-04-08T08:18:33.999Z</time></trkpt><trkpt lat="45.700630650127934" lon="6.935925403863445"><ele>2132.3333333333335</ele><time>2026-04-08T08:18:35.999Z</time></trkpt><trkpt lat="45.700573005032524" lon="6.935839102652326"><ele>2137.0</ele><time>2026-04-08T08:18:37.999Z</time></trkpt><trkpt lat="45.700511855472314" lon="6.935743790544004"><ele>2137.1428571428573</ele><time>2026-04-08T08:18:39.999Z</time></trkpt><trkpt lat="45.70046002420698" lon="6.93565942839783"><ele>2137.285714285714</ele><time>2026-04-08T08:18:42.999Z</time></trkpt><trkpt lat="45.70042249498264" lon="6.935581351976938"><ele>2137.4285714285716</ele><time>2026-04-08T08:18:45.999Z</time></trkpt><trkpt lat="45.700387281940635" lon="6.935488585496301"><ele>2137.5714285714284</ele><time>2026-04-08T08:18:48.999Z</time></trkpt><trkpt lat="45.7003346943465" lon="6.935420498102728"><ele>2137.714285714286</ele><time>2026-04-08T08:18:51.999Z</time></trkpt><trkpt lat="45.70027655945193" lon="6.93533712050261"><ele>2137.857142857143</ele><time>2026-04-08T08:18:54.999Z</time></trkpt><trkpt lat="45.70023218457671" lon="6.935259770845609"><ele>2138.0</ele><time>2026-04-08T08:18:56.999Z</time></trkpt><trkpt lat="45.70017923222587" lon="6.9351673995414576"><ele>2141.833333333333</ele><time>2026-04-08T08:18:58.999Z</time></trkpt><trkpt lat="45.70012834837343" lon="6.9350721370364585"><ele>2145.6666666666665</ele><time>2026-04-08T08:19:00.999Z</time></trkpt><trkpt lat="45.700070969510165" lon="6.934984130445172"><ele>2149.5</ele><time>2026-04-08T08:19:02.999Z</time></trkpt><trkpt lat="45.70002178916275" lon="6.934897054145463"><ele>2153.3333333333335</ele><time>2026-04-08T08:19:04.999Z</time></trkpt><trkpt lat="45.69996742527989" lon="6.934812671376514"><ele>2157.166666666667</ele><time>2026-04-08T08:19:06.999Z</time></trkpt><trkpt lat="45.69992075359136" lon="6.934717424100955"><ele>2161.0</ele><time>2026-04-08T08:19:08.999Z</time></trkpt><trkpt lat="45.69986800770087" lon="6.934633557584063"><ele>2161.0</ele><time>2026-04-08T08:19:10.999Z</time></trkpt><trkpt lat="45.69981915006065" lon="6.934540614166422"><ele>2161.0</ele><time>2026-04-08T08:19:12.999Z</time></trkpt><trkpt lat="45.69976485612777" lon="6.9344435712875825"><ele>2161.0</ele><time>2026-04-08T08:19:14.999Z</time></trkpt><trkpt lat="45.69970642402598" lon="6.9343631812314355"><ele>2161.0</ele><time>2026-04-08T08:19:16.999Z</time></trkpt><trkpt lat="45.69965594217042" lon="6.934286082663795"><ele>2161.0</ele><time>2026-04-08T08:19:18.999Z</time></trkpt><trkpt lat="45.69960027520768" lon="6.934165684755853"><ele>2161.0</ele><time>2026-04-08T08:19:21.999Z</time></trkpt><trkpt lat="45.699554956692594" lon="6.934082493928725"><ele>2160.714285714286</ele><time>2026-04-08T08:19:23.999Z</time></trkpt><trkpt lat="45.69951049978325" lon="6.934002712597426"><ele>2160.4285714285716</ele><time>2026-04-08T08:19:25.999Z</time></trkpt><trkpt lat="45.69945999554254" lon="6.933922517738645"><ele>2160.1428571428573</ele><time>2026-04-08T08:19:27.999Z</time></trkpt><trkpt lat="45.69940756136543" lon="6.933831241212355"><ele>2159.857142857143</ele><time>2026-04-08T08:19:29.999Z</time></trkpt><trkpt lat="45.699372452038006" lon="6.933752775438867"><ele>2159.571428571429</ele><time>2026-04-08T08:19:31.999Z</time></trkpt><trkpt lat="45.69932731580578" lon="6.933673090125298"><ele>2159.285714285714</ele><time>2026-04-08T08:19:34Z</time></trkpt><trkpt lat="45.6992859448977" lon="6.933603014916472"><ele>2159.0</ele><time>2026-04-08T08:19:36Z</time></trkpt><trkpt lat="45.69924639373358" lon="6.933531772041278"><ele>2162.6666666666665</ele><time>2026-04-08T08:19:38Z</time></trkpt><trkpt lat="45.69919997609231" lon="6.9334586100030435"><ele>2166.333333333333</ele><time>2026-04-08T08:19:40Z</time></trkpt><trkpt lat="45.699144840962845" lon="6.933379992538928"><ele>2170.0</ele><time>2026-04-08T08:19:42Z</time></trkpt><trkpt lat="45.69909657475101" lon="6.9332976353575795"><ele>2173.6666666666665</ele><time>2026-04-08T08:19:44Z</time></trkpt><trkpt lat="45.69905019708401" lon="6.933197407899494"><ele>2177.3333333333335</ele><time>2026-04-08T08:19:46Z</time></trkpt><trkpt lat="45.6990054349537" lon="6.933107882403034"><ele>2181.0</ele><time>2026-04-08T08:19:48Z</time></trkpt><trkpt lat="45.698954143684844" lon="6.9330231100709305"><ele>2181.1666666666665</ele><time>2026-04-08T08:19:50Z</time></trkpt><trkpt lat="45.69889620521619" lon="6.932932970035843"><ele>2181.3333333333335</ele><time>2026-04-08T08:19:52Z</time></trkpt><trkpt lat="45.69885240129882" lon="6.932854037151818"><ele>2181.5</ele><time>2026-04-08T08:19:54Z</time></trkpt><trkpt lat="45.69881352237807" lon="6.932768638995623"><ele>2181.666666666667</ele><time>2026-04-08T08:19:56Z</time></trkpt><trkpt lat="45.69875609522195" lon="6.932683083815393"><ele>2181.8333333333335</ele><time>2026-04-08T08:19:58Z</time></trkpt><trkpt lat="45.69871257096713" lon="6.9326013739423775"><ele>2182.0</ele><time>2026-04-08T08:20:00Z</time></trkpt><trkpt lat="45.69866011219542" lon="6.932527252593048"><ele>2182.666666666667</ele><time>2026-04-08T08:20:02Z</time></trkpt><trkpt lat="45.69861515330309" lon="6.932452435865132"><ele>2183.3333333333335</ele><time>2026-04-08T08:20:03.999Z</time></trkpt><trkpt lat="45.69855988575346" lon="6.932376776451169"><ele>2184.0</ele><time>2026-04-08T08:20:05.999Z</time></trkpt><trkpt lat="45.698514969878694" lon="6.9322896024806795"><ele>2184.6666666666665</ele><time>2026-04-08T08:20:07.999Z</time></trkpt><trkpt lat="45.69846774786847" lon="6.932215894064622"><ele>2185.333333333333</ele><time>2026-04-08T08:20:09.999Z</time></trkpt><trkpt lat="45.69841224530811" lon="6.932106158471654"><ele>2186.0</ele><time>2026-04-08T08:20:12.999Z</time></trkpt><trkpt lat="45.69837132200963" lon="6.9320317143904"><ele>2189.0</ele><time>2026-04-08T08:20:14.999Z</time></trkpt><trkpt lat="45.69831395575446" lon="6.931946819015627"><ele>2192.0</ele><time>2026-04-08T08:20:16.999Z</time></trkpt><trkpt lat="45.698252970328646" lon="6.931860423872152"><ele>2195.0</ele><time>2026-04-08T08:20:18.999Z</time></trkpt><trkpt lat="45.69819030910256" lon="6.931762873977669"><ele>2198.0</ele><time>2026-04-08T08:20:20.999Z</time></trkpt><trkpt lat="45.69813884575496" lon="6.93168228040089"><ele>2201.0</ele><time>2026-04-08T08:20:22.999Z</time></trkpt><trkpt lat="45.69808678635384" lon="6.931595266336531"><ele>2204.0</ele><time>2026-04-08T08:20:24.999Z</time></trkpt><trkpt lat="45.6980481304617" lon="6.931517621821193"><ele>2204.285714285714</ele><time>2026-04-08T08:20:26.999Z</time></trkpt><trkpt lat="45.69800597233497" lon="6.931450331943128"><ele>2204.5714285714284</ele><time>2026-04-08T08:20:28.999Z</time></trkpt><trkpt lat="45.69796727880779" lon="6.931370251061107"><ele>2204.857142857143</ele><time>2026-04-08T08:20:30.999Z</time></trkpt><trkpt lat="45.697917582766806" lon="6.931285233115573"><ele>2205.142857142857</ele><time>2026-04-08T08:20:32.999Z</time></trkpt><trkpt lat="45.6978526974403" lon="6.931192764013864"><ele>2205.4285714285716</ele><time>2026-04-08T08:20:35.999Z</time></trkpt><trkpt lat="45.697811157959904" lon="6.93110342555188"><ele>2205.714285714286</ele><time>2026-04-08T08:20:37.999Z</time></trkpt><trkpt lat="45.69777455363307" lon="6.931019078292293"><ele>2206.0</ele><time>2026-04-08T08:20:39.999Z</time></trkpt><trkpt lat="45.69772024042664" lon="6.9309492587509975"><ele>2215.166666666667</ele><time>2026-04-08T08:20:41.999Z</time></trkpt><trkpt lat="45.697657823740876" lon="6.930846638467925"><ele>2224.3333333333335</ele><time>2026-04-08T08:20:44.999Z</time></trkpt><trkpt lat="45.697610038910696" lon="6.930763225290617"><ele>2233.5</ele><time>2026-04-08T08:20:46.999Z</time></trkpt><trkpt lat="45.697568320720734" lon="6.930677357985867"><ele>2242.6666666666665</ele><time>2026-04-08T08:20:48.999Z</time></trkpt><trkpt lat="45.69751966662279" lon="6.9306120481230895"><ele>2251.833333333333</ele><time>2026-04-08T08:20:50.999Z</time></trkpt><trkpt lat="45.69747903479981" lon="6.930520701836313"><ele>2261.0</ele><time>2026-04-08T08:20:52.999Z</time></trkpt><trkpt lat="45.697429036778296" lon="6.930447697118317"><ele>2261.0</ele><time>2026-04-08T08:20:54.999Z</time></trkpt><trkpt lat="45.697372071648765" lon="6.930378814893263"><ele>2261.0</ele><time>2026-04-08T08:20:56.999Z</time></trkpt><trkpt lat="45.69732287831109" lon="6.930302683078056"><ele>2261.0</ele><time>2026-04-08T08:20:58.999Z</time></trkpt><trkpt lat="45.69728155582921" lon="6.930230934115366"><ele>2261.0</ele><time>2026-04-08T08:21:00.999Z</time></trkpt><trkpt lat="45.697226151679345" lon="6.930129298249055"><ele>2261.0</ele><time>2026-04-08T08:21:03.999Z</time></trkpt><trkpt lat="45.697182551013334" lon="6.930057994540143"><ele>2261.0</ele><time>2026-04-08T08:21:05.999Z</time></trkpt><trkpt lat="45.697130584905" lon="6.929969534283186"><ele>2261.0</ele><time>2026-04-08T08:21:07.999Z</time></trkpt><trkpt lat="45.697080857238056" lon="6.929878527621701"><ele>2264.6666666666665</ele><time>2026-04-08T08:21:09.999Z</time></trkpt><trkpt lat="45.69703281950209" lon="6.929798364428303"><ele>2268.333333333333</ele><time>2026-04-08T08:21:11.999Z</time></trkpt><trkpt lat="45.696992933357905" lon="6.92970048479517"><ele>2272.0</ele><time>2026-04-08T08:21:13.999Z</time></trkpt><trkpt lat="45.696934679113646" lon="6.929609319402662"><ele>2275.6666666666665</ele><time>2026-04-08T08:21:15.999Z</time></trkpt><trkpt lat="45.696884505022325" lon="6.929534353253084"><ele>2279.3333333333335</ele><time>2026-04-08T08:21:17.999Z</time></trkpt><trkpt lat="45.69684819184908" lon="6.929457329240085"><ele>2283.0</ele><time>2026-04-08T08:21:19.999Z</time></trkpt><trkpt lat="45.69679228520473" lon="6.9293627087203005"><ele>2283.0</ele><time>2026-04-08T08:21:21.999Z</time></trkpt><trkpt lat="45.69673897744625" lon="6.929278970245344"><ele>2283.0</ele><time>2026-04-08T08:21:23.999Z</time></trkpt><trkpt lat="45.69669259105261" lon="6.929161777757143"><ele>2283.0</ele><time>2026-04-08T08:21:26.999Z</time></trkpt><trkpt lat="45.69664691436176" lon="6.929077893685834"><ele>2283.0</ele><time>2026-04-08T08:21:28.999Z</time></trkpt><trkpt lat="45.69660058451625" lon="6.928992308925062"><ele>2283.0</ele><time>2026-04-08T08:21:30.999Z</time></trkpt><trkpt lat="45.69655220983646" lon="6.928906468842127"><ele>2283.0</ele><time>2026-04-08T08:21:32.999Z</time></trkpt><trkpt lat="45.69650768316613" lon="6.928819523991935"><ele>2284.857142857143</ele><time>2026-04-08T08:21:34.999Z</time></trkpt><trkpt lat="45.696454271294535" lon="6.92874547539627"><ele>2286.714285714286</ele><time>2026-04-08T08:21:36.999Z</time></trkpt><trkpt lat="45.696409994531344" lon="6.928664704497209"><ele>2288.5714285714284</ele><time>2026-04-08T08:21:39Z</time></trkpt><trkpt lat="45.69636341029764" lon="6.928588206410948"><ele>2290.4285714285716</ele><time>2026-04-08T08:21:41Z</time></trkpt><trkpt lat="45.69631013593327" lon="6.928494161242798"><ele>2292.285714285714</ele><time>2026-04-08T08:21:43Z</time></trkpt><trkpt lat="45.69626697911077" lon="6.928402655970833"><ele>2294.1428571428573</ele><time>2026-04-08T08:21:45Z</time></trkpt><trkpt lat="45.69622806660628" lon="6.928325937854171"><ele>2296.0</ele><time>2026-04-08T08:21:47Z</time></trkpt><trkpt lat="45.69617970593638" lon="6.928253808678612"><ele>2297.0</ele><time>2026-04-08T08:21:49Z</time></trkpt><trkpt lat="45.69612449629747" lon="6.928158978455525"><ele>2298.0</ele><time>2026-04-08T08:21:51Z</time></trkpt><trkpt lat="45.69606328805904" lon="6.928065398809046"><ele>2299.0</ele><time>2026-04-08T08:21:53Z</time></trkpt><trkpt lat="45.695999361682176" lon="6.92797366550076"><ele>2300.0</ele><time>2026-04-08T08:21:55Z</time></trkpt><trkpt lat="45.695949121892674" lon="6.927880076386895"><ele>2301.0</ele><time>2026-04-08T08:21:57Z</time></trkpt><trkpt lat="45.695902109445484" lon="6.927806959748911"><ele>2302.0</ele><time>2026-04-08T08:21:59Z</time></trkpt><trkpt lat="45.69585179232271" lon="6.927717272309616"><ele>2302.0</ele><time>2026-04-08T08:22:01Z</time></trkpt><trkpt lat="45.695805277798634" lon="6.9276321289720775"><ele>2302.0</ele><time>2026-04-08T08:22:03Z</time></trkpt><trkpt lat="45.69576401427992" lon="6.927562879553644"><ele>2302.0</ele><time>2026-04-08T08:22:05Z</time></trkpt><trkpt lat="45.69569771630801" lon="6.927457041426138"><ele>2302.0</ele><time>2026-04-08T08:22:07.999Z</time></trkpt><trkpt lat="45.69565389578372" lon="6.927384871419949"><ele>2302.0</ele><time>2026-04-08T08:22:09.999Z</time></trkpt><trkpt lat="45.695602909409274" lon="6.927296392900457"><ele>2302.0</ele><time>2026-04-08T08:22:11.999Z</time></trkpt><trkpt lat="45.695551366847546" lon="6.927209536121829"><ele>2304.142857142857</ele><time>2026-04-08T08:22:13.999Z</time></trkpt><trkpt lat="45.69550663790785" lon="6.9271345962105055"><ele>2306.285714285714</ele><time>2026-04-08T08:22:15.999Z</time></trkpt><trkpt lat="45.69545865043103" lon="6.927055621107248"><ele>2308.4285714285716</ele><time>2026-04-08T08:22:17.999Z</time></trkpt><trkpt lat="45.69540807987862" lon="6.92698238440026"><ele>2310.5714285714284</ele><time>2026-04-08T08:22:19.999Z</time></trkpt><trkpt lat="45.69534597412832" lon="6.926911531593484"><ele>2312.714285714286</ele><time>2026-04-08T08:22:21.999Z</time></trkpt><trkpt lat="45.695303960355574" lon="6.926819756171572"><ele>2314.8571428571427</ele><time>2026-04-08T08:22:23.999Z</time></trkpt><trkpt lat="45.69525664654222" lon="6.926731378153511"><ele>2317.0</ele><time>2026-04-08T08:22:25.999Z</time></trkpt><trkpt lat="45.695205959854526" lon="6.926653322595319"><ele>2318.0</ele><time>2026-04-08T08:22:27.999Z</time></trkpt><trkpt lat="45.69515735761009" lon="6.9265572337035595"><ele>2319.0</ele><time>2026-04-08T08:22:29.999Z</time></trkpt><trkpt lat="45.69509504969786" lon="6.926463942543583"><ele>2320.0</ele><time>2026-04-08T08:22:31.999Z</time></trkpt><trkpt lat="45.695058770644536" lon="6.9263874555326455"><ele>2321.0</ele><time>2026-04-08T08:22:33.999Z</time></trkpt><trkpt lat="45.695010089359066" lon="6.926299789606799"><ele>2322.0</ele><time>2026-04-08T08:22:35.999Z</time></trkpt><trkpt lat="45.69495755570492" lon="6.9262117470019895"><ele>2323.0</ele><time>2026-04-08T08:22:37.999Z</time></trkpt><trkpt lat="45.69490644911216" lon="6.926128012025616"><ele>2322.9999999999995</ele><time>2026-04-08T08:22:39.999Z</time></trkpt><trkpt lat="45.69486627540266" lon="6.926042128111606"><ele>2323.0</ele><time>2026-04-08T08:22:41.999Z</time></trkpt><trkpt lat="45.69482041342691" lon="6.9259554516653665"><ele>2323.0</ele><time>2026-04-08T08:22:43.999Z</time></trkpt><trkpt lat="45.69477498681897" lon="6.925870987145032"><ele>2323.0</ele><time>2026-04-08T08:22:45.999Z</time></trkpt><trkpt lat="45.6947290555612" lon="6.925787889201629"><ele>2323.0</ele><time>2026-04-08T08:22:47.999Z</time></trkpt><trkpt lat="45.69467277094598" lon="6.9257082072377445"><ele>2322.9999999999995</ele><time>2026-04-08T08:22:49.999Z</time></trkpt><trkpt lat="45.69461963334353" lon="6.925635526167454"><ele>2323.0</ele><time>2026-04-08T08:22:51.999Z</time></trkpt><trkpt lat="45.69457189961037" lon="6.925556836634937"><ele>2324.166666666667</ele><time>2026-04-08T08:22:54.999Z</time></trkpt><trkpt lat="45.69452606810855" lon="6.92548304967332"><ele>2325.3333333333335</ele><time>2026-04-08T08:22:58.999Z</time></trkpt><trkpt lat="45.69447839188014" lon="6.925415294036117"><ele>2326.5</ele><time>2026-04-08T08:23:05.999Z</time></trkpt><trkpt lat="45.69442863298783" lon="6.925356653820978"><ele>2327.6666666666665</ele><time>2026-04-08T08:23:07.999Z</time></trkpt><trkpt lat="45.69436150221337" lon="6.925263680489931"><ele>2328.833333333333</ele><time>2026-04-08T08:23:10.999Z</time></trkpt><trkpt lat="45.69429658778663" lon="6.92525047735016"><ele>2330.0</ele><time>2026-04-08T08:23:18.999Z</time></trkpt><trkpt lat="45.69425240612074" lon="6.925127731576305"><ele>2330.0</ele><time>2026-04-08T08:25:30.999Z</time></trkpt><trkpt lat="45.69419971882038" lon="6.925040556968248"><ele>2330.0</ele><time>2026-04-08T08:25:35.999Z</time></trkpt><trkpt lat="45.694153615579296" lon="6.924969156747175"><ele>2330.0</ele><time>2026-04-08T08:25:37.999Z</time></trkpt><trkpt lat="45.69406788617821" lon="6.924955146099505"><ele>2330.0</ele><time>2026-04-08T08:25:39.999Z</time></trkpt><trkpt lat="45.69397753799336" lon="6.924992631806025"><ele>2330.0</ele><time>2026-04-08T08:25:41.999Z</time></trkpt><trkpt lat="45.69400552856934" lon="6.925159312241776"><ele>2330.0</ele><time>2026-04-08T08:25:43.999Z</time></trkpt><trkpt lat="45.6939487080782" lon="6.925212262512902"><ele>2330.0</ele><time>2026-04-08T08:25:45.999Z</time></trkpt><trkpt lat="45.69397776277363" lon="6.92532285669056"><ele>2330.0</ele><time>2026-04-08T08:25:48.999Z</time></trkpt><trkpt lat="45.69394567162353" lon="6.925440386640564"><ele>2330.0</ele><time>2026-04-08T08:25:51Z</time></trkpt><trkpt lat="45.69389941100114" lon="6.925549097603316"><ele>2330.0</ele><time>2026-04-08T08:25:53Z</time></trkpt><trkpt lat="45.693876106368805" lon="6.925693640633391"><ele>2330.0</ele><time>2026-04-08T08:25:55Z</time></trkpt><trkpt lat="45.69383881236494" lon="6.925770667394896"><ele>2330.0</ele><time>2026-04-08T08:25:56Z</time></trkpt><trkpt lat="45.69382008772507" lon="6.925888833832354"><ele>2328.0</ele><time>2026-04-08T08:25:57Z</time></trkpt><trkpt lat="45.69380560673863" lon="6.926000603714738"><ele>2326.0</ele><time>2026-04-08T08:25:58Z</time></trkpt><trkpt lat="45.69376937292154" lon="6.926145689651824"><ele>2324.0</ele><time>2026-04-08T08:26:00Z</time></trkpt><trkpt lat="45.69378050886672" lon="6.9262578671146375"><ele>2322.0</ele><time>2026-04-08T08:26:01Z</time></trkpt><trkpt lat="45.69378501035684" lon="6.926379000096251"><ele>2320.0</ele><time>2026-04-08T08:26:02Z</time></trkpt><trkpt lat="45.693795772943275" lon="6.926491097081791"><ele>2318.0</ele><time>2026-04-08T08:26:03Z</time></trkpt><trkpt lat="45.69381094788935" lon="6.926590450731367"><ele>2318.0</ele><time>2026-04-08T08:26:04Z</time></trkpt><trkpt lat="45.69382632173559" lon="6.926709407955597"><ele>2318.0</ele><time>2026-04-08T08:26:05Z</time></trkpt><trkpt lat="45.69384795414987" lon="6.9268093616685915"><ele>2318.0</ele><time>2026-04-08T08:26:06Z</time></trkpt><trkpt lat="45.69386942505243" lon="6.926947266706815"><ele>2318.0</ele><time>2026-04-08T08:26:07Z</time></trkpt><trkpt lat="45.6939031257524" lon="6.927073858755214"><ele>2318.0</ele><time>2026-04-08T08:26:08Z</time></trkpt><trkpt lat="45.69394208688097" lon="6.927169140902212"><ele>2318.0</ele><time>2026-04-08T08:26:09Z</time></trkpt><trkpt lat="45.693986151163685" lon="6.927269790716363"><ele>2315.6666666666665</ele><time>2026-04-08T08:26:10Z</time></trkpt><trkpt lat="45.69402748515744" lon="6.92735923825177"><ele>2313.333333333333</ele><time>2026-04-08T08:26:11Z</time></trkpt><trkpt lat="45.69407928911057" lon="6.927461904808383"><ele>2311.0</ele><time>2026-04-08T08:26:12Z</time></trkpt><trkpt lat="45.69412823056445" lon="6.927560090736069"><ele>2308.6666666666665</ele><time>2026-04-08T08:26:13Z</time></trkpt><trkpt lat="45.69418466678176" lon="6.927640459256548"><ele>2306.3333333333335</ele><time>2026-04-08T08:26:14Z</time></trkpt><trkpt lat="45.694242703916096" lon="6.927707116150744"><ele>2304.0</ele><time>2026-04-08T08:26:15Z</time></trkpt><trkpt lat="45.694293708177234" lon="6.927853186875937"><ele>2303.3333333333335</ele><time>2026-04-08T08:26:17Z</time></trkpt><trkpt lat="45.694348564041626" lon="6.927994172894376"><ele>2302.6666666666665</ele><time>2026-04-08T08:26:19Z</time></trkpt><trkpt lat="45.69439567260869" lon="6.928074851926753"><ele>2302.0</ele><time>2026-04-08T08:26:21Z</time></trkpt><trkpt lat="45.694392309834846" lon="6.928170434904014"><ele>2301.333333333333</ele><time>2026-04-08T08:26:23.999Z</time></trkpt><trkpt lat="45.69440750822611" lon="6.928270683268707"><ele>2300.6666666666665</ele><time>2026-04-08T08:26:29.999Z</time></trkpt><trkpt lat="45.69446337412335" lon="6.928375799843452"><ele>2300.0</ele><time>2026-04-08T08:26:39.999Z</time></trkpt><trkpt lat="45.69453792892315" lon="6.928386009352689"><ele>2300.0</ele><time>2026-04-08T08:26:43.999Z</time></trkpt><trkpt lat="45.69455243702942" lon="6.928286269530949"><ele>2300.0</ele><time>2026-04-08T08:26:56.999Z</time></trkpt><trkpt lat="45.69454113361098" lon="6.928189174862188"><ele>2300.0</ele><time>2026-04-08T08:27:04.999Z</time></trkpt><trkpt lat="45.69451642142611" lon="6.928097143126554"><ele>2300.0</ele><time>2026-04-08T08:27:06.999Z</time></trkpt><trkpt lat="45.69449093648217" lon="6.927998800324557"><ele>2300.0</ele><time>2026-04-08T08:27:10.999Z</time></trkpt><trkpt lat="45.694465678130825" lon="6.927892002333274"><ele>2300.0</ele><time>2026-04-08T08:27:13.999Z</time></trkpt><trkpt lat="45.69446029962014" lon="6.9278004850283565"><ele>2300.0</ele><time>2026-04-08T08:27:17.999Z</time></trkpt><trkpt lat="45.694418339744615" lon="6.927684564339795"><ele>2299.833333333333</ele><time>2026-04-08T08:27:22.999Z</time></trkpt><trkpt lat="45.69438489613314" lon="6.927583749851128"><ele>2299.6666666666665</ele><time>2026-04-08T08:27:26.999Z</time></trkpt><trkpt lat="45.69433997100522" lon="6.92746278519753"><ele>2299.5</ele><time>2026-04-08T08:27:29.999Z</time></trkpt><trkpt lat="45.694340967739244" lon="6.9273580129059695"><ele>2299.3333333333335</ele><time>2026-04-08T08:27:33.999Z</time></trkpt><trkpt lat="45.694306501433914" lon="6.927248113948386"><ele>2299.166666666667</ele><time>2026-04-08T08:27:37.999Z</time></trkpt><trkpt lat="45.69428859042688" lon="6.927135601591747"><ele>2299.0</ele><time>2026-04-08T08:27:42.999Z</time></trkpt><trkpt lat="45.69426214070016" lon="6.927034404467119"><ele>2299.714285714286</ele><time>2026-04-08T08:27:47.999Z</time></trkpt><trkpt lat="45.69423987365377" lon="6.926942008062501"><ele>2300.4285714285716</ele><time>2026-04-08T08:27:51.999Z</time></trkpt><trkpt lat="45.694216579560994" lon="6.926836135978129"><ele>2301.1428571428573</ele><time>2026-04-08T08:27:57Z</time></trkpt><trkpt lat="45.69418975953993" lon="6.9267346294212"><ele>2301.857142857143</ele><time>2026-04-08T08:28:00Z</time></trkpt><trkpt lat="45.69415822787465" lon="6.92665565598879"><ele>2302.5714285714284</ele><time>2026-04-08T08:28:02Z</time></trkpt><trkpt lat="45.69413767427792" lon="6.926558149972128"><ele>2303.2857142857147</ele><time>2026-04-08T08:28:06Z</time></trkpt><trkpt lat="45.6941175031851" lon="6.926470315054337"><ele>2304.0</ele><time>2026-04-08T08:28:09Z</time></trkpt><trkpt lat="45.694085916145504" lon="6.926380263658875"><ele>2306.0000000000005</ele><time>2026-04-08T08:28:12Z</time></trkpt><trkpt lat="45.69406529883277" lon="6.9262712835858355"><ele>2308.0</ele><time>2026-04-08T08:28:16Z</time></trkpt><trkpt lat="45.69405048147501" lon="6.926156927746033"><ele>2310.0</ele><time>2026-04-08T08:28:21Z</time></trkpt><trkpt lat="45.694015661139105" lon="6.92607543697972"><ele>2312.0</ele><time>2026-04-08T08:28:25Z</time></trkpt><trkpt lat="45.693994460937226" lon="6.9259818940781495"><ele>2314.0</ele><time>2026-04-08T08:28:29Z</time></trkpt><trkpt lat="45.69397775464887" lon="6.925892928813773"><ele>2316.0000000000005</ele><time>2026-04-08T08:28:32.999Z</time></trkpt><trkpt lat="45.69395882305614" lon="6.925800797215668"><ele>2318.0</ele><time>2026-04-08T08:28:35.999Z</time></trkpt><trkpt lat="45.693923734378174" lon="6.925701862740508"><ele>2320.0</ele><time>2026-04-08T08:28:39.999Z</time></trkpt><trkpt lat="45.69389504251231" lon="6.9256186598304605"><ele>2322.0</ele><time>2026-04-08T08:28:42.999Z</time></trkpt><trkpt lat="45.69387150307915" lon="6.925510603147349"><ele>2324.0</ele><time>2026-04-08T08:28:46.999Z</time></trkpt><trkpt lat="45.693851775793924" lon="6.9253993052194645"><ele>2326.0</ele><time>2026-04-08T08:28:50.999Z</time></trkpt><trkpt lat="45.693824591215076" lon="6.925303208798588"><ele>2328.0</ele><time>2026-04-08T08:28:54.999Z</time></trkpt><trkpt lat="45.6937982637677" lon="6.925200153012853"><ele>2330.0</ele><time>2026-04-08T08:28:58.999Z</time></trkpt><trkpt lat="45.693769997997755" lon="6.925097504262387"><ele>2331.142857142857</ele><time>2026-04-08T08:29:02.999Z</time></trkpt><trkpt lat="45.69374412492591" lon="6.925008613496623"><ele>2332.285714285714</ele><time>2026-04-08T08:29:06.999Z</time></trkpt><trkpt lat="45.693720674126816" lon="6.924906404432632"><ele>2333.4285714285716</ele><time>2026-04-08T08:29:10.999Z</time></trkpt><trkpt lat="45.693703694914134" lon="6.924819059545781"><ele>2334.5714285714284</ele><time>2026-04-08T08:29:14.999Z</time></trkpt><trkpt lat="45.69367656233929" lon="6.9246961719170805"><ele>2335.714285714286</ele><time>2026-04-08T08:29:19.999Z</time></trkpt><trkpt lat="45.693650219177776" lon="6.924604830059459"><ele>2336.8571428571427</ele><time>2026-04-08T08:29:23.999Z</time></trkpt><trkpt lat="45.69362725965512" lon="6.924502905265032"><ele>2338.0</ele><time>2026-04-08T08:29:27.999Z</time></trkpt><trkpt lat="45.69360684385841" lon="6.924406462061975"><ele>2338.8571428571427</ele><time>2026-04-08T08:29:31.999Z</time></trkpt><trkpt lat="45.693586782849266" lon="6.924320914006196"><ele>2339.714285714286</ele><time>2026-04-08T08:29:34.999Z</time></trkpt><trkpt lat="45.6935539254894" lon="6.924215769508899"><ele>2340.5714285714284</ele><time>2026-04-08T08:29:38.999Z</time></trkpt><trkpt lat="45.69351870867152" lon="6.924115847128118"><ele>2341.4285714285716</ele><time>2026-04-08T08:29:42.999Z</time></trkpt><trkpt lat="45.69349607620669" lon="6.924021679409974"><ele>2342.285714285714</ele><time>2026-04-08T08:29:46.999Z</time></trkpt><trkpt lat="45.69346644598949" lon="6.923918773968792"><ele>2343.142857142857</ele><time>2026-04-08T08:29:50.999Z</time></trkpt><trkpt lat="45.693450454514306" lon="6.9238217605083445"><ele>2344.0</ele><time>2026-04-08T08:29:54.999Z</time></trkpt><trkpt lat="45.693430887260114" lon="6.923728708189718"><ele>2344.0</ele><time>2026-04-08T08:29:58.999Z</time></trkpt><trkpt lat="45.69341489762152" lon="6.923616820251538"><ele>2344.0</ele><time>2026-04-08T08:30:04Z</time></trkpt><trkpt lat="45.693389638187675" lon="6.923515252058554"><ele>2344.0</ele><time>2026-04-08T08:30:08Z</time></trkpt><trkpt lat="45.69335916121834" lon="6.92341305794042"><ele>2344.0</ele><time>2026-04-08T08:30:12Z</time></trkpt><trkpt lat="45.6933374419244" lon="6.923315851043186"><ele>2344.0</ele><time>2026-04-08T08:30:16Z</time></trkpt><trkpt lat="45.693307074338655" lon="6.923210276697431"><ele>2344.0</ele><time>2026-04-08T08:30:20Z</time></trkpt><trkpt lat="45.69328046570331" lon="6.9231066601933495"><ele>2348.0</ele><time>2026-04-08T08:30:24Z</time></trkpt><trkpt lat="45.693258473004846" lon="6.9229958267652"><ele>2352.0</ele><time>2026-04-08T08:30:28Z</time></trkpt><trkpt lat="45.693237615538415" lon="6.922884704496599"><ele>2356.0</ele><time>2026-04-08T08:30:33Z</time></trkpt><trkpt lat="45.6932120525473" lon="6.922787996334966"><ele>2360.0</ele><time>2026-04-08T08:30:36.999Z</time></trkpt><trkpt lat="45.693184268329766" lon="6.92270060025231"><ele>2364.0</ele><time>2026-04-08T08:30:39.999Z</time></trkpt><trkpt lat="45.693154425634106" lon="6.922620216193157"><ele>2368.0</ele><time>2026-04-08T08:30:42.999Z</time></trkpt><trkpt lat="45.69315006697019" lon="6.922497296111071"><ele>2369.166666666667</ele><time>2026-04-08T08:30:55.999Z</time></trkpt><trkpt lat="45.69313700077179" lon="6.922370073537538"><ele>2370.3333333333335</ele><time>2026-04-08T08:30:58.999Z</time></trkpt><trkpt lat="45.69311316172695" lon="6.9222859008034"><ele>2371.5</ele><time>2026-04-08T08:31:00.999Z</time></trkpt><trkpt lat="45.69307833447829" lon="6.922175420911065"><ele>2372.6666666666665</ele><time>2026-04-08T08:31:03.999Z</time></trkpt><trkpt lat="45.69305416089417" lon="6.9220689319271855"><ele>2373.833333333333</ele><time>2026-04-08T08:31:06.999Z</time></trkpt><trkpt lat="45.693032474132366" lon="6.921981362767668"><ele>2375.0</ele><time>2026-04-08T08:31:09.999Z</time></trkpt><trkpt lat="45.692997518446845" lon="6.921882453317108"><ele>2375.0</ele><time>2026-04-08T08:31:12.999Z</time></trkpt><trkpt lat="45.69296141844135" lon="6.921788765426727"><ele>2375.0</ele><time>2026-04-08T08:31:15.999Z</time></trkpt><trkpt lat="45.69293590266556" lon="6.921692775682283"><ele>2375.0</ele><time>2026-04-08T08:31:19.999Z</time></trkpt><trkpt lat="45.69291348429866" lon="6.9215819622921355"><ele>2375.0</ele><time>2026-04-08T08:31:24.999Z</time></trkpt><trkpt lat="45.69289719152789" lon="6.921486452793435"><ele>2375.0</ele><time>2026-04-08T08:31:28.999Z</time></trkpt><trkpt lat="45.69287101636364" lon="6.921404182403081"><ele>2375.0</ele><time>2026-04-08T08:31:31.999Z</time></trkpt><trkpt lat="45.692843612189286" lon="6.921295074563892"><ele>2375.0</ele><time>2026-04-08T08:31:35.999Z</time></trkpt><trkpt lat="45.69282020063254" lon="6.921177955496553"><ele>2377.0</ele><time>2026-04-08T08:31:39.999Z</time></trkpt><trkpt lat="45.692792931931116" lon="6.921089022172907"><ele>2379.0</ele><time>2026-04-08T08:31:42.999Z</time></trkpt><trkpt lat="45.692773948130686" lon="6.920981541547349"><ele>2381.0</ele><time>2026-04-08T08:31:47.999Z</time></trkpt><trkpt lat="45.69278535850187" lon="6.920880370101141"><ele>2383.0</ele><time>2026-04-08T08:32:01.999Z</time></trkpt><trkpt lat="45.69274901823778" lon="6.920758008648409"><ele>2385.0</ele><time>2026-04-08T08:32:04.999Z</time></trkpt><trkpt lat="45.69271901553135" lon="6.920674163132795"><ele>2387.0</ele><time>2026-04-08T08:32:06.999Z</time></trkpt><trkpt lat="45.692688687945164" lon="6.92057371482847"><ele>2389.285714285714</ele><time>2026-04-08T08:32:10Z</time></trkpt><trkpt lat="45.69265857288334" lon="6.920463792511826"><ele>2391.5714285714284</ele><time>2026-04-08T08:32:13Z</time></trkpt><trkpt lat="45.69263383497797" lon="6.920376943626305"><ele>2393.857142857143</ele><time>2026-04-08T08:32:16Z</time></trkpt><trkpt lat="45.692607825439566" lon="6.920282294300088"><ele>2396.142857142857</ele><time>2026-04-08T08:32:19Z</time></trkpt><trkpt lat="45.69258481752786" lon="6.9201873764155515"><ele>2398.4285714285716</ele><time>2026-04-08T08:32:23Z</time></trkpt><trkpt lat="45.69255651225111" lon="6.920091245106505"><ele>2400.714285714286</ele><time>2026-04-08T08:32:27Z</time></trkpt><trkpt lat="45.69252987114554" lon="6.919998925247829"><ele>2403.0</ele><time>2026-04-08T08:32:31Z</time></trkpt><trkpt lat="45.6925165041466" lon="6.919902743038643"><ele>2405.714285714286</ele><time>2026-04-08T08:32:35Z</time></trkpt><trkpt lat="45.692504149850336" lon="6.919810915186032"><ele>2408.4285714285716</ele><time>2026-04-08T08:32:40Z</time></trkpt><trkpt lat="45.69247725146899" lon="6.9197045842727904"><ele>2411.142857142857</ele><time>2026-04-08T08:32:44.999Z</time></trkpt><trkpt lat="45.69243438996703" lon="6.919597162121804"><ele>2413.857142857143</ele><time>2026-04-08T08:32:48.999Z</time></trkpt><trkpt lat="45.69240663908377" lon="6.919514489127498"><ele>2416.5714285714284</ele><time>2026-04-08T08:32:51.999Z</time></trkpt><trkpt lat="45.692389072005916" lon="6.91941059948457"><ele>2419.285714285714</ele><time>2026-04-08T08:32:56.999Z</time></trkpt><trkpt lat="45.692364397467664" lon="6.919322767677202"><ele>2422.0</ele><time>2026-04-08T08:33:00.999Z</time></trkpt><trkpt lat="45.69234956448285" lon="6.919217466064819"><ele>2426.4285714285716</ele><time>2026-04-08T08:33:05.999Z</time></trkpt><trkpt lat="45.69232369263798" lon="6.919115097772574"><ele>2430.857142857143</ele><time>2026-04-08T08:33:09.999Z</time></trkpt><trkpt lat="45.69229802894402" lon="6.919015086723321"><ele>2435.285714285714</ele><time>2026-04-08T08:33:14.999Z</time></trkpt><trkpt lat="45.69226417642792" lon="6.9189143924146865"><ele>2439.714285714286</ele><time>2026-04-08T08:33:18.999Z</time></trkpt><trkpt lat="45.69223752186089" lon="6.918826416356398"><ele>2444.1428571428573</ele><time>2026-04-08T08:33:22.999Z</time></trkpt><trkpt lat="45.69221464350685" lon="6.918730562911"><ele>2448.5714285714284</ele><time>2026-04-08T08:33:26.999Z</time></trkpt><trkpt lat="45.69220114743335" lon="6.918634621883991"><ele>2453.0</ele><time>2026-04-08T08:33:31.999Z</time></trkpt><trkpt lat="45.692174349190516" lon="6.918542533619364"><ele>2453.0</ele><time>2026-04-08T08:33:35.999Z</time></trkpt><trkpt lat="45.692153108240106" lon="6.918454778979095"><ele>2453.0</ele><time>2026-04-08T08:33:39.999Z</time></trkpt><trkpt lat="45.69212499443298" lon="6.918338812777739"><ele>2453.0</ele><time>2026-04-08T08:33:44.999Z</time></trkpt><trkpt lat="45.6921134735049" lon="6.918242211297274"><ele>2453.0</ele><time>2026-04-08T08:33:49.999Z</time></trkpt><trkpt lat="45.69208411217103" lon="6.91814014253219"><ele>2453.0</ele><time>2026-04-08T08:33:53.999Z</time></trkpt><trkpt lat="45.692053808429755" lon="6.918040020449041"><ele>2453.0</ele><time>2026-04-08T08:33:57.999Z</time></trkpt><trkpt lat="45.692026312857344" lon="6.917958916513328"><ele>2453.0</ele><time>2026-04-08T08:34:00.999Z</time></trkpt><trkpt lat="45.69200907692422" lon="6.917864827513531"><ele>2458.6666666666665</ele><time>2026-04-08T08:34:04.999Z</time></trkpt><trkpt lat="45.69198554538106" lon="6.917771779398031"><ele>2464.333333333333</ele><time>2026-04-08T08:34:08.999Z</time></trkpt><trkpt lat="45.691965980195775" lon="6.91768308202271"><ele>2470.0</ele><time>2026-04-08T08:34:12.999Z</time></trkpt><trkpt lat="45.691901306191866" lon="6.917647417959861"><ele>2475.6666666666665</ele><time>2026-04-08T08:34:25Z</time></trkpt><trkpt lat="45.69186156828353" lon="6.917533647916229"><ele>2481.3333333333335</ele><time>2026-04-08T08:34:29Z</time></trkpt><trkpt lat="45.69183822301189" lon="6.917407682912884"><ele>2487.0</ele><time>2026-04-08T08:34:32Z</time></trkpt><trkpt lat="45.691808070685234" lon="6.917306987998369"><ele>2492.5714285714284</ele><time>2026-04-08T08:34:35Z</time></trkpt><trkpt lat="45.69178971397136" lon="6.917205692208286"><ele>2498.142857142857</ele><time>2026-04-08T08:34:38Z</time></trkpt><trkpt lat="45.69177358790716" lon="6.917107910758859"><ele>2503.7142857142853</ele><time>2026-04-08T08:34:41Z</time></trkpt><trkpt lat="45.691757751938475" lon="6.91699525206022"><ele>2509.285714285714</ele><time>2026-04-08T08:34:45Z</time></trkpt><trkpt lat="45.69174135386643" lon="6.916895624995441"><ele>2514.8571428571427</ele><time>2026-04-08T08:34:48.999Z</time></trkpt><trkpt lat="45.691718003005086" lon="6.916790792906171"><ele>2520.428571428571</ele><time>2026-04-08T08:34:52.999Z</time></trkpt><trkpt lat="45.69170088470749" lon="6.916692111491711"><ele>2526.0</ele><time>2026-04-08T08:34:56.999Z</time></trkpt><trkpt lat="45.69168214252095" lon="6.916592266765091"><ele>2530.285714285714</ele><time>2026-04-08T08:35:00.999Z</time></trkpt><trkpt lat="45.691664031436915" lon="6.9165014258885265"><ele>2534.5714285714284</ele><time>2026-04-08T08:35:04.999Z</time></trkpt><trkpt lat="45.691638600315876" lon="6.91641829824206"><ele>2538.857142857143</ele><time>2026-04-08T08:35:07.999Z</time></trkpt><trkpt lat="45.69161357284778" lon="6.916332799275577"><ele>2543.142857142857</ele><time>2026-04-08T08:35:11.999Z</time></trkpt><trkpt lat="45.6915927050406" lon="6.91624719915028"><ele>2547.4285714285716</ele><time>2026-04-08T08:35:15.999Z</time></trkpt><trkpt lat="45.691567399390884" lon="6.916138299367912"><ele>2551.714285714286</ele><time>2026-04-08T08:35:19.999Z</time></trkpt><trkpt lat="45.691536287108676" lon="6.916057327116934"><ele>2556.0</ele><time>2026-04-08T08:35:22.999Z</time></trkpt><trkpt lat="45.691478146375815" lon="6.916021840754205"><ele>2556.0</ele><time>2026-04-08T08:35:25.999Z</time></trkpt><trkpt lat="45.69142167244572" lon="6.915980056109775"><ele>2556.0</ele><time>2026-04-08T08:35:31.999Z</time></trkpt><trkpt lat="45.69138122726446" lon="6.916069928868125"><ele>2556.0</ele><time>2026-04-08T08:39:22.998Z</time></trkpt><trkpt lat="45.6912692536752" lon="6.916114598143772"><ele>2556.0</ele><time>2026-04-08T08:39:27.998Z</time></trkpt><trkpt lat="45.69119542656307" lon="6.91615730950826"><ele>2556.0</ele><time>2026-04-08T08:39:29.998Z</time></trkpt><trkpt lat="45.69111965962386" lon="6.916179367736736"><ele>2556.0</ele><time>2026-04-08T08:39:31.998Z</time></trkpt><trkpt lat="45.691045007528054" lon="6.916181164492"><ele>2556.2</ele><time>2026-04-08T08:39:33.998Z</time></trkpt><trkpt lat="45.69097897224517" lon="6.916250471170075"><ele>2556.3999999999996</ele><time>2026-04-08T08:39:35.998Z</time></trkpt><trkpt lat="45.69087988669334" lon="6.91625920093865"><ele>2556.6</ele><time>2026-04-08T08:39:37.998Z</time></trkpt><trkpt lat="45.690787659928105" lon="6.916327990185803"><ele>2556.7999999999997</ele><time>2026-04-08T08:39:39.998Z</time></trkpt><trkpt lat="45.690688058642635" lon="6.916306634153592"><ele>2557.0</ele><time>2026-04-08T08:39:41.998Z</time></trkpt><trkpt lat="45.69057388751899" lon="6.916307606575376"><ele>2557.0</ele><time>2026-04-08T08:39:43.998Z</time></trkpt><trkpt lat="45.690459261996004" lon="6.91621971373661"><ele>2557.0</ele><time>2026-04-08T08:39:45.998Z</time></trkpt><trkpt lat="45.69040370381702" lon="6.916174162287984"><ele>2557.0</ele><time>2026-04-08T08:39:46.998Z</time></trkpt><trkpt lat="45.69035030543148" lon="6.916117076386356"><ele>2557.0</ele><time>2026-04-08T08:39:47.998Z</time></trkpt><trkpt lat="45.690293861366634" lon="6.916069702211328"><ele>2557.0</ele><time>2026-04-08T08:39:48.998Z</time></trkpt><trkpt lat="45.690228208948284" lon="6.916119752052029"><ele>2557.0</ele><time>2026-04-08T08:39:50.998Z</time></trkpt><trkpt lat="45.690148294458105" lon="6.916162763358496"><ele>2555.2</ele><time>2026-04-08T08:39:53.998Z</time></trkpt><trkpt lat="45.690122970519305" lon="6.916277591314912"><ele>2553.3999999999996</ele><time>2026-04-08T08:39:56.998Z</time></trkpt><trkpt lat="45.69010605865152" lon="6.916416600077437"><ele>2551.6000000000004</ele><time>2026-04-08T08:39:58.998Z</time></trkpt><trkpt lat="45.69001678549124" lon="6.9164976492834365"><ele>2549.8</ele><time>2026-04-08T08:40:00.998Z</time></trkpt><trkpt lat="45.690050721813385" lon="6.916653517018757"><ele>2548.0</ele><time>2026-04-08T08:40:02.998Z</time></trkpt><trkpt lat="45.6900513669238" lon="6.916756402183848"><ele>2544.3333333333335</ele><time>2026-04-08T08:40:03.998Z</time></trkpt><trkpt lat="45.69002118211109" lon="6.916895345922774"><ele>2540.666666666667</ele><time>2026-04-08T08:40:05.998Z</time></trkpt><trkpt lat="45.690025674747496" lon="6.917036934825707"><ele>2537.0</ele><time>2026-04-08T08:40:09.998Z</time></trkpt><trkpt lat="45.69005087451926" lon="6.917125076230608"><ele>2533.3333333333335</ele><time>2026-04-08T08:40:11.998Z</time></trkpt><trkpt lat="45.68999597553741" lon="6.917208885358916"><ele>2529.6666666666665</ele><time>2026-04-08T08:40:13.998Z</time></trkpt><trkpt lat="45.69004659211428" lon="6.917269121853722"><ele>2526.0</ele><time>2026-04-08T08:40:15.998Z</time></trkpt><trkpt lat="45.69001572969562" lon="6.91738055700499"><ele>2526.0</ele><time>2026-04-08T08:40:18.998Z</time></trkpt><trkpt lat="45.69004212806794" lon="6.91749659901959"><ele>2526.0</ele><time>2026-04-08T08:40:20.998Z</time></trkpt><trkpt lat="45.69002264952127" lon="6.917609507090085"><ele>2526.0</ele><time>2026-04-08T08:40:22.998Z</time></trkpt><trkpt lat="45.690053790560434" lon="6.917715443333582"><ele>2526.0</ele><time>2026-04-08T08:40:24.998Z</time></trkpt><trkpt lat="45.69011697097669" lon="6.917745018598312"><ele>2526.0</ele><time>2026-04-08T08:40:26.998Z</time></trkpt><trkpt lat="45.690068931096256" lon="6.917839159805485"><ele>2526.0</ele><time>2026-04-08T08:40:28.998Z</time></trkpt><trkpt lat="45.690036436890104" lon="6.917949801684126"><ele>2519.0</ele><time>2026-04-08T08:40:30.998Z</time></trkpt><trkpt lat="45.69017499559052" lon="6.917981961520087"><ele>2512.0</ele><time>2026-04-08T08:40:36.996Z</time></trkpt><trkpt lat="45.69014552044055" lon="6.918088043288573"><ele>2505.0</ele><time>2026-04-08T08:40:42.996Z</time></trkpt><trkpt lat="45.690167575660986" lon="6.918225576515301"><ele>2498.0</ele><time>2026-04-08T08:40:45.996Z</time></trkpt><trkpt lat="45.690124690037926" lon="6.918315684895582"><ele>2491.0</ele><time>2026-04-08T08:40:47.997Z</time></trkpt><trkpt lat="45.69008510596287" lon="6.918401023631225"><ele>2486.5</ele><time>2026-04-08T08:40:50.997Z</time></trkpt><trkpt lat="45.6901471138512" lon="6.918440803245671"><ele>2482.0</ele><time>2026-04-08T08:40:52.997Z</time></trkpt><trkpt lat="45.6901891641679" lon="6.918551899866252"><ele>2477.5</ele><time>2026-04-08T08:40:55.997Z</time></trkpt><trkpt lat="45.690091613593914" lon="6.918626822175452"><ele>2473.0</ele><time>2026-04-08T08:40:58.997Z</time></trkpt><trkpt lat="45.690063989612106" lon="6.918725910065247"><ele>2468.5</ele><time>2026-04-08T08:41:00.997Z</time></trkpt><trkpt lat="45.69012545261164" lon="6.918769827958551"><ele>2464.0</ele><time>2026-04-08T08:41:02.997Z</time></trkpt><trkpt lat="45.690206050761674" lon="6.918823005541108"><ele>2464.0</ele><time>2026-04-08T08:41:04.998Z</time></trkpt><trkpt lat="45.690284392747074" lon="6.918894763401702"><ele>2464.0</ele><time>2026-04-08T08:41:06.998Z</time></trkpt><trkpt lat="45.69029403912156" lon="6.919041913922683"><ele>2464.0</ele><time>2026-04-08T08:41:08.998Z</time></trkpt><trkpt lat="45.69021660594248" lon="6.91913504794448"><ele>2464.0</ele><time>2026-04-08T08:41:10.998Z</time></trkpt><trkpt lat="45.69024491484776" lon="6.919280060631141"><ele>2464.0</ele><time>2026-04-08T08:41:12.998Z</time></trkpt><trkpt lat="45.69027864951146" lon="6.919417580153137"><ele>2460.4</ele><time>2026-04-08T08:41:14.998Z</time></trkpt><trkpt lat="45.69024476606659" lon="6.919497175535469"><ele>2456.8</ele><time>2026-04-08T08:41:15.998Z</time></trkpt><trkpt lat="45.6902110937502" lon="6.919662633540711"><ele>2453.2</ele><time>2026-04-08T08:41:17.998Z</time></trkpt><trkpt lat="45.690352881351416" lon="6.91972497066527"><ele>2449.6</ele><time>2026-04-08T08:41:20.998Z</time></trkpt><trkpt lat="45.690411852406065" lon="6.919769728427545"><ele>2446.0</ele><time>2026-04-08T08:41:21.998Z</time></trkpt><trkpt lat="45.69043508864866" lon="6.919917997375529"><ele>2444.4</ele><time>2026-04-08T08:41:23.998Z</time></trkpt><trkpt lat="45.69048852793135" lon="6.919998144994613"><ele>2442.8</ele><time>2026-04-08T08:41:25.998Z</time></trkpt><trkpt lat="45.69057417621767" lon="6.920070881632379"><ele>2441.2000000000003</ele><time>2026-04-08T08:41:27.998Z</time></trkpt><trkpt lat="45.690596536717294" lon="6.920185926796277"><ele>2439.6</ele><time>2026-04-08T08:41:29.998Z</time></trkpt><trkpt lat="45.69069156836823" lon="6.920216143518863"><ele>2438.0</ele><time>2026-04-08T08:41:31.998Z</time></trkpt><trkpt lat="45.69073071747789" lon="6.920360232889146"><ele>2432.25</ele><time>2026-04-08T08:41:33.998Z</time></trkpt><trkpt lat="45.69091887383735" lon="6.920352693493769"><ele>2426.5</ele><time>2026-04-08T08:41:37.998Z</time></trkpt><trkpt lat="45.69097809860948" lon="6.920391528396841"><ele>2420.75</ele><time>2026-04-08T08:41:38.998Z</time></trkpt><trkpt lat="45.69105926341992" lon="6.920578956766868"><ele>2415.0</ele><time>2026-04-08T08:41:41.998Z</time></trkpt><trkpt lat="45.691191143063804" lon="6.920576087144411"><ele>2412.0</ele><time>2026-04-08T08:41:44.998Z</time></trkpt><trkpt lat="45.691351864977854" lon="6.920872418830383"><ele>2409.0</ele><time>2026-04-08T08:41:51.998Z</time></trkpt><trkpt lat="45.691415879066945" lon="6.920913281747552"><ele>2406.0</ele><time>2026-04-08T08:41:52.998Z</time></trkpt><trkpt lat="45.69141957077147" lon="6.92103743747749"><ele>2403.0</ele><time>2026-04-08T08:41:54.998Z</time></trkpt><trkpt lat="45.691361341766296" lon="6.921146913038362"><ele>2400.3333333333335</ele><time>2026-04-08T08:41:56.998Z</time></trkpt><trkpt lat="45.69139817846798" lon="6.9212243207841215"><ele>2397.6666666666665</ele><time>2026-04-08T08:41:58.998Z</time></trkpt><trkpt lat="45.6914765902465" lon="6.921250011749664"><ele>2395.0</ele><time>2026-04-08T08:42:01.998Z</time></trkpt><trkpt lat="45.691450273120545" lon="6.921361994214182"><ele>2392.333333333333</ele><time>2026-04-08T08:42:04.998Z</time></trkpt><trkpt lat="45.69149875993633" lon="6.921460540165532"><ele>2389.6666666666665</ele><time>2026-04-08T08:42:07.998Z</time></trkpt><trkpt lat="45.691573217153" lon="6.921550894059396"><ele>2387.0</ele><time>2026-04-08T08:42:09.998Z</time></trkpt><trkpt lat="45.69155403971881" lon="6.921700035569509"><ele>2383.4</ele><time>2026-04-08T08:42:11.998Z</time></trkpt><trkpt lat="45.6915816096004" lon="6.921825163988754"><ele>2379.7999999999997</ele><time>2026-04-08T08:42:13.998Z</time></trkpt><trkpt lat="45.69164365834561" lon="6.9219714489225606"><ele>2376.2</ele><time>2026-04-08T08:42:15.998Z</time></trkpt><trkpt lat="45.691646931932226" lon="6.922064320777774"><ele>2372.6</ele><time>2026-04-08T08:42:16.998Z</time></trkpt><trkpt lat="45.69162727961612" lon="6.92225380945225"><ele>2369.0</ele><time>2026-04-08T08:42:18.998Z</time></trkpt><trkpt lat="45.69166573934543" lon="6.922336167117666"><ele>2369.0</ele><time>2026-04-08T08:42:19.998Z</time></trkpt><trkpt lat="45.69170741700004" lon="6.922416961226214"><ele>2369.0</ele><time>2026-04-08T08:42:20.998Z</time></trkpt><trkpt lat="45.691722980542195" lon="6.922515764852354"><ele>2369.0</ele><time>2026-04-08T08:42:21.998Z</time></trkpt><trkpt lat="45.69170274370759" lon="6.922610260199579"><ele>2369.0</ele><time>2026-04-08T08:42:22.998Z</time></trkpt><trkpt lat="45.691745031487734" lon="6.922735370837728"><ele>2369.0</ele><time>2026-04-08T08:42:24.998Z</time></trkpt><trkpt lat="45.691832010748904" lon="6.922896012156087"><ele>2369.0</ele><time>2026-04-08T08:42:26.998Z</time></trkpt><trkpt lat="45.69180332008444" lon="6.923046799860744"><ele>2366.4</ele><time>2026-04-08T08:42:28.998Z</time></trkpt><trkpt lat="45.69178092465187" lon="6.923138869047653"><ele>2363.8</ele><time>2026-04-08T08:42:29.998Z</time></trkpt><trkpt lat="45.6918054302082" lon="6.9232849328312005"><ele>2361.2</ele><time>2026-04-08T08:42:31.998Z</time></trkpt><trkpt lat="45.69191332852952" lon="6.9233706027557655"><ele>2358.6</ele><time>2026-04-08T08:42:33.998Z</time></trkpt><trkpt lat="45.69192444158913" lon="6.9235415628902865"><ele>2356.0</ele><time>2026-04-08T08:42:35.998Z</time></trkpt><trkpt lat="45.691924090615814" lon="6.923706250223545"><ele>2352.8333333333335</ele><time>2026-04-08T08:42:37.998Z</time></trkpt><trkpt lat="45.69201492154085" lon="6.92378631963067"><ele>2349.666666666667</ele><time>2026-04-08T08:42:39.998Z</time></trkpt><trkpt lat="45.692078853729534" lon="6.923832038083982"><ele>2346.5</ele><time>2026-04-08T08:42:40.998Z</time></trkpt><trkpt lat="45.69210455516343" lon="6.923933271970166"><ele>2343.3333333333335</ele><time>2026-04-08T08:42:42.998Z</time></trkpt><trkpt lat="45.69210350518178" lon="6.924070168609693"><ele>2340.1666666666665</ele><time>2026-04-08T08:43:17.999Z</time></trkpt><trkpt lat="45.692128544783195" lon="6.924204257643469"><ele>2337.0</ele><time>2026-04-08T08:43:19.999Z</time></trkpt><trkpt lat="45.69219991480102" lon="6.924328049470915"><ele>2334.8571428571427</ele><time>2026-04-08T08:43:21.999Z</time></trkpt><trkpt lat="45.69226982369159" lon="6.924386547808915"><ele>2332.714285714286</ele><time>2026-04-08T08:43:22.999Z</time></trkpt><trkpt lat="45.692287655539594" lon="6.924475207354077"><ele>2330.5714285714284</ele><time>2026-04-08T08:43:23.999Z</time></trkpt><trkpt lat="45.6922914070359" lon="6.924572975125361"><ele>2328.4285714285716</ele><time>2026-04-08T08:43:24.999Z</time></trkpt><trkpt lat="45.692279964304994" lon="6.924674281173012"><ele>2326.285714285714</ele><time>2026-04-08T08:43:25.999Z</time></trkpt><trkpt lat="45.692280709195295" lon="6.92478316791895"><ele>2324.142857142857</ele><time>2026-04-08T08:43:26.999Z</time></trkpt><trkpt lat="45.69232643483383" lon="6.924865559242483"><ele>2322.0</ele><time>2026-04-08T08:43:27.999Z</time></trkpt><trkpt lat="45.692374971089535" lon="6.924967099404993"><ele>2319.7999999999997</ele><time>2026-04-08T08:43:28.999Z</time></trkpt><trkpt lat="45.69238816476607" lon="6.925094908880327"><ele>2317.6</ele><time>2026-04-08T08:43:29.999Z</time></trkpt><trkpt lat="45.692342464351476" lon="6.925260776961287"><ele>2315.3999999999996</ele><time>2026-04-08T08:43:31.999Z</time></trkpt><trkpt lat="45.69231814208187" lon="6.925368373721686"><ele>2313.2</ele><time>2026-04-08T08:43:32.999Z</time></trkpt><trkpt lat="45.692343247960096" lon="6.925490817903302"><ele>2311.0</ele><time>2026-04-08T08:43:33.999Z</time></trkpt><trkpt lat="45.6923847590116" lon="6.92557677032411"><ele>2311.0</ele><time>2026-04-08T08:43:34.999Z</time></trkpt><trkpt lat="45.692401172611724" lon="6.925705096835885"><ele>2311.0</ele><time>2026-04-08T08:43:35.999Z</time></trkpt><trkpt lat="45.6923657026635" lon="6.925800098814238"><ele>2311.0</ele><time>2026-04-08T08:43:36.999Z</time></trkpt><trkpt lat="45.692346519270664" lon="6.925920238608448"><ele>2311.0</ele><time>2026-04-08T08:43:37.999Z</time></trkpt><trkpt lat="45.69237735499441" lon="6.926021305009587"><ele>2311.0</ele><time>2026-04-08T08:43:38.999Z</time></trkpt><trkpt lat="45.692422484054504" lon="6.926132367132304"><ele>2311.0</ele><time>2026-04-08T08:43:39.999Z</time></trkpt><trkpt lat="45.69245632575535" lon="6.926257647940077"><ele>2309.6</ele><time>2026-04-08T08:43:40.999Z</time></trkpt><trkpt lat="45.69248630847117" lon="6.926382871629143"><ele>2308.2</ele><time>2026-04-08T08:43:41.999Z</time></trkpt><trkpt lat="45.69252222951987" lon="6.9265258487515915"><ele>2306.8</ele><time>2026-04-08T08:43:42.999Z</time></trkpt><trkpt lat="45.69256575732556" lon="6.926668255206282"><ele>2305.4</ele><time>2026-04-08T08:43:43.999Z</time></trkpt><trkpt lat="45.69261452946211" lon="6.926810129629793"><ele>2304.0</ele><time>2026-04-08T08:43:44.999Z</time></trkpt><trkpt lat="45.692670512203215" lon="6.926941139400331"><ele>2303.3333333333335</ele><time>2026-04-08T08:43:45.999Z</time></trkpt><trkpt lat="45.692727803038544" lon="6.927067050475247"><ele>2302.6666666666665</ele><time>2026-04-08T08:43:46.999Z</time></trkpt><trkpt lat="45.69278897355403" lon="6.927165438595719"><ele>2302.0</ele><time>2026-04-08T08:43:47.999Z</time></trkpt><trkpt lat="45.69285060989332" lon="6.927250392173242"><ele>2301.333333333333</ele><time>2026-04-08T08:43:48.999Z</time></trkpt><trkpt lat="45.69290649402064" lon="6.927333232320718"><ele>2300.6666666666665</ele><time>2026-04-08T08:43:49.999Z</time></trkpt><trkpt lat="45.69295951460974" lon="6.927429257349865"><ele>2300.0</ele><time>2026-04-08T08:43:50.999Z</time></trkpt><trkpt lat="45.69300533940296" lon="6.92750770593331"><ele>2299.333333333333</ele><time>2026-04-08T08:43:51.999Z</time></trkpt><trkpt lat="45.693051316679444" lon="6.927588577953565"><ele>2298.6666666666665</ele><time>2026-04-08T08:43:52.999Z</time></trkpt><trkpt lat="45.693087209732134" lon="6.927670919538419"><ele>2298.0</ele><time>2026-04-08T08:43:53.999Z</time></trkpt><trkpt lat="45.693120040824574" lon="6.9277538884642125"><ele>2297.3333333333335</ele><time>2026-04-08T08:43:54.999Z</time></trkpt><trkpt lat="45.69317034601619" lon="6.92790106781807"><ele>2296.666666666667</ele><time>2026-04-08T08:43:56.999Z</time></trkpt><trkpt lat="45.693212147115695" lon="6.9280180142257635"><ele>2296.0</ele><time>2026-04-08T08:43:58.999Z</time></trkpt><trkpt lat="45.69325184413573" lon="6.928140340769598"><ele>2296.0</ele><time>2026-04-08T08:44:00.999Z</time></trkpt><trkpt lat="45.69328919916377" lon="6.92825902961638"><ele>2296.0</ele><time>2026-04-08T08:44:02.999Z</time></trkpt><trkpt lat="45.69332618881697" lon="6.928358074945715"><ele>2296.0</ele><time>2026-04-08T08:44:04.999Z</time></trkpt><trkpt lat="45.693369481934724" lon="6.928477825210548"><ele>2296.0</ele><time>2026-04-08T08:44:06.999Z</time></trkpt><trkpt lat="45.69341316140719" lon="6.928612318115628"><ele>2296.0</ele><time>2026-04-08T08:44:08.999Z</time></trkpt><trkpt lat="45.69345963677165" lon="6.928770075039068"><ele>2295.2</ele><time>2026-04-08T08:44:10.999Z</time></trkpt><trkpt lat="45.693502113255505" lon="6.9289265713549595"><ele>2294.3999999999996</ele><time>2026-04-08T08:44:12.999Z</time></trkpt><trkpt lat="45.69355534542413" lon="6.929061628737253"><ele>2293.6</ele><time>2026-04-08T08:44:14.999Z</time></trkpt><trkpt lat="45.69360454280609" lon="6.929180759861855"><ele>2292.7999999999997</ele><time>2026-04-08T08:44:16.999Z</time></trkpt><trkpt lat="45.693670423364914" lon="6.929284086387874"><ele>2292.0</ele><time>2026-04-08T08:44:18.999Z</time></trkpt><trkpt lat="45.69374088850551" lon="6.929373963447911"><ele>2290.6666666666665</ele><time>2026-04-08T08:44:20.999Z</time></trkpt><trkpt lat="45.69373105309631" lon="6.929475373525619"><ele>2289.3333333333335</ele><time>2026-04-08T08:44:46Z</time></trkpt><trkpt lat="45.69369234256752" lon="6.929575256752964"><ele>2288.0</ele><time>2026-04-08T08:44:53Z</time></trkpt><trkpt lat="45.69371786258063" lon="6.929710243480938"><ele>2286.666666666667</ele><time>2026-04-08T08:44:56Z</time></trkpt><trkpt lat="45.69379950972708" lon="6.929774357333092"><ele>2285.3333333333335</ele><time>2026-04-08T08:44:58Z</time></trkpt><trkpt lat="45.69385214273444" lon="6.92983377444457"><ele>2284.0</ele><time>2026-04-08T08:44:59Z</time></trkpt><trkpt lat="45.69388226643973" lon="6.930011857146449"><ele>2281.4</ele><time>2026-04-08T08:45:01Z</time></trkpt><trkpt lat="45.69396363317352" lon="6.930162314270312"><ele>2278.8</ele><time>2026-04-08T08:45:03Z</time></trkpt><trkpt lat="45.69402474722451" lon="6.93025274533543"><ele>2276.2</ele><time>2026-04-08T08:45:04Z</time></trkpt><trkpt lat="45.69408230753187" lon="6.930365040102923"><ele>2273.6</ele><time>2026-04-08T08:45:05Z</time></trkpt><trkpt lat="45.69412405075544" lon="6.9304776561333385"><ele>2271.0</ele><time>2026-04-08T08:45:06Z</time></trkpt><trkpt lat="45.694144846996416" lon="6.930596509172187"><ele>2271.0</ele><time>2026-04-08T08:45:07Z</time></trkpt><trkpt lat="45.69412995894725" lon="6.930702488167924"><ele>2271.0</ele><time>2026-04-08T08:45:08Z</time></trkpt><trkpt lat="45.69415479266635" lon="6.9308738010821935"><ele>2271.0</ele><time>2026-04-08T08:45:10Z</time></trkpt><trkpt lat="45.694204081609065" lon="6.93098413734659"><ele>2271.0</ele><time>2026-04-08T08:45:11Z</time></trkpt><trkpt lat="45.69426078392264" lon="6.931085840307201"><ele>2271.0</ele><time>2026-04-08T08:45:12Z</time></trkpt><trkpt lat="45.69430764086668" lon="6.931186692948359"><ele>2270.4285714285716</ele><time>2026-04-08T08:45:13Z</time></trkpt><trkpt lat="45.69431992744596" lon="6.931289851708542"><ele>2269.857142857143</ele><time>2026-04-08T08:45:14Z</time></trkpt><trkpt lat="45.694349127838954" lon="6.931401572780201"><ele>2269.285714285714</ele><time>2026-04-08T08:45:15Z</time></trkpt><trkpt lat="45.69439728443114" lon="6.931478207956073"><ele>2268.714285714286</ele><time>2026-04-08T08:45:16Z</time></trkpt><trkpt lat="45.694444762168054" lon="6.931553517979347"><ele>2268.142857142857</ele><time>2026-04-08T08:45:17Z</time></trkpt><trkpt lat="45.69448643195129" lon="6.931635841727597"><ele>2267.5714285714284</ele><time>2026-04-08T08:45:18Z</time></trkpt><trkpt lat="45.69452672986897" lon="6.931710446968433"><ele>2267.0</ele><time>2026-04-08T08:45:19Z</time></trkpt><trkpt lat="45.69460139825213" lon="6.931845892186763"><ele>2265.2</ele><time>2026-04-08T08:45:21Z</time></trkpt><trkpt lat="45.6946702429884" lon="6.931985976621408"><ele>2263.3999999999996</ele><time>2026-04-08T08:45:23Z</time></trkpt><trkpt lat="45.694710471364495" lon="6.932060807701829"><ele>2261.6000000000004</ele><time>2026-04-08T08:45:24Z</time></trkpt><trkpt lat="45.6947824780306" lon="6.932227004335851"><ele>2259.8</ele><time>2026-04-08T08:45:26Z</time></trkpt><trkpt lat="45.69482053698487" lon="6.932329295960188"><ele>2258.0</ele><time>2026-04-08T08:45:27Z</time></trkpt><trkpt lat="45.694844588469394" lon="6.93241505847173"><ele>2258.0</ele><time>2026-04-08T08:45:28Z</time></trkpt><trkpt lat="45.694827942690715" lon="6.932550062866356"><ele>2258.0</ele><time>2026-04-08T08:45:30Z</time></trkpt><trkpt lat="45.69490771344538" lon="6.932689431884726"><ele>2258.0</ele><time>2026-04-08T08:45:32Z</time></trkpt><trkpt lat="45.694948076459" lon="6.932841222959835"><ele>2258.0</ele><time>2026-04-08T08:45:34Z</time></trkpt><trkpt lat="45.69488472243716" lon="6.932950819992973"><ele>2258.0</ele><time>2026-04-08T08:45:36Z</time></trkpt><trkpt lat="45.694950306337155" lon="6.933045566451427"><ele>2255.75</ele><time>2026-04-08T08:45:38Z</time></trkpt><trkpt lat="45.69501281421388" lon="6.933176161950157"><ele>2253.5</ele><time>2026-04-08T08:45:40Z</time></trkpt><trkpt lat="45.695089882470306" lon="6.9333176637577525"><ele>2251.25</ele><time>2026-04-08T08:45:42Z</time></trkpt><trkpt lat="45.69515006296563" lon="6.9334598462430534"><ele>2249.0</ele><time>2026-04-08T08:45:44Z</time></trkpt><trkpt lat="45.69509203872313" lon="6.93357514596982"><ele>2245.8</ele><time>2026-04-08T08:45:46Z</time></trkpt><trkpt lat="45.69501641557209" lon="6.933637677694661"><ele>2242.6000000000004</ele><time>2026-04-08T08:45:48Z</time></trkpt><trkpt lat="45.695030852369364" lon="6.933822615916574"><ele>2239.4</ele><time>2026-04-08T08:45:50Z</time></trkpt><trkpt lat="45.695053309805054" lon="6.933925819447601"><ele>2236.2000000000003</ele><time>2026-04-08T08:45:51Z</time></trkpt><trkpt lat="45.69512978616215" lon="6.933986523639097"><ele>2233.0</ele><time>2026-04-08T08:45:53Z</time></trkpt><trkpt lat="45.695214795782796" lon="6.934106153129492"><ele>2233.0</ele><time>2026-04-08T08:45:55Z</time></trkpt><trkpt lat="45.69522231063097" lon="6.934198801216845"><ele>2233.0</ele><time>2026-04-08T08:45:56Z</time></trkpt><trkpt lat="45.69514228798861" lon="6.934251285022712"><ele>2233.0</ele><time>2026-04-08T08:45:58Z</time></trkpt><trkpt lat="45.69507341168729" lon="6.934313004852809"><ele>2233.0</ele><time>2026-04-08T08:46:00Z</time></trkpt><trkpt lat="45.69509665972916" lon="6.934432048734036"><ele>2233.0</ele><time>2026-04-08T08:46:02Z</time></trkpt><trkpt lat="45.69513688805826" lon="6.934591719636078"><ele>2233.0</ele><time>2026-04-08T08:46:04Z</time></trkpt><trkpt lat="45.695140742000255" lon="6.934681686931449"><ele>2230.4</ele><time>2026-04-08T08:46:05Z</time></trkpt><trkpt lat="45.69522105759904" lon="6.934779847286467"><ele>2227.8</ele><time>2026-04-08T08:46:07Z</time></trkpt><trkpt lat="45.69522540506347" lon="6.934909393788937"><ele>2225.2</ele><time>2026-04-08T08:46:09Z</time></trkpt><trkpt lat="45.695263921335204" lon="6.93504397687208"><ele>2222.6</ele><time>2026-04-08T08:46:11Z</time></trkpt><trkpt lat="45.69530247192958" lon="6.935210693812098"><ele>2220.0</ele><time>2026-04-08T08:46:13Z</time></trkpt><trkpt lat="45.695368280097746" lon="6.935346471803416"><ele>2217.4</ele><time>2026-04-08T08:46:15Z</time></trkpt><trkpt lat="45.695367574871405" lon="6.93549192558665"><ele>2214.8</ele><time>2026-04-08T08:46:17Z</time></trkpt><trkpt lat="45.69544839503886" lon="6.9356377176134405"><ele>2212.2</ele><time>2026-04-08T08:46:19Z</time></trkpt><trkpt lat="45.695432755397874" lon="6.935729818449405"><ele>2209.6</ele><time>2026-04-08T08:46:20Z</time></trkpt><trkpt lat="45.69545366418772" lon="6.935863983984587"><ele>2207.0</ele><time>2026-04-08T08:46:22Z</time></trkpt><trkpt lat="45.69549441498394" lon="6.93593440021024"><ele>2204.0</ele><time>2026-04-08T08:46:23Z</time></trkpt><trkpt lat="45.69549412631263" lon="6.936098353288365"><ele>2201.0</ele><time>2026-04-08T08:46:25Z</time></trkpt><trkpt lat="45.69555465132112" lon="6.9362390671495335"><ele>2198.0</ele><time>2026-04-08T08:46:27Z</time></trkpt><trkpt lat="45.695560608129" lon="6.936408037249859"><ele>2195.0</ele><time>2026-04-08T08:46:29Z</time></trkpt><trkpt lat="45.69564332344357" lon="6.936521013961973"><ele>2195.0</ele><time>2026-04-08T08:46:31Z</time></trkpt><trkpt lat="45.69570610649817" lon="6.936668911549808"><ele>2195.0</ele><time>2026-04-08T08:46:33Z</time></trkpt><trkpt lat="45.695720848591385" lon="6.936820611072255"><ele>2195.0</ele><time>2026-04-08T08:46:35Z</time></trkpt><trkpt lat="45.69575312981716" lon="6.936925834848781"><ele>2195.0</ele><time>2026-04-08T08:46:42Z</time></trkpt><trkpt lat="45.69578578762598" lon="6.937005271211455"><ele>2195.0</ele><time>2026-04-08T08:46:44Z</time></trkpt><trkpt lat="45.69584360816957" lon="6.93709236089806"><ele>2194.1666666666665</ele><time>2026-04-08T08:46:46Z</time></trkpt><trkpt lat="45.69588720792727" lon="6.937187953017543"><ele>2193.333333333333</ele><time>2026-04-08T08:46:48Z</time></trkpt><trkpt lat="45.69596137612273" lon="6.93726278923411"><ele>2192.5</ele><time>2026-04-08T08:46:50Z</time></trkpt><trkpt lat="45.69603639781093" lon="6.937333506545173"><ele>2191.6666666666665</ele><time>2026-04-08T08:46:52.001Z</time></trkpt><trkpt lat="45.69605061098814" lon="6.937454189430387"><ele>2190.8333333333335</ele><time>2026-04-08T08:46:54.001Z</time></trkpt><trkpt lat="45.696133230405984" lon="6.937513681859172"><ele>2190.0</ele><time>2026-04-08T08:46:56.001Z</time></trkpt><trkpt lat="45.69616713808172" lon="6.937643049731192"><ele>2186.6</ele><time>2026-04-08T08:46:58.001Z</time></trkpt><trkpt lat="45.69622924295915" lon="6.937763616681287"><ele>2183.2</ele><time>2026-04-08T08:47:00.001Z</time></trkpt><trkpt lat="45.69628259350191" lon="6.9378628908270965"><ele>2179.8</ele><time>2026-04-08T08:47:02.001Z</time></trkpt><trkpt lat="45.69633091105069" lon="6.93798315006114"><ele>2176.4</ele><time>2026-04-08T08:47:04.001Z</time></trkpt><trkpt lat="45.69638717329246" lon="6.938082706237517"><ele>2173.0</ele><time>2026-04-08T08:47:06.001Z</time></trkpt><trkpt lat="45.69642845059402" lon="6.938238872536948"><ele>2173.0</ele><time>2026-04-08T08:47:08.001Z</time></trkpt><trkpt lat="45.69644871388696" lon="6.938365316386897"><ele>2173.0</ele><time>2026-04-08T08:47:10.001Z</time></trkpt><trkpt lat="45.696488740275235" lon="6.938485406261728"><ele>2173.0</ele><time>2026-04-08T08:47:12.001Z</time></trkpt><trkpt lat="45.69653304357976" lon="6.938657367562556"><ele>2173.0</ele><time>2026-04-08T08:47:14.001Z</time></trkpt><trkpt lat="45.6965813763593" lon="6.938820703652315"><ele>2173.0</ele><time>2026-04-08T08:47:16.001Z</time></trkpt><trkpt lat="45.696610501545926" lon="6.93897033049125"><ele>2171.1428571428573</ele><time>2026-04-08T08:47:18.001Z</time></trkpt><trkpt lat="45.69667628954951" lon="6.939079201504863"><ele>2169.2857142857147</ele><time>2026-04-08T08:47:20.001Z</time></trkpt><trkpt lat="45.69671537991957" lon="6.939151818552085"><ele>2167.4285714285716</ele><time>2026-04-08T08:47:22.001Z</time></trkpt><trkpt lat="45.69664723142878" lon="6.939157728729818"><ele>2165.5714285714284</ele><time>2026-04-08T08:47:39.001Z</time></trkpt><trkpt lat="45.696587042254784" lon="6.9391200710622325"><ele>2163.7142857142853</ele><time>2026-04-08T08:47:48.001Z</time></trkpt><trkpt lat="45.69653698669908" lon="6.939057692715474"><ele>2161.8571428571427</ele><time>2026-04-08T08:48:04.001Z</time></trkpt><trkpt lat="45.69647141770606" lon="6.939001929059776"><ele>2160.0</ele><time>2026-04-08T08:48:28.001Z</time></trkpt><trkpt lat="45.69643156337092" lon="6.938918027321625"><ele>2160.0</ele><time>2026-04-08T08:48:39.001Z</time></trkpt><trkpt lat="45.696406197621435" lon="6.9388059529108626"><ele>2160.0</ele><time>2026-04-08T08:48:43.001Z</time></trkpt><trkpt lat="45.69639297795154" lon="6.938695389073515"><ele>2160.0</ele><time>2026-04-08T08:48:45.001Z</time></trkpt><trkpt lat="45.696350201337474" lon="6.938563192156278"><ele>2160.0</ele><time>2026-04-08T08:48:47.001Z</time></trkpt><trkpt lat="45.69632497312622" lon="6.938454024745027"><ele>2160.0</ele><time>2026-04-08T08:48:49.001Z</time></trkpt><trkpt lat="45.69628895312265" lon="6.938355545148106"><ele>2160.0</ele><time>2026-04-08T08:48:51.001Z</time></trkpt><trkpt lat="45.696270668077446" lon="6.938258621960169"><ele>2162.1666666666665</ele><time>2026-04-08T08:48:53.001Z</time></trkpt><trkpt lat="45.69623294304633" lon="6.93815502098507"><ele>2164.3333333333335</ele><time>2026-04-08T08:48:55.001Z</time></trkpt><trkpt lat="45.696212366920136" lon="6.938052778971002"><ele>2166.5</ele><time>2026-04-08T08:48:58.002Z</time></trkpt><trkpt lat="45.696192868496354" lon="6.937929060560035"><ele>2168.666666666667</ele><time>2026-04-08T08:49:01.002Z</time></trkpt><trkpt lat="45.6961680648893" lon="6.937816756165392"><ele>2170.8333333333335</ele><time>2026-04-08T08:49:03.001Z</time></trkpt><trkpt lat="45.69613648024132" lon="6.937714247080693"><ele>2173.0</ele><time>2026-04-08T08:49:05.001Z</time></trkpt><trkpt lat="45.696112396934275" lon="6.937612359390299"><ele>2174.166666666667</ele><time>2026-04-08T08:49:07.001Z</time></trkpt><trkpt lat="45.69608862149429" lon="6.937522293596982"><ele>2175.3333333333335</ele><time>2026-04-08T08:49:09.001Z</time></trkpt><trkpt lat="45.69605550890011" lon="6.9374187447500715"><ele>2176.5</ele><time>2026-04-08T08:49:11.001Z</time></trkpt><trkpt lat="45.69602706568875" lon="6.937312154450076"><ele>2177.6666666666665</ele><time>2026-04-08T08:49:13.001Z</time></trkpt><trkpt lat="45.69599842743055" lon="6.937216981263062"><ele>2178.833333333333</ele><time>2026-04-08T08:49:15.001Z</time></trkpt><trkpt lat="45.69596601543383" lon="6.937113362009366"><ele>2180.0</ele><time>2026-04-08T08:49:17.001Z</time></trkpt><trkpt lat="45.69593650598044" lon="6.937007166730633"><ele>2180.0</ele><time>2026-04-08T08:49:19.001Z</time></trkpt><trkpt lat="45.69590924392706" lon="6.936915773914546"><ele>2180.0</ele><time>2026-04-08T08:49:21.001Z</time></trkpt><trkpt lat="45.695874038031796" lon="6.9367902263658285"><ele>2180.0</ele><time>2026-04-08T08:49:24.001Z</time></trkpt><trkpt lat="45.69583945811934" lon="6.936678734815644"><ele>2180.0</ele><time>2026-04-08T08:49:26.001Z</time></trkpt><trkpt lat="45.69580640322005" lon="6.936579760950636"><ele>2180.0</ele><time>2026-04-08T08:49:28.001Z</time></trkpt><trkpt lat="45.69578133906584" lon="6.9364848219261575"><ele>2180.0</ele><time>2026-04-08T08:49:30.001Z</time></trkpt><trkpt lat="45.69575927477298" lon="6.936395713795462"><ele>2182.1428571428573</ele><time>2026-04-08T08:49:32.001Z</time></trkpt><trkpt lat="45.69573496105065" lon="6.936304948598"><ele>2184.2857142857147</ele><time>2026-04-08T08:49:34.001Z</time></trkpt><trkpt lat="45.69570428053635" lon="6.9362052566103936"><ele>2186.4285714285716</ele><time>2026-04-08T08:49:36.001Z</time></trkpt><trkpt lat="45.69567507289566" lon="6.936109228386049"><ele>2188.5714285714284</ele><time>2026-04-08T08:49:38.001Z</time></trkpt><trkpt lat="45.69564923919893" lon="6.936013981487687"><ele>2190.7142857142853</ele><time>2026-04-08T08:49:40.001Z</time></trkpt><trkpt lat="45.695627314924174" lon="6.935927435108391"><ele>2192.8571428571427</ele><time>2026-04-08T08:49:42.001Z</time></trkpt><trkpt lat="45.69560082996127" lon="6.935816301421687"><ele>2195.0</ele><time>2026-04-08T08:49:44.001Z</time></trkpt><trkpt lat="45.695573910493856" lon="6.935717641307355"><ele>2196.714285714286</ele><time>2026-04-08T08:49:46.001Z</time></trkpt><trkpt lat="45.69555326739936" lon="6.93562951056108"><ele>2198.428571428571</ele><time>2026-04-08T08:49:48.001Z</time></trkpt><trkpt lat="45.69552467794685" lon="6.935537761811917"><ele>2200.142857142857</ele><time>2026-04-08T08:49:50.001Z</time></trkpt><trkpt lat="45.69549843870367" lon="6.935440664370834"><ele>2201.8571428571427</ele><time>2026-04-08T08:49:52.001Z</time></trkpt><trkpt lat="45.69547368338051" lon="6.935344624537241"><ele>2203.5714285714284</ele><time>2026-04-08T08:49:54.001Z</time></trkpt><trkpt lat="45.69545052815538" lon="6.935258713938903"><ele>2205.285714285714</ele><time>2026-04-08T08:49:56.001Z</time></trkpt><trkpt lat="45.69541949658077" lon="6.935135453350789"><ele>2207.0</ele><time>2026-04-08T08:49:59.001Z</time></trkpt><trkpt lat="45.695391153228606" lon="6.935037358024415"><ele>2208.285714285714</ele><time>2026-04-08T08:50:01.001Z</time></trkpt><trkpt lat="45.69536491101356" lon="6.934939140219781"><ele>2209.5714285714284</ele><time>2026-04-08T08:50:03.001Z</time></trkpt><trkpt lat="45.695337677269436" lon="6.9348445925965265"><ele>2210.8571428571427</ele><time>2026-04-08T08:50:05.001Z</time></trkpt><trkpt lat="45.69531727694153" lon="6.9347563908945435"><ele>2212.142857142857</ele><time>2026-04-08T08:50:07.001Z</time></trkpt><trkpt lat="45.6952908688598" lon="6.93466178121554"><ele>2213.428571428571</ele><time>2026-04-08T08:50:09.001Z</time></trkpt><trkpt lat="45.69526339225596" lon="6.934564592120933"><ele>2214.714285714286</ele><time>2026-04-08T08:50:11.001Z</time></trkpt><trkpt lat="45.695233164748004" lon="6.934467124174425"><ele>2216.0</ele><time>2026-04-08T08:50:13.001Z</time></trkpt><trkpt lat="45.69520563197222" lon="6.934373796549149"><ele>2216.0</ele><time>2026-04-08T08:50:15.001Z</time></trkpt><trkpt lat="45.695172930564" lon="6.9342714431533405"><ele>2216.0</ele><time>2026-04-08T08:50:17.001Z</time></trkpt><trkpt lat="45.69514479962284" lon="6.934171358988189"><ele>2216.0</ele><time>2026-04-08T08:50:19.001Z</time></trkpt><trkpt lat="45.69512095798106" lon="6.934080896984244"><ele>2216.0</ele><time>2026-04-08T08:50:21Z</time></trkpt><trkpt lat="45.695099672355184" lon="6.933996025767358"><ele>2216.0</ele><time>2026-04-08T08:50:23Z</time></trkpt><trkpt lat="45.69507531703686" lon="6.933907607247686"><ele>2216.0</ele><time>2026-04-08T08:50:25Z</time></trkpt><trkpt lat="45.69505349384198" lon="6.933821494489377"><ele>2216.0</ele><time>2026-04-08T08:50:27Z</time></trkpt><trkpt lat="45.695030082518755" lon="6.933732825634496"><ele>2218.4285714285716</ele><time>2026-04-08T08:50:29Z</time></trkpt><trkpt lat="45.69500165279306" lon="6.933640568885807"><ele>2220.8571428571427</ele><time>2026-04-08T08:50:31Z</time></trkpt><trkpt lat="45.694974153113165" lon="6.933542151417537"><ele>2223.285714285714</ele><time>2026-04-08T08:50:33Z</time></trkpt><trkpt lat="45.69494733370313" lon="6.933441266013553"><ele>2225.714285714286</ele><time>2026-04-08T08:50:35Z</time></trkpt><trkpt lat="45.6949240007137" lon="6.933348020895165"><ele>2228.142857142857</ele><time>2026-04-08T08:50:37Z</time></trkpt><trkpt lat="45.69489813330006" lon="6.933257376440343"><ele>2230.5714285714284</ele><time>2026-04-08T08:50:39Z</time></trkpt><trkpt lat="45.69487038645216" lon="6.933159467942823"><ele>2233.0</ele><time>2026-04-08T08:50:41Z</time></trkpt><trkpt lat="45.694843446606576" lon="6.93306007175737"><ele>2235.285714285714</ele><time>2026-04-08T08:50:43Z</time></trkpt><trkpt lat="45.69482060912804" lon="6.932968673682805"><ele>2237.5714285714284</ele><time>2026-04-08T08:50:45Z</time></trkpt><trkpt lat="45.694792908679304" lon="6.932878291564735"><ele>2239.857142857143</ele><time>2026-04-08T08:50:47Z</time></trkpt><trkpt lat="45.69476767561612" lon="6.932786300673749"><ele>2242.142857142857</ele><time>2026-04-08T08:50:49Z</time></trkpt><trkpt lat="45.69474183642417" lon="6.932692484368"><ele>2244.4285714285716</ele><time>2026-04-08T08:50:51Z</time></trkpt><trkpt lat="45.69471798127709" lon="6.932596637178082"><ele>2246.714285714286</ele><time>2026-04-08T08:50:53Z</time></trkpt><trkpt lat="45.694693713321215" lon="6.93249920143653"><ele>2249.0</ele><time>2026-04-08T08:50:55Z</time></trkpt><trkpt lat="45.694666431612724" lon="6.932400277423953"><ele>2250.285714285714</ele><time>2026-04-08T08:50:57Z</time></trkpt><trkpt lat="45.694642898454354" lon="6.932303269789961"><ele>2251.5714285714284</ele><time>2026-04-08T08:50:59Z</time></trkpt><trkpt lat="45.694619198598446" lon="6.932210380783295"><ele>2252.8571428571427</ele><time>2026-04-08T08:51:01Z</time></trkpt><trkpt lat="45.69459092130178" lon="6.932111683993013"><ele>2254.142857142857</ele><time>2026-04-08T08:51:03.001Z</time></trkpt><trkpt lat="45.694564580077" lon="6.932018250283272"><ele>2255.428571428571</ele><time>2026-04-08T08:51:05.001Z</time></trkpt><trkpt lat="45.694541403805864" lon="6.931928120663655"><ele>2256.714285714286</ele><time>2026-04-08T08:51:07.001Z</time></trkpt><trkpt lat="45.69451211154024" lon="6.931833082946018"><ele>2258.0</ele><time>2026-04-08T08:51:09.001Z</time></trkpt><trkpt lat="45.69448663532586" lon="6.931735776621898"><ele>2258.285714285714</ele><time>2026-04-08T08:51:11.001Z</time></trkpt><trkpt lat="45.69446064581165" lon="6.9316409685674225"><ele>2258.5714285714284</ele><time>2026-04-08T08:51:13.001Z</time></trkpt><trkpt lat="45.694437569694465" lon="6.931549470321322"><ele>2258.8571428571427</ele><time>2026-04-08T08:51:15.001Z</time></trkpt><trkpt lat="45.69441094137736" lon="6.9314572199506035"><ele>2259.142857142857</ele><time>2026-04-08T08:51:17.001Z</time></trkpt><trkpt lat="45.69438069125306" lon="6.9313569133023245"><ele>2259.4285714285716</ele><time>2026-04-08T08:51:19.001Z</time></trkpt><trkpt lat="45.694355977895675" lon="6.931259576422688"><ele>2259.7142857142853</ele><time>2026-04-08T08:51:21.001Z</time></trkpt><trkpt lat="45.69433084124556" lon="6.931163886089703"><ele>2260.0</ele><time>2026-04-08T08:51:23.001Z</time></trkpt><trkpt lat="45.694304632317454" lon="6.9310682080529125"><ele>2259.9999999999995</ele><time>2026-04-08T08:51:25.001Z</time></trkpt><trkpt lat="45.69428145112163" lon="6.930976553256158"><ele>2260.0</ele><time>2026-04-08T08:51:27.001Z</time></trkpt><trkpt lat="45.69425469459872" lon="6.93088278663435"><ele>2260.0</ele><time>2026-04-08T08:51:29.001Z</time></trkpt><trkpt lat="45.69423148501264" lon="6.930795494112265"><ele>2260.0</ele><time>2026-04-08T08:51:31.001Z</time></trkpt><trkpt lat="45.69420968253157" lon="6.930703407072876"><ele>2260.0</ele><time>2026-04-08T08:51:33.001Z</time></trkpt><trkpt lat="45.69418030240649" lon="6.930607611571683"><ele>2259.9999999999995</ele><time>2026-04-08T08:51:35.001Z</time></trkpt><trkpt lat="45.69415089562876" lon="6.930506775167919"><ele>2260.0</ele><time>2026-04-08T08:51:37.001Z</time></trkpt><trkpt lat="45.6941227427284" lon="6.930407738471056"><ele>2261.5714285714284</ele><time>2026-04-08T08:51:39.001Z</time></trkpt><trkpt lat="45.69409664689382" lon="6.930306933594852"><ele>2263.142857142857</ele><time>2026-04-08T08:51:41.001Z</time></trkpt><trkpt lat="45.694073813778125" lon="6.930214694352841"><ele>2264.714285714286</ele><time>2026-04-08T08:51:43.001Z</time></trkpt><trkpt lat="45.69404574116598" lon="6.930117236008039"><ele>2266.285714285714</ele><time>2026-04-08T08:51:45.001Z</time></trkpt><trkpt lat="45.69401928941032" lon="6.930023078399995"><ele>2267.857142857143</ele><time>2026-04-08T08:51:47Z</time></trkpt><trkpt lat="45.69399344548867" lon="6.929927192101197"><ele>2269.4285714285716</ele><time>2026-04-08T08:51:49Z</time></trkpt><trkpt lat="45.69396694070766" lon="6.929833040809969"><ele>2271.0</ele><time>2026-04-08T08:51:51Z</time></trkpt><trkpt lat="45.693940079574915" lon="6.9297380671095095"><ele>2272.857142857143</ele><time>2026-04-08T08:51:53Z</time></trkpt><trkpt lat="45.69391172423189" lon="6.929639694116132"><ele>2274.714285714286</ele><time>2026-04-08T08:51:55Z</time></trkpt><trkpt lat="45.693880372522464" lon="6.929540404502335"><ele>2276.5714285714284</ele><time>2026-04-08T08:51:57Z</time></trkpt><trkpt lat="45.693856739580156" lon="6.92944456194265"><ele>2278.4285714285716</ele><time>2026-04-08T08:51:59Z</time></trkpt><trkpt lat="45.69383176468843" lon="6.9293454713916"><ele>2280.285714285714</ele><time>2026-04-08T08:52:01Z</time></trkpt><trkpt lat="45.69380787623399" lon="6.929253631696693"><ele>2282.1428571428573</ele><time>2026-04-08T08:52:03Z</time></trkpt><trkpt lat="45.69378294783611" lon="6.929165041049928"><ele>2284.0</ele><time>2026-04-08T08:52:05Z</time></trkpt><trkpt lat="45.69375637578285" lon="6.9290626308067385"><ele>2284.857142857143</ele><time>2026-04-08T08:52:07Z</time></trkpt><trkpt lat="45.69373345494716" lon="6.928967062408083"><ele>2285.714285714286</ele><time>2026-04-08T08:52:09Z</time></trkpt><trkpt lat="45.69370830153729" lon="6.928875733226992"><ele>2286.5714285714284</ele><time>2026-04-08T08:52:11Z</time></trkpt><trkpt lat="45.69368482243991" lon="6.9287844558822"><ele>2287.4285714285716</ele><time>2026-04-08T08:52:13Z</time></trkpt><trkpt lat="45.693659099991486" lon="6.928689224185764"><ele>2288.285714285714</ele><time>2026-04-08T08:52:15Z</time></trkpt><trkpt lat="45.693632581919225" lon="6.928591628635187"><ele>2289.1428571428573</ele><time>2026-04-08T08:52:17Z</time></trkpt><trkpt lat="45.69360794783877" lon="6.928496856244763"><ele>2290.0</ele><time>2026-04-08T08:52:19Z</time></trkpt><trkpt lat="45.69358289374498" lon="6.92840570623528"><ele>2290.857142857143</ele><time>2026-04-08T08:52:21Z</time></trkpt><trkpt lat="45.6935592330664" lon="6.928313739300275"><ele>2291.714285714286</ele><time>2026-04-08T08:52:23Z</time></trkpt><trkpt lat="45.693534938739134" lon="6.9282238983367535"><ele>2292.5714285714284</ele><time>2026-04-08T08:52:25Z</time></trkpt><trkpt lat="45.69350806241411" lon="6.928128626491861"><ele>2293.4285714285716</ele><time>2026-04-08T08:52:27Z</time></trkpt><trkpt lat="45.69348275234648" lon="6.928032674420832"><ele>2294.285714285714</ele><time>2026-04-08T08:52:29Z</time></trkpt><trkpt lat="45.693457420031486" lon="6.927937452129146"><ele>2295.1428571428573</ele><time>2026-04-08T08:52:31Z</time></trkpt><trkpt lat="45.6934278523245" lon="6.927837667292928"><ele>2296.0</ele><time>2026-04-08T08:52:33Z</time></trkpt><trkpt lat="45.69339781139209" lon="6.927735557024072"><ele>2296.0</ele><time>2026-04-08T08:52:35Z</time></trkpt><trkpt lat="45.69337249105013" lon="6.927640768847492"><ele>2296.0</ele><time>2026-04-08T08:52:37Z</time></trkpt><trkpt lat="45.69334401970212" lon="6.927543481565147"><ele>2296.0</ele><time>2026-04-08T08:52:39Z</time></trkpt><trkpt lat="45.6933199994731" lon="6.9274538830142784"><ele>2296.0</ele><time>2026-04-08T08:52:41Z</time></trkpt><trkpt lat="45.69329021503235" lon="6.92734834176929"><ele>2296.0</ele><time>2026-04-08T08:52:43Z</time></trkpt><trkpt lat="45.69326398780991" lon="6.9272507417155476"><ele>2296.0</ele><time>2026-04-08T08:52:45Z</time></trkpt><trkpt lat="45.693237326231845" lon="6.927153664465594"><ele>2296.0</ele><time>2026-04-08T08:52:47Z</time></trkpt><trkpt lat="45.69321260163646" lon="6.927060258049731"><ele>2296.5714285714284</ele><time>2026-04-08T08:52:49Z</time></trkpt><trkpt lat="45.69318641385661" lon="6.926963100044351"><ele>2297.142857142857</ele><time>2026-04-08T08:52:51Z</time></trkpt><trkpt lat="45.693161495043036" lon="6.926872109511829"><ele>2297.714285714286</ele><time>2026-04-08T08:52:53Z</time></trkpt><trkpt lat="45.693136217268076" lon="6.926780341837044"><ele>2298.285714285714</ele><time>2026-04-08T08:52:55Z</time></trkpt><trkpt lat="45.69310872184767" lon="6.926681142745684"><ele>2298.8571428571427</ele><time>2026-04-08T08:52:57Z</time></trkpt><trkpt lat="45.693083688432985" lon="6.926587742200464"><ele>2299.4285714285716</ele><time>2026-04-08T08:52:59Z</time></trkpt><trkpt lat="45.69306045589374" lon="6.926499867473374"><ele>2300.0</ele><time>2026-04-08T08:53:01Z</time></trkpt><trkpt lat="45.69303818693493" lon="6.92641535666611"><ele>2301.1666666666665</ele><time>2026-04-08T08:53:03Z</time></trkpt><trkpt lat="45.693012883340366" lon="6.926328954942644"><ele>2302.333333333333</ele><time>2026-04-08T08:53:05Z</time></trkpt><trkpt lat="45.69297829565307" lon="6.9262134563568765"><ele>2303.5</ele><time>2026-04-08T08:53:09.001Z</time></trkpt><trkpt lat="45.69295364694985" lon="6.926120414416257"><ele>2304.6666666666665</ele><time>2026-04-08T08:53:12.001Z</time></trkpt><trkpt lat="45.69292754846506" lon="6.92602243547715"><ele>2305.8333333333335</ele><time>2026-04-08T08:53:15.001Z</time></trkpt><trkpt lat="45.69289828863146" lon="6.925910446399009"><ele>2307.0</ele><time>2026-04-08T08:53:18.001Z</time></trkpt><trkpt lat="45.692870192866934" lon="6.92580881773944"><ele>2307.6666666666665</ele><time>2026-04-08T08:53:20.001Z</time></trkpt><trkpt lat="45.6928490049148" lon="6.9257156281573735"><ele>2308.3333333333335</ele><time>2026-04-08T08:53:23.001Z</time></trkpt><trkpt lat="45.69282248257536" lon="6.92562462147512"><ele>2309.0</ele><time>2026-04-08T08:53:32.001Z</time></trkpt><trkpt lat="45.69276885815036" lon="6.925575096194615"><ele>2309.666666666667</ele><time>2026-04-08T08:53:39Z</time></trkpt><trkpt lat="45.69276388561374" lon="6.925452162740782"><ele>2310.3333333333335</ele><time>2026-04-08T08:53:47Z</time></trkpt><trkpt lat="45.69274893127233" lon="6.925335928677715"><ele>2311.0</ele><time>2026-04-08T08:53:50Z</time></trkpt><trkpt lat="45.69271299387771" lon="6.925194974035601"><ele>2312.8333333333335</ele><time>2026-04-08T08:53:53Z</time></trkpt><trkpt lat="45.69266650033041" lon="6.92503353825792"><ele>2314.666666666667</ele><time>2026-04-08T08:53:56Z</time></trkpt><trkpt lat="45.69263098386334" lon="6.924933613388248"><ele>2316.5</ele><time>2026-04-08T08:53:58Z</time></trkpt><trkpt lat="45.69260624511147" lon="6.92482572034585"><ele>2318.3333333333335</ele><time>2026-04-08T08:54:00Z</time></trkpt><trkpt lat="45.69257595553043" lon="6.924728259601772"><ele>2320.1666666666665</ele><time>2026-04-08T08:54:02Z</time></trkpt><trkpt lat="45.692550135364336" lon="6.924632428349614"><ele>2322.0</ele><time>2026-04-08T08:54:04Z</time></trkpt><trkpt lat="45.69252145211006" lon="6.924510359313249"><ele>2322.0</ele><time>2026-04-08T08:54:07Z</time></trkpt><trkpt lat="45.69249104723183" lon="6.924413987970732"><ele>2322.0</ele><time>2026-04-08T08:54:09Z</time></trkpt><trkpt lat="45.692465576746976" lon="6.924313092700585"><ele>2322.0</ele><time>2026-04-08T08:54:11Z</time></trkpt><trkpt lat="45.692437770234825" lon="6.924216751795848"><ele>2322.0</ele><time>2026-04-08T08:54:13Z</time></trkpt><trkpt lat="45.69241111547577" lon="6.924119770925953"><ele>2322.0</ele><time>2026-04-08T08:54:15Z</time></trkpt><trkpt lat="45.69238836090897" lon="6.9240285759201"><ele>2322.0</ele><time>2026-04-08T08:54:17Z</time></trkpt><trkpt lat="45.6923625121489" lon="6.9239345585239755"><ele>2322.0</ele><time>2026-04-08T08:54:19Z</time></trkpt><trkpt lat="45.69233927567617" lon="6.923842079779558"><ele>2324.5</ele><time>2026-04-08T08:54:21Z</time></trkpt><trkpt lat="45.692313943146104" lon="6.923750254550571"><ele>2327.0</ele><time>2026-04-08T08:54:23Z</time></trkpt><trkpt lat="45.692287470567656" lon="6.923660023906312"><ele>2329.5</ele><time>2026-04-08T08:54:25Z</time></trkpt><trkpt lat="45.69225924106527" lon="6.92352696783016"><ele>2332.0</ele><time>2026-04-08T08:54:28Z</time></trkpt><trkpt lat="45.69223033835779" lon="6.923430539151589"><ele>2334.5</ele><time>2026-04-08T08:54:30Z</time></trkpt><trkpt lat="45.69220302819725" lon="6.923326799221454"><ele>2337.0</ele><time>2026-04-08T08:54:32Z</time></trkpt><trkpt lat="45.69217386002229" lon="6.923227847416472"><ele>2340.142857142857</ele><time>2026-04-08T08:54:34Z</time></trkpt><trkpt lat="45.69214928680774" lon="6.923135889616083"><ele>2343.285714285714</ele><time>2026-04-08T08:54:36Z</time></trkpt><trkpt lat="45.692121439815736" lon="6.923041856327485"><ele>2346.4285714285716</ele><time>2026-04-08T08:54:38Z</time></trkpt><trkpt lat="45.692095676138024" lon="6.922944801529407"><ele>2349.5714285714284</ele><time>2026-04-08T08:54:40Z</time></trkpt><trkpt lat="45.69206923997822" lon="6.9228534702681195"><ele>2352.714285714286</ele><time>2026-04-08T08:54:42Z</time></trkpt><trkpt lat="45.69204637278904" lon="6.922761545147783"><ele>2355.8571428571427</ele><time>2026-04-08T08:54:44Z</time></trkpt><trkpt lat="45.69202116986417" lon="6.922667649054013"><ele>2359.0</ele><time>2026-04-08T08:54:46Z</time></trkpt><trkpt lat="45.691992445370246" lon="6.922569864823359"><ele>2360.4285714285716</ele><time>2026-04-08T08:54:48Z</time></trkpt><trkpt lat="45.6919653651026" lon="6.9224827284876165"><ele>2361.857142857143</ele><time>2026-04-08T08:54:50Z</time></trkpt><trkpt lat="45.691941686591285" lon="6.922391804955063"><ele>2363.285714285714</ele><time>2026-04-08T08:54:52Z</time></trkpt><trkpt lat="45.69191227427034" lon="6.922295402339365"><ele>2364.714285714286</ele><time>2026-04-08T08:54:54Z</time></trkpt><trkpt lat="45.69188797304702" lon="6.922199519331852"><ele>2366.1428571428573</ele><time>2026-04-08T08:54:56Z</time></trkpt><trkpt lat="45.69186250397985" lon="6.922076433262284"><ele>2367.5714285714284</ele><time>2026-04-08T08:54:59Z</time></trkpt><trkpt lat="45.69183459233701" lon="6.9219818850066055"><ele>2369.0</ele><time>2026-04-08T08:55:01Z</time></trkpt><trkpt lat="45.69180707618897" lon="6.921888387985582"><ele>2369.0</ele><time>2026-04-08T08:55:03Z</time></trkpt><trkpt lat="45.69178127479668" lon="6.92179520948879"><ele>2369.0</ele><time>2026-04-08T08:55:05Z</time></trkpt><trkpt lat="45.69175571392717" lon="6.921697081282027"><ele>2369.0</ele><time>2026-04-08T08:55:07Z</time></trkpt><trkpt lat="45.69173036601437" lon="6.9216060589224035"><ele>2369.0</ele><time>2026-04-08T08:55:09Z</time></trkpt><trkpt lat="45.69170248922206" lon="6.921511838437846"><ele>2369.0</ele><time>2026-04-08T08:55:11Z</time></trkpt><trkpt lat="45.69167634052625" lon="6.921417975744502"><ele>2369.0</ele><time>2026-04-08T08:55:13Z</time></trkpt><trkpt lat="45.691650088198344" lon="6.921327309336527"><ele>2369.0</ele><time>2026-04-08T08:55:15.001Z</time></trkpt><trkpt lat="45.69162527187486" lon="6.921241660916385"><ele>2371.5714285714284</ele><time>2026-04-08T08:55:17Z</time></trkpt><trkpt lat="45.69159866598076" lon="6.921144794161639"><ele>2374.1428571428573</ele><time>2026-04-08T08:55:19.001Z</time></trkpt><trkpt lat="45.69157003132698" lon="6.921051475133069"><ele>2376.714285714286</ele><time>2026-04-08T08:55:21Z</time></trkpt><trkpt lat="45.69154371725359" lon="6.9209577356474625"><ele>2379.285714285714</ele><time>2026-04-08T08:55:23Z</time></trkpt><trkpt lat="45.69151720774231" lon="6.92086222227903"><ele>2381.857142857143</ele><time>2026-04-08T08:55:25Z</time></trkpt><trkpt lat="45.691493822206084" lon="6.92077329376565"><ele>2384.4285714285716</ele><time>2026-04-08T08:55:27Z</time></trkpt><trkpt lat="45.69147174800039" lon="6.920672191669256"><ele>2387.0</ele><time>2026-04-08T08:55:30Z</time></trkpt><trkpt lat="45.69144564543318" lon="6.920581650045794"><ele>2389.285714285714</ele><time>2026-04-08T08:55:32Z</time></trkpt><trkpt lat="45.69141919713943" lon="6.9204879113299596"><ele>2391.5714285714284</ele><time>2026-04-08T08:55:34Z</time></trkpt><trkpt lat="45.69139644002508" lon="6.920398847586316"><ele>2393.857142857143</ele><time>2026-04-08T08:55:36Z</time></trkpt><trkpt lat="45.69137048101944" lon="6.920306098734737"><ele>2396.142857142857</ele><time>2026-04-08T08:55:38Z</time></trkpt><trkpt lat="45.691346144245884" lon="6.920213673893529"><ele>2398.4285714285716</ele><time>2026-04-08T08:55:40Z</time></trkpt><trkpt lat="45.69132272353804" lon="6.920120985320093"><ele>2400.714285714286</ele><time>2026-04-08T08:55:42Z</time></trkpt><trkpt lat="45.69129970711871" lon="6.920033866472325"><ele>2403.0</ele><time>2026-04-08T08:55:44Z</time></trkpt><trkpt lat="45.69127495299727" lon="6.919943674741121"><ele>2406.4285714285716</ele><time>2026-04-08T08:55:46Z</time></trkpt><trkpt lat="45.69124929101428" lon="6.919855536272397"><ele>2409.8571428571427</ele><time>2026-04-08T08:55:48Z</time></trkpt><trkpt lat="45.69122452420041" lon="6.919769306520083"><ele>2413.285714285714</ele><time>2026-04-08T08:55:50Z</time></trkpt><trkpt lat="45.69120083696666" lon="6.919677653756034"><ele>2416.714285714286</ele><time>2026-04-08T08:55:52Z</time></trkpt><trkpt lat="45.69117323777878" lon="6.919586549077575"><ele>2420.1428571428573</ele><time>2026-04-08T08:55:54Z</time></trkpt><trkpt lat="45.69114962996179" lon="6.919498542126596"><ele>2423.5714285714284</ele><time>2026-04-08T08:55:56Z</time></trkpt><trkpt lat="45.69111943113156" lon="6.919369554348758"><ele>2427.0</ele><time>2026-04-08T08:55:59Z</time></trkpt><trkpt lat="45.691091344567816" lon="6.919247420842684"><ele>2432.5714285714284</ele><time>2026-04-08T08:56:02Z</time></trkpt><trkpt lat="45.69106674079105" lon="6.919154196179409"><ele>2438.1428571428573</ele><time>2026-04-08T08:56:04Z</time></trkpt><trkpt lat="45.69104181182872" lon="6.919060313247685"><ele>2443.714285714286</ele><time>2026-04-08T08:56:06Z</time></trkpt><trkpt lat="45.69101622715709" lon="6.918967675171113"><ele>2449.285714285714</ele><time>2026-04-08T08:56:08Z</time></trkpt><trkpt lat="45.690990825794174" lon="6.918878195328023"><ele>2454.8571428571427</ele><time>2026-04-08T08:56:10Z</time></trkpt><trkpt lat="45.690963988311786" lon="6.918791400298177"><ele>2460.4285714285716</ele><time>2026-04-08T08:56:12Z</time></trkpt><trkpt lat="45.69093777210343" lon="6.918705302698771"><ele>2466.0</ele><time>2026-04-08T08:56:14Z</time></trkpt><trkpt lat="45.690898677859565" lon="6.918577291211542"><ele>2466.0</ele><time>2026-04-08T08:56:17Z</time></trkpt><trkpt lat="45.69086594933557" lon="6.918455350395922"><ele>2466.0</ele><time>2026-04-08T08:56:20Z</time></trkpt><trkpt lat="45.690842953048396" lon="6.918371099303482"><ele>2466.0</ele><time>2026-04-08T08:56:22Z</time></trkpt><trkpt lat="45.69081897244729" lon="6.918282087853934"><ele>2466.0</ele><time>2026-04-08T08:56:24Z</time></trkpt><trkpt lat="45.690794855882984" lon="6.918193761153449"><ele>2466.0</ele><time>2026-04-08T08:56:26Z</time></trkpt><trkpt lat="45.69076907764881" lon="6.9181093597737755"><ele>2466.0</ele><time>2026-04-08T08:56:28Z</time></trkpt><trkpt lat="45.69073773281329" lon="6.917997659059757"><ele>2466.0</ele><time>2026-04-08T08:56:31Z</time></trkpt><trkpt lat="45.690712086968276" lon="6.917906296685159"><ele>2471.0</ele><time>2026-04-08T08:56:33Z</time></trkpt><trkpt lat="45.69068888687582" lon="6.9178175128257315"><ele>2476.0</ele><time>2026-04-08T08:56:35Z</time></trkpt><trkpt lat="45.69066275999831" lon="6.917718238850348"><ele>2481.0</ele><time>2026-04-08T08:56:37Z</time></trkpt><trkpt lat="45.69063256591568" lon="6.917623870456497"><ele>2486.0</ele><time>2026-04-08T08:56:39Z</time></trkpt><trkpt lat="45.69059968861261" lon="6.917502842963515"><ele>2491.0</ele><time>2026-04-08T08:56:41.999Z</time></trkpt><trkpt lat="45.6905623724033" lon="6.917374500445473"><ele>2496.0</ele><time>2026-04-08T08:56:44.999Z</time></trkpt><trkpt lat="45.69053968724904" lon="6.917285668790306"><ele>2500.571428571429</ele><time>2026-04-08T08:56:46.999Z</time></trkpt><trkpt lat="45.69051690946294" lon="6.917196433977285"><ele>2505.142857142857</ele><time>2026-04-08T08:56:48.999Z</time></trkpt><trkpt lat="45.69049269268159" lon="6.917101923636336"><ele>2509.714285714286</ele><time>2026-04-08T08:56:50.999Z</time></trkpt><trkpt lat="45.69046975406502" lon="6.917017623882902"><ele>2514.2857142857147</ele><time>2026-04-08T08:56:52.999Z</time></trkpt><trkpt lat="45.69044065885532" lon="6.916893811009855"><ele>2518.857142857143</ele><time>2026-04-08T08:56:55.999Z</time></trkpt><trkpt lat="45.69041649991677" lon="6.91680140189558"><ele>2523.4285714285716</ele><time>2026-04-08T08:56:57.999Z</time></trkpt><trkpt lat="45.690390222167835" lon="6.9167082509315065"><ele>2528.0</ele><time>2026-04-08T08:56:59.999Z</time></trkpt><trkpt lat="45.690360555323615" lon="6.916592799126141"><ele>2530.857142857143</ele><time>2026-04-08T08:57:02.999Z</time></trkpt><trkpt lat="45.690334749455964" lon="6.916494426705821"><ele>2533.714285714286</ele><time>2026-04-08T08:57:05.999Z</time></trkpt><trkpt lat="45.690318140936355" lon="6.916394311831783"><ele>2536.5714285714284</ele><time>2026-04-08T08:57:11.999Z</time></trkpt><trkpt lat="45.6902910514528" lon="6.916287951700544"><ele>2539.4285714285716</ele><time>2026-04-08T08:57:15.999Z</time></trkpt><trkpt lat="45.690249451666304" lon="6.916216701810117"><ele>2542.285714285714</ele><time>2026-04-08T08:57:18.999Z</time></trkpt><trkpt lat="45.6902112421713" lon="6.916140525032764"><ele>2545.1428571428573</ele><time>2026-04-08T08:57:37Z</time></trkpt><trkpt lat="45.690150744200686" lon="6.916107242653528"><ele>2548.0</ele><time>2026-04-08T08:57:54Z</time></trkpt><trkpt lat="45.6900893056777" lon="6.916057870132037"><ele>2548.0</ele><time>2026-04-08T08:58:04Z</time></trkpt><trkpt lat="45.6900111441491" lon="6.916011563225456"><ele>2548.0</ele><time>2026-04-08T08:58:07Z</time></trkpt><trkpt lat="45.689924548623836" lon="6.915975890014813"><ele>2548.0</ele><time>2026-04-08T08:58:10Z</time></trkpt><trkpt lat="45.68985116096332" lon="6.91593044067873"><ele>2548.0</ele><time>2026-04-08T08:58:12Z</time></trkpt><trkpt lat="45.68977742964876" lon="6.915928714603369"><ele>2548.0</ele><time>2026-04-08T08:58:14Z</time></trkpt><trkpt lat="45.689710035755894" lon="6.915894830679623"><ele>2548.0</ele><time>2026-04-08T08:58:16Z</time></trkpt><trkpt lat="45.68965938865773" lon="6.915824035827596"><ele>2548.166666666667</ele><time>2026-04-08T08:58:18Z</time></trkpt><trkpt lat="45.68956579227401" lon="6.915785176943145"><ele>2548.3333333333335</ele><time>2026-04-08T08:58:21Z</time></trkpt><trkpt lat="45.68951839928582" lon="6.915685975720953"><ele>2548.5</ele><time>2026-04-08T08:58:22.999Z</time></trkpt><trkpt lat="45.68945402678826" lon="6.915599016161342"><ele>2548.6666666666665</ele><time>2026-04-08T08:58:24.999Z</time></trkpt><trkpt lat="45.68937644304807" lon="6.915641783197757"><ele>2548.833333333333</ele><time>2026-04-08T08:58:26.999Z</time></trkpt><trkpt lat="45.689329945843916" lon="6.9155520078241715"><ele>2549.0</ele><time>2026-04-08T08:58:28.999Z</time></trkpt><trkpt lat="45.68924319264703" lon="6.9155122322373455"><ele>2547.4</ele><time>2026-04-08T08:58:30.999Z</time></trkpt><trkpt lat="45.68916905593188" lon="6.91545420122196"><ele>2545.8</ele><time>2026-04-08T08:58:32.999Z</time></trkpt><trkpt lat="45.68908840697383" lon="6.915423546986084"><ele>2544.2</ele><time>2026-04-08T08:58:34.999Z</time></trkpt><trkpt lat="45.68901488946629" lon="6.915336630377765"><ele>2542.6</ele><time>2026-04-08T08:58:36.999Z</time></trkpt><trkpt lat="45.688904583934345" lon="6.915296484111223"><ele>2541.0</ele><time>2026-04-08T08:58:38.999Z</time></trkpt><trkpt lat="45.688857761827265" lon="6.915183375252141"><ele>2541.0</ele><time>2026-04-08T08:58:40.999Z</time></trkpt><trkpt lat="45.688752339703335" lon="6.915109837304268"><ele>2541.0</ele><time>2026-04-08T08:58:42.999Z</time></trkpt><trkpt lat="45.68867392546219" lon="6.914995880518744"><ele>2541.0</ele><time>2026-04-08T08:58:44.999Z</time></trkpt><trkpt lat="45.688617792242816" lon="6.914927313763807"><ele>2541.0</ele><time>2026-04-08T08:58:45.999Z</time></trkpt><trkpt lat="45.6885663640026" lon="6.914844672924261"><ele>2541.0</ele><time>2026-04-08T08:58:46.999Z</time></trkpt><trkpt lat="45.68848535022454" lon="6.914707891074586"><ele>2536.3333333333335</ele><time>2026-04-08T08:58:48.999Z</time></trkpt><trkpt lat="45.688419930410454" lon="6.9146467250324095"><ele>2531.6666666666665</ele><time>2026-04-08T08:58:49.999Z</time></trkpt><trkpt lat="45.68837066071214" lon="6.914571257809863"><ele>2527.0</ele><time>2026-04-08T08:58:50.999Z</time></trkpt><trkpt lat="45.688341353907475" lon="6.914488749145331"><ele>2522.333333333333</ele><time>2026-04-08T08:58:51.999Z</time></trkpt><trkpt lat="45.6882484529462" lon="6.9143482807066645"><ele>2517.6666666666665</ele><time>2026-04-08T08:58:53.999Z</time></trkpt><trkpt lat="45.688195918676655" lon="6.914274835346926"><ele>2513.0</ele><time>2026-04-08T08:58:54.999Z</time></trkpt><trkpt lat="45.68817118680298" lon="6.914179823683912"><ele>2512.2000000000003</ele><time>2026-04-08T08:58:55.999Z</time></trkpt><trkpt lat="45.68813063636372" lon="6.914095957934617"><ele>2511.4</ele><time>2026-04-08T08:58:56.999Z</time></trkpt><trkpt lat="45.68807008621125" lon="6.914031817536807"><ele>2510.6000000000004</ele><time>2026-04-08T08:58:57.999Z</time></trkpt><trkpt lat="45.688016420083834" lon="6.913883921138129"><ele>2509.8</ele><time>2026-04-08T08:58:59.999Z</time></trkpt><trkpt lat="45.68792916144005" lon="6.913760422179102"><ele>2509.0</ele><time>2026-04-08T08:59:01.999Z</time></trkpt><trkpt lat="45.687840496032635" lon="6.913630595541596"><ele>2509.0</ele><time>2026-04-08T08:59:03.999Z</time></trkpt><trkpt lat="45.68781455937835" lon="6.913541504787313"><ele>2509.0</ele><time>2026-04-08T08:59:04.999Z</time></trkpt><trkpt lat="45.68772657931811" lon="6.913455240881535"><ele>2509.0</ele><time>2026-04-08T08:59:06.999Z</time></trkpt><trkpt lat="45.68767343323744" lon="6.913406442982924"><ele>2509.0</ele><time>2026-04-08T08:59:07.999Z</time></trkpt><trkpt lat="45.68760933731884" lon="6.913341549927088"><ele>2509.0</ele><time>2026-04-08T08:59:08.999Z</time></trkpt><trkpt lat="45.68757144137249" lon="6.913259299327839"><ele>2509.0</ele><time>2026-04-08T08:59:09.999Z</time></trkpt><trkpt lat="45.687492038441015" lon="6.9131056303959815"><ele>2506.714285714286</ele><time>2026-04-08T08:59:11.999Z</time></trkpt><trkpt lat="45.687427349036106" lon="6.913053264630896"><ele>2504.4285714285716</ele><time>2026-04-08T08:59:12.999Z</time></trkpt><trkpt lat="45.687388410000935" lon="6.912972348216613"><ele>2502.1428571428573</ele><time>2026-04-08T08:59:13.999Z</time></trkpt><trkpt lat="45.68734923758919" lon="6.912892792405341"><ele>2499.857142857143</ele><time>2026-04-08T08:59:14.999Z</time></trkpt><trkpt lat="45.687290629068706" lon="6.912845612508877"><ele>2497.5714285714284</ele><time>2026-04-08T08:59:15.999Z</time></trkpt><trkpt lat="45.687228665338466" lon="6.912793828425195"><ele>2495.2857142857147</ele><time>2026-04-08T08:59:16.999Z</time></trkpt><trkpt lat="45.687189710025656" lon="6.912709596856141"><ele>2493.0</ele><time>2026-04-08T08:59:17.999Z</time></trkpt><trkpt lat="45.687082579189145" lon="6.912617747919499"><ele>2492.4285714285716</ele><time>2026-04-08T08:59:19.999Z</time></trkpt><trkpt lat="45.687015535197744" lon="6.912567262002773"><ele>2491.857142857143</ele><time>2026-04-08T08:59:20.999Z</time></trkpt><trkpt lat="45.686954764733976" lon="6.91250175715317"><ele>2491.2857142857147</ele><time>2026-04-08T08:59:21.999Z</time></trkpt><trkpt lat="45.686918130955824" lon="6.912424997564119"><ele>2490.714285714286</ele><time>2026-04-08T08:59:22.999Z</time></trkpt><trkpt lat="45.686856756036974" lon="6.9123714040432676"><ele>2490.142857142857</ele><time>2026-04-08T08:59:23.999Z</time></trkpt><trkpt lat="45.686795582814646" lon="6.912322938440691"><ele>2489.571428571429</ele><time>2026-04-08T08:59:24.999Z</time></trkpt><trkpt lat="45.68673594782915" lon="6.912258876019639"><ele>2489.0</ele><time>2026-04-08T08:59:25.999Z</time></trkpt><trkpt lat="45.68668705440287" lon="6.912193429982688"><ele>2487.333333333333</ele><time>2026-04-08T08:59:27Z</time></trkpt><trkpt lat="45.686637053317774" lon="6.912131015686278"><ele>2485.6666666666665</ele><time>2026-04-08T08:59:28Z</time></trkpt><trkpt lat="45.68658164488172" lon="6.912067896691812"><ele>2484.0</ele><time>2026-04-08T08:59:29Z</time></trkpt><trkpt lat="45.68651528355921" lon="6.912006061622502"><ele>2482.3333333333335</ele><time>2026-04-08T08:59:30Z</time></trkpt><trkpt lat="45.68647983169745" lon="6.911875080188498"><ele>2480.666666666667</ele><time>2026-04-08T08:59:32Z</time></trkpt><trkpt lat="45.686502076556614" lon="6.91174629304996"><ele>2479.0</ele><time>2026-04-08T08:59:35Z</time></trkpt><trkpt lat="45.686588716942275" lon="6.911672496825528"><ele>2477.5</ele><time>2026-04-08T08:59:37Z</time></trkpt><trkpt lat="45.686705360272505" lon="6.91169693973419"><ele>2476.0</ele><time>2026-04-08T08:59:39Z</time></trkpt><trkpt lat="45.68682001861378" lon="6.9116448011494995"><ele>2474.5</ele><time>2026-04-08T08:59:41Z</time></trkpt><trkpt lat="45.68691267129225" lon="6.911674741748284"><ele>2473.0</ele><time>2026-04-08T08:59:43Z</time></trkpt><trkpt lat="45.687064442626884" lon="6.911602187733832"><ele>2473.0</ele><time>2026-04-08T08:59:47Z</time></trkpt><trkpt lat="45.687159137183244" lon="6.91159197433648"><ele>2473.0</ele><time>2026-04-08T08:59:49Z</time></trkpt><trkpt lat="45.68715362693999" lon="6.911496280346967"><ele>2473.0</ele><time>2026-04-08T08:59:53Z</time></trkpt><trkpt lat="45.687075507668304" lon="6.9114334785718885"><ele>2473.0</ele><time>2026-04-08T08:59:56Z</time></trkpt><trkpt lat="45.687011273966284" lon="6.9114133212857745"><ele>2473.0</ele><time>2026-04-08T08:59:59Z</time></trkpt><trkpt lat="45.68693421348054" lon="6.911334379880004"><ele>2473.0</ele><time>2026-04-08T09:00:11Z</time></trkpt><trkpt lat="45.68683869988756" lon="6.911240668516737"><ele>2473.0</ele><time>2026-04-08T09:00:13Z</time></trkpt><trkpt lat="45.68680438307815" lon="6.9111647025435845"><ele>2473.0</ele><time>2026-04-08T09:00:14Z</time></trkpt><trkpt lat="45.686769483648106" lon="6.911071749881323"><ele>2473.0</ele><time>2026-04-08T09:00:15Z</time></trkpt><trkpt lat="45.68671316990717" lon="6.910992827026943"><ele>2473.0</ele><time>2026-04-08T09:00:16Z</time></trkpt><trkpt lat="45.68664838489701" lon="6.910934655935854"><ele>2473.0</ele><time>2026-04-08T09:00:17Z</time></trkpt><trkpt lat="45.68658475564316" lon="6.9108619171666605"><ele>2473.0</ele><time>2026-04-08T09:00:18Z</time></trkpt><trkpt lat="45.68654496816912" lon="6.9107679942687055"><ele>2469.3333333333335</ele><time>2026-04-08T09:00:19Z</time></trkpt><trkpt lat="45.68651229132101" lon="6.9106659432838855"><ele>2465.666666666667</ele><time>2026-04-08T09:00:20Z</time></trkpt><trkpt lat="45.68646000166424" lon="6.910587350827976"><ele>2462.0</ele><time>2026-04-08T09:00:21Z</time></trkpt><trkpt lat="45.686403915504044" lon="6.910515897346646"><ele>2458.3333333333335</ele><time>2026-04-08T09:00:22Z</time></trkpt><trkpt lat="45.68634749047301" lon="6.910434366102935"><ele>2454.6666666666665</ele><time>2026-04-08T09:00:22.999Z</time></trkpt><trkpt lat="45.68629882893934" lon="6.910332101110973"><ele>2451.0</ele><time>2026-04-08T09:00:23.999Z</time></trkpt><trkpt lat="45.68626862229864" lon="6.91021686647538"><ele>2451.0000000000005</ele><time>2026-04-08T09:00:24.999Z</time></trkpt><trkpt lat="45.68624120319309" lon="6.910118761232663"><ele>2451.0</ele><time>2026-04-08T09:00:25.999Z</time></trkpt><trkpt lat="45.68619361539314" lon="6.910032623545641"><ele>2451.0</ele><time>2026-04-08T09:00:26.999Z</time></trkpt><trkpt lat="45.68615089464519" lon="6.909948831511741"><ele>2451.0</ele><time>2026-04-08T09:00:27.999Z</time></trkpt><trkpt lat="45.68612641358959" lon="6.909851582462582"><ele>2451.0</ele><time>2026-04-08T09:00:28.999Z</time></trkpt><trkpt lat="45.68612373199116" lon="6.909744063281749"><ele>2451.0000000000005</ele><time>2026-04-08T09:00:29.999Z</time></trkpt><trkpt lat="45.68611152107258" lon="6.90963591419113"><ele>2451.0</ele><time>2026-04-08T09:00:30.999Z</time></trkpt><trkpt lat="45.68607493672046" lon="6.909557875036568"><ele>2450.0</ele><time>2026-04-08T09:00:31.999Z</time></trkpt><trkpt lat="45.68604476622654" lon="6.909459719606594"><ele>2449.0</ele><time>2026-04-08T09:00:32.999Z</time></trkpt><trkpt lat="45.68602542873858" lon="6.9093511220315404"><ele>2448.0</ele><time>2026-04-08T09:00:33.999Z</time></trkpt><trkpt lat="45.68602422990926" lon="6.909236655032545"><ele>2447.0</ele><time>2026-04-08T09:00:34.999Z</time></trkpt><trkpt lat="45.68605616962971" lon="6.909106430667339"><ele>2446.0</ele><time>2026-04-08T09:00:35.999Z</time></trkpt><trkpt lat="45.686095553981644" lon="6.908966136979237"><ele>2445.0</ele><time>2026-04-08T09:00:36.999Z</time></trkpt><trkpt lat="45.686112373913204" lon="6.90881752631049"><ele>2437.5</ele><time>2026-04-08T09:00:37.999Z</time></trkpt><trkpt lat="45.68616658181504" lon="6.908667883741385"><ele>2430.0</ele><time>2026-04-08T09:00:38.999Z</time></trkpt><trkpt lat="45.68623809170041" lon="6.908543280530709"><ele>2422.5</ele><time>2026-04-08T09:00:39.999Z</time></trkpt><trkpt lat="45.68630960391324" lon="6.908405525477037"><ele>2415.0</ele><time>2026-04-08T09:00:40.999Z</time></trkpt><trkpt lat="45.686366088329976" lon="6.908254121631047"><ele>2412.0</ele><time>2026-04-08T09:00:41.999Z</time></trkpt><trkpt lat="45.6864253081733" lon="6.908105057220595"><ele>2409.0</ele><time>2026-04-08T09:00:42.999Z</time></trkpt><trkpt lat="45.68649266224412" lon="6.907955896495403"><ele>2406.0</ele><time>2026-04-08T09:00:43.999Z</time></trkpt><trkpt lat="45.68655436621548" lon="6.907813474068824"><ele>2403.0</ele><time>2026-04-08T09:00:44.999Z</time></trkpt><trkpt lat="45.686605723348144" lon="6.907672995706005"><ele>2402.0</ele><time>2026-04-08T09:00:45.999Z</time></trkpt><trkpt lat="45.686659748484246" lon="6.907533370683215"><ele>2401.0</ele><time>2026-04-08T09:00:46.999Z</time></trkpt><trkpt lat="45.686708648770164" lon="6.907410345887386"><ele>2400.0</ele><time>2026-04-08T09:00:47.999Z</time></trkpt><trkpt lat="45.686764809094356" lon="6.907287302721618"><ele>2399.0</ele><time>2026-04-08T09:00:48.999Z</time></trkpt><trkpt lat="45.686807005980455" lon="6.9071821901238835"><ele>2398.0</ele><time>2026-04-08T09:00:49.999Z</time></trkpt><trkpt lat="45.686848916273625" lon="6.907084101666002"><ele>2398.0</ele><time>2026-04-08T09:00:50.999Z</time></trkpt><trkpt lat="45.68688283722733" lon="6.906997757610837"><ele>2398.0</ele><time>2026-04-08T09:00:51.999Z</time></trkpt><trkpt lat="45.686917656146505" lon="6.906918818190993"><ele>2398.0</ele><time>2026-04-08T09:00:52.999Z</time></trkpt><trkpt lat="45.68695363493123" lon="6.906839302579391"><ele>2398.0</ele><time>2026-04-08T09:00:53.999Z</time></trkpt><trkpt lat="45.687022274213625" lon="6.906724260123069"><ele>2398.0</ele><time>2026-04-08T09:00:55.999Z</time></trkpt><trkpt lat="45.687110944823914" lon="6.906638638772098"><ele>2398.0</ele><time>2026-04-08T09:00:57.999Z</time></trkpt><trkpt lat="45.68719330431425" lon="6.906612035868363"><ele>2399.0</ele><time>2026-04-08T09:00:59.999Z</time></trkpt><trkpt lat="45.68726680107495" lon="6.906599436822287"><ele>2400.0</ele><time>2026-04-08T09:01:01.999Z</time></trkpt><trkpt lat="45.68735374935041" lon="6.9065916105004055"><ele>2401.0</ele><time>2026-04-08T09:01:03.999Z</time></trkpt><trkpt lat="45.68743749398762" lon="6.906600468632156"><ele>2402.0</ele><time>2026-04-08T09:01:05.999Z</time></trkpt><trkpt lat="45.68753770060004" lon="6.906611279479819"><ele>2403.0</ele><time>2026-04-08T09:01:07.999Z</time></trkpt><trkpt lat="45.687617796960296" lon="6.90661412618869"><ele>2404.0</ele><time>2026-04-08T09:01:09.999Z</time></trkpt><trkpt lat="45.68769087671038" lon="6.90657698957256"><ele>2404.0</ele><time>2026-04-08T09:01:11.999Z</time></trkpt><trkpt lat="45.68774880697647" lon="6.9064937264310435"><ele>2404.0</ele><time>2026-04-08T09:01:13.999Z</time></trkpt><trkpt lat="45.6876984192005" lon="6.906436246956508"><ele>2404.0</ele><time>2026-04-08T09:01:21.999Z</time></trkpt><trkpt lat="45.6876381469167" lon="6.906397417389214"><ele>2404.0</ele><time>2026-04-08T09:01:29.999Z</time></trkpt><trkpt lat="45.68757539642259" lon="6.9063734860990165"><ele>2404.0</ele><time>2026-04-08T09:01:40Z</time></trkpt><trkpt lat="45.68750981467456" lon="6.906337939680659"><ele>2404.0</ele><time>2026-04-08T09:01:46Z</time></trkpt><trkpt lat="45.68745244839632" lon="6.906300414205401"><ele>2404.0</ele><time>2026-04-08T09:01:50Z</time></trkpt><trkpt lat="45.68737603849936" lon="6.906259698830116"><ele>2404.0</ele><time>2026-04-08T09:01:54Z</time></trkpt><trkpt lat="45.687315651336924" lon="6.9062313716022325"><ele>2404.0</ele><time>2026-04-08T09:01:57Z</time></trkpt><trkpt lat="45.68725003176288" lon="6.906203584211269"><ele>2404.0</ele><time>2026-04-08T09:02:00Z</time></trkpt><trkpt lat="45.687171418468225" lon="6.90615570314772"><ele>2404.0</ele><time>2026-04-08T09:02:04Z</time></trkpt><trkpt lat="45.687108841072195" lon="6.906133912223587"><ele>2404.0</ele><time>2026-04-08T09:02:07Z</time></trkpt><trkpt lat="45.68703912744656" lon="6.906088199106457"><ele>2404.0</ele><time>2026-04-08T09:02:11Z</time></trkpt><trkpt lat="45.686961211968985" lon="6.906047903021967"><ele>2404.0</ele><time>2026-04-08T09:02:14.999Z</time></trkpt><trkpt lat="45.686896223133175" lon="6.906018267317602"><ele>2403.5</ele><time>2026-04-08T09:02:17.999Z</time></trkpt><trkpt lat="45.686815090761506" lon="6.905975953077173"><ele>2403.0</ele><time>2026-04-08T09:02:21.999Z</time></trkpt><trkpt lat="45.68673587053039" lon="6.905945559052088"><ele>2402.5</ele><time>2026-04-08T09:02:26.999Z</time></trkpt><trkpt lat="45.6866769290023" lon="6.905905206919626"><ele>2402.0</ele><time>2026-04-08T09:02:29.999Z</time></trkpt><trkpt lat="45.6865879929099" lon="6.9058518942367595"><ele>2401.5</ele><time>2026-04-08T09:02:33.999Z</time></trkpt><trkpt lat="45.68651530411621" lon="6.905820227458392"><ele>2401.0</ele><time>2026-04-08T09:02:37.999Z</time></trkpt><trkpt lat="45.686454970056005" lon="6.90578430115251"><ele>2402.285714285714</ele><time>2026-04-08T09:02:40.999Z</time></trkpt><trkpt lat="45.68638829208352" lon="6.9057456524877106"><ele>2403.5714285714284</ele><time>2026-04-08T09:02:43.999Z</time></trkpt><trkpt lat="45.68630886738946" lon="6.905709724112553"><ele>2404.857142857143</ele><time>2026-04-08T09:02:47.999Z</time></trkpt><trkpt lat="45.68624408499509" lon="6.905685316872037"><ele>2406.142857142857</ele><time>2026-04-08T09:02:51.999Z</time></trkpt><trkpt lat="45.68617650833866" lon="6.9056524119256615"><ele>2407.4285714285716</ele><time>2026-04-08T09:02:55.999Z</time></trkpt><trkpt lat="45.686096229600736" lon="6.9056168066711106"><ele>2408.714285714286</ele><time>2026-04-08T09:02:59.999Z</time></trkpt><trkpt lat="45.68603114173065" lon="6.905581152928864"><ele>2410.0</ele><time>2026-04-08T09:03:03.999Z</time></trkpt><trkpt lat="45.68596020752562" lon="6.905547510798892"><ele>2412.1428571428573</ele><time>2026-04-08T09:03:07.999Z</time></trkpt><trkpt lat="45.685894751465064" lon="6.905521216781799"><ele>2414.285714285714</ele><time>2026-04-08T09:03:11.999Z</time></trkpt><trkpt lat="45.68583194257813" lon="6.905480862979878"><ele>2416.4285714285716</ele><time>2026-04-08T09:03:15.999Z</time></trkpt><trkpt lat="45.68577170401686" lon="6.90545128538723"><ele>2418.5714285714284</ele><time>2026-04-08T09:03:18.999Z</time></trkpt><trkpt lat="45.685712129057926" lon="6.905421703746569"><ele>2420.714285714286</ele><time>2026-04-08T09:03:21.999Z</time></trkpt><trkpt lat="45.68564638710234" lon="6.9054174022765835"><ele>2422.8571428571427</ele><time>2026-04-08T09:03:25.999Z</time></trkpt><trkpt lat="45.68557137883977" lon="6.905407306599141"><ele>2425.0</ele><time>2026-04-08T09:03:29.999Z</time></trkpt><trkpt lat="45.68549073003489" lon="6.905384324815823"><ele>2425.0</ele><time>2026-04-08T09:03:33.999Z</time></trkpt><trkpt lat="45.68542734118178" lon="6.905342381467722"><ele>2425.0</ele><time>2026-04-08T09:03:37.999Z</time></trkpt><trkpt lat="45.68535381357162" lon="6.90529619030412"><ele>2425.0</ele><time>2026-04-08T09:03:42Z</time></trkpt><trkpt lat="45.685281001908564" lon="6.905249655798972"><ele>2425.0</ele><time>2026-04-08T09:03:46Z</time></trkpt><trkpt lat="45.685210660120184" lon="6.905203669737421"><ele>2425.0</ele><time>2026-04-08T09:03:50Z</time></trkpt><trkpt lat="45.685153534437625" lon="6.905161705296269"><ele>2425.0</ele><time>2026-04-08T09:03:54Z</time></trkpt><trkpt lat="45.68509139758006" lon="6.905130153137356"><ele>2425.0</ele><time>2026-04-08T09:03:57Z</time></trkpt><trkpt lat="45.68503143124907" lon="6.905092456875424"><ele>2428.5</ele><time>2026-04-08T09:04:00Z</time></trkpt><trkpt lat="45.68495604338581" lon="6.905050882229821"><ele>2432.0</ele><time>2026-04-08T09:04:04Z</time></trkpt><trkpt lat="45.684876652772644" lon="6.905007221414328"><ele>2435.5</ele><time>2026-04-08T09:04:08Z</time></trkpt><trkpt lat="45.684801516581146" lon="6.904971769093122"><ele>2439.0</ele><time>2026-04-08T09:04:12Z</time></trkpt><trkpt lat="45.68472606239291" lon="6.904935309041215"><ele>2442.5</ele><time>2026-04-08T09:04:16Z</time></trkpt><trkpt lat="45.68465296219515" lon="6.904896644029657"><ele>2446.0</ele><time>2026-04-08T09:04:20Z</time></trkpt><trkpt lat="45.68458383563748" lon="6.904862066192489"><ele>2446.0</ele><time>2026-04-08T09:04:24Z</time></trkpt><trkpt lat="45.68452010049464" lon="6.904817959387367"><ele>2446.0</ele><time>2026-04-08T09:04:28Z</time></trkpt><trkpt lat="45.68444503739713" lon="6.9047833964645955"><ele>2446.0</ele><time>2026-04-08T09:04:32Z</time></trkpt><trkpt lat="45.68437214457243" lon="6.904745127393249"><ele>2446.0</ele><time>2026-04-08T09:04:35.999Z</time></trkpt><trkpt lat="45.684309239688595" lon="6.904712777129886"><ele>2446.0</ele><time>2026-04-08T09:04:39.999Z</time></trkpt><trkpt lat="45.684232550782895" lon="6.904678928335402"><ele>2446.0</ele><time>2026-04-08T09:04:43.999Z</time></trkpt><trkpt lat="45.684162531098984" lon="6.904643385076325"><ele>2446.0</ele><time>2026-04-08T09:04:47.999Z</time></trkpt><trkpt lat="45.684089983872354" lon="6.90460719166666"><ele>2452.0</ele><time>2026-04-08T09:04:51.999Z</time></trkpt><trkpt lat="45.68402417482106" lon="6.904573457519733"><ele>2458.0</ele><time>2026-04-08T09:04:55.999Z</time></trkpt><trkpt lat="45.68395124099953" lon="6.904535372417561"><ele>2464.0</ele><time>2026-04-08T09:04:59.999Z</time></trkpt><trkpt lat="45.68389075747892" lon="6.904502242553474"><ele>2470.0</ele><time>2026-04-08T09:05:02.999Z</time></trkpt><trkpt lat="45.683823427243865" lon="6.9044628408831645"><ele>2476.0</ele><time>2026-04-08T09:05:06.999Z</time></trkpt><trkpt lat="45.68376293090312" lon="6.904432627727632"><ele>2482.0</ele><time>2026-04-08T09:05:09.999Z</time></trkpt><trkpt lat="45.68369401343966" lon="6.904399534605351"><ele>2488.0</ele><time>2026-04-08T09:05:13.999Z</time></trkpt><trkpt lat="45.68362180399395" lon="6.904356667975781"><ele>2492.714285714286</ele><time>2026-04-08T09:05:17.999Z</time></trkpt><trkpt lat="45.68354871333275" lon="6.9043229008519695"><ele>2497.4285714285716</ele><time>2026-04-08T09:05:21.999Z</time></trkpt><trkpt lat="45.6834808086768" lon="6.904288061999149"><ele>2502.1428571428573</ele><time>2026-04-08T09:05:25.999Z</time></trkpt><trkpt lat="45.6834112390484" lon="6.904257879877245"><ele>2506.857142857143</ele><time>2026-04-08T09:05:29.999Z</time></trkpt><trkpt lat="45.68333981753099" lon="6.904226210707468"><ele>2511.5714285714284</ele><time>2026-04-08T09:05:33.999Z</time></trkpt><trkpt lat="45.68327621686496" lon="6.904180404141404"><ele>2516.2857142857147</ele><time>2026-04-08T09:05:39.999Z</time></trkpt><trkpt lat="45.68321560193638" lon="6.904154385126623"><ele>2521.0</ele><time>2026-04-08T09:05:43.999Z</time></trkpt><trkpt lat="45.683142326847666" lon="6.904122757748332"><ele>2521.4285714285716</ele><time>2026-04-08T09:05:48Z</time></trkpt><trkpt lat="45.683079415931736" lon="6.904097350829066"><ele>2521.857142857143</ele><time>2026-04-08T09:05:52Z</time></trkpt><trkpt lat="45.68301919803802" lon="6.904067037583852"><ele>2522.2857142857147</ele><time>2026-04-08T09:05:56Z</time></trkpt><trkpt lat="45.68295006219702" lon="6.904036145472961"><ele>2522.714285714286</ele><time>2026-04-08T09:06:00Z</time></trkpt><trkpt lat="45.68287419659156" lon="6.9039947775458925"><ele>2523.142857142857</ele><time>2026-04-08T09:06:05Z</time></trkpt><trkpt lat="45.682808810292386" lon="6.903959323476447"><ele>2523.571428571429</ele><time>2026-04-08T09:06:09Z</time></trkpt><trkpt lat="45.682748253850825" lon="6.903934176062421"><ele>2524.0</ele><time>2026-04-08T09:06:12Z</time></trkpt><trkpt lat="45.6826838834401" lon="6.90390023166942"><ele>2531.3333333333335</ele><time>2026-04-08T09:06:16Z</time></trkpt><trkpt lat="45.682615758927895" lon="6.903865128756602"><ele>2538.666666666667</ele><time>2026-04-08T09:06:20Z</time></trkpt><trkpt lat="45.68254686573299" lon="6.903828921516732"><ele>2546.0</ele><time>2026-04-08T09:06:24Z</time></trkpt><trkpt lat="45.68246709893362" lon="6.903784654289332"><ele>2553.3333333333335</ele><time>2026-04-08T09:06:28Z</time></trkpt><trkpt lat="45.6824057320403" lon="6.903752974427332"><ele>2560.6666666666665</ele><time>2026-04-08T09:06:32Z</time></trkpt><trkpt lat="45.68232828162396" lon="6.903702548658632"><ele>2568.0</ele><time>2026-04-08T09:06:36.999Z</time></trkpt><trkpt lat="45.68225123004433" lon="6.9036662209798"><ele>2568.0</ele><time>2026-04-08T09:06:40.999Z</time></trkpt><trkpt lat="45.68217652479309" lon="6.903627676332853"><ele>2568.0</ele><time>2026-04-08T09:06:44.999Z</time></trkpt><trkpt lat="45.682109953976386" lon="6.903589656778123"><ele>2568.0</ele><time>2026-04-08T09:06:48.999Z</time></trkpt><trkpt lat="45.68203573972962" lon="6.903559170606057"><ele>2568.0</ele><time>2026-04-08T09:06:52.999Z</time></trkpt><trkpt lat="45.68196274813564" lon="6.903524422054628"><ele>2568.0</ele><time>2026-04-08T09:06:56.999Z</time></trkpt><trkpt lat="45.68188784084107" lon="6.90348937890048"><ele>2568.0</ele><time>2026-04-08T09:07:00.999Z</time></trkpt><trkpt lat="45.68181257558384" lon="6.90345604229531"><ele>2569.1666666666665</ele><time>2026-04-08T09:07:04.999Z</time></trkpt><trkpt lat="45.68174487783355" lon="6.903421382617805"><ele>2570.3333333333335</ele><time>2026-04-08T09:07:09.999Z</time></trkpt><trkpt lat="45.681684154187515" lon="6.903390082231698"><ele>2571.5</ele><time>2026-04-08T09:07:12.999Z</time></trkpt><trkpt lat="45.68161474926088" lon="6.903368706845902"><ele>2572.666666666667</ele><time>2026-04-08T09:07:16.999Z</time></trkpt><trkpt lat="45.68152671630064" lon="6.903293548535458"><ele>2573.8333333333335</ele><time>2026-04-08T09:07:18.999Z</time></trkpt><trkpt lat="45.68150417536813" lon="6.903189431198182"><ele>2575.0</ele><time>2026-04-08T09:07:20.999Z</time></trkpt><trkpt lat="45.68156399808095" lon="6.9031576466647"><ele>2573.8333333333335</ele><time>2026-04-08T09:07:29.999Z</time></trkpt><trkpt lat="45.68162998801018" lon="6.903160311250884"><ele>2572.666666666667</ele><time>2026-04-08T09:07:57Z</time></trkpt><trkpt lat="45.68169339060199" lon="6.903163600089909"><ele>2571.5</ele><time>2026-04-08T09:08:03Z</time></trkpt><trkpt lat="45.68178434423083" lon="6.903201127133836"><ele>2570.3333333333335</ele><time>2026-04-08T09:08:06Z</time></trkpt><trkpt lat="45.681839959295914" lon="6.903285218645446"><ele>2569.1666666666665</ele><time>2026-04-08T09:08:09Z</time></trkpt><trkpt lat="45.681877236174635" lon="6.90338488593316"><ele>2568.0</ele><time>2026-04-08T09:08:11Z</time></trkpt><trkpt lat="45.6819567886614" lon="6.903479358410356"><ele>2568.0</ele><time>2026-04-08T09:08:14Z</time></trkpt><trkpt lat="45.68198381982743" lon="6.9035658392671655"><ele>2568.0</ele><time>2026-04-08T09:08:16Z</time></trkpt><trkpt lat="45.68203979408912" lon="6.903607095758295"><ele>2568.0</ele><time>2026-04-08T09:08:17Z</time></trkpt><trkpt lat="45.68207469349022" lon="6.903766605242094"><ele>2568.0</ele><time>2026-04-08T09:08:19Z</time></trkpt><trkpt lat="45.682125996671004" lon="6.903852000924762"><ele>2568.0</ele><time>2026-04-08T09:08:21Z</time></trkpt><trkpt lat="45.682219764949025" lon="6.90393124862193"><ele>2568.0</ele><time>2026-04-08T09:08:23Z</time></trkpt><trkpt lat="45.68223588887689" lon="6.904094332954944"><ele>2568.0</ele><time>2026-04-08T09:08:25Z</time></trkpt><trkpt lat="45.682302523052186" lon="6.904162588680308"><ele>2568.0</ele><time>2026-04-08T09:08:27Z</time></trkpt><trkpt lat="45.68233757006841" lon="6.904301741943541"><ele>2568.0</ele><time>2026-04-08T09:08:29Z</time></trkpt><trkpt lat="45.682371705003405" lon="6.904385873664823"><ele>2568.0</ele><time>2026-04-08T09:08:31Z</time></trkpt><trkpt lat="45.682402631775645" lon="6.904498698970814"><ele>2568.0</ele><time>2026-04-08T09:08:33Z</time></trkpt><trkpt lat="45.68243642007738" lon="6.904597842531162"><ele>2568.0</ele><time>2026-04-08T09:08:35Z</time></trkpt><trkpt lat="45.68250202833304" lon="6.904614471938315"><ele>2565.8333333333335</ele><time>2026-04-08T09:08:36Z</time></trkpt><trkpt lat="45.682582989179686" lon="6.90468451459953"><ele>2563.6666666666665</ele><time>2026-04-08T09:08:38Z</time></trkpt><trkpt lat="45.68261015763711" lon="6.90480385741439"><ele>2561.5</ele><time>2026-04-08T09:08:40Z</time></trkpt><trkpt lat="45.68267551442919" lon="6.904820859466528"><ele>2559.333333333333</ele><time>2026-04-08T09:08:41.999Z</time></trkpt><trkpt lat="45.68275152044465" lon="6.904838561192614"><ele>2557.1666666666665</ele><time>2026-04-08T09:08:43.999Z</time></trkpt><trkpt lat="45.68278427792095" lon="6.904926412438437"><ele>2555.0</ele><time>2026-04-08T09:08:47.999Z</time></trkpt><trkpt lat="45.682897674628094" lon="6.90485389389"><ele>2549.333333333333</ele><time>2026-04-08T09:08:50.999Z</time></trkpt><trkpt lat="45.68296910143484" lon="6.904944201326266"><ele>2543.6666666666665</ele><time>2026-04-08T09:08:52.999Z</time></trkpt><trkpt lat="45.68302693756862" lon="6.905029446858032"><ele>2538.0</ele><time>2026-04-08T09:08:54.999Z</time></trkpt><trkpt lat="45.68310553714907" lon="6.904997128193298"><ele>2532.3333333333335</ele><time>2026-04-08T09:08:56.999Z</time></trkpt><trkpt lat="45.683178549911055" lon="6.905052875370561"><ele>2526.666666666667</ele><time>2026-04-08T09:08:58.999Z</time></trkpt><trkpt lat="45.683284738827545" lon="6.905065960977165"><ele>2521.0</ele><time>2026-04-08T09:09:00.999Z</time></trkpt><trkpt lat="45.68335880970956" lon="6.905003714897943"><ele>2519.4</ele><time>2026-04-08T09:09:02.999Z</time></trkpt><trkpt lat="45.68343894220702" lon="6.905106495831973"><ele>2517.8</ele><time>2026-04-08T09:09:04.999Z</time></trkpt><trkpt lat="45.683537892748575" lon="6.905164868799585"><ele>2516.2000000000003</ele><time>2026-04-08T09:09:06.999Z</time></trkpt><trkpt lat="45.683649005279975" lon="6.905141560590123"><ele>2514.6</ele><time>2026-04-08T09:09:08.999Z</time></trkpt><trkpt lat="45.68370405293813" lon="6.905258430166197"><ele>2513.0</ele><time>2026-04-08T09:09:10.999Z</time></trkpt><trkpt lat="45.68376119566747" lon="6.905316366071505"><ele>2506.5</ele><time>2026-04-08T09:09:11.999Z</time></trkpt><trkpt lat="45.68387407509101" lon="6.905295874316415"><ele>2500.0</ele><time>2026-04-08T09:09:13.999Z</time></trkpt><trkpt lat="45.683961125067135" lon="6.9054209354979506"><ele>2493.5</ele><time>2026-04-08T09:09:15.999Z</time></trkpt><trkpt lat="45.68406725961733" lon="6.905443127794028"><ele>2487.0</ele><time>2026-04-08T09:09:17.999Z</time></trkpt><trkpt lat="45.68417493391318" lon="6.905468838173017"><ele>2487.0</ele><time>2026-04-08T09:09:19.999Z</time></trkpt><trkpt lat="45.68423793816252" lon="6.905476656149936"><ele>2487.0</ele><time>2026-04-08T09:09:20.999Z</time></trkpt><trkpt lat="45.684294504030994" lon="6.905583613911652"><ele>2487.0</ele><time>2026-04-08T09:09:22.999Z</time></trkpt><trkpt lat="45.68446489358361" lon="6.90559298914728"><ele>2487.0</ele><time>2026-04-08T09:09:47.999Z</time></trkpt><trkpt lat="45.68464911308516" lon="6.905626661573983"><ele>2480.0</ele><time>2026-04-08T09:09:51.999Z</time></trkpt><trkpt lat="45.684750463506866" lon="6.905661338261089"><ele>2473.0</ele><time>2026-04-08T09:09:53.999Z</time></trkpt><trkpt lat="45.684827900584665" lon="6.905569837265919"><ele>2466.0</ele><time>2026-04-08T09:09:55.999Z</time></trkpt><trkpt lat="45.684922995612304" lon="6.905597305452512"><ele>2459.0</ele><time>2026-04-08T09:09:58Z</time></trkpt><trkpt lat="45.68503392025597" lon="6.905651150569797"><ele>2452.0</ele><time>2026-04-08T09:10:00Z</time></trkpt><trkpt lat="45.685135036878705" lon="6.9056942489701045"><ele>2452.0</ele><time>2026-04-08T09:10:02Z</time></trkpt><trkpt lat="45.68521855069057" lon="6.905693488022528"><ele>2452.0</ele><time>2026-04-08T09:10:04Z</time></trkpt><trkpt lat="45.685325650952876" lon="6.905757546722053"><ele>2452.0</ele><time>2026-04-08T09:10:06Z</time></trkpt><trkpt lat="45.68543205680746" lon="6.905715835541087"><ele>2452.0</ele><time>2026-04-08T09:10:08Z</time></trkpt><trkpt lat="45.68549741438071" lon="6.905700556714938"><ele>2452.0</ele><time>2026-04-08T09:10:09Z</time></trkpt><trkpt lat="45.685562493341" lon="6.9057523155563665"><ele>2447.5</ele><time>2026-04-08T09:10:10Z</time></trkpt><trkpt lat="45.68562790437944" lon="6.905775568177536"><ele>2443.0</ele><time>2026-04-08T09:10:11Z</time></trkpt><trkpt lat="45.685691059285986" lon="6.905735915700088"><ele>2438.5</ele><time>2026-04-08T09:10:12Z</time></trkpt><trkpt lat="45.68575347713255" lon="6.905712481152115"><ele>2434.0</ele><time>2026-04-08T09:10:13Z</time></trkpt><trkpt lat="45.68584390346948" lon="6.90573214310878"><ele>2429.5</ele><time>2026-04-08T09:10:15Z</time></trkpt><trkpt lat="45.68589240024837" lon="6.9056506153174615"><ele>2425.0</ele><time>2026-04-08T09:10:17Z</time></trkpt><trkpt lat="45.68601168950609" lon="6.905642217339833"><ele>2425.0</ele><time>2026-04-08T09:10:21Z</time></trkpt><trkpt lat="45.68608310130572" lon="6.9055943654959675"><ele>2425.0</ele><time>2026-04-08T09:10:23Z</time></trkpt><trkpt lat="45.68630389984028" lon="6.905664546837311"><ele>2425.0</ele><time>2026-04-08T09:10:29Z</time></trkpt><trkpt lat="45.6863728630453" lon="6.9056849041081"><ele>2425.0</ele><time>2026-04-08T09:10:30Z</time></trkpt><trkpt lat="45.68644594977376" lon="6.905700575048986"><ele>2425.0</ele><time>2026-04-08T09:10:31Z</time></trkpt><trkpt lat="45.68656221282199" lon="6.905595459858584"><ele>2422.5</ele><time>2026-04-08T09:10:33Z</time></trkpt><trkpt lat="45.68663184094101" lon="6.905536112482675"><ele>2420.0</ele><time>2026-04-08T09:10:34Z</time></trkpt><trkpt lat="45.68670476759388" lon="6.9055229171013535"><ele>2417.5</ele><time>2026-04-08T09:10:35Z</time></trkpt><trkpt lat="45.68677642169244" lon="6.9055419749815545"><ele>2415.0</ele><time>2026-04-08T09:10:36Z</time></trkpt><trkpt lat="45.68689754529348" lon="6.905489223924681"><ele>2412.5</ele><time>2026-04-08T09:10:38Z</time></trkpt><trkpt lat="45.686975429557314" lon="6.905464539887401"><ele>2410.0</ele><time>2026-04-08T09:10:39Z</time></trkpt><trkpt lat="45.68705160652092" lon="6.905488798740008"><ele>2409.2</ele><time>2026-04-08T09:10:40Z</time></trkpt><trkpt lat="45.68714631500781" lon="6.905531377219426"><ele>2408.4</ele><time>2026-04-08T09:10:41Z</time></trkpt><trkpt lat="45.68723184848395" lon="6.905569612218717"><ele>2407.6</ele><time>2026-04-08T09:10:42Z</time></trkpt><trkpt lat="45.687316327610844" lon="6.905642021399083"><ele>2406.8</ele><time>2026-04-08T09:10:43Z</time></trkpt><trkpt lat="45.68737755207957" lon="6.905740950096671"><ele>2406.0</ele><time>2026-04-08T09:10:44Z</time></trkpt><trkpt lat="45.687431989805226" lon="6.905824209186016"><ele>2405.6666666666665</ele><time>2026-04-08T09:10:45Z</time></trkpt><trkpt lat="45.687489894857684" lon="6.905913346884675"><ele>2405.3333333333335</ele><time>2026-04-08T09:10:46Z</time></trkpt><trkpt lat="45.687544325875656" lon="6.905982171902615"><ele>2405.0</ele><time>2026-04-08T09:10:47Z</time></trkpt><trkpt lat="45.68759893955624" lon="6.9060579196795135"><ele>2404.666666666667</ele><time>2026-04-08T09:10:48Z</time></trkpt><trkpt lat="45.68768752985805" lon="6.906188407863813"><ele>2404.3333333333335</ele><time>2026-04-08T09:10:49.999Z</time></trkpt><trkpt lat="45.687731913557904" lon="6.906255180807524"><ele>2404.0</ele><time>2026-04-08T09:10:50.999Z</time></trkpt><trkpt lat="45.6877821961819" lon="6.90640654308876"><ele>2404.0</ele><time>2026-04-08T09:10:52.999Z</time></trkpt><trkpt lat="45.687714199978615" lon="6.906450743219226"><ele>2404.0</ele><time>2026-04-08T09:10:55.999Z</time></trkpt><trkpt lat="45.68765754416886" lon="6.906408989803222"><ele>2404.0</ele><time>2026-04-08T09:11:03.999Z</time></trkpt><trkpt lat="45.6875978129177" lon="6.906373517405708"><ele>2404.0</ele><time>2026-04-08T09:11:11.999Z</time></trkpt><trkpt lat="45.68752803485124" lon="6.906323859406656"><ele>2404.0</ele><time>2026-04-08T09:11:19.999Z</time></trkpt><trkpt lat="45.68746520315009" lon="6.906288870201483"><ele>2404.0</ele><time>2026-04-08T09:11:22.999Z</time></trkpt><trkpt lat="45.6873946571264" lon="6.906260142759677"><ele>2404.0</ele><time>2026-04-08T09:11:26.999Z</time></trkpt><trkpt lat="45.68732254742315" lon="6.906231870700911"><ele>2404.0</ele><time>2026-04-08T09:11:30.999Z</time></trkpt><trkpt lat="45.68726513424823" lon="6.906187023954989"><ele>2404.0</ele><time>2026-04-08T09:11:33.999Z</time></trkpt><trkpt lat="45.687191810745965" lon="6.906149547189762"><ele>2404.0</ele><time>2026-04-08T09:11:37.999Z</time></trkpt><trkpt lat="45.68712623095952" lon="6.906118467556251"><ele>2404.0</ele><time>2026-04-08T09:11:40.999Z</time></trkpt><trkpt lat="45.6870553246247" lon="6.9060802747927585"><ele>2404.0</ele><time>2026-04-08T09:11:44.999Z</time></trkpt><trkpt lat="45.68697356707242" lon="6.906041145046139"><ele>2404.0</ele><time>2026-04-08T09:11:48.999Z</time></trkpt><trkpt lat="45.68690362682863" lon="6.906000398065723"><ele>2403.5714285714284</ele><time>2026-04-08T09:11:52.999Z</time></trkpt><trkpt lat="45.68683560129351" lon="6.905965738551553"><ele>2403.1428571428573</ele><time>2026-04-08T09:11:55.999Z</time></trkpt><trkpt lat="45.686768465384645" lon="6.9059361488502935"><ele>2402.714285714286</ele><time>2026-04-08T09:11:59.999Z</time></trkpt><trkpt lat="45.686705841552325" lon="6.905897471605939"><ele>2402.285714285714</ele><time>2026-04-08T09:12:04Z</time></trkpt><trkpt lat="45.68663641473489" lon="6.905877295552821"><ele>2401.857142857143</ele><time>2026-04-08T09:12:07Z</time></trkpt><trkpt lat="45.68656006379208" lon="6.905832923232049"><ele>2401.4285714285716</ele><time>2026-04-08T09:12:11Z</time></trkpt><trkpt lat="45.68649754653231" lon="6.905807886918599"><ele>2401.0</ele><time>2026-04-08T09:12:14Z</time></trkpt><trkpt lat="45.686429127009355" lon="6.9057703671321145"><ele>2402.285714285714</ele><time>2026-04-08T09:12:18Z</time></trkpt><trkpt lat="45.68636338431821" lon="6.905739721761438"><ele>2403.5714285714284</ele><time>2026-04-08T09:12:23Z</time></trkpt><trkpt lat="45.68629825119974" lon="6.905709804897223"><ele>2404.857142857143</ele><time>2026-04-08T09:12:28Z</time></trkpt><trkpt lat="45.686224717078986" lon="6.905675502689932"><ele>2406.142857142857</ele><time>2026-04-08T09:12:33Z</time></trkpt><trkpt lat="45.68615163597618" lon="6.905641154124546"><ele>2407.4285714285716</ele><time>2026-04-08T09:12:37Z</time></trkpt><trkpt lat="45.686090370838016" lon="6.905608895255716"><ele>2408.714285714286</ele><time>2026-04-08T09:12:40Z</time></trkpt><trkpt lat="45.68602176701376" lon="6.905575934428329"><ele>2410.0</ele><time>2026-04-08T09:12:44Z</time></trkpt><trkpt lat="45.68595119426594" lon="6.905537533382783"><ele>2412.1428571428573</ele><time>2026-04-08T09:12:48Z</time></trkpt><trkpt lat="45.6858800016744" lon="6.905503639191407"><ele>2414.285714285714</ele><time>2026-04-08T09:12:52Z</time></trkpt><trkpt lat="45.68582074099851" lon="6.905469503159642"><ele>2416.4285714285716</ele><time>2026-04-08T09:12:54.999Z</time></trkpt><trkpt lat="45.68574525204158" lon="6.905432204654465"><ele>2418.5714285714284</ele><time>2026-04-08T09:12:58.999Z</time></trkpt><trkpt lat="45.685684566370604" lon="6.905401309735304"><ele>2420.714285714286</ele><time>2026-04-08T09:13:01.999Z</time></trkpt><trkpt lat="45.68560448966203" lon="6.905362231331348"><ele>2422.8571428571427</ele><time>2026-04-08T09:13:05.999Z</time></trkpt><trkpt lat="45.68553224404273" lon="6.905323264946817"><ele>2425.0</ele><time>2026-04-08T09:13:09.999Z</time></trkpt><trkpt lat="45.68545472134302" lon="6.905289090362959"><ele>2425.0</ele><time>2026-04-08T09:13:13.999Z</time></trkpt><trkpt lat="45.68538218633792" lon="6.905254562291379"><ele>2425.0</ele><time>2026-04-08T09:13:17.999Z</time></trkpt><trkpt lat="45.68532203541798" lon="6.90522700755121"><ele>2425.0</ele><time>2026-04-08T09:13:20.999Z</time></trkpt><trkpt lat="45.68526091829273" lon="6.905192284260892"><ele>2425.0</ele><time>2026-04-08T09:13:24.999Z</time></trkpt><trkpt lat="45.68519159817715" lon="6.905153406319904"><ele>2425.0</ele><time>2026-04-08T09:13:28.999Z</time></trkpt><trkpt lat="45.68512424822879" lon="6.905118657183688"><ele>2425.0</ele><time>2026-04-08T09:13:32.999Z</time></trkpt><trkpt lat="45.68505207583716" lon="6.90508279195965"><ele>2425.0</ele><time>2026-04-08T09:13:36.999Z</time></trkpt><trkpt lat="45.684990428808696" lon="6.905048890047428"><ele>2428.5</ele><time>2026-04-08T09:13:39.999Z</time></trkpt><trkpt lat="45.68491632609939" lon="6.9050124584997805"><ele>2432.0</ele><time>2026-04-08T09:13:43.999Z</time></trkpt><trkpt lat="45.68484114666667" lon="6.904978482609315"><ele>2435.5</ele><time>2026-04-08T09:13:47.999Z</time></trkpt><trkpt lat="45.68476864807602" lon="6.904948723596856"><ele>2439.0</ele><time>2026-04-08T09:13:51.999Z</time></trkpt><trkpt lat="45.68469133965872" lon="6.904910908321254"><ele>2442.5</ele><time>2026-04-08T09:13:55.999Z</time></trkpt><trkpt lat="45.684625376694584" lon="6.904873156416466"><ele>2446.0</ele><time>2026-04-08T09:13:59.999Z</time></trkpt><trkpt lat="45.684555580981836" lon="6.904838888150221"><ele>2446.0</ele><time>2026-04-08T09:14:03.999Z</time></trkpt><trkpt lat="45.6844937844539" lon="6.90481118468779"><ele>2446.0</ele><time>2026-04-08T09:14:07.999Z</time></trkpt><trkpt lat="45.684424946483254" lon="6.904770590581874"><ele>2446.0</ele><time>2026-04-08T09:14:12Z</time></trkpt><trkpt lat="45.68433040523315" lon="6.904712598116657"><ele>2446.0</ele><time>2026-04-08T09:14:19Z</time></trkpt><trkpt lat="45.684251043686615" lon="6.904679225320461"><ele>2446.0</ele><time>2026-04-08T09:14:22Z</time></trkpt><trkpt lat="45.6841776132205" lon="6.904644222964897"><ele>2446.0</ele><time>2026-04-08T09:14:26Z</time></trkpt><trkpt lat="45.68410745706424" lon="6.904610045884902"><ele>2452.0</ele><time>2026-04-08T09:14:30Z</time></trkpt><trkpt lat="45.68403521167362" lon="6.904574146485183"><ele>2458.0</ele><time>2026-04-08T09:14:34Z</time></trkpt><trkpt lat="45.68395950068432" lon="6.904534284281618"><ele>2464.0</ele><time>2026-04-08T09:14:38Z</time></trkpt><trkpt lat="45.683892437058994" lon="6.904526034744862"><ele>2470.0</ele><time>2026-04-08T09:14:46Z</time></trkpt><trkpt lat="45.68382525829011" lon="6.904488460610942"><ele>2476.0</ele><time>2026-04-08T09:14:50Z</time></trkpt><trkpt lat="45.68376011206677" lon="6.9044474828199105"><ele>2482.0</ele><time>2026-04-08T09:14:53Z</time></trkpt><trkpt lat="45.68369501763111" lon="6.904409767574883"><ele>2488.0</ele><time>2026-04-08T09:14:56Z</time></trkpt><trkpt lat="45.683631773113426" lon="6.90437446346976"><ele>2493.5</ele><time>2026-04-08T09:14:59Z</time></trkpt><trkpt lat="45.68356955282645" lon="6.904338713586117"><ele>2499.0</ele><time>2026-04-08T09:15:01.999Z</time></trkpt><trkpt lat="45.68349044217328" lon="6.904292094666421"><ele>2504.5</ele><time>2026-04-08T09:15:05.999Z</time></trkpt><trkpt lat="45.68341748496122" lon="6.904254541160338"><ele>2510.0</ele><time>2026-04-08T09:15:09.999Z</time></trkpt><trkpt lat="45.683353196755476" lon="6.904225280019612"><ele>2515.5</ele><time>2026-04-08T09:15:12.999Z</time></trkpt><trkpt lat="45.68327846419282" lon="6.904191784051467"><ele>2521.0</ele><time>2026-04-08T09:15:16.999Z</time></trkpt><trkpt lat="45.68320706144053" lon="6.90415777239333"><ele>2521.4285714285716</ele><time>2026-04-08T09:15:20.999Z</time></trkpt><trkpt lat="45.68313778603751" lon="6.904130415568735"><ele>2521.857142857143</ele><time>2026-04-08T09:15:24.999Z</time></trkpt><trkpt lat="45.68307430520388" lon="6.904104647078946"><ele>2522.2857142857147</ele><time>2026-04-08T09:15:29.999Z</time></trkpt><trkpt lat="45.68300797082483" lon="6.904060276370141"><ele>2522.714285714286</ele><time>2026-04-08T09:15:35.999Z</time></trkpt><trkpt lat="45.68293855932522" lon="6.904022776921648"><ele>2523.142857142857</ele><time>2026-04-08T09:15:40.999Z</time></trkpt><trkpt lat="45.68287774138735" lon="6.903993536661319"><ele>2523.571428571429</ele><time>2026-04-08T09:15:44.999Z</time></trkpt><trkpt lat="45.68280942712146" lon="6.903957215936806"><ele>2524.0</ele><time>2026-04-08T09:15:48.999Z</time></trkpt><trkpt lat="45.682738697715614" lon="6.903921696389016"><ele>2530.285714285714</ele><time>2026-04-08T09:15:52.999Z</time></trkpt><trkpt lat="45.68267589462788" lon="6.903887710773994"><ele>2536.5714285714284</ele><time>2026-04-08T09:15:56.999Z</time></trkpt><trkpt lat="45.68260413632112" lon="6.903852560999323"><ele>2542.8571428571427</ele><time>2026-04-08T09:16:00.999Z</time></trkpt><trkpt lat="45.68254049056252" lon="6.903816776926932"><ele>2549.142857142857</ele><time>2026-04-08T09:16:04.999Z</time></trkpt><trkpt lat="45.68247294604389" lon="6.903777546314857"><ele>2555.4285714285716</ele><time>2026-04-08T09:16:08.999Z</time></trkpt><trkpt lat="45.68240642785042" lon="6.903742799033304"><ele>2561.7142857142853</ele><time>2026-04-08T09:16:12.999Z</time></trkpt><trkpt lat="45.6823409629522" lon="6.9037000342418064"><ele>2568.0</ele><time>2026-04-08T09:16:18Z</time></trkpt><trkpt lat="45.682262682788476" lon="6.903657750693316"><ele>2567.9999999999995</ele><time>2026-04-08T09:16:22Z</time></trkpt><trkpt lat="45.68219818261932" lon="6.903626486992955"><ele>2568.0</ele><time>2026-04-08T09:16:25Z</time></trkpt><trkpt lat="45.68213711582155" lon="6.903595352616989"><ele>2568.0</ele><time>2026-04-08T09:16:28Z</time></trkpt><trkpt lat="45.682075073807546" lon="6.903571356794"><ele>2568.0</ele><time>2026-04-08T09:16:31Z</time></trkpt><trkpt lat="45.682002509854115" lon="6.90353634428984"><ele>2568.0</ele><time>2026-04-08T09:16:35Z</time></trkpt><trkpt lat="45.68192840211525" lon="6.903497709222291"><ele>2567.9999999999995</ele><time>2026-04-08T09:16:39Z</time></trkpt><trkpt lat="45.68186784260179" lon="6.903469385122874"><ele>2568.0</ele><time>2026-04-08T09:16:42Z</time></trkpt><trkpt lat="45.68179765212446" lon="6.903440007218872"><ele>2572.3333333333335</ele><time>2026-04-08T09:16:46Z</time></trkpt><trkpt lat="45.68172062235188" lon="6.903401802269841"><ele>2576.6666666666665</ele><time>2026-04-08T09:16:51Z</time></trkpt><trkpt lat="45.68165941851897" lon="6.903374061718924"><ele>2581.0</ele><time>2026-04-08T09:16:54Z</time></trkpt><trkpt lat="45.68159538331819" lon="6.903350746722733"><ele>2585.333333333333</ele><time>2026-04-08T09:16:58Z</time></trkpt><trkpt lat="45.681533718329106" lon="6.90332424180642"><ele>2589.6666666666665</ele><time>2026-04-08T09:17:00Z</time></trkpt><trkpt lat="45.68150430911867" lon="6.90322573231003"><ele>2594.0</ele><time>2026-04-08T09:17:02.999Z</time></trkpt><trkpt lat="45.68162789867467" lon="6.903149749118362"><ele>2594.0</ele><time>2026-04-08T09:17:38.999Z</time></trkpt><trkpt lat="45.68169387000214" lon="6.90315281549207"><ele>2594.0</ele><time>2026-04-08T09:17:43.999Z</time></trkpt><trkpt lat="45.68174357559942" lon="6.903222696434326"><ele>2594.0</ele><time>2026-04-08T09:17:46.999Z</time></trkpt><trkpt lat="45.681817650091325" lon="6.903275486226694"><ele>2594.0</ele><time>2026-04-08T09:17:48.999Z</time></trkpt><trkpt lat="45.68185700271983" lon="6.9033519041972555"><ele>2594.0</ele><time>2026-04-08T09:17:50.999Z</time></trkpt><trkpt lat="45.6819358718222" lon="6.903421968807658"><ele>2594.0</ele><time>2026-04-08T09:17:52.999Z</time></trkpt><trkpt lat="45.68195258827875" lon="6.903509780486721"><ele>2594.0</ele><time>2026-04-08T09:17:54.999Z</time></trkpt><trkpt lat="45.68202785832514" lon="6.9036153429560185"><ele>2588.7999999999997</ele><time>2026-04-08T09:17:56.999Z</time></trkpt><trkpt lat="45.68206121186341" lon="6.903742423470482"><ele>2583.6</ele><time>2026-04-08T09:17:58.999Z</time></trkpt><trkpt lat="45.68213619932381" lon="6.903847715579859"><ele>2578.4</ele><time>2026-04-08T09:18:00.999Z</time></trkpt><trkpt lat="45.682157256551214" lon="6.903971987180179"><ele>2573.2</ele><time>2026-04-08T09:18:02.999Z</time></trkpt><trkpt lat="45.68222691548437" lon="6.904063935862105"><ele>2568.0</ele><time>2026-04-08T09:18:04.999Z</time></trkpt><trkpt lat="45.68223673451958" lon="6.904200290459299"><ele>2565.4</ele><time>2026-04-08T09:18:06.999Z</time></trkpt><trkpt lat="45.68231037156909" lon="6.904317399549159"><ele>2562.8</ele><time>2026-04-08T09:18:08.999Z</time></trkpt><trkpt lat="45.68231316213078" lon="6.904443362824905"><ele>2560.2</ele><time>2026-04-08T09:18:10.999Z</time></trkpt><trkpt lat="45.68239060878265" lon="6.90447578255499"><ele>2557.6</ele><time>2026-04-08T09:18:12.999Z</time></trkpt><trkpt lat="45.682466028331625" lon="6.904577432109028"><ele>2555.0</ele><time>2026-04-08T09:18:14.999Z</time></trkpt><trkpt lat="45.68253071946102" lon="6.904689235061007"><ele>2555.0</ele><time>2026-04-08T09:18:16.999Z</time></trkpt><trkpt lat="45.6826101052098" lon="6.904796425877384"><ele>2555.0</ele><time>2026-04-08T09:18:18.999Z</time></trkpt><trkpt lat="45.6826391137129" lon="6.904919583993987"><ele>2555.0</ele><time>2026-04-08T09:18:21Z</time></trkpt><trkpt lat="45.68277886670772" lon="6.904849417670683"><ele>2555.0</ele><time>2026-04-08T09:18:25Z</time></trkpt><trkpt lat="45.68282957222882" lon="6.904972840132041"><ele>2555.0</ele><time>2026-04-08T09:18:27Z</time></trkpt><trkpt lat="45.68291967330316" lon="6.904986329809854"><ele>2548.2</ele><time>2026-04-08T09:18:29Z</time></trkpt><trkpt lat="45.683020569372424" lon="6.9049736998422855"><ele>2541.4</ele><time>2026-04-08T09:18:31Z</time></trkpt><trkpt lat="45.68307322785787" lon="6.905077455652117"><ele>2534.6</ele><time>2026-04-08T09:18:33Z</time></trkpt><trkpt lat="45.68317741583711" lon="6.90503637285347"><ele>2527.8</ele><time>2026-04-08T09:18:35Z</time></trkpt><trkpt lat="45.68326627927144" lon="6.905048032548304"><ele>2521.0</ele><time>2026-04-08T09:18:37Z</time></trkpt><trkpt lat="45.68331388287376" lon="6.905155586226168"><ele>2521.0</ele><time>2026-04-08T09:18:39Z</time></trkpt><trkpt lat="45.68337306594947" lon="6.9051203901317075"><ele>2521.0</ele><time>2026-04-08T09:18:40Z</time></trkpt><trkpt lat="45.68343077702501" lon="6.905078939426099"><ele>2521.0</ele><time>2026-04-08T09:18:41Z</time></trkpt><trkpt lat="45.68350845571214" lon="6.905136479636781"><ele>2521.0</ele><time>2026-04-08T09:18:43Z</time></trkpt><trkpt lat="45.683602271228295" lon="6.905173154569723"><ele>2521.0</ele><time>2026-04-08T09:18:45Z</time></trkpt><trkpt lat="45.68369010588797" lon="6.905237699719695"><ele>2521.0</ele><time>2026-04-08T09:18:47Z</time></trkpt><trkpt lat="45.68379122969109" lon="6.905299177847057"><ele>2514.2</ele><time>2026-04-08T09:18:49Z</time></trkpt><trkpt lat="45.68391669575223" lon="6.905324183468819"><ele>2507.3999999999996</ele><time>2026-04-08T09:18:51Z</time></trkpt><trkpt lat="45.68396920462829" lon="6.90540577201122"><ele>2500.6</ele><time>2026-04-08T09:18:52Z</time></trkpt><trkpt lat="45.68402348232102" lon="6.905475906000054"><ele>2493.7999999999997</ele><time>2026-04-08T09:18:53Z</time></trkpt><trkpt lat="45.68412419998674" lon="6.905450424026298"><ele>2487.0</ele><time>2026-04-08T09:18:55Z</time></trkpt><trkpt lat="45.68424228392629" lon="6.905455701780727"><ele>2487.0</ele><time>2026-04-08T09:18:57Z</time></trkpt><trkpt lat="45.684326402457124" lon="6.905541922829247"><ele>2487.0</ele><time>2026-04-08T09:18:59Z</time></trkpt><trkpt lat="45.68436478855983" lon="6.905617823626565"><ele>2487.0</ele><time>2026-04-08T09:19:00Z</time></trkpt><trkpt lat="45.684533010051695" lon="6.905630143527249"><ele>2487.0</ele><time>2026-04-08T09:19:04Z</time></trkpt><trkpt lat="45.684658186338226" lon="6.905523230889628"><ele>2478.25</ele><time>2026-04-08T09:19:07Z</time></trkpt><trkpt lat="45.684927087167225" lon="6.905596646277839"><ele>2469.5</ele><time>2026-04-08T09:19:12.999Z</time></trkpt><trkpt lat="45.685005667081995" lon="6.90566366806537"><ele>2460.75</ele><time>2026-04-08T09:19:14.999Z</time></trkpt><trkpt lat="45.68504988377857" lon="6.905730187336903"><ele>2452.0</ele><time>2026-04-08T09:19:15.999Z</time></trkpt><trkpt lat="45.68513220293836" lon="6.905655885395776"><ele>2452.0</ele><time>2026-04-08T09:19:17.999Z</time></trkpt><trkpt lat="45.68522812103701" lon="6.90574877357844"><ele>2452.0</ele><time>2026-04-08T09:19:19.999Z</time></trkpt><trkpt lat="45.68533174156627" lon="6.905719067576968"><ele>2452.0</ele><time>2026-04-08T09:19:21.999Z</time></trkpt><trkpt lat="45.68544246804157" lon="6.905695755684071"><ele>2452.0</ele><time>2026-04-08T09:19:23.999Z</time></trkpt><trkpt lat="45.68549923441805" lon="6.905753041555046"><ele>2452.0</ele><time>2026-04-08T09:19:24.999Z</time></trkpt><trkpt lat="45.68561172442565" lon="6.905720471500565"><ele>2447.5</ele><time>2026-04-08T09:19:26.999Z</time></trkpt><trkpt lat="45.68567387097488" lon="6.9056759550662425"><ele>2443.0</ele><time>2026-04-08T09:19:27.999Z</time></trkpt><trkpt lat="45.6857426381199" lon="6.905686511224769"><ele>2438.5</ele><time>2026-04-08T09:19:28.999Z</time></trkpt><trkpt lat="45.68580843598672" lon="6.905738468566449"><ele>2434.0</ele><time>2026-04-08T09:19:29.999Z</time></trkpt><trkpt lat="45.6858754592333" lon="6.90569106648984"><ele>2429.5</ele><time>2026-04-08T09:19:31.999Z</time></trkpt><trkpt lat="45.68597693348422" lon="6.905618828027777"><ele>2425.0</ele><time>2026-04-08T09:19:46.999Z</time></trkpt><trkpt lat="45.68609787590534" lon="6.905668616036979"><ele>2422.8571428571427</ele><time>2026-04-08T09:19:48.999Z</time></trkpt><trkpt lat="45.686178559982025" lon="6.905652551407816"><ele>2420.714285714286</ele><time>2026-04-08T09:19:49.999Z</time></trkpt><trkpt lat="45.68622865145498" lon="6.9055956548063415"><ele>2418.5714285714284</ele><time>2026-04-08T09:19:50.999Z</time></trkpt><trkpt lat="45.686296531259835" lon="6.90558987687166"><ele>2416.4285714285716</ele><time>2026-04-08T09:19:51.999Z</time></trkpt><trkpt lat="45.68636151293567" lon="6.905623290261951"><ele>2414.285714285714</ele><time>2026-04-08T09:19:52.999Z</time></trkpt><trkpt lat="45.686435766835494" lon="6.905635101919564"><ele>2412.1428571428573</ele><time>2026-04-08T09:19:53.999Z</time></trkpt><trkpt lat="45.68649457956005" lon="6.905571375904657"><ele>2410.0</ele><time>2026-04-08T09:19:54.999Z</time></trkpt><trkpt lat="45.686596934914874" lon="6.90552103692276"><ele>2410.0</ele><time>2026-04-08T09:19:56.999Z</time></trkpt><trkpt lat="45.68666945293558" lon="6.9055323901671954"><ele>2410.0</ele><time>2026-04-08T09:19:57.999Z</time></trkpt><trkpt lat="45.68675068446853" lon="6.905447842225189"><ele>2410.0</ele><time>2026-04-08T09:19:59.999Z</time></trkpt><trkpt lat="45.68680720626641" lon="6.905402673982225"><ele>2410.0</ele><time>2026-04-08T09:20:00.999Z</time></trkpt><trkpt lat="45.686915597550986" lon="6.905400852667094"><ele>2410.0</ele><time>2026-04-08T09:20:02.999Z</time></trkpt><trkpt lat="45.686994301882706" lon="6.905425150681795"><ele>2410.0</ele><time>2026-04-08T09:20:04.999Z</time></trkpt><trkpt lat="45.68709075866264" lon="6.905330682206197"><ele>2409.2</ele><time>2026-04-08T09:20:06.999Z</time></trkpt><trkpt lat="45.68719730438246" lon="6.9053183467769985"><ele>2408.4</ele><time>2026-04-08T09:20:08.999Z</time></trkpt><trkpt lat="45.68727664651052" lon="6.905335699375069"><ele>2407.6</ele><time>2026-04-08T09:20:09.999Z</time></trkpt><trkpt lat="45.687336565911544" lon="6.905287499364131"><ele>2406.8</ele><time>2026-04-08T09:20:10.999Z</time></trkpt><trkpt lat="45.68735645689078" lon="6.905153415157317"><ele>2406.0</ele><time>2026-04-08T09:20:12.999Z</time></trkpt><trkpt lat="45.687353062340755" lon="6.904976960843763"><ele>2406.0</ele><time>2026-04-08T09:20:14.999Z</time></trkpt><trkpt lat="45.687394118755925" lon="6.904806764336401"><ele>2406.0</ele><time>2026-04-08T09:20:16.999Z</time></trkpt><trkpt lat="45.68748248662877" lon="6.904707386325568"><ele>2406.0</ele><time>2026-04-08T09:20:18.999Z</time></trkpt><trkpt lat="45.68752731939485" lon="6.904641302081683"><ele>2406.0</ele><time>2026-04-08T09:20:19.999Z</time></trkpt><trkpt lat="45.68750534976962" lon="6.904485163084432"><ele>2406.0</ele><time>2026-04-08T09:20:21.999Z</time></trkpt><trkpt lat="45.68751385120466" lon="6.904322857657004"><ele>2403.6666666666665</ele><time>2026-04-08T09:20:23.999Z</time></trkpt><trkpt lat="45.68754347793689" lon="6.904222785103665"><ele>2401.3333333333335</ele><time>2026-04-08T09:20:24.999Z</time></trkpt><trkpt lat="45.68747402303232" lon="6.904090455296045"><ele>2399.0</ele><time>2026-04-08T09:20:27Z</time></trkpt><trkpt lat="45.68742662491642" lon="6.904020757521203"><ele>2396.666666666667</ele><time>2026-04-08T09:20:28Z</time></trkpt><trkpt lat="45.687415396874115" lon="6.903925141847447"><ele>2394.3333333333335</ele><time>2026-04-08T09:20:29Z</time></trkpt><trkpt lat="45.68740587419905" lon="6.9038333784060475"><ele>2392.0</ele><time>2026-04-08T09:20:30Z</time></trkpt><trkpt lat="45.68734598826735" lon="6.903802853930802"><ele>2392.0</ele><time>2026-04-08T09:20:31Z</time></trkpt><trkpt lat="45.687207024925264" lon="6.903773193168169"><ele>2392.0</ele><time>2026-04-08T09:20:33Z</time></trkpt><trkpt lat="45.68713823732623" lon="6.903703105720165"><ele>2392.0</ele><time>2026-04-08T09:20:34Z</time></trkpt><trkpt lat="45.6870859722862" lon="6.903615049154648"><ele>2392.0</ele><time>2026-04-08T09:20:35Z</time></trkpt><trkpt lat="45.6870284767925" lon="6.9035226832882595"><ele>2392.0</ele><time>2026-04-08T09:20:36Z</time></trkpt><trkpt lat="45.68695468579651" lon="6.903418298769679"><ele>2389.166666666667</ele><time>2026-04-08T09:20:37Z</time></trkpt><trkpt lat="45.686883463386756" lon="6.903323952205591"><ele>2386.3333333333335</ele><time>2026-04-08T09:20:38Z</time></trkpt><trkpt lat="45.68681971041334" lon="6.903241886149998"><ele>2383.5</ele><time>2026-04-08T09:20:39Z</time></trkpt><trkpt lat="45.68675912580583" lon="6.903168050464599"><ele>2380.6666666666665</ele><time>2026-04-08T09:20:40Z</time></trkpt><trkpt lat="45.6866989837997" lon="6.903107886695749"><ele>2377.833333333333</ele><time>2026-04-08T09:20:41Z</time></trkpt><trkpt lat="45.68663890147666" lon="6.903075107837838"><ele>2375.0</ele><time>2026-04-08T09:20:42Z</time></trkpt><trkpt lat="45.686564730790515" lon="6.903051474979384"><ele>2375.0</ele><time>2026-04-08T09:20:43Z</time></trkpt><trkpt lat="45.68649727505194" lon="6.9030192177133625"><ele>2375.0</ele><time>2026-04-08T09:20:44Z</time></trkpt><trkpt lat="45.68643533822323" lon="6.902965178714834"><ele>2375.0</ele><time>2026-04-08T09:20:45Z</time></trkpt><trkpt lat="45.68637785811267" lon="6.902893107035155"><ele>2375.0</ele><time>2026-04-08T09:20:46Z</time></trkpt><trkpt lat="45.686341314440114" lon="6.902815918709755"><ele>2375.0</ele><time>2026-04-08T09:20:47Z</time></trkpt><trkpt lat="45.68633935153241" lon="6.902708187509929"><ele>2375.0</ele><time>2026-04-08T09:20:48Z</time></trkpt><trkpt lat="45.6863529189721" lon="6.902617938410039"><ele>2375.0</ele><time>2026-04-08T09:20:49Z</time></trkpt><trkpt lat="45.686416489877786" lon="6.90248964689308"><ele>2373.6</ele><time>2026-04-08T09:20:51Z</time></trkpt><trkpt lat="45.68648591232887" lon="6.902377086513502"><ele>2372.2</ele><time>2026-04-08T09:20:53Z</time></trkpt><trkpt lat="45.68650275164676" lon="6.902210192489349"><ele>2370.8</ele><time>2026-04-08T09:20:55Z</time></trkpt><trkpt lat="45.68658789172754" lon="6.902118431175296"><ele>2369.4</ele><time>2026-04-08T09:20:57Z</time></trkpt><trkpt lat="45.68664559038112" lon="6.902061894884891"><ele>2368.0</ele><time>2026-04-08T09:20:58Z</time></trkpt><trkpt lat="45.68667012313354" lon="6.901881389156508"><ele>2368.0</ele><time>2026-04-08T09:21:00Z</time></trkpt><trkpt lat="45.68671204622037" lon="6.901802968092245"><ele>2368.0</ele><time>2026-04-08T09:21:01Z</time></trkpt><trkpt lat="45.68681023718486" lon="6.9017225513349"><ele>2368.0</ele><time>2026-04-08T09:21:03Z</time></trkpt><trkpt lat="45.68684529534301" lon="6.901557518650227"><ele>2368.0</ele><time>2026-04-08T09:21:05Z</time></trkpt><trkpt lat="45.68688518689047" lon="6.9014823901511555"><ele>2368.0</ele><time>2026-04-08T09:21:06Z</time></trkpt><trkpt lat="45.68698057655434" lon="6.90137868978128"><ele>2365.0</ele><time>2026-04-08T09:21:08Z</time></trkpt><trkpt lat="45.68697021749561" lon="6.901283871994055"><ele>2362.0</ele><time>2026-04-08T09:21:09Z</time></trkpt><trkpt lat="45.686999051503996" lon="6.901179024613766"><ele>2359.0</ele><time>2026-04-08T09:21:10Z</time></trkpt><trkpt lat="45.68708347326488" lon="6.901092475086773"><ele>2356.0</ele><time>2026-04-08T09:21:12Z</time></trkpt><trkpt lat="45.68708012952395" lon="6.900967812655599"><ele>2353.0</ele><time>2026-04-08T09:21:14Z</time></trkpt><trkpt lat="45.68713986008725" lon="6.9008935918439125"><ele>2350.0</ele><time>2026-04-08T09:21:16Z</time></trkpt><trkpt lat="45.68717912013028" lon="6.900748763177979"><ele>2346.0</ele><time>2026-04-08T09:21:18Z</time></trkpt><trkpt lat="45.68712930158933" lon="6.900610720507951"><ele>2342.0</ele><time>2026-04-08T09:21:20Z</time></trkpt><trkpt lat="45.687282539770976" lon="6.900469422845556"><ele>2338.0</ele><time>2026-04-08T09:21:23.999Z</time></trkpt><trkpt lat="45.68727855160754" lon="6.900325031514518"><ele>2334.0</ele><time>2026-04-08T09:21:25.999Z</time></trkpt><trkpt lat="45.68738077732219" lon="6.900306162877342"><ele>2334.0</ele><time>2026-04-08T09:21:27.999Z</time></trkpt><trkpt lat="45.68742551109244" lon="6.900200148910639"><ele>2334.0</ele><time>2026-04-08T09:21:29.999Z</time></trkpt><trkpt lat="45.68740169115052" lon="6.900073819079798"><ele>2334.0</ele><time>2026-04-08T09:21:31.999Z</time></trkpt><trkpt lat="45.687427152308544" lon="6.899903688616813"><ele>2334.0</ele><time>2026-04-08T09:21:33.999Z</time></trkpt><trkpt lat="45.6875267296657" lon="6.899813232343911"><ele>2334.0</ele><time>2026-04-08T09:21:35.999Z</time></trkpt><trkpt lat="45.68755895099694" lon="6.899722812463137"><ele>2330.8333333333335</ele><time>2026-04-08T09:21:36.999Z</time></trkpt><trkpt lat="45.68753536914476" lon="6.899615467957638"><ele>2327.6666666666665</ele><time>2026-04-08T09:21:37.999Z</time></trkpt><trkpt lat="45.68756030708011" lon="6.89950298179441"><ele>2324.5</ele><time>2026-04-08T09:21:38.999Z</time></trkpt><trkpt lat="45.687598729242936" lon="6.899400353502658"><ele>2321.333333333333</ele><time>2026-04-08T09:21:39.999Z</time></trkpt><trkpt lat="45.68762575671534" lon="6.89928456668811"><ele>2318.1666666666665</ele><time>2026-04-08T09:21:40.999Z</time></trkpt><trkpt lat="45.68761092850307" lon="6.899180923541183"><ele>2315.0</ele><time>2026-04-08T09:21:41.999Z</time></trkpt><trkpt lat="45.68758684185791" lon="6.899072370031049"><ele>2313.0</ele><time>2026-04-08T09:21:42.999Z</time></trkpt><trkpt lat="45.68756699062517" lon="6.898946419175158"><ele>2311.0</ele><time>2026-04-08T09:21:43.999Z</time></trkpt><trkpt lat="45.68755167210345" lon="6.898848117371412"><ele>2309.0</ele><time>2026-04-08T09:21:44.999Z</time></trkpt><trkpt lat="45.68753561258025" lon="6.898725842834211"><ele>2307.0</ele><time>2026-04-08T09:21:45.999Z</time></trkpt><trkpt lat="45.68752705046237" lon="6.898597077436896"><ele>2305.0</ele><time>2026-04-08T09:21:46.999Z</time></trkpt><trkpt lat="45.687554152429065" lon="6.898486607142284"><ele>2303.0</ele><time>2026-04-08T09:21:47.999Z</time></trkpt><trkpt lat="45.68759156310594" lon="6.8984133063262405"><ele>2301.8571428571427</ele><time>2026-04-08T09:21:48.999Z</time></trkpt><trkpt lat="45.68760077704308" lon="6.898317964046944"><ele>2300.714285714286</ele><time>2026-04-08T09:21:49.999Z</time></trkpt><trkpt lat="45.68759018596103" lon="6.898213922003372"><ele>2299.5714285714284</ele><time>2026-04-08T09:21:50.999Z</time></trkpt><trkpt lat="45.68761018544304" lon="6.898117814240421"><ele>2298.4285714285716</ele><time>2026-04-08T09:21:51.999Z</time></trkpt><trkpt lat="45.68766860562981" lon="6.898054076519152"><ele>2297.285714285714</ele><time>2026-04-08T09:21:52.999Z</time></trkpt><trkpt lat="45.68770561651041" lon="6.897974261664478"><ele>2296.142857142857</ele><time>2026-04-08T09:21:53.999Z</time></trkpt><trkpt lat="45.6877264985805" lon="6.897880868682634"><ele>2295.0</ele><time>2026-04-08T09:21:54.999Z</time></trkpt><trkpt lat="45.68774768801349" lon="6.897779760718051"><ele>2292.3333333333335</ele><time>2026-04-08T09:21:55.999Z</time></trkpt><trkpt lat="45.68784784367835" lon="6.8977596839428665"><ele>2289.6666666666665</ele><time>2026-04-08T09:21:57.999Z</time></trkpt><trkpt lat="45.68794218403944" lon="6.8977457975012175"><ele>2287.0</ele><time>2026-04-08T09:21:58.999Z</time></trkpt><trkpt lat="45.687980310230216" lon="6.897659966729741"><ele>2284.333333333333</ele><time>2026-04-08T09:21:59.999Z</time></trkpt><trkpt lat="45.68805084673602" lon="6.897608158614254"><ele>2281.6666666666665</ele><time>2026-04-08T09:22:00.999Z</time></trkpt><trkpt lat="45.68811378856701" lon="6.897617449393364"><ele>2279.0</ele><time>2026-04-08T09:22:01.999Z</time></trkpt><trkpt lat="45.68819901708955" lon="6.897638911995331"><ele>2279.0</ele><time>2026-04-08T09:22:02.999Z</time></trkpt><trkpt lat="45.68827807499796" lon="6.8976097968786405"><ele>2279.0</ele><time>2026-04-08T09:22:03.999Z</time></trkpt><trkpt lat="45.688377062095405" lon="6.897579117205087"><ele>2279.0</ele><time>2026-04-08T09:22:04.999Z</time></trkpt><trkpt lat="45.68846460910884" lon="6.89761179048643"><ele>2279.0</ele><time>2026-04-08T09:22:05.999Z</time></trkpt><trkpt lat="45.68854498792992" lon="6.897660645084324"><ele>2279.0</ele><time>2026-04-08T09:22:06.999Z</time></trkpt><trkpt lat="45.68863483556134" lon="6.897691615307985"><ele>2274.8</ele><time>2026-04-08T09:22:07.999Z</time></trkpt><trkpt lat="45.6887196074796" lon="6.897715221587432"><ele>2270.6000000000004</ele><time>2026-04-08T09:22:08.999Z</time></trkpt><trkpt lat="45.68881337317846" lon="6.897737694660776"><ele>2266.4</ele><time>2026-04-08T09:22:09.999Z</time></trkpt><trkpt lat="45.688912870420964" lon="6.89775976656512"><ele>2262.2000000000003</ele><time>2026-04-08T09:22:10.999Z</time></trkpt><trkpt lat="45.68899888768657" lon="6.897779409411291"><ele>2258.0</ele><time>2026-04-08T09:22:11.999Z</time></trkpt><trkpt lat="45.689080777601596" lon="6.8978082309913"><ele>2258.0</ele><time>2026-04-08T09:22:12.999Z</time></trkpt><trkpt lat="45.68915996287241" lon="6.897845914679817"><ele>2258.0</ele><time>2026-04-08T09:22:13.999Z</time></trkpt><trkpt lat="45.68923986973212" lon="6.8978855454473775"><ele>2258.0</ele><time>2026-04-08T09:22:14.999Z</time></trkpt><trkpt lat="45.689311560444494" lon="6.897929158433498"><ele>2258.0</ele><time>2026-04-08T09:22:15.999Z</time></trkpt><trkpt lat="45.68944447864134" lon="6.89793950403667"><ele>2258.0</ele><time>2026-04-08T09:22:17.999Z</time></trkpt><trkpt lat="45.68952191079265" lon="6.897917666562083"><ele>2255.833333333333</ele><time>2026-04-08T09:22:18.999Z</time></trkpt><trkpt lat="45.68959322277851" lon="6.897899411242589"><ele>2253.6666666666665</ele><time>2026-04-08T09:22:19.999Z</time></trkpt><trkpt lat="45.68968128470476" lon="6.897890711823136"><ele>2251.5</ele><time>2026-04-08T09:22:20.999Z</time></trkpt><trkpt lat="45.68976845511682" lon="6.897900245328594"><ele>2249.3333333333335</ele><time>2026-04-08T09:22:21.999Z</time></trkpt><trkpt lat="45.689849107656464" lon="6.8979306834156064"><ele>2247.166666666667</ele><time>2026-04-08T09:22:22.999Z</time></trkpt><trkpt lat="45.68991005974458" lon="6.897983647742993"><ele>2245.0</ele><time>2026-04-08T09:22:23.999Z</time></trkpt><trkpt lat="45.689991987495304" lon="6.898029937462682"><ele>2245.0</ele><time>2026-04-08T09:22:24.999Z</time></trkpt><trkpt lat="45.69007604804155" lon="6.898008772798537"><ele>2245.0</ele><time>2026-04-08T09:22:25.999Z</time></trkpt><trkpt lat="45.69015692625789" lon="6.89798934270758"><ele>2245.0</ele><time>2026-04-08T09:22:26.999Z</time></trkpt><trkpt lat="45.69022845381142" lon="6.898012093959562"><ele>2245.0</ele><time>2026-04-08T09:22:27.999Z</time></trkpt><trkpt lat="45.690285056223885" lon="6.898076255441472"><ele>2245.0</ele><time>2026-04-08T09:22:28.999Z</time></trkpt><trkpt lat="45.69035805482138" lon="6.898116994059704"><ele>2245.0</ele><time>2026-04-08T09:22:29.999Z</time></trkpt><trkpt lat="45.690500185464195" lon="6.898081432403357"><ele>2242.5</ele><time>2026-04-08T09:22:31.999Z</time></trkpt><trkpt lat="45.690583933417095" lon="6.898107715796604"><ele>2240.0</ele><time>2026-04-08T09:22:33Z</time></trkpt><trkpt lat="45.69064459406562" lon="6.898152579848397"><ele>2237.5</ele><time>2026-04-08T09:22:34Z</time></trkpt><trkpt lat="45.690686624966084" lon="6.898232349326008"><ele>2235.0</ele><time>2026-04-08T09:22:35Z</time></trkpt><trkpt lat="45.69073974834225" lon="6.8983086789916825"><ele>2232.5</ele><time>2026-04-08T09:22:36Z</time></trkpt><trkpt lat="45.6908010094325" lon="6.898278546650069"><ele>2230.0</ele><time>2026-04-08T09:22:37Z</time></trkpt><trkpt lat="45.69092612223608" lon="6.898257992198311"><ele>2230.0</ele><time>2026-04-08T09:22:39Z</time></trkpt><trkpt lat="45.69098183482597" lon="6.898306593002439"><ele>2230.0</ele><time>2026-04-08T09:22:40Z</time></trkpt><trkpt lat="45.691030674712934" lon="6.898376224729553"><ele>2230.0</ele><time>2026-04-08T09:22:41Z</time></trkpt><trkpt lat="45.69107563890449" lon="6.898439655794474"><ele>2230.0</ele><time>2026-04-08T09:22:42Z</time></trkpt><trkpt lat="45.69117302086103" lon="6.898403483205736"><ele>2230.0</ele><time>2026-04-08T09:22:44Z</time></trkpt><trkpt lat="45.69123317085182" lon="6.898337234441391"><ele>2230.0</ele><time>2026-04-08T09:22:45Z</time></trkpt><trkpt lat="45.691299422321386" lon="6.898312707316494"><ele>2230.0</ele><time>2026-04-08T09:22:46Z</time></trkpt><trkpt lat="45.691397296166585" lon="6.898365703665335"><ele>2224.6</ele><time>2026-04-08T09:22:48Z</time></trkpt><trkpt lat="45.69149656690585" lon="6.898309743198737"><ele>2219.2</ele><time>2026-04-08T09:22:50Z</time></trkpt><trkpt lat="45.69156981408071" lon="6.898204695751549"><ele>2213.8</ele><time>2026-04-08T09:22:52Z</time></trkpt><trkpt lat="45.69163170067635" lon="6.898222766080547"><ele>2208.4</ele><time>2026-04-08T09:22:53Z</time></trkpt><trkpt lat="45.6917323312221" lon="6.898337154105546"><ele>2203.0</ele><time>2026-04-08T09:22:55Z</time></trkpt><trkpt lat="45.69183722508585" lon="6.898283844544302"><ele>2203.0</ele><time>2026-04-08T09:22:57Z</time></trkpt><trkpt lat="45.69191661252158" lon="6.8981991993424785"><ele>2203.0</ele><time>2026-04-08T09:22:59Z</time></trkpt><trkpt lat="45.69201273021858" lon="6.898283015056702"><ele>2203.0</ele><time>2026-04-08T09:23:01Z</time></trkpt><trkpt lat="45.69207370056411" lon="6.898308282585489"><ele>2203.0</ele><time>2026-04-08T09:23:02Z</time></trkpt><trkpt lat="45.692152970336856" lon="6.898208700460718"><ele>2203.0</ele><time>2026-04-08T09:23:04Z</time></trkpt><trkpt lat="45.6922054089798" lon="6.898155169597872"><ele>2203.0</ele><time>2026-04-08T09:23:05Z</time></trkpt><trkpt lat="45.69230196851299" lon="6.898198869455228"><ele>2198.5</ele><time>2026-04-08T09:23:07Z</time></trkpt><trkpt lat="45.69235227872505" lon="6.898276426452307"><ele>2194.0</ele><time>2026-04-08T09:23:08Z</time></trkpt><trkpt lat="45.69243029043893" lon="6.898288127205453"><ele>2189.5</ele><time>2026-04-08T09:23:09Z</time></trkpt><trkpt lat="45.692512088566495" lon="6.898205011778975"><ele>2185.0</ele><time>2026-04-08T09:23:11Z</time></trkpt><trkpt lat="45.69258992284228" lon="6.89822741548501"><ele>2180.5</ele><time>2026-04-08T09:23:12Z</time></trkpt><trkpt lat="45.69269311072076" lon="6.898281271774953"><ele>2176.0</ele><time>2026-04-08T09:23:14Z</time></trkpt><trkpt lat="45.69276809537902" lon="6.898175294978421"><ele>2165.0</ele><time>2026-04-08T09:23:16Z</time></trkpt><trkpt lat="45.692832797925455" lon="6.898228038447766"><ele>2154.0</ele><time>2026-04-08T09:23:18Z</time></trkpt><trkpt lat="45.69294528090155" lon="6.898317530618804"><ele>2143.0</ele><time>2026-04-08T09:23:21Z</time></trkpt><trkpt lat="45.6930557802995" lon="6.898173284508693"><ele>2132.0</ele><time>2026-04-08T09:23:24Z</time></trkpt><trkpt lat="45.69320698651702" lon="6.898329552529072"><ele>2132.0</ele><time>2026-04-08T09:23:27.999Z</time></trkpt><trkpt lat="45.693275641110326" lon="6.898335829420809"><ele>2132.0</ele><time>2026-04-08T09:23:28.999Z</time></trkpt><trkpt lat="45.69337758371902" lon="6.8982431265576825"><ele>2132.0</ele><time>2026-04-08T09:23:30.999Z</time></trkpt><trkpt lat="45.693427673635234" lon="6.8981720502540185"><ele>2132.0</ele><time>2026-04-08T09:23:31.999Z</time></trkpt><trkpt lat="45.69354912151737" lon="6.898208783401927"><ele>2132.0</ele><time>2026-04-08T09:23:33.999Z</time></trkpt><trkpt lat="45.69360344164842" lon="6.898280246376232"><ele>2124.5</ele><time>2026-04-08T09:23:34.999Z</time></trkpt><trkpt lat="45.69364435553698" lon="6.898356278925253"><ele>2117.0</ele><time>2026-04-08T09:23:36Z</time></trkpt><trkpt lat="45.69374512448032" lon="6.8983436919540395"><ele>2109.5</ele><time>2026-04-08T09:23:37.999Z</time></trkpt><trkpt lat="45.693794839832044" lon="6.898286107215953"><ele>2102.0</ele><time>2026-04-08T09:23:38.999Z</time></trkpt><trkpt lat="45.69383763347822" lon="6.898217460857734"><ele>2094.5</ele><time>2026-04-08T09:23:39.999Z</time></trkpt><trkpt lat="45.69391633022321" lon="6.898173804794953"><ele>2087.0</ele><time>2026-04-08T09:23:41.999Z</time></trkpt><trkpt lat="45.69395390922859" lon="6.898271470129233"><ele>2087.0</ele><time>2026-04-08T09:23:45.999Z</time></trkpt><trkpt lat="45.69401838531463" lon="6.898346793253329"><ele>2087.0</ele><time>2026-04-08T09:23:57.999Z</time></trkpt><trkpt lat="45.69412259128411" lon="6.898309133289087"><ele>2087.0</ele><time>2026-04-08T09:23:59.999Z</time></trkpt><trkpt lat="45.69418031437896" lon="6.898184656720229"><ele>2087.0</ele><time>2026-04-08T09:24:01.999Z</time></trkpt><trkpt lat="45.694351791210394" lon="6.898294188440474"><ele>2082.4</ele><time>2026-04-08T09:24:05.999Z</time></trkpt><trkpt lat="45.69446681614253" lon="6.898339868255199"><ele>2077.7999999999997</ele><time>2026-04-08T09:24:07.999Z</time></trkpt><trkpt lat="45.69454713058707" lon="6.898354477524592"><ele>2073.2</ele><time>2026-04-08T09:24:08.999Z</time></trkpt><trkpt lat="45.69462586528013" lon="6.898411284119548"><ele>2068.6</ele><time>2026-04-08T09:24:09.999Z</time></trkpt><trkpt lat="45.69469845379145" lon="6.898504858373598"><ele>2064.0</ele><time>2026-04-08T09:24:10.999Z</time></trkpt><trkpt lat="45.69478136147549" lon="6.8986071049963575"><ele>2064.0</ele><time>2026-04-08T09:24:11.999Z</time></trkpt><trkpt lat="45.694863675398295" lon="6.898700597950307"><ele>2064.0</ele><time>2026-04-08T09:24:12.999Z</time></trkpt><trkpt lat="45.69495490039803" lon="6.898807008204495"><ele>2064.0</ele><time>2026-04-08T09:24:13.999Z</time></trkpt><trkpt lat="45.69503636506051" lon="6.898909711509734"><ele>2064.0</ele><time>2026-04-08T09:24:14.999Z</time></trkpt><trkpt lat="45.695112708392365" lon="6.899013189097323"><ele>2064.0</ele><time>2026-04-08T09:24:15.999Z</time></trkpt><trkpt lat="45.695180879685324" lon="6.8991092564667476"><ele>2064.0</ele><time>2026-04-08T09:24:16.999Z</time></trkpt><trkpt lat="45.6952498723903" lon="6.899209347219255"><ele>2064.0</ele><time>2026-04-08T09:24:17.999Z</time></trkpt><trkpt lat="45.695317591089164" lon="6.899290291896869"><ele>2064.0</ele><time>2026-04-08T09:24:18.999Z</time></trkpt><trkpt lat="45.695393756796975" lon="6.8993689139981385"><ele>2064.0</ele><time>2026-04-08T09:24:19.999Z</time></trkpt><trkpt lat="45.69545765116905" lon="6.899439639690533"><ele>2064.0</ele><time>2026-04-08T09:24:20.999Z</time></trkpt><trkpt lat="45.69551744725963" lon="6.899519119366481"><ele>2064.0</ele><time>2026-04-08T09:24:21.999Z</time></trkpt><trkpt lat="45.695576307528626" lon="6.899603056294234"><ele>2063.428571428571</ele><time>2026-04-08T09:24:22.999Z</time></trkpt><trkpt lat="45.69562053282356" lon="6.899674207178981"><ele>2062.8571428571427</ele><time>2026-04-08T09:24:23.999Z</time></trkpt><trkpt lat="45.69567170432624" lon="6.899747123952771"><ele>2062.285714285714</ele><time>2026-04-08T09:24:24.999Z</time></trkpt><trkpt lat="45.69571913744665" lon="6.8998145362053265"><ele>2061.7142857142853</ele><time>2026-04-08T09:24:25.999Z</time></trkpt><trkpt lat="45.69576498927861" lon="6.899884237508792"><ele>2061.142857142857</ele><time>2026-04-08T09:24:26.999Z</time></trkpt><trkpt lat="45.6958064114352" lon="6.899959426563349"><ele>2060.5714285714284</ele><time>2026-04-08T09:24:27.999Z</time></trkpt><trkpt lat="45.6958483605694" lon="6.900045424482147"><ele>2060.0</ele><time>2026-04-08T09:24:28.999Z</time></trkpt><trkpt lat="45.69592023502111" lon="6.9001765353904085"><ele>2060.0</ele><time>2026-04-08T09:24:30.999Z</time></trkpt><trkpt lat="45.69596111935982" lon="6.900251929632833"><ele>2060.0</ele><time>2026-04-08T09:24:31.999Z</time></trkpt><trkpt lat="45.69599976111256" lon="6.900333122515141"><ele>2060.0</ele><time>2026-04-08T09:24:32.999Z</time></trkpt><trkpt lat="45.69603507908853" lon="6.900411304529125"><ele>2060.0</ele><time>2026-04-08T09:24:33.999Z</time></trkpt><trkpt lat="45.696111273219884" lon="6.900573002532495"><ele>2060.0</ele><time>2026-04-08T09:24:35.999Z</time></trkpt><trkpt lat="45.69615179242498" lon="6.900659674857571"><ele>2060.0</ele><time>2026-04-08T09:24:36.999Z</time></trkpt><trkpt lat="45.696189282766376" lon="6.9007470359934535"><ele>2056.8</ele><time>2026-04-08T09:24:37.999Z</time></trkpt><trkpt lat="45.69623531626085" lon="6.900846762869733"><ele>2053.6</ele><time>2026-04-08T09:24:39Z</time></trkpt><trkpt lat="45.69628056843211" lon="6.9009540709057555"><ele>2050.4</ele><time>2026-04-08T09:24:40Z</time></trkpt><trkpt lat="45.6963166918042" lon="6.901053400813554"><ele>2047.2</ele><time>2026-04-08T09:24:41Z</time></trkpt><trkpt lat="45.69637103446006" lon="6.901183149062654"><ele>2044.0</ele><time>2026-04-08T09:24:42Z</time></trkpt><trkpt lat="45.69641576559185" lon="6.90130507297848"><ele>2044.0</ele><time>2026-04-08T09:24:43Z</time></trkpt><trkpt lat="45.69646176026585" lon="6.9014205446165"><ele>2044.0</ele><time>2026-04-08T09:24:44Z</time></trkpt><trkpt lat="45.696512934643586" lon="6.901542723264653"><ele>2044.0</ele><time>2026-04-08T09:24:45Z</time></trkpt><trkpt lat="45.69656341776457" lon="6.901654649529306"><ele>2044.0</ele><time>2026-04-08T09:24:46Z</time></trkpt><trkpt lat="45.69661213842318" lon="6.901766528635548"><ele>2044.0</ele><time>2026-04-08T09:24:47Z</time></trkpt><trkpt lat="45.69665321853074" lon="6.901860886727981"><ele>2044.0000000000002</ele><time>2026-04-08T09:24:48Z</time></trkpt><trkpt lat="45.696694912156254" lon="6.901956476879662"><ele>2044.0</ele><time>2026-04-08T09:24:49Z</time></trkpt><trkpt lat="45.6967461248555" lon="6.90206043006421"><ele>2044.0</ele><time>2026-04-08T09:24:50Z</time></trkpt><trkpt lat="45.696797277075845" lon="6.902167640200155"><ele>2044.0</ele><time>2026-04-08T09:24:51Z</time></trkpt><trkpt lat="45.696846156968" lon="6.902263984040524"><ele>2044.0000000000002</ele><time>2026-04-08T09:24:52Z</time></trkpt><trkpt lat="45.6968881652067" lon="6.902344876852815"><ele>2044.0</ele><time>2026-04-08T09:24:53Z</time></trkpt><trkpt lat="45.69693296695395" lon="6.90244020445376"><ele>2043.3333333333335</ele><time>2026-04-08T09:24:54Z</time></trkpt><trkpt lat="45.69695428326797" lon="6.902528601182445"><ele>2042.6666666666667</ele><time>2026-04-08T09:24:55Z</time></trkpt><trkpt lat="45.69699191581934" lon="6.902630130841346"><ele>2042.0</ele><time>2026-04-08T09:24:56Z</time></trkpt><trkpt lat="45.69703721140507" lon="6.902718795423767"><ele>2041.3333333333335</ele><time>2026-04-08T09:24:57Z</time></trkpt><trkpt lat="45.69709286898238" lon="6.90279580632335"><ele>2040.6666666666667</ele><time>2026-04-08T09:24:58Z</time></trkpt><trkpt lat="45.69715020203759" lon="6.902880546229283"><ele>2040.0</ele><time>2026-04-08T09:24:59Z</time></trkpt><trkpt lat="45.69720661764519" lon="6.902980028049944"><ele>2038.8333333333333</ele><time>2026-04-08T09:25:00Z</time></trkpt><trkpt lat="45.697245665090136" lon="6.903087150261352"><ele>2037.6666666666665</ele><time>2026-04-08T09:25:01Z</time></trkpt><trkpt lat="45.697283920553964" lon="6.903168655953096"><ele>2036.5</ele><time>2026-04-08T09:25:02Z</time></trkpt><trkpt lat="45.697335518778054" lon="6.903252912114412"><ele>2035.3333333333333</ele><time>2026-04-08T09:25:03Z</time></trkpt><trkpt lat="45.69738918396661" lon="6.903331763664396"><ele>2034.1666666666665</ele><time>2026-04-08T09:25:04Z</time></trkpt><trkpt lat="45.697446937709785" lon="6.903417163804886"><ele>2033.0</ele><time>2026-04-08T09:25:05Z</time></trkpt><trkpt lat="45.6975266214965" lon="6.903529944667466"><ele>2033.0</ele><time>2026-04-08T09:25:06Z</time></trkpt><trkpt lat="45.697594099280366" lon="6.903625801707896"><ele>2033.0000000000002</ele><time>2026-04-08T09:25:07Z</time></trkpt><trkpt lat="45.697680585784845" lon="6.903729922260529"><ele>2033.0000000000002</ele><time>2026-04-08T09:25:08Z</time></trkpt><trkpt lat="45.69775689159664" lon="6.903819853416099"><ele>2033.0</ele><time>2026-04-08T09:25:09Z</time></trkpt><trkpt lat="45.69783490965736" lon="6.9038989884278585"><ele>2033.0</ele><time>2026-04-08T09:25:10Z</time></trkpt><trkpt lat="45.69791901022329" lon="6.903983097004456"><ele>2029.8000000000002</ele><time>2026-04-08T09:25:11Z</time></trkpt><trkpt lat="45.698004532047676" lon="6.904073004489857"><ele>2026.6000000000001</ele><time>2026-04-08T09:25:12Z</time></trkpt><trkpt lat="45.69808028806626" lon="6.904144141375132"><ele>2023.3999999999999</ele><time>2026-04-08T09:25:13Z</time></trkpt><trkpt lat="45.69815081833044" lon="6.904212965849347"><ele>2020.1999999999998</ele><time>2026-04-08T09:25:14Z</time></trkpt><trkpt lat="45.69821241558732" lon="6.904286590532817"><ele>2017.0</ele><time>2026-04-08T09:25:15Z</time></trkpt><trkpt lat="45.69829962742719" lon="6.904388646586268"><ele>2016.8333333333335</ele><time>2026-04-08T09:25:17Z</time></trkpt><trkpt lat="45.698394200104715" lon="6.904454955465545"><ele>2016.6666666666667</ele><time>2026-04-08T09:25:19Z</time></trkpt><trkpt lat="45.698469467882795" lon="6.904515195174514"><ele>2016.5</ele><time>2026-04-08T09:25:21Z</time></trkpt><trkpt lat="45.69853970317155" lon="6.904552614950436"><ele>2016.3333333333335</ele><time>2026-04-08T09:25:23Z</time></trkpt><trkpt lat="45.698596248678605" lon="6.904603060121311"><ele>2016.1666666666667</ele><time>2026-04-08T09:25:25Z</time></trkpt><trkpt lat="45.69863659620959" lon="6.90469059719302"><ele>2016.0</ele><time>2026-04-08T09:25:27Z</time></trkpt><trkpt lat="45.698663448943044" lon="6.904786462684999"><ele>2015.5</ele><time>2026-04-08T09:25:30Z</time></trkpt><trkpt lat="45.69857144029751" lon="6.904855574821723"><ele>2015.0</ele><time>2026-04-08T09:25:55.999Z</time></trkpt><trkpt lat="45.69849607130274" lon="6.904855217685454"><ele>2014.5</ele><time>2026-04-08T09:26:24.999Z</time></trkpt><trkpt lat="45.6984298382267" lon="6.9048728969797954"><ele>2014.0</ele><time>2026-04-08T09:26:36.999Z</time></trkpt><trkpt lat="45.698355770292515" lon="6.90489377445469"><ele>2013.5</ele><time>2026-04-08T09:26:38.999Z</time></trkpt><trkpt lat="45.6982768191738" lon="6.904954124752877"><ele>2013.0</ele><time>2026-04-08T09:26:40.999Z</time></trkpt><trkpt lat="45.69821917190773" lon="6.9049991500993375"><ele>2013.0</ele><time>2026-04-08T09:26:42.999Z</time></trkpt><trkpt lat="45.698157900018515" lon="6.905034162107946"><ele>2012.9999999999998</ele><time>2026-04-08T09:26:45Z</time></trkpt><trkpt lat="45.698099899047406" lon="6.9050707815975985"><ele>2013.0</ele><time>2026-04-08T09:26:47Z</time></trkpt><trkpt lat="45.698044428774764" lon="6.905113722713411"><ele>2013.0</ele><time>2026-04-08T09:26:49Z</time></trkpt><trkpt lat="45.69798553989425" lon="6.905152751660858"><ele>2012.9999999999998</ele><time>2026-04-08T09:26:51Z</time></trkpt><trkpt lat="45.697897050808365" lon="6.905205420737635"><ele>2013.0</ele><time>2026-04-08T09:26:54Z</time></trkpt><trkpt lat="45.697819080670264" lon="6.90524470675319"><ele>2013.0</ele><time>2026-04-08T09:26:57Z</time></trkpt><trkpt lat="45.69774410797972" lon="6.905293049471973"><ele>2021.0</ele><time>2026-04-08T09:27:00Z</time></trkpt><trkpt lat="45.69768604815556" lon="6.905328233690811"><ele>2029.0</ele><time>2026-04-08T09:27:02Z</time></trkpt><trkpt lat="45.69761797503091" lon="6.905351074589452"><ele>2037.0</ele><time>2026-04-08T09:27:04Z</time></trkpt><trkpt lat="45.69752808412314" lon="6.905393230225398"><ele>2045.0</ele><time>2026-04-08T09:27:07Z</time></trkpt><trkpt lat="45.69746452401269" lon="6.905428878019304"><ele>2053.0</ele><time>2026-04-08T09:27:09Z</time></trkpt><trkpt lat="45.69738368517135" lon="6.9054641259991465"><ele>2061.0</ele><time>2026-04-08T09:27:12Z</time></trkpt><trkpt lat="45.697296827972934" lon="6.9055031761833545"><ele>2061.0</ele><time>2026-04-08T09:27:15Z</time></trkpt><trkpt lat="45.69723424733671" lon="6.905528822929028"><ele>2061.0</ele><time>2026-04-08T09:27:17Z</time></trkpt><trkpt lat="45.69715016911177" lon="6.905572510324683"><ele>2061.0</ele><time>2026-04-08T09:27:20Z</time></trkpt><trkpt lat="45.69707288793198" lon="6.905601250924403"><ele>2061.0</ele><time>2026-04-08T09:27:23Z</time></trkpt><trkpt lat="45.69701391801564" lon="6.90563942618942"><ele>2061.0</ele><time>2026-04-08T09:27:25Z</time></trkpt><trkpt lat="45.696932960979055" lon="6.905686836760441"><ele>2061.0</ele><time>2026-04-08T09:27:28Z</time></trkpt><trkpt lat="45.6968389233371" lon="6.905729909076218"><ele>2067.1666666666665</ele><time>2026-04-08T09:27:31Z</time></trkpt><trkpt lat="45.696777184034815" lon="6.905762292863008"><ele>2073.3333333333335</ele><time>2026-04-08T09:27:33Z</time></trkpt><trkpt lat="45.696708372309274" lon="6.905785543919251"><ele>2079.5</ele><time>2026-04-08T09:27:35Z</time></trkpt><trkpt lat="45.69662205898035" lon="6.905836553223227"><ele>2085.666666666667</ele><time>2026-04-08T09:27:38Z</time></trkpt><trkpt lat="45.696532891611795" lon="6.905870337656038"><ele>2091.8333333333335</ele><time>2026-04-08T09:27:41Z</time></trkpt><trkpt lat="45.6964722481964" lon="6.905898871601035"><ele>2098.0</ele><time>2026-04-08T09:27:42.999Z</time></trkpt><trkpt lat="45.69639239702869" lon="6.905948608547275"><ele>2101.0</ele><time>2026-04-08T09:27:45.999Z</time></trkpt><trkpt lat="45.696307948566975" lon="6.9059861299424234"><ele>2104.0</ele><time>2026-04-08T09:27:48.999Z</time></trkpt><trkpt lat="45.69622882706296" lon="6.906025051631663"><ele>2107.0</ele><time>2026-04-08T09:27:51.999Z</time></trkpt><trkpt lat="45.69615068036649" lon="6.906072162673459"><ele>2110.0</ele><time>2026-04-08T09:27:54.999Z</time></trkpt><trkpt lat="45.696068628307074" lon="6.906114828296558"><ele>2113.0</ele><time>2026-04-08T09:27:57.999Z</time></trkpt><trkpt lat="45.695983491761766" lon="6.9061526280581145"><ele>2116.0</ele><time>2026-04-08T09:28:00.999Z</time></trkpt><trkpt lat="45.695920274103145" lon="6.906180205735977"><ele>2121.666666666667</ele><time>2026-04-08T09:28:02.999Z</time></trkpt><trkpt lat="45.69583517305602" lon="6.906225477193129"><ele>2127.3333333333335</ele><time>2026-04-08T09:28:05.999Z</time></trkpt><trkpt lat="45.69575440411456" lon="6.906276119667755"><ele>2133.0</ele><time>2026-04-08T09:28:08.999Z</time></trkpt><trkpt lat="45.69568127429573" lon="6.906305756316907"><ele>2138.6666666666665</ele><time>2026-04-08T09:28:10.999Z</time></trkpt><trkpt lat="45.695590888017186" lon="6.90634294828372"><ele>2144.333333333333</ele><time>2026-04-08T09:28:13.999Z</time></trkpt><trkpt lat="45.69552742404643" lon="6.906378713360315"><ele>2150.0</ele><time>2026-04-08T09:28:15.999Z</time></trkpt><trkpt lat="45.69545931870488" lon="6.906416606334578"><ele>2150.0000000000005</ele><time>2026-04-08T09:28:17.999Z</time></trkpt><trkpt lat="45.6953964175549" lon="6.906446792896546"><ele>2150.0</ele><time>2026-04-08T09:28:19.999Z</time></trkpt><trkpt lat="45.69533620365179" lon="6.906474293830612"><ele>2150.0</ele><time>2026-04-08T09:28:21.999Z</time></trkpt><trkpt lat="45.69526997721837" lon="6.906509038227321"><ele>2150.0</ele><time>2026-04-08T09:28:23.999Z</time></trkpt><trkpt lat="45.695201758503124" lon="6.9065452866856525"><ele>2150.0</ele><time>2026-04-08T09:28:25.999Z</time></trkpt><trkpt lat="45.69513227100288" lon="6.9065779053685405"><ele>2150.0000000000005</ele><time>2026-04-08T09:28:27.999Z</time></trkpt><trkpt lat="45.69503948581823" lon="6.906628380238931"><ele>2150.0</ele><time>2026-04-08T09:28:30.999Z</time></trkpt><trkpt lat="45.694964425795305" lon="6.9066565525646695"><ele>2151.0000000000005</ele><time>2026-04-08T09:28:32.999Z</time></trkpt><trkpt lat="45.69490252804559" lon="6.906686097223213"><ele>2152.0</ele><time>2026-04-08T09:28:34.999Z</time></trkpt><trkpt lat="45.69483350311954" lon="6.906714134362641"><ele>2153.0</ele><time>2026-04-08T09:28:36.999Z</time></trkpt><trkpt lat="45.69477026938169" lon="6.90673637891368"><ele>2154.0</ele><time>2026-04-08T09:28:38.999Z</time></trkpt><trkpt lat="45.69471003850451" lon="6.906774913374756"><ele>2155.0</ele><time>2026-04-08T09:28:40.999Z</time></trkpt><trkpt lat="45.69462396751163" lon="6.906819575373697"><ele>2156.0000000000005</ele><time>2026-04-08T09:28:43.999Z</time></trkpt><trkpt lat="45.69456203496296" lon="6.906853215114529"><ele>2157.0</ele><time>2026-04-08T09:28:45.999Z</time></trkpt><trkpt lat="45.69447480029504" lon="6.906890364633744"><ele>2162.6666666666665</ele><time>2026-04-08T09:28:48.999Z</time></trkpt><trkpt lat="45.69441186783879" lon="6.9069223212781"><ele>2168.3333333333335</ele><time>2026-04-08T09:28:51Z</time></trkpt><trkpt lat="45.69432528174834" lon="6.906979263500722"><ele>2174.0</ele><time>2026-04-08T09:28:54Z</time></trkpt><trkpt lat="45.69426296019274" lon="6.907017820607802"><ele>2179.666666666667</ele><time>2026-04-08T09:28:56Z</time></trkpt><trkpt lat="45.69419879987013" lon="6.907047269194008"><ele>2185.3333333333335</ele><time>2026-04-08T09:28:58Z</time></trkpt><trkpt lat="45.694111223238636" lon="6.907087676819097"><ele>2191.0</ele><time>2026-04-08T09:29:01Z</time></trkpt><trkpt lat="45.694036426774176" lon="6.907132034651695"><ele>2191.0</ele><time>2026-04-08T09:29:04Z</time></trkpt><trkpt lat="45.69396017501972" lon="6.907168751201146"><ele>2191.0</ele><time>2026-04-08T09:29:07Z</time></trkpt><trkpt lat="45.69388436759751" lon="6.90720800534718"><ele>2191.0</ele><time>2026-04-08T09:29:10Z</time></trkpt><trkpt lat="45.69379894311514" lon="6.907245196355144"><ele>2191.0</ele><time>2026-04-08T09:29:13Z</time></trkpt><trkpt lat="45.693710591278446" lon="6.90727698328935"><ele>2191.0</ele><time>2026-04-08T09:29:16Z</time></trkpt><trkpt lat="45.69362086200474" lon="6.907324891555422"><ele>2191.0</ele><time>2026-04-08T09:29:19Z</time></trkpt><trkpt lat="45.693530327671596" lon="6.9073659938412835"><ele>2196.1428571428573</ele><time>2026-04-08T09:29:22Z</time></trkpt><trkpt lat="45.69346698209725" lon="6.907404615026762"><ele>2201.285714285714</ele><time>2026-04-08T09:29:24Z</time></trkpt><trkpt lat="45.693389984283186" lon="6.907445332227055"><ele>2206.4285714285716</ele><time>2026-04-08T09:29:27Z</time></trkpt><trkpt lat="45.69332355769326" lon="6.907494631952556"><ele>2211.5714285714284</ele><time>2026-04-08T09:29:29Z</time></trkpt><trkpt lat="45.69326028745004" lon="6.907529239879884"><ele>2216.714285714286</ele><time>2026-04-08T09:29:31Z</time></trkpt><trkpt lat="45.69319586910613" lon="6.907560032598678"><ele>2221.857142857143</ele><time>2026-04-08T09:29:33Z</time></trkpt><trkpt lat="45.69311462064115" lon="6.9075912044223635"><ele>2227.0</ele><time>2026-04-08T09:29:36Z</time></trkpt><trkpt lat="45.69303273078572" lon="6.907637061772843"><ele>2229.571428571429</ele><time>2026-04-08T09:29:39Z</time></trkpt><trkpt lat="45.69294470819963" lon="6.907680726494483"><ele>2232.1428571428573</ele><time>2026-04-08T09:29:42Z</time></trkpt><trkpt lat="45.69287033287029" lon="6.907730679180072"><ele>2234.714285714286</ele><time>2026-04-08T09:29:45Z</time></trkpt><trkpt lat="45.69280989418297" lon="6.907765337995672"><ele>2237.2857142857147</ele><time>2026-04-08T09:29:47Z</time></trkpt><trkpt lat="45.69274374548216" lon="6.907793898175467"><ele>2239.857142857143</ele><time>2026-04-08T09:29:48.999Z</time></trkpt><trkpt lat="45.69268320674429" lon="6.907819588484483"><ele>2242.4285714285716</ele><time>2026-04-08T09:29:50.999Z</time></trkpt><trkpt lat="45.69261609295386" lon="6.907852285837031"><ele>2245.0</ele><time>2026-04-08T09:29:52.999Z</time></trkpt><trkpt lat="45.69255446154252" lon="6.907878274340197"><ele>2249.166666666667</ele><time>2026-04-08T09:29:54.999Z</time></trkpt><trkpt lat="45.69248560383075" lon="6.907913088635487"><ele>2253.3333333333335</ele><time>2026-04-08T09:29:56.999Z</time></trkpt><trkpt lat="45.69239741728107" lon="6.9079608078144465"><ele>2257.5</ele><time>2026-04-08T09:29:59.999Z</time></trkpt><trkpt lat="45.69233476990612" lon="6.907993036645301"><ele>2261.6666666666665</ele><time>2026-04-08T09:30:01.999Z</time></trkpt><trkpt lat="45.69227442007678" lon="6.908026533424939"><ele>2265.833333333333</ele><time>2026-04-08T09:30:03.999Z</time></trkpt><trkpt lat="45.6921967105797" lon="6.908074198593919"><ele>2270.0</ele><time>2026-04-08T09:30:06.999Z</time></trkpt><trkpt lat="45.69212596768168" lon="6.908099770599918"><ele>2270.0</ele><time>2026-04-08T09:30:08.999Z</time></trkpt><trkpt lat="45.69205765070482" lon="6.908131912573322"><ele>2270.0</ele><time>2026-04-08T09:30:10.999Z</time></trkpt><trkpt lat="45.691999682753746" lon="6.908177915064601"><ele>2270.0</ele><time>2026-04-08T09:30:12.999Z</time></trkpt><trkpt lat="45.69193505151576" lon="6.908207933489111"><ele>2270.0</ele><time>2026-04-08T09:30:14.999Z</time></trkpt><trkpt lat="45.691868515018236" lon="6.908235429770318"><ele>2270.0</ele><time>2026-04-08T09:30:16.999Z</time></trkpt><trkpt lat="45.691807877773776" lon="6.908271822658253"><ele>2270.0</ele><time>2026-04-08T09:30:18.999Z</time></trkpt><trkpt lat="45.69174631216436" lon="6.908296625112168"><ele>2270.0</ele><time>2026-04-08T09:30:20.999Z</time></trkpt><trkpt lat="45.69167990227335" lon="6.908325347742338"><ele>2272.1428571428573</ele><time>2026-04-08T09:30:22.999Z</time></trkpt><trkpt lat="45.691614132234186" lon="6.908362558729328"><ele>2274.285714285714</ele><time>2026-04-08T09:30:24.999Z</time></trkpt><trkpt lat="45.69155287098097" lon="6.9083943898260305"><ele>2276.4285714285716</ele><time>2026-04-08T09:30:26.999Z</time></trkpt><trkpt lat="45.69148750620107" lon="6.908421817184922"><ele>2278.5714285714284</ele><time>2026-04-08T09:30:28.999Z</time></trkpt><trkpt lat="45.69142416847021" lon="6.908450580627643"><ele>2280.714285714286</ele><time>2026-04-08T09:30:30.999Z</time></trkpt><trkpt lat="45.69134821080755" lon="6.908494186307852"><ele>2282.857142857143</ele><time>2026-04-08T09:30:33.999Z</time></trkpt><trkpt lat="45.69128522423418" lon="6.908528545179076"><ele>2285.0</ele><time>2026-04-08T09:30:36.999Z</time></trkpt><trkpt lat="45.69120955988388" lon="6.908559012259394"><ele>2287.1666666666665</ele><time>2026-04-08T09:30:39.999Z</time></trkpt><trkpt lat="45.69112050734612" lon="6.908611069890319"><ele>2289.333333333333</ele><time>2026-04-08T09:30:42.999Z</time></trkpt><trkpt lat="45.691054055042606" lon="6.908643830343767"><ele>2291.5</ele><time>2026-04-08T09:30:44.999Z</time></trkpt><trkpt lat="45.690984714050416" lon="6.908671645528524"><ele>2293.6666666666665</ele><time>2026-04-08T09:30:46.999Z</time></trkpt><trkpt lat="45.69090349925986" lon="6.90872483487972"><ele>2295.8333333333335</ele><time>2026-04-08T09:30:49.999Z</time></trkpt><trkpt lat="45.69080895321301" lon="6.908769383966915"><ele>2298.0</ele><time>2026-04-08T09:30:52.999Z</time></trkpt><trkpt lat="45.69071817548055" lon="6.9088086059639435"><ele>2300.3333333333335</ele><time>2026-04-08T09:30:55.999Z</time></trkpt><trkpt lat="45.690656320230076" lon="6.908840398507944"><ele>2302.6666666666665</ele><time>2026-04-08T09:30:58Z</time></trkpt><trkpt lat="45.69059162558809" lon="6.908865913413882"><ele>2305.0</ele><time>2026-04-08T09:31:00Z</time></trkpt><trkpt lat="45.690507237997366" lon="6.908920327574055"><ele>2307.333333333333</ele><time>2026-04-08T09:31:03Z</time></trkpt><trkpt lat="45.69042340618223" lon="6.90896405138616"><ele>2309.6666666666665</ele><time>2026-04-08T09:31:06Z</time></trkpt><trkpt lat="45.69036040184385" lon="6.908991183533236"><ele>2312.0</ele><time>2026-04-08T09:31:08Z</time></trkpt><trkpt lat="45.69026921249302" lon="6.909035626993306"><ele>2316.5714285714284</ele><time>2026-04-08T09:31:11Z</time></trkpt><trkpt lat="45.69018225177983" lon="6.90907347633125"><ele>2321.142857142857</ele><time>2026-04-08T09:31:14Z</time></trkpt><trkpt lat="45.690120461998255" lon="6.909105913645515"><ele>2325.7142857142853</ele><time>2026-04-08T09:31:16Z</time></trkpt><trkpt lat="45.69006214210252" lon="6.909141048440043"><ele>2330.285714285714</ele><time>2026-04-08T09:31:18Z</time></trkpt><trkpt lat="45.690000133398634" lon="6.909179808495482"><ele>2334.8571428571427</ele><time>2026-04-08T09:31:20Z</time></trkpt><trkpt lat="45.689922717102824" lon="6.909224328692061"><ele>2339.428571428571</ele><time>2026-04-08T09:31:23Z</time></trkpt><trkpt lat="45.68985958468578" lon="6.909263448315912"><ele>2344.0</ele><time>2026-04-08T09:31:25Z</time></trkpt><trkpt lat="45.68976287775228" lon="6.909299960073669"><ele>2346.428571428571</ele><time>2026-04-08T09:31:28Z</time></trkpt><trkpt lat="45.68969557661884" lon="6.90933176025247"><ele>2348.8571428571427</ele><time>2026-04-08T09:31:30Z</time></trkpt><trkpt lat="45.689629032888874" lon="6.909363584433656"><ele>2351.285714285714</ele><time>2026-04-08T09:31:32Z</time></trkpt><trkpt lat="45.689565623308596" lon="6.90939575286701"><ele>2353.7142857142853</ele><time>2026-04-08T09:31:34Z</time></trkpt><trkpt lat="45.68949988644603" lon="6.90943502826048"><ele>2356.142857142857</ele><time>2026-04-08T09:31:36Z</time></trkpt><trkpt lat="45.68943749270717" lon="6.909459639124157"><ele>2358.5714285714284</ele><time>2026-04-08T09:31:38Z</time></trkpt><trkpt lat="45.6893530933513" lon="6.909513697617447"><ele>2361.0</ele><time>2026-04-08T09:31:40.999Z</time></trkpt><trkpt lat="45.68929092353574" lon="6.90953200951733"><ele>2363.5</ele><time>2026-04-08T09:31:42.999Z</time></trkpt><trkpt lat="45.689205740560126" lon="6.9095849170699735"><ele>2366.0</ele><time>2026-04-08T09:31:45.999Z</time></trkpt><trkpt lat="45.68912242534352" lon="6.909641199981272"><ele>2368.5</ele><time>2026-04-08T09:31:48.999Z</time></trkpt><trkpt lat="45.68905376301586" lon="6.909666491874985"><ele>2371.0</ele><time>2026-04-08T09:31:50.999Z</time></trkpt><trkpt lat="45.6889852361583" lon="6.909691536551611"><ele>2373.5</ele><time>2026-04-08T09:31:52.999Z</time></trkpt><trkpt lat="45.68892269815474" lon="6.909724521868787"><ele>2376.0</ele><time>2026-04-08T09:31:54.999Z</time></trkpt><trkpt lat="45.688856865716154" lon="6.909751287540587"><ele>2376.0</ele><time>2026-04-08T09:31:56.999Z</time></trkpt><trkpt lat="45.68879212085824" lon="6.909787741935591"><ele>2376.0</ele><time>2026-04-08T09:31:58.999Z</time></trkpt><trkpt lat="45.688724908678324" lon="6.909818148226838"><ele>2376.0</ele><time>2026-04-08T09:32:00.999Z</time></trkpt><trkpt lat="45.688655558745644" lon="6.9098394646507195"><ele>2376.0</ele><time>2026-04-08T09:32:02.999Z</time></trkpt><trkpt lat="45.68859179062078" lon="6.909872852558389"><ele>2376.0</ele><time>2026-04-08T09:32:04.999Z</time></trkpt><trkpt lat="45.688510190670286" lon="6.909928472681507"><ele>2376.0</ele><time>2026-04-08T09:32:07.999Z</time></trkpt><trkpt lat="45.688416848823614" lon="6.909965738674515"><ele>2377.857142857143</ele><time>2026-04-08T09:32:10.999Z</time></trkpt><trkpt lat="45.68836407083368" lon="6.91001682929459"><ele>2379.714285714286</ele><time>2026-04-08T09:32:12.999Z</time></trkpt><trkpt lat="45.688303754542936" lon="6.9100667132022515"><ele>2381.5714285714284</ele><time>2026-04-08T09:32:14.999Z</time></trkpt><trkpt lat="45.68824499942439" lon="6.910102771106812"><ele>2383.4285714285716</ele><time>2026-04-08T09:32:16.999Z</time></trkpt><trkpt lat="45.688180556960305" lon="6.910124080355817"><ele>2385.285714285714</ele><time>2026-04-08T09:32:18.999Z</time></trkpt><trkpt lat="45.688120006558094" lon="6.910154199870187"><ele>2387.1428571428573</ele><time>2026-04-08T09:32:20.999Z</time></trkpt><trkpt lat="45.6880309224037" lon="6.910197867442437"><ele>2389.0</ele><time>2026-04-08T09:32:23.999Z</time></trkpt><trkpt lat="45.68794392375564" lon="6.910222877994474"><ele>2391.3333333333335</ele><time>2026-04-08T09:32:26.999Z</time></trkpt><trkpt lat="45.68785840079597" lon="6.910258268331339"><ele>2393.666666666667</ele><time>2026-04-08T09:32:29.999Z</time></trkpt><trkpt lat="45.68777737190088" lon="6.910305078806707"><ele>2396.0</ele><time>2026-04-08T09:32:32.999Z</time></trkpt><trkpt lat="45.687692248914516" lon="6.910347146633427"><ele>2398.3333333333335</ele><time>2026-04-08T09:32:35.999Z</time></trkpt><trkpt lat="45.68760991525565" lon="6.910389294606277"><ele>2400.6666666666665</ele><time>2026-04-08T09:32:38.999Z</time></trkpt><trkpt lat="45.687546664318475" lon="6.910419089077383"><ele>2403.0</ele><time>2026-04-08T09:32:40.999Z</time></trkpt><trkpt lat="45.68748306771424" lon="6.910445036583258"><ele>2408.5</ele><time>2026-04-08T09:32:42.999Z</time></trkpt><trkpt lat="45.68741712625037" lon="6.910480749711313"><ele>2414.0</ele><time>2026-04-08T09:32:44.999Z</time></trkpt><trkpt lat="45.68735294671625" lon="6.910516125950988"><ele>2419.5</ele><time>2026-04-08T09:32:46.999Z</time></trkpt><trkpt lat="45.68725816692978" lon="6.910550865073006"><ele>2425.0</ele><time>2026-04-08T09:32:49.999Z</time></trkpt><trkpt lat="45.6871901044848" lon="6.910582302263871"><ele>2430.5</ele><time>2026-04-08T09:32:51.999Z</time></trkpt><trkpt lat="45.68709923234925" lon="6.910618608479621"><ele>2436.0</ele><time>2026-04-08T09:32:54.999Z</time></trkpt><trkpt lat="45.687010882948414" lon="6.91066168491994"><ele>2436.0</ele><time>2026-04-08T09:32:57.999Z</time></trkpt><trkpt lat="45.68694429444221" lon="6.910690556319845"><ele>2436.0</ele><time>2026-04-08T09:32:59.999Z</time></trkpt><trkpt lat="45.686884378939375" lon="6.9107233911758845"><ele>2436.0</ele><time>2026-04-08T09:33:01.999Z</time></trkpt><trkpt lat="45.68682025018197" lon="6.910759769684089"><ele>2436.0</ele><time>2026-04-08T09:33:04Z</time></trkpt><trkpt lat="45.68676056104985" lon="6.91079022440745"><ele>2436.0</ele><time>2026-04-08T09:33:06Z</time></trkpt><trkpt lat="45.686698985317875" lon="6.9108235024189195"><ele>2436.0</ele><time>2026-04-08T09:33:08Z</time></trkpt><trkpt lat="45.686636572810656" lon="6.910852286225268"><ele>2436.0</ele><time>2026-04-08T09:33:10Z</time></trkpt><trkpt lat="45.68654454515585" lon="6.910890335095836"><ele>2442.1666666666665</ele><time>2026-04-08T09:33:13Z</time></trkpt><trkpt lat="45.68648073286223" lon="6.91091792457126"><ele>2448.3333333333335</ele><time>2026-04-08T09:33:15Z</time></trkpt><trkpt lat="45.68639513386475" lon="6.91096434686007"><ele>2454.5</ele><time>2026-04-08T09:33:18Z</time></trkpt><trkpt lat="45.68631366413361" lon="6.911011170355358"><ele>2460.666666666667</ele><time>2026-04-08T09:33:21Z</time></trkpt><trkpt lat="45.68622813228377" lon="6.9110505128350175"><ele>2466.8333333333335</ele><time>2026-04-08T09:33:24Z</time></trkpt><trkpt lat="45.68614236788645" lon="6.9111135556213315"><ele>2473.0</ele><time>2026-04-08T09:33:27Z</time></trkpt><trkpt lat="45.68607516385075" lon="6.911144721903371"><ele>2473.0</ele><time>2026-04-08T09:33:29Z</time></trkpt><trkpt lat="45.68601118623128" lon="6.91116649376288"><ele>2473.0</ele><time>2026-04-08T09:33:31Z</time></trkpt><trkpt lat="45.68595318346541" lon="6.91120645244628"><ele>2473.0</ele><time>2026-04-08T09:33:34Z</time></trkpt><trkpt lat="45.68589123750726" lon="6.911247073816393"><ele>2473.0</ele><time>2026-04-08T09:33:40Z</time></trkpt><trkpt lat="45.68594115536242" lon="6.911331438680197"><ele>2473.0</ele><time>2026-04-08T09:34:05.999Z</time></trkpt><trkpt lat="45.68600648708907" lon="6.91136879024181"><ele>2473.0</ele><time>2026-04-08T09:34:16.999Z</time></trkpt><trkpt lat="45.68607287367122" lon="6.91140362257739"><ele>2473.0</ele><time>2026-04-08T09:34:26.999Z</time></trkpt><trkpt lat="45.68615218142649" lon="6.911445937619181"><ele>2473.0</ele><time>2026-04-08T09:34:31.999Z</time></trkpt><trkpt lat="45.68622005590013" lon="6.911486351867244"><ele>2473.0</ele><time>2026-04-08T09:34:34.999Z</time></trkpt><trkpt lat="45.68628946953059" lon="6.91153073749851"><ele>2473.0</ele><time>2026-04-08T09:34:38.999Z</time></trkpt><trkpt lat="45.68635788490245" lon="6.9115817112736835"><ele>2473.0</ele><time>2026-04-08T09:34:41.999Z</time></trkpt><trkpt lat="45.68643147336219" lon="6.911626460136397"><ele>2473.0</ele><time>2026-04-08T09:34:44.999Z</time></trkpt><trkpt lat="45.6865034797308" lon="6.911675269206583"><ele>2473.0</ele><time>2026-04-08T09:34:47.999Z</time></trkpt><trkpt lat="45.68656429079906" lon="6.911704931993508"><ele>2473.0</ele><time>2026-04-08T09:34:49.999Z</time></trkpt><trkpt lat="45.68663847153405" lon="6.91170098712473"><ele>2473.0</ele><time>2026-04-08T09:34:51.999Z</time></trkpt><trkpt lat="45.6867495859882" lon="6.911667246744639"><ele>2473.0</ele><time>2026-04-08T09:34:53.999Z</time></trkpt><trkpt lat="45.68685622260717" lon="6.911668625405374"><ele>2473.0</ele><time>2026-04-08T09:34:55.999Z</time></trkpt><trkpt lat="45.68695770352077" lon="6.911626591700127"><ele>2473.0</ele><time>2026-04-08T09:34:57.999Z</time></trkpt><trkpt lat="45.687050469145554" lon="6.911623276616182"><ele>2471.0</ele><time>2026-04-08T09:34:59.999Z</time></trkpt><trkpt lat="45.68714432038023" lon="6.911590090938829"><ele>2469.0</ele><time>2026-04-08T09:35:01.999Z</time></trkpt><trkpt lat="45.687227199444436" lon="6.911558893427708"><ele>2467.0</ele><time>2026-04-08T09:35:03.999Z</time></trkpt><trkpt lat="45.68727140295877" lon="6.911431808956128"><ele>2465.0</ele><time>2026-04-08T09:35:06.999Z</time></trkpt><trkpt lat="45.68722151842638" lon="6.91135930801624"><ele>2463.0</ele><time>2026-04-08T09:35:08.999Z</time></trkpt><trkpt lat="45.68715340383043" lon="6.911316856926935"><ele>2461.0</ele><time>2026-04-08T09:35:10.999Z</time></trkpt><trkpt lat="45.68707259177519" lon="6.911266610143538"><ele>2461.0</ele><time>2026-04-08T09:35:12.999Z</time></trkpt><trkpt lat="45.686989184524464" lon="6.911218926638235"><ele>2461.0</ele><time>2026-04-08T09:35:14.999Z</time></trkpt><trkpt lat="45.68689809969374" lon="6.911123730170472"><ele>2461.0</ele><time>2026-04-08T09:35:16.998Z</time></trkpt><trkpt lat="45.68680898984674" lon="6.911014472235733"><ele>2461.0</ele><time>2026-04-08T09:35:18.998Z</time></trkpt><trkpt lat="45.686753144354995" lon="6.910942735194883"><ele>2461.0</ele><time>2026-04-08T09:35:19.998Z</time></trkpt><trkpt lat="45.68666588580304" lon="6.910839974432858"><ele>2456.0</ele><time>2026-04-08T09:35:21.998Z</time></trkpt><trkpt lat="45.68667168236638" lon="6.910735889588009"><ele>2451.0</ele><time>2026-04-08T09:35:24.998Z</time></trkpt><trkpt lat="45.686688994415285" lon="6.909938760311414"><ele>2446.0</ele><time>2026-04-08T09:35:26.998Z</time></trkpt><trkpt lat="45.686989237350225" lon="6.909966635692979"><ele>2441.0</ele><time>2026-04-08T09:35:29.998Z</time></trkpt><trkpt lat="45.687106222351176" lon="6.910002430193066"><ele>2436.0</ele><time>2026-04-08T09:35:30.998Z</time></trkpt><trkpt lat="45.68739910523136" lon="6.9105731675269455"><ele>2436.0</ele><time>2026-04-08T09:35:34.998Z</time></trkpt><trkpt lat="45.687463120844356" lon="6.910610444456108"><ele>2436.0</ele><time>2026-04-08T09:35:35.998Z</time></trkpt><trkpt lat="45.687525165222574" lon="6.9106514343565575"><ele>2436.0</ele><time>2026-04-08T09:35:36.998Z</time></trkpt><trkpt lat="45.68758964253881" lon="6.910662646152516"><ele>2436.0</ele><time>2026-04-08T09:35:37.998Z</time></trkpt><trkpt lat="45.68772193260553" lon="6.910664690759842"><ele>2436.0</ele><time>2026-04-08T09:35:39.998Z</time></trkpt><trkpt lat="45.6878014618344" lon="6.9107601207551435"><ele>2436.0</ele><time>2026-04-08T09:35:41.998Z</time></trkpt><trkpt lat="45.68790385758394" lon="6.910700556416107"><ele>2429.4</ele><time>2026-04-08T09:35:43.998Z</time></trkpt><trkpt lat="45.68800030828411" lon="6.910771873547597"><ele>2422.8</ele><time>2026-04-08T09:35:45.998Z</time></trkpt><trkpt lat="45.688109848669825" lon="6.910724770203898"><ele>2416.2000000000003</ele><time>2026-04-08T09:35:47.998Z</time></trkpt><trkpt lat="45.68820938859553" lon="6.91075249213449"><ele>2409.6</ele><time>2026-04-08T09:35:49.998Z</time></trkpt><trkpt lat="45.68832565748841" lon="6.910691245632281"><ele>2403.0</ele><time>2026-04-08T09:35:51.998Z</time></trkpt><trkpt lat="45.68839619454396" lon="6.910678127923851"><ele>2403.0</ele><time>2026-04-08T09:35:52.998Z</time></trkpt><trkpt lat="45.68848004383717" lon="6.910680307797766"><ele>2403.0</ele><time>2026-04-08T09:35:54.998Z</time></trkpt><trkpt lat="45.688566940387034" lon="6.910654399611096"><ele>2403.0</ele><time>2026-04-08T09:35:56.998Z</time></trkpt><trkpt lat="45.68866337321681" lon="6.910647147942479"><ele>2403.0</ele><time>2026-04-08T09:35:58.998Z</time></trkpt><trkpt lat="45.68878186309468" lon="6.91063748360623"><ele>2403.0</ele><time>2026-04-08T09:36:00.998Z</time></trkpt><trkpt lat="45.688895984031355" lon="6.910566521317634"><ele>2400.8333333333335</ele><time>2026-04-08T09:36:02.998Z</time></trkpt><trkpt lat="45.68901528652629" lon="6.910542257121147"><ele>2398.6666666666665</ele><time>2026-04-08T09:36:04.998Z</time></trkpt><trkpt lat="45.6891072756121" lon="6.910422542736884"><ele>2396.5</ele><time>2026-04-08T09:36:06.998Z</time></trkpt><trkpt lat="45.689165614276234" lon="6.910361889391369"><ele>2394.333333333333</ele><time>2026-04-08T09:36:07.998Z</time></trkpt><trkpt lat="45.68922856340812" lon="6.910356047915461"><ele>2392.1666666666665</ele><time>2026-04-08T09:36:08.998Z</time></trkpt><trkpt lat="45.68929483636508" lon="6.910326211188378"><ele>2390.0</ele><time>2026-04-08T09:36:09.998Z</time></trkpt><trkpt lat="45.689363236065645" lon="6.9102718039704545"><ele>2386.5</ele><time>2026-04-08T09:36:10.998Z</time></trkpt><trkpt lat="45.689441017466756" lon="6.910219867487949"><ele>2383.0</ele><time>2026-04-08T09:36:11.998Z</time></trkpt><trkpt lat="45.68950924357783" lon="6.9102172969911395"><ele>2379.5</ele><time>2026-04-08T09:36:12.998Z</time></trkpt><trkpt lat="45.689573175149036" lon="6.910237322593794"><ele>2376.0</ele><time>2026-04-08T09:36:13.998Z</time></trkpt><trkpt lat="45.68967715286586" lon="6.91026627143135"><ele>2372.5</ele><time>2026-04-08T09:36:15.998Z</time></trkpt><trkpt lat="45.689779323029136" lon="6.9101712665706465"><ele>2369.0</ele><time>2026-04-08T09:36:17.998Z</time></trkpt><trkpt lat="45.6898841391782" lon="6.9101855774498375"><ele>2369.0</ele><time>2026-04-08T09:36:19.998Z</time></trkpt><trkpt lat="45.6899554490842" lon="6.910135754146208"><ele>2369.0</ele><time>2026-04-08T09:37:00.997Z</time></trkpt><trkpt lat="45.69010932655141" lon="6.910363176927738"><ele>2369.0</ele><time>2026-04-08T09:37:06.997Z</time></trkpt><trkpt lat="45.69021425009587" lon="6.910403305584246"><ele>2369.0</ele><time>2026-04-08T09:37:08.997Z</time></trkpt><trkpt lat="45.69027746374542" lon="6.910389558849838"><ele>2365.4</ele><time>2026-04-08T09:37:09.997Z</time></trkpt><trkpt lat="45.69037376762364" lon="6.910460162615542"><ele>2361.8</ele><time>2026-04-08T09:37:11.997Z</time></trkpt><trkpt lat="45.69042704307105" lon="6.9105130269800865"><ele>2358.2</ele><time>2026-04-08T09:37:12.997Z</time></trkpt><trkpt lat="45.69053204463738" lon="6.910470368839001"><ele>2354.6</ele><time>2026-04-08T09:37:14.997Z</time></trkpt><trkpt lat="45.690611502616086" lon="6.910515928603514"><ele>2351.0</ele><time>2026-04-08T09:37:16.997Z</time></trkpt><trkpt lat="45.69067232414228" lon="6.91059429739022"><ele>2351.0</ele><time>2026-04-08T09:37:18.997Z</time></trkpt><trkpt lat="45.69077541931975" lon="6.910569035175749"><ele>2351.0</ele><time>2026-04-08T09:37:20.997Z</time></trkpt><trkpt lat="45.69087929194571" lon="6.910644736669929"><ele>2351.0</ele><time>2026-04-08T09:37:22.997Z</time></trkpt><trkpt lat="45.690955754143" lon="6.9105316346353804"><ele>2351.0</ele><time>2026-04-08T09:37:24.997Z</time></trkpt><trkpt lat="45.691054814074185" lon="6.910442684879448"><ele>2351.0</ele><time>2026-04-08T09:37:26.997Z</time></trkpt><trkpt lat="45.691179991226974" lon="6.910497195732196"><ele>2349.8</ele><time>2026-04-08T09:37:28.997Z</time></trkpt><trkpt lat="45.69124173127291" lon="6.910380249400965"><ele>2348.6</ele><time>2026-04-08T09:37:30.997Z</time></trkpt><trkpt lat="45.691336802346065" lon="6.9103728978614285"><ele>2347.4</ele><time>2026-04-08T09:37:32.997Z</time></trkpt><trkpt lat="45.69142604654809" lon="6.910284591619061"><ele>2346.2</ele><time>2026-04-08T09:37:34.997Z</time></trkpt><trkpt lat="45.69152012559313" lon="6.91025323488277"><ele>2345.0</ele><time>2026-04-08T09:37:36.997Z</time></trkpt><trkpt lat="45.691492859708234" lon="6.910083683227766"><ele>2339.8</ele><time>2026-04-08T09:37:38.997Z</time></trkpt><trkpt lat="45.691552306980554" lon="6.910004701644111"><ele>2334.6</ele><time>2026-04-08T09:37:40.997Z</time></trkpt><trkpt lat="45.69166939964072" lon="6.910017060638209"><ele>2329.4</ele><time>2026-04-08T09:37:42.997Z</time></trkpt><trkpt lat="45.69169862550422" lon="6.909888603569624"><ele>2324.2</ele><time>2026-04-08T09:37:44.997Z</time></trkpt><trkpt lat="45.69174247878337" lon="6.909714857358002"><ele>2319.0</ele><time>2026-04-08T09:37:46.997Z</time></trkpt><trkpt lat="45.69183942410385" lon="6.909706436219248"><ele>2319.0</ele><time>2026-04-08T09:37:48.997Z</time></trkpt><trkpt lat="45.69182894483154" lon="6.909553208763621"><ele>2319.0</ele><time>2026-04-08T09:37:50.997Z</time></trkpt><trkpt lat="45.6918965619528" lon="6.909456903293109"><ele>2319.0</ele><time>2026-04-08T09:37:52.997Z</time></trkpt><trkpt lat="45.69197519780394" lon="6.909424712374927"><ele>2319.0</ele><time>2026-04-08T09:37:54.997Z</time></trkpt><trkpt lat="45.691962797964635" lon="6.909306428488622"><ele>2319.0</ele><time>2026-04-08T09:37:56.997Z</time></trkpt><trkpt lat="45.692019112027594" lon="6.909219600684974"><ele>2313.2</ele><time>2026-04-08T09:37:58.997Z</time></trkpt><trkpt lat="45.692071338157184" lon="6.909096586129472"><ele>2307.4</ele><time>2026-04-08T09:38:00.997Z</time></trkpt><trkpt lat="45.69214216321883" lon="6.909040930326129"><ele>2301.6</ele><time>2026-04-08T09:38:02.997Z</time></trkpt><trkpt lat="45.69219647965362" lon="6.908976371478787"><ele>2295.8</ele><time>2026-04-08T09:38:04.997Z</time></trkpt><trkpt lat="45.692224838500636" lon="6.908829861288017"><ele>2290.0</ele><time>2026-04-08T09:38:06.997Z</time></trkpt><trkpt lat="45.69231370462149" lon="6.908652954950083"><ele>2290.0</ele><time>2026-04-08T09:38:10.997Z</time></trkpt><trkpt lat="45.69234799317044" lon="6.908577181703738"><ele>2290.0</ele><time>2026-04-08T09:38:11.996Z</time></trkpt><trkpt lat="45.69252975725515" lon="6.9085440428852305"><ele>2290.0</ele><time>2026-04-08T09:38:15.996Z</time></trkpt><trkpt lat="45.692617985226235" lon="6.9084739913476"><ele>2290.0</ele><time>2026-04-08T09:38:17.996Z</time></trkpt><trkpt lat="45.69273385718914" lon="6.908532900727916"><ele>2281.0</ele><time>2026-04-08T09:38:19.996Z</time></trkpt><trkpt lat="45.69278002446921" lon="6.9084081558476695"><ele>2272.0</ele><time>2026-04-08T09:38:21.996Z</time></trkpt><trkpt lat="45.69281648663417" lon="6.90826977981411"><ele>2263.0</ele><time>2026-04-08T09:38:23.996Z</time></trkpt><trkpt lat="45.692905700065964" lon="6.908171742027026"><ele>2254.0</ele><time>2026-04-08T09:38:25.996Z</time></trkpt><trkpt lat="45.69301711591349" lon="6.908247887338708"><ele>2245.0</ele><time>2026-04-08T09:38:27.996Z</time></trkpt><trkpt lat="45.693069099023916" lon="6.908314433135145"><ele>2245.0</ele><time>2026-04-08T09:38:28.996Z</time></trkpt><trkpt lat="45.69314947961104" lon="6.908243719976597"><ele>2245.0</ele><time>2026-04-08T09:38:30.996Z</time></trkpt><trkpt lat="45.69324642508265" lon="6.9082280463406995"><ele>2245.0</ele><time>2026-04-08T09:38:32.996Z</time></trkpt><trkpt lat="45.69333047483552" lon="6.908337382975478"><ele>2245.0</ele><time>2026-04-08T09:38:34.996Z</time></trkpt><trkpt lat="45.69343151977435" lon="6.908328305215897"><ele>2245.0</ele><time>2026-04-08T09:38:36.996Z</time></trkpt><trkpt lat="45.693518899405426" lon="6.908395513089118"><ele>2245.0</ele><time>2026-04-08T09:38:38.996Z</time></trkpt><trkpt lat="45.69358447192283" lon="6.908370830672323"><ele>2245.0</ele><time>2026-04-08T09:38:39.996Z</time></trkpt><trkpt lat="45.69362830716306" lon="6.9084547881022695"><ele>2245.0</ele><time>2026-04-08T09:38:41.996Z</time></trkpt><trkpt lat="45.69367766459" lon="6.908549446378051"><ele>2245.0</ele><time>2026-04-08T09:38:43.996Z</time></trkpt><trkpt lat="45.69374339158808" lon="6.908510393046429"><ele>2245.0</ele><time>2026-04-08T09:38:44.996Z</time></trkpt><trkpt lat="45.693803654554415" lon="6.908549417087318"><ele>2245.0</ele><time>2026-04-08T09:38:45.996Z</time></trkpt><trkpt lat="45.69385255396944" lon="6.908609799403412"><ele>2245.0</ele><time>2026-04-08T09:38:46.996Z</time></trkpt><trkpt lat="45.69394147518873" lon="6.908584699345885"><ele>2242.6</ele><time>2026-04-08T09:39:03.996Z</time></trkpt><trkpt lat="45.69401966800997" lon="6.908637104030165"><ele>2240.2</ele><time>2026-04-08T09:39:05.996Z</time></trkpt><trkpt lat="45.69404768621336" lon="6.908752304089229"><ele>2237.8</ele><time>2026-04-08T09:39:08.996Z</time></trkpt><trkpt lat="45.69412505757041" lon="6.908796587367599"><ele>2235.4</ele><time>2026-04-08T09:39:10.996Z</time></trkpt><trkpt lat="45.69423121787855" lon="6.908756606056417"><ele>2233.0</ele><time>2026-04-08T09:39:12.996Z</time></trkpt><trkpt lat="45.69433804935773" lon="6.908817365594566"><ele>2225.6</ele><time>2026-04-08T09:39:14.996Z</time></trkpt><trkpt lat="45.69443338126515" lon="6.908742623424991"><ele>2218.2000000000003</ele><time>2026-04-08T09:39:16.996Z</time></trkpt><trkpt lat="45.69454934771039" lon="6.908784740158628"><ele>2210.8</ele><time>2026-04-08T09:39:18.996Z</time></trkpt><trkpt lat="45.69464263847775" lon="6.908708333872372"><ele>2203.4</ele><time>2026-04-08T09:39:20.996Z</time></trkpt><trkpt lat="45.69474337111888" lon="6.908736646692443"><ele>2196.0</ele><time>2026-04-08T09:39:22.996Z</time></trkpt><trkpt lat="45.69483013878728" lon="6.9087110396357145"><ele>2196.0</ele><time>2026-04-08T09:39:24.996Z</time></trkpt><trkpt lat="45.69489508689271" lon="6.908618155828654"><ele>2196.0</ele><time>2026-04-08T09:39:26.996Z</time></trkpt><trkpt lat="45.694985348825334" lon="6.908706041598756"><ele>2196.0</ele><time>2026-04-08T09:39:28.996Z</time></trkpt><trkpt lat="45.695057949202884" lon="6.908660393298163"><ele>2196.0</ele><time>2026-04-08T09:39:30.996Z</time></trkpt><trkpt lat="45.695204668611964" lon="6.908694596550817"><ele>2196.0</ele><time>2026-04-08T09:39:34.996Z</time></trkpt><trkpt lat="45.69527056154977" lon="6.908666317372634"><ele>2187.25</ele><time>2026-04-08T09:39:35.996Z</time></trkpt><trkpt lat="45.69545816590869" lon="6.908562801578442"><ele>2178.5</ele><time>2026-04-08T09:39:42.995Z</time></trkpt><trkpt lat="45.69556607706888" lon="6.908471227339982"><ele>2169.75</ele><time>2026-04-08T09:39:44.995Z</time></trkpt><trkpt lat="45.69559234129861" lon="6.908381808412585"><ele>2161.0</ele><time>2026-04-08T09:39:45.995Z</time></trkpt><trkpt lat="45.6956445896814" lon="6.908297080598726"><ele>2159.0</ele><time>2026-04-08T09:39:46.995Z</time></trkpt><trkpt lat="45.69570826643221" lon="6.908283116565679"><ele>2157.0</ele><time>2026-04-08T09:39:47.995Z</time></trkpt><trkpt lat="45.6958447458085" lon="6.908294263743618"><ele>2155.0</ele><time>2026-04-08T09:39:49.995Z</time></trkpt><trkpt lat="45.69592792469154" lon="6.908137445522763"><ele>2153.0</ele><time>2026-04-08T09:39:51.995Z</time></trkpt><trkpt lat="45.69599192354061" lon="6.908035482806605"><ele>2151.0</ele><time>2026-04-08T09:39:52.995Z</time></trkpt><trkpt lat="45.696068049896766" lon="6.907977999546645"><ele>2147.4</ele><time>2026-04-08T09:39:53.995Z</time></trkpt><trkpt lat="45.696197804371074" lon="6.907999648729686"><ele>2143.8</ele><time>2026-04-08T09:39:55.995Z</time></trkpt><trkpt lat="45.69625928239559" lon="6.907880366922071"><ele>2140.2000000000003</ele><time>2026-04-08T09:39:57.995Z</time></trkpt><trkpt lat="45.69631884052615" lon="6.907746408116812"><ele>2136.6</ele><time>2026-04-08T09:39:59.995Z</time></trkpt><trkpt lat="45.69636405814494" lon="6.907640432812713"><ele>2133.0</ele><time>2026-04-08T09:40:01.995Z</time></trkpt><trkpt lat="45.69649477972832" lon="6.907598115013249"><ele>2132.0</ele><time>2026-04-08T09:40:04.995Z</time></trkpt><trkpt lat="45.69651590642438" lon="6.907506448621811"><ele>2131.0</ele><time>2026-04-08T09:40:06.995Z</time></trkpt><trkpt lat="45.696581313124845" lon="6.9074158197188416"><ele>2130.0</ele><time>2026-04-08T09:40:08.995Z</time></trkpt><trkpt lat="45.69667231671133" lon="6.907397146614257"><ele>2129.0</ele><time>2026-04-08T09:40:11.995Z</time></trkpt><trkpt lat="45.69667794907426" lon="6.907293889740013"><ele>2128.0</ele><time>2026-04-08T09:40:13.995Z</time></trkpt><trkpt lat="45.69684573011495" lon="6.90722001509975"><ele>2128.0</ele><time>2026-04-08T09:40:18.995Z</time></trkpt><trkpt lat="45.69686077752586" lon="6.907120464936422"><ele>2128.0</ele><time>2026-04-08T09:40:21.995Z</time></trkpt><trkpt lat="45.69706444280165" lon="6.9070553049916255"><ele>2128.0</ele><time>2026-04-08T09:40:26.995Z</time></trkpt><trkpt lat="45.697097918494926" lon="6.906948148426934"><ele>2128.0</ele><time>2026-04-08T09:40:29.995Z</time></trkpt><trkpt lat="45.697175726753116" lon="6.906859574530115"><ele>2118.75</ele><time>2026-04-08T09:40:32.995Z</time></trkpt><trkpt lat="45.69723959531866" lon="6.906779931175542"><ele>2109.5</ele><time>2026-04-08T09:40:34.995Z</time></trkpt><trkpt lat="45.69723396249809" lon="6.906638737401675"><ele>2100.25</ele><time>2026-04-08T09:40:37.995Z</time></trkpt><trkpt lat="45.69729647461511" lon="6.906590521483753"><ele>2091.0</ele><time>2026-04-08T09:40:39.995Z</time></trkpt><trkpt lat="45.69746657312341" lon="6.90642310763942"><ele>2088.0</ele><time>2026-04-08T09:40:44.995Z</time></trkpt><trkpt lat="45.69757215936592" lon="6.906366403637868"><ele>2085.0</ele><time>2026-04-08T09:40:47.995Z</time></trkpt><trkpt lat="45.697636499326826" lon="6.9062706117907595"><ele>2082.0</ele><time>2026-04-08T09:40:49.995Z</time></trkpt><trkpt lat="45.69777485008823" lon="6.906224796358518"><ele>2079.0</ele><time>2026-04-08T09:40:53.995Z</time></trkpt><trkpt lat="45.69778540460278" lon="6.9061265059670385"><ele>2076.0</ele><time>2026-04-08T09:40:55.995Z</time></trkpt><trkpt lat="45.697840992933536" lon="6.906078838552045"><ele>2068.2</ele><time>2026-04-08T09:40:57.995Z</time></trkpt><trkpt lat="45.697892008570264" lon="6.906021177975866"><ele>2060.3999999999996</ele><time>2026-04-08T09:40:59.995Z</time></trkpt><trkpt lat="45.6979262988425" lon="6.905914485021206"><ele>2052.6</ele><time>2026-04-08T09:41:01.995Z</time></trkpt><trkpt lat="45.69806516021804" lon="6.905845060329426"><ele>2044.8</ele><time>2026-04-08T09:41:05.995Z</time></trkpt><trkpt lat="45.69807853995178" lon="6.905731138415057"><ele>2037.0</ele><time>2026-04-08T09:41:07.994Z</time></trkpt><trkpt lat="45.6981301427023" lon="6.905639347406745"><ele>2034.0</ele><time>2026-04-08T09:41:09.994Z</time></trkpt><trkpt lat="45.69836872175539" lon="6.905490785352927"><ele>2031.0</ele><time>2026-04-08T09:41:15.994Z</time></trkpt><trkpt lat="45.69843917089928" lon="6.905415938512395"><ele>2028.0</ele><time>2026-04-08T09:41:16.994Z</time></trkpt><trkpt lat="45.69850782672371" lon="6.905324020378976"><ele>2025.0</ele><time>2026-04-08T09:41:17.994Z</time></trkpt><trkpt lat="45.69854294121575" lon="6.905224551494194"><ele>2025.0</ele><time>2026-04-08T09:41:18.994Z</time></trkpt><trkpt lat="45.698583136428965" lon="6.905151321181827"><ele>2025.0</ele><time>2026-04-08T09:41:19.994Z</time></trkpt><trkpt lat="45.69863042592011" lon="6.905069261828034"><ele>2025.0</ele><time>2026-04-08T09:41:20.994Z</time></trkpt><trkpt lat="45.69867886208875" lon="6.904980503444109"><ele>2025.0</ele><time>2026-04-08T09:41:21.994Z</time></trkpt><trkpt lat="45.69871793231259" lon="6.904862018956734"><ele>2025.0</ele><time>2026-04-08T09:41:23.994Z</time></trkpt><trkpt lat="45.69862584164918" lon="6.904834739504628"><ele>2025.0</ele><time>2026-04-08T09:42:01.994Z</time></trkpt><trkpt lat="45.69856200035858" lon="6.904831341581511"><ele>2023.0</ele><time>2026-04-08T09:42:21.994Z</time></trkpt><trkpt lat="45.698497102356505" lon="6.9048333164775535"><ele>2021.0</ele><time>2026-04-08T09:42:56.993Z</time></trkpt><trkpt lat="45.698430567626694" lon="6.904884078075876"><ele>2019.0</ele><time>2026-04-08T09:43:10.993Z</time></trkpt><trkpt lat="45.69836442700438" lon="6.904929852980371"><ele>2017.0</ele><time>2026-04-08T09:43:12.993Z</time></trkpt><trkpt lat="45.69829773928815" lon="6.904974040157942"><ele>2015.0</ele><time>2026-04-08T09:43:14.993Z</time></trkpt><trkpt lat="45.69824122745398" lon="6.905026839798461"><ele>2013.0</ele><time>2026-04-08T09:43:16.993Z</time></trkpt><trkpt lat="45.6981486764067" lon="6.905061161012543"><ele>2015.0</ele><time>2026-04-08T09:43:18.993Z</time></trkpt><trkpt lat="45.698055201160294" lon="6.905107722427451"><ele>2017.0</ele><time>2026-04-08T09:43:21.993Z</time></trkpt><trkpt lat="45.69799534087747" lon="6.905140113937746"><ele>2019.0</ele><time>2026-04-08T09:43:23.993Z</time></trkpt><trkpt lat="45.69791968804398" lon="6.905177570237558"><ele>2021.0</ele><time>2026-04-08T09:43:26.993Z</time></trkpt><trkpt lat="45.69784827349659" lon="6.9052201641395135"><ele>2023.0</ele><time>2026-04-08T09:43:29.993Z</time></trkpt><trkpt lat="45.697774587536784" lon="6.905264514637636"><ele>2025.0</ele><time>2026-04-08T09:43:32.993Z</time></trkpt><trkpt lat="45.697701656956156" lon="6.905299802765393"><ele>2031.0</ele><time>2026-04-08T09:43:34.993Z</time></trkpt><trkpt lat="45.69763678071903" lon="6.905333828052195"><ele>2037.0</ele><time>2026-04-08T09:43:36.993Z</time></trkpt><trkpt lat="45.69756157537846" lon="6.905359924832549"><ele>2043.0</ele><time>2026-04-08T09:43:38.993Z</time></trkpt><trkpt lat="45.697474226290936" lon="6.905408600170198"><ele>2049.0</ele><time>2026-04-08T09:43:41.993Z</time></trkpt><trkpt lat="45.69741068017657" lon="6.905440590674171"><ele>2055.0</ele><time>2026-04-08T09:43:43.993Z</time></trkpt><trkpt lat="45.697349351917815" lon="6.905469656989635"><ele>2061.0</ele><time>2026-04-08T09:43:45.993Z</time></trkpt><trkpt lat="45.697274668988776" lon="6.905520201474988"><ele>2061.0</ele><time>2026-04-08T09:43:48.993Z</time></trkpt><trkpt lat="45.69719624593893" lon="6.905566092596608"><ele>2061.0</ele><time>2026-04-08T09:43:51.993Z</time></trkpt><trkpt lat="45.69711225400341" lon="6.905596198219747"><ele>2061.0</ele><time>2026-04-08T09:43:54.993Z</time></trkpt><trkpt lat="45.697035007425335" lon="6.9056309634562485"><ele>2061.0</ele><time>2026-04-08T09:43:57.993Z</time></trkpt><trkpt lat="45.69695042774415" lon="6.905670674882708"><ele>2061.0</ele><time>2026-04-08T09:44:00.993Z</time></trkpt><trkpt lat="45.69687907549368" lon="6.90571311922391"><ele>2061.0</ele><time>2026-04-08T09:44:03.992Z</time></trkpt><trkpt lat="45.696800617998825" lon="6.905759487428276"><ele>2067.1666666666665</ele><time>2026-04-08T09:44:05.992Z</time></trkpt><trkpt lat="45.69673310298935" lon="6.905788221494135"><ele>2073.3333333333335</ele><time>2026-04-08T09:44:07.992Z</time></trkpt><trkpt lat="45.696648118911156" lon="6.905831042686462"><ele>2079.5</ele><time>2026-04-08T09:44:10.992Z</time></trkpt><trkpt lat="45.69656241951763" lon="6.905877339674727"><ele>2085.666666666667</ele><time>2026-04-08T09:44:13.992Z</time></trkpt><trkpt lat="45.69647746506792" lon="6.905906272923199"><ele>2091.8333333333335</ele><time>2026-04-08T09:44:16.992Z</time></trkpt><trkpt lat="45.6964127403594" lon="6.905937076182139"><ele>2098.0</ele><time>2026-04-08T09:44:18.992Z</time></trkpt><trkpt lat="45.69633634992108" lon="6.905981135563246"><ele>2101.0</ele><time>2026-04-08T09:44:21.992Z</time></trkpt><trkpt lat="45.696247514202504" lon="6.906025866118822"><ele>2104.0</ele><time>2026-04-08T09:44:24.992Z</time></trkpt><trkpt lat="45.69618437597852" lon="6.906055370580212"><ele>2107.0</ele><time>2026-04-08T09:44:26.992Z</time></trkpt><trkpt lat="45.69609864311708" lon="6.906090053404137"><ele>2110.0</ele><time>2026-04-08T09:44:29.992Z</time></trkpt><trkpt lat="45.69601716263727" lon="6.906127483568116"><ele>2113.0</ele><time>2026-04-08T09:44:32.992Z</time></trkpt><trkpt lat="45.695935508862334" lon="6.906174882027971"><ele>2116.0</ele><time>2026-04-08T09:44:35.992Z</time></trkpt><trkpt lat="45.69587680944094" lon="6.906207904335022"><ele>2121.666666666667</ele><time>2026-04-08T09:44:37.992Z</time></trkpt><trkpt lat="45.695809039663395" lon="6.906237322683074"><ele>2127.3333333333335</ele><time>2026-04-08T09:44:40.992Z</time></trkpt><trkpt lat="45.69572576360034" lon="6.906292316698727"><ele>2133.0</ele><time>2026-04-08T09:44:43.992Z</time></trkpt><trkpt lat="45.695669675966876" lon="6.906344013178995"><ele>2138.6666666666665</ele><time>2026-04-08T09:44:45.992Z</time></trkpt><trkpt lat="45.695577518288104" lon="6.906382462495175"><ele>2144.333333333333</ele><time>2026-04-08T09:44:48.992Z</time></trkpt><trkpt lat="45.695505147763996" lon="6.906407662235521"><ele>2150.0</ele><time>2026-04-08T09:44:50.992Z</time></trkpt><trkpt lat="45.69544094785643" lon="6.906439934534874"><ele>2150.0000000000005</ele><time>2026-04-08T09:44:52.992Z</time></trkpt><trkpt lat="45.695378768679824" lon="6.90647173353003"><ele>2150.0</ele><time>2026-04-08T09:44:54.992Z</time></trkpt><trkpt lat="45.69531291811083" lon="6.906514048683327"><ele>2150.0</ele><time>2026-04-08T09:44:56.992Z</time></trkpt><trkpt lat="45.695244573143015" lon="6.90654381479088"><ele>2150.0</ele><time>2026-04-08T09:44:58.992Z</time></trkpt><trkpt lat="45.695178869371645" lon="6.906569302103608"><ele>2150.0</ele><time>2026-04-08T09:45:00.992Z</time></trkpt><trkpt lat="45.69508878460765" lon="6.906608973976001"><ele>2150.0000000000005</ele><time>2026-04-08T09:45:03.992Z</time></trkpt><trkpt lat="45.69502390277849" lon="6.906646163094237"><ele>2150.0</ele><time>2026-04-08T09:45:05.992Z</time></trkpt><trkpt lat="45.69494649465707" lon="6.90667545603916"><ele>2151.1666666666665</ele><time>2026-04-08T09:45:07.992Z</time></trkpt><trkpt lat="45.69486696319347" lon="6.90672902476698"><ele>2152.333333333333</ele><time>2026-04-08T09:45:10.992Z</time></trkpt><trkpt lat="45.694800735134365" lon="6.906763031629731"><ele>2153.5</ele><time>2026-04-08T09:45:12.992Z</time></trkpt><trkpt lat="45.69473816222974" lon="6.906794014713998"><ele>2154.6666666666665</ele><time>2026-04-08T09:45:14.992Z</time></trkpt><trkpt lat="45.69467756151789" lon="6.906830206604612"><ele>2155.8333333333335</ele><time>2026-04-08T09:45:17.992Z</time></trkpt><trkpt lat="45.69459304096238" lon="6.906869838033161"><ele>2157.0</ele><time>2026-04-08T09:45:19.992Z</time></trkpt><trkpt lat="45.694502999704206" lon="6.906911205067946"><ele>2157.5</ele><time>2026-04-08T09:45:22.992Z</time></trkpt><trkpt lat="45.694437791018004" lon="6.906944683400882"><ele>2158.0</ele><time>2026-04-08T09:45:24.992Z</time></trkpt><trkpt lat="45.69435851842181" lon="6.906993218635699"><ele>2158.5</ele><time>2026-04-08T09:45:27.992Z</time></trkpt><trkpt lat="45.69426871858396" lon="6.907032096018193"><ele>2159.0</ele><time>2026-04-08T09:45:30.991Z</time></trkpt><trkpt lat="45.69420899811248" lon="6.907062367644761"><ele>2159.5</ele><time>2026-04-08T09:45:32.991Z</time></trkpt><trkpt lat="45.6941404702307" lon="6.90709214306446"><ele>2160.0</ele><time>2026-04-08T09:45:34.991Z</time></trkpt><trkpt lat="45.694053077156454" lon="6.90714229249226"><ele>2165.1666666666665</ele><time>2026-04-08T09:45:37.991Z</time></trkpt><trkpt lat="45.69398725586225" lon="6.907182657314933"><ele>2170.3333333333335</ele><time>2026-04-08T09:45:39.991Z</time></trkpt><trkpt lat="45.69390421029852" lon="6.907226554238477"><ele>2175.5</ele><time>2026-04-08T09:45:42.991Z</time></trkpt><trkpt lat="45.69382622260081" lon="6.907262143705351"><ele>2180.666666666667</ele><time>2026-04-08T09:45:45.991Z</time></trkpt><trkpt lat="45.69375387395505" lon="6.907304437320805"><ele>2185.8333333333335</ele><time>2026-04-08T09:45:48.991Z</time></trkpt><trkpt lat="45.69368574396536" lon="6.907339652547022"><ele>2191.0</ele><time>2026-04-08T09:45:51.991Z</time></trkpt><trkpt lat="45.69360114388052" lon="6.907380959831709"><ele>2196.1428571428573</ele><time>2026-04-08T09:45:54.991Z</time></trkpt><trkpt lat="45.69353966674831" lon="6.907400754059063"><ele>2201.285714285714</ele><time>2026-04-08T09:45:56.991Z</time></trkpt><trkpt lat="45.6934730976184" lon="6.9074258260290184"><ele>2206.4285714285716</ele><time>2026-04-08T09:45:58.991Z</time></trkpt><trkpt lat="45.693388511122826" lon="6.9074668279602705"><ele>2211.5714285714284</ele><time>2026-04-08T09:46:01.991Z</time></trkpt><trkpt lat="45.69332488792713" lon="6.9074969383020415"><ele>2216.714285714286</ele><time>2026-04-08T09:46:03.991Z</time></trkpt><trkpt lat="45.6932415893946" lon="6.907539343923175"><ele>2221.857142857143</ele><time>2026-04-08T09:46:06.991Z</time></trkpt><trkpt lat="45.69318058193903" lon="6.907566182617774"><ele>2227.0</ele><time>2026-04-08T09:46:08.991Z</time></trkpt><trkpt lat="45.69311907923641" lon="6.907592968561609"><ele>2229.571428571429</ele><time>2026-04-08T09:46:10.991Z</time></trkpt><trkpt lat="45.693055755594564" lon="6.907631079652336"><ele>2232.1428571428573</ele><time>2026-04-08T09:46:12.991Z</time></trkpt><trkpt lat="45.692996363631124" lon="6.907664180744739"><ele>2234.714285714286</ele><time>2026-04-08T09:46:14.991Z</time></trkpt><trkpt lat="45.69292272909923" lon="6.907708255606133"><ele>2237.2857142857147</ele><time>2026-04-08T09:46:17.991Z</time></trkpt><trkpt lat="45.69286119063881" lon="6.9077352573243775"><ele>2239.857142857143</ele><time>2026-04-08T09:46:19.991Z</time></trkpt><trkpt lat="45.69278917932427" lon="6.907777759722613"><ele>2242.4285714285716</ele><time>2026-04-08T09:46:21.991Z</time></trkpt><trkpt lat="45.692717814854824" lon="6.907818288691145"><ele>2245.0</ele><time>2026-04-08T09:46:23.991Z</time></trkpt><trkpt lat="45.69265069306287" lon="6.907845941668762"><ele>2248.5714285714284</ele><time>2026-04-08T09:46:25.991Z</time></trkpt><trkpt lat="45.6925810210003" lon="6.907878171211427"><ele>2252.1428571428573</ele><time>2026-04-08T09:46:27.991Z</time></trkpt><trkpt lat="45.692513478103876" lon="6.907903881806663"><ele>2255.714285714286</ele><time>2026-04-08T09:46:29.991Z</time></trkpt><trkpt lat="45.69244992448545" lon="6.90793441158588"><ele>2259.285714285714</ele><time>2026-04-08T09:46:31.991Z</time></trkpt><trkpt lat="45.69236789158908" lon="6.907977561358474"><ele>2262.8571428571427</ele><time>2026-04-08T09:46:34.991Z</time></trkpt><trkpt lat="45.69230799920704" lon="6.908011431960381"><ele>2266.4285714285716</ele><time>2026-04-08T09:46:36.991Z</time></trkpt><trkpt lat="45.692246626341614" lon="6.908037742470664"><ele>2270.0</ele><time>2026-04-08T09:46:38.991Z</time></trkpt><trkpt lat="45.69216494544327" lon="6.908089054774738"><ele>2270.0</ele><time>2026-04-08T09:46:41.991Z</time></trkpt><trkpt lat="45.692094041535896" lon="6.908128163619971"><ele>2270.0</ele><time>2026-04-08T09:46:43.991Z</time></trkpt><trkpt lat="45.69203347746221" lon="6.908163902344267"><ele>2270.0</ele><time>2026-04-08T09:46:45.991Z</time></trkpt><trkpt lat="45.69196947035995" lon="6.908186697813306"><ele>2270.0</ele><time>2026-04-08T09:46:47.991Z</time></trkpt><trkpt lat="45.69190660304518" lon="6.908215608696357"><ele>2270.0</ele><time>2026-04-08T09:46:49.991Z</time></trkpt><trkpt lat="45.69181763446804" lon="6.908254887150761"><ele>2270.0</ele><time>2026-04-08T09:46:52.991Z</time></trkpt><trkpt lat="45.69174907806539" lon="6.908289036879205"><ele>2270.0</ele><time>2026-04-08T09:46:54.991Z</time></trkpt><trkpt lat="45.69168698157635" lon="6.9083196512858995"><ele>2273.75</ele><time>2026-04-08T09:46:56.991Z</time></trkpt><trkpt lat="45.691624117646725" lon="6.908351061652338"><ele>2277.5</ele><time>2026-04-08T09:46:58.99Z</time></trkpt><trkpt lat="45.69133197798807" lon="6.908325442670819"><ele>2281.25</ele><time>2026-04-08T09:47:10.99Z</time></trkpt><trkpt lat="45.69126159547929" lon="6.908337782794788"><ele>2285.0</ele><time>2026-04-08T09:47:13.99Z</time></trkpt><trkpt lat="45.6911758489077" lon="6.908353086431886"><ele>2285.0</ele><time>2026-04-08T09:47:16.99Z</time></trkpt><trkpt lat="45.69109093414154" lon="6.908378599828239"><ele>2285.0</ele><time>2026-04-08T09:47:19.99Z</time></trkpt><trkpt lat="45.6910006073846" lon="6.908405406877053"><ele>2285.0</ele><time>2026-04-08T09:47:22.99Z</time></trkpt><trkpt lat="45.69093389754126" lon="6.908447265333959"><ele>2285.0</ele><time>2026-04-08T09:47:24.99Z</time></trkpt><trkpt lat="45.690863708076606" lon="6.908500328687608"><ele>2285.0</ele><time>2026-04-08T09:47:26.99Z</time></trkpt><trkpt lat="45.690791751870776" lon="6.908555955775851"><ele>2285.0</ele><time>2026-04-08T09:47:28.99Z</time></trkpt><trkpt lat="45.69072959700083" lon="6.908609240462964"><ele>2289.5</ele><time>2026-04-08T09:47:30.99Z</time></trkpt><trkpt lat="45.690660033859814" lon="6.908667964935217"><ele>2294.0</ele><time>2026-04-08T09:47:32.99Z</time></trkpt><trkpt lat="45.690596108123394" lon="6.908718552527619"><ele>2298.5</ele><time>2026-04-08T09:47:34.99Z</time></trkpt><trkpt lat="45.69052917563069" lon="6.908769781259361"><ele>2303.0</ele><time>2026-04-08T09:47:36.99Z</time></trkpt><trkpt lat="45.69045764559934" lon="6.9088242450915685"><ele>2307.5</ele><time>2026-04-08T09:47:38.99Z</time></trkpt><trkpt lat="45.69039073707086" lon="6.908875313071983"><ele>2312.0</ele><time>2026-04-08T09:47:40.99Z</time></trkpt><trkpt lat="45.69032748356531" lon="6.908925333216167"><ele>2316.5714285714284</ele><time>2026-04-08T09:47:42.99Z</time></trkpt><trkpt lat="45.690255440706245" lon="6.908973467367274"><ele>2321.142857142857</ele><time>2026-04-08T09:47:44.99Z</time></trkpt><trkpt lat="45.690191777084706" lon="6.90901995198052"><ele>2325.7142857142853</ele><time>2026-04-08T09:47:46.99Z</time></trkpt><trkpt lat="45.690128859958776" lon="6.909057092192956"><ele>2330.285714285714</ele><time>2026-04-08T09:47:48.99Z</time></trkpt><trkpt lat="45.690063651199" lon="6.9090984715407"><ele>2334.8571428571427</ele><time>2026-04-08T09:47:50.99Z</time></trkpt><trkpt lat="45.68999746443835" lon="6.909136593787453"><ele>2339.428571428571</ele><time>2026-04-08T09:47:52.99Z</time></trkpt><trkpt lat="45.68993873114949" lon="6.9091728720132375"><ele>2344.0</ele><time>2026-04-08T09:47:54.99Z</time></trkpt><trkpt lat="45.68988321813563" lon="6.909220699397749"><ele>2346.428571428571</ele><time>2026-04-08T09:47:56.99Z</time></trkpt><trkpt lat="45.68981687027611" lon="6.909249513025146"><ele>2348.8571428571427</ele><time>2026-04-08T09:47:58.99Z</time></trkpt><trkpt lat="45.689748340798815" lon="6.909289472465051"><ele>2351.285714285714</ele><time>2026-04-08T09:48:00.99Z</time></trkpt><trkpt lat="45.68967408369126" lon="6.909328096737856"><ele>2353.7142857142853</ele><time>2026-04-08T09:48:02.99Z</time></trkpt><trkpt lat="45.68961518865017" lon="6.909364607366876"><ele>2356.142857142857</ele><time>2026-04-08T09:48:04.99Z</time></trkpt><trkpt lat="45.68955179736916" lon="6.909390384159366"><ele>2358.5714285714284</ele><time>2026-04-08T09:48:06.99Z</time></trkpt><trkpt lat="45.68946743691639" lon="6.909433691949069"><ele>2361.0</ele><time>2026-04-08T09:48:09.99Z</time></trkpt><trkpt lat="45.68940407986634" lon="6.909463610496641"><ele>2363.5</ele><time>2026-04-08T09:48:11.99Z</time></trkpt><trkpt lat="45.689312326387835" lon="6.9095155822018235"><ele>2366.0</ele><time>2026-04-08T09:48:14.99Z</time></trkpt><trkpt lat="45.68922039930693" lon="6.909550260384724"><ele>2368.5</ele><time>2026-04-08T09:48:17.99Z</time></trkpt><trkpt lat="45.689139229534604" lon="6.909589515338002"><ele>2371.0</ele><time>2026-04-08T09:48:20.99Z</time></trkpt><trkpt lat="45.689068444970715" lon="6.90962312217881"><ele>2373.5</ele><time>2026-04-08T09:48:22.99Z</time></trkpt><trkpt lat="45.68900203638339" lon="6.9096633412590505"><ele>2376.0</ele><time>2026-04-08T09:48:24.989Z</time></trkpt><trkpt lat="45.68892548441952" lon="6.909704206102029"><ele>2376.0</ele><time>2026-04-08T09:48:26.989Z</time></trkpt><trkpt lat="45.68885610744904" lon="6.909744968990331"><ele>2376.0</ele><time>2026-04-08T09:48:28.989Z</time></trkpt><trkpt lat="45.688788206524045" lon="6.9097735523736965"><ele>2376.0</ele><time>2026-04-08T09:48:30.989Z</time></trkpt><trkpt lat="45.68871857090306" lon="6.909807495125957"><ele>2376.0</ele><time>2026-04-08T09:48:32.989Z</time></trkpt><trkpt lat="45.68865098669994" lon="6.909844434781695"><ele>2376.0</ele><time>2026-04-08T09:48:34.989Z</time></trkpt><trkpt lat="45.68859068762872" lon="6.909882105342197"><ele>2376.0</ele><time>2026-04-08T09:48:36.989Z</time></trkpt><trkpt lat="45.68850460779733" lon="6.909921057635433"><ele>2376.0</ele><time>2026-04-08T09:49:07.989Z</time></trkpt><trkpt lat="45.68844559677213" lon="6.909963078366748"><ele>2377.857142857143</ele><time>2026-04-08T09:49:14.989Z</time></trkpt><trkpt lat="45.68838550064285" lon="6.910001873453578"><ele>2379.714285714286</ele><time>2026-04-08T09:49:22.989Z</time></trkpt><trkpt lat="45.68831859933204" lon="6.910025948241024"><ele>2381.5714285714284</ele><time>2026-04-08T09:49:27.989Z</time></trkpt><trkpt lat="45.68825026828924" lon="6.910067305334729"><ele>2383.4285714285716</ele><time>2026-04-08T09:49:31.989Z</time></trkpt><trkpt lat="45.68817520831324" lon="6.910105003484035"><ele>2385.285714285714</ele><time>2026-04-08T09:49:34.989Z</time></trkpt><trkpt lat="45.68811343007577" lon="6.9101371387264665"><ele>2387.1428571428573</ele><time>2026-04-08T09:49:37.989Z</time></trkpt><trkpt lat="45.68803957211239" lon="6.910177371766503"><ele>2389.0</ele><time>2026-04-08T09:49:40.989Z</time></trkpt><trkpt lat="45.687957185713636" lon="6.910219356462722"><ele>2391.3333333333335</ele><time>2026-04-08T09:49:43.989Z</time></trkpt><trkpt lat="45.68787403155112" lon="6.9102488029510045"><ele>2393.666666666667</ele><time>2026-04-08T09:49:46.989Z</time></trkpt><trkpt lat="45.6877910713235" lon="6.910288644076374"><ele>2396.0</ele><time>2026-04-08T09:49:49.989Z</time></trkpt><trkpt lat="45.68770918249767" lon="6.910320640058476"><ele>2398.3333333333335</ele><time>2026-04-08T09:49:52.988Z</time></trkpt><trkpt lat="45.68763585650195" lon="6.910351600634589"><ele>2400.6666666666665</ele><time>2026-04-08T09:49:55.988Z</time></trkpt><trkpt lat="45.68756737998755" lon="6.910375403706321"><ele>2403.0</ele><time>2026-04-08T09:49:57.988Z</time></trkpt><trkpt lat="45.68749463552199" lon="6.910405169867631"><ele>2407.714285714286</ele><time>2026-04-08T09:49:59.988Z</time></trkpt><trkpt lat="45.68743195269062" lon="6.910436454426855"><ele>2412.4285714285716</ele><time>2026-04-08T09:50:01.988Z</time></trkpt><trkpt lat="45.687365509770515" lon="6.910465425859671"><ele>2417.142857142857</ele><time>2026-04-08T09:50:03.988Z</time></trkpt><trkpt lat="45.68729723737116" lon="6.91050163774032"><ele>2421.857142857143</ele><time>2026-04-08T09:50:05.988Z</time></trkpt><trkpt lat="45.68723215027351" lon="6.910532893087452"><ele>2426.5714285714284</ele><time>2026-04-08T09:50:07.988Z</time></trkpt><trkpt lat="45.68716289967257" lon="6.9105756327454335"><ele>2431.285714285714</ele><time>2026-04-08T09:50:09.988Z</time></trkpt><trkpt lat="45.687095027039234" lon="6.910605770131808"><ele>2436.0</ele><time>2026-04-08T09:50:11.988Z</time></trkpt><trkpt lat="45.68702143927886" lon="6.910656541699001"><ele>2436.0</ele><time>2026-04-08T09:50:14.988Z</time></trkpt><trkpt lat="45.68695060668806" lon="6.910702949011624"><ele>2436.0</ele><time>2026-04-08T09:50:16.988Z</time></trkpt><trkpt lat="45.68688743962099" lon="6.910731778772364"><ele>2436.0</ele><time>2026-04-08T09:50:18.988Z</time></trkpt><trkpt lat="45.6868097562347" lon="6.9107662931275025"><ele>2436.0</ele><time>2026-04-08T09:50:21.988Z</time></trkpt><trkpt lat="45.68674402938141" lon="6.910798683784318"><ele>2436.0</ele><time>2026-04-08T09:50:23.988Z</time></trkpt><trkpt lat="45.68667907749547" lon="6.910848953960598"><ele>2436.0</ele><time>2026-04-08T09:50:25.988Z</time></trkpt><trkpt lat="45.686590928492656" lon="6.9108936130040215"><ele>2442.1666666666665</ele><time>2026-04-08T09:50:28.988Z</time></trkpt><trkpt lat="45.686521132895955" lon="6.910927775525908"><ele>2448.3333333333335</ele><time>2026-04-08T09:50:30.988Z</time></trkpt><trkpt lat="45.68643382959455" lon="6.910981934375326"><ele>2454.5</ele><time>2026-04-08T09:50:33.988Z</time></trkpt><trkpt lat="45.68634506372262" lon="6.911016097422801"><ele>2460.666666666667</ele><time>2026-04-08T09:50:36.988Z</time></trkpt><trkpt lat="45.6862660649634" lon="6.911048290523805"><ele>2466.8333333333335</ele><time>2026-04-08T09:50:39.988Z</time></trkpt><trkpt lat="45.68619606827861" lon="6.911085075090409"><ele>2473.0</ele><time>2026-04-08T09:50:42.988Z</time></trkpt><trkpt lat="45.68609825199574" lon="6.911125315535919"><ele>2473.1428571428573</ele><time>2026-04-08T09:50:45.988Z</time></trkpt><trkpt lat="45.68601531021245" lon="6.911162014931389"><ele>2473.285714285714</ele><time>2026-04-08T09:50:48.988Z</time></trkpt><trkpt lat="45.685951342633246" lon="6.911196725441384"><ele>2473.4285714285716</ele><time>2026-04-08T09:50:54.988Z</time></trkpt><trkpt lat="45.68587290856174" lon="6.9112470194001645"><ele>2473.5714285714284</ele><time>2026-04-08T09:50:58.988Z</time></trkpt><trkpt lat="45.68589864945458" lon="6.911334282113064"><ele>2473.714285714286</ele><time>2026-04-08T09:51:04.988Z</time></trkpt><trkpt lat="45.68596566033207" lon="6.911354496735741"><ele>2473.8571428571427</ele><time>2026-04-08T09:52:27.987Z</time></trkpt><trkpt lat="45.68602778634491" lon="6.911375673366969"><ele>2474.0</ele><time>2026-04-08T09:52:34.987Z</time></trkpt><trkpt lat="45.686090042105114" lon="6.9114166269052575"><ele>2473.8571428571427</ele><time>2026-04-08T09:52:44.987Z</time></trkpt><trkpt lat="45.68616601297308" lon="6.911443024450895"><ele>2473.714285714286</ele><time>2026-04-08T09:52:53.986Z</time></trkpt><trkpt lat="45.68623756926557" lon="6.911498099008438"><ele>2473.5714285714284</ele><time>2026-04-08T09:52:57.986Z</time></trkpt><trkpt lat="45.68630456507607" lon="6.911549416272601"><ele>2473.4285714285716</ele><time>2026-04-08T09:53:01.986Z</time></trkpt><trkpt lat="45.68637182199129" lon="6.911583469311225"><ele>2473.285714285714</ele><time>2026-04-08T09:53:04.986Z</time></trkpt><trkpt lat="45.68643243105544" lon="6.911616492160075"><ele>2473.1428571428573</ele><time>2026-04-08T09:53:06.986Z</time></trkpt><trkpt lat="45.68650038869205" lon="6.911641272080385"><ele>2473.0</ele><time>2026-04-08T09:53:08.986Z</time></trkpt><trkpt lat="45.6865762794612" lon="6.911659063088407"><ele>2473.0</ele><time>2026-04-08T09:53:10.986Z</time></trkpt><trkpt lat="45.68667005652408" lon="6.911694306160278"><ele>2473.0</ele><time>2026-04-08T09:53:12.986Z</time></trkpt><trkpt lat="45.686785745509795" lon="6.911663292853557"><ele>2473.0</ele><time>2026-04-08T09:53:14.986Z</time></trkpt><trkpt lat="45.68688492395601" lon="6.911640457747779"><ele>2473.0</ele><time>2026-04-08T09:53:16.997Z</time></trkpt><trkpt lat="45.68695906127005" lon="6.91166049991269"><ele>2473.0</ele><time>2026-04-08T09:53:18.997Z</time></trkpt><trkpt lat="45.68704951540504" lon="6.911628136512408"><ele>2470.6</ele><time>2026-04-08T09:53:20.997Z</time></trkpt><trkpt lat="45.68717105951946" lon="6.91162822251714"><ele>2468.2000000000003</ele><time>2026-04-08T09:53:22.997Z</time></trkpt><trkpt lat="45.68720737695216" lon="6.911491598505632"><ele>2465.8</ele><time>2026-04-08T09:53:24.997Z</time></trkpt><trkpt lat="45.68714530872108" lon="6.911444466102638"><ele>2463.4</ele><time>2026-04-08T09:53:26.997Z</time></trkpt><trkpt lat="45.68707701155737" lon="6.911426260686399"><ele>2461.0</ele><time>2026-04-08T09:53:29.997Z</time></trkpt><trkpt lat="45.686989262549986" lon="6.911383621046459"><ele>2461.0</ele><time>2026-04-08T09:53:31.997Z</time></trkpt><trkpt lat="45.68695237211237" lon="6.911303079600116"><ele>2461.0</ele><time>2026-04-08T09:53:32.997Z</time></trkpt><trkpt lat="45.68686646563164" lon="6.911200026392491"><ele>2461.0</ele><time>2026-04-08T09:53:34.997Z</time></trkpt><trkpt lat="45.68675223297747" lon="6.911102419687624"><ele>2461.0</ele><time>2026-04-08T09:53:36.997Z</time></trkpt><trkpt lat="45.68671184566859" lon="6.911017637478923"><ele>2461.0</ele><time>2026-04-08T09:53:37.997Z</time></trkpt><trkpt lat="45.68665967395799" lon="6.9109342059874885"><ele>2459.0</ele><time>2026-04-08T09:53:38.997Z</time></trkpt><trkpt lat="45.68656125451464" lon="6.910808602174477"><ele>2457.0</ele><time>2026-04-08T09:53:40.997Z</time></trkpt><trkpt lat="45.686507295147656" lon="6.910730351284987"><ele>2455.0</ele><time>2026-04-08T09:53:41.997Z</time></trkpt><trkpt lat="45.68645617929146" lon="6.910637371614858"><ele>2453.0</ele><time>2026-04-08T09:53:42.997Z</time></trkpt><trkpt lat="45.68640803920491" lon="6.910527364231349"><ele>2451.0</ele><time>2026-04-08T09:53:43.997Z</time></trkpt><trkpt lat="45.68635886419996" lon="6.9104165330646055"><ele>2451.0</ele><time>2026-04-08T09:53:44.997Z</time></trkpt><trkpt lat="45.686305754318425" lon="6.910298486293857"><ele>2451.0</ele><time>2026-04-08T09:53:45.997Z</time></trkpt><trkpt lat="45.68625356416673" lon="6.910167430993828"><ele>2451.0</ele><time>2026-04-08T09:53:46.997Z</time></trkpt><trkpt lat="45.68620099691798" lon="6.910067908995145"><ele>2451.0</ele><time>2026-04-08T09:53:47.997Z</time></trkpt><trkpt lat="45.68614139207949" lon="6.909979441871223"><ele>2451.0</ele><time>2026-04-08T09:53:48.997Z</time></trkpt><trkpt lat="45.68609128220981" lon="6.909866900245158"><ele>2450.0</ele><time>2026-04-08T09:53:49.997Z</time></trkpt><trkpt lat="45.6860831206367" lon="6.909749657344601"><ele>2449.0</ele><time>2026-04-08T09:53:50.997Z</time></trkpt><trkpt lat="45.686098573909085" lon="6.909620442091501"><ele>2448.0</ele><time>2026-04-08T09:53:51.997Z</time></trkpt><trkpt lat="45.68608583595211" lon="6.909516460204824"><ele>2447.0</ele><time>2026-04-08T09:53:52.997Z</time></trkpt><trkpt lat="45.6860642382996" lon="6.9094245489479915"><ele>2446.0</ele><time>2026-04-08T09:53:53.997Z</time></trkpt><trkpt lat="45.68604248346123" lon="6.909305555350367"><ele>2445.0</ele><time>2026-04-08T09:53:54.997Z</time></trkpt><trkpt lat="45.68605254037488" lon="6.909180477478128"><ele>2440.0</ele><time>2026-04-08T09:53:55.997Z</time></trkpt><trkpt lat="45.68608807557508" lon="6.909063337914909"><ele>2435.0</ele><time>2026-04-08T09:53:56.997Z</time></trkpt><trkpt lat="45.68613122807455" lon="6.908923726605609"><ele>2430.0</ele><time>2026-04-08T09:53:57.997Z</time></trkpt><trkpt lat="45.68619095303726" lon="6.908755584477648"><ele>2425.0</ele><time>2026-04-08T09:53:58.997Z</time></trkpt><trkpt lat="45.68625426917389" lon="6.908583033406428"><ele>2419.5</ele><time>2026-04-08T09:53:59.997Z</time></trkpt><trkpt lat="45.68632128098372" lon="6.908407690925428"><ele>2414.0</ele><time>2026-04-08T09:54:00.997Z</time></trkpt><trkpt lat="45.68638201783989" lon="6.908241982670432"><ele>2408.5</ele><time>2026-04-08T09:54:01.998Z</time></trkpt><trkpt lat="45.68644717221203" lon="6.9080801062146415"><ele>2403.0</ele><time>2026-04-08T09:54:02.998Z</time></trkpt><trkpt lat="45.68650784202043" lon="6.907919759768243"><ele>2403.0</ele><time>2026-04-08T09:54:03.997Z</time></trkpt><trkpt lat="45.68657385713579" lon="6.907754374021343"><ele>2403.0</ele><time>2026-04-08T09:54:04.998Z</time></trkpt><trkpt lat="45.68663136142233" lon="6.907603926638727"><ele>2403.0</ele><time>2026-04-08T09:54:05.998Z</time></trkpt><trkpt lat="45.68668275804439" lon="6.907463197207578"><ele>2403.0</ele><time>2026-04-08T09:54:06.998Z</time></trkpt><trkpt lat="45.686738503533896" lon="6.907324374157337"><ele>2402.8333333333335</ele><time>2026-04-08T09:54:07.998Z</time></trkpt><trkpt lat="45.68678876165144" lon="6.907203324896632"><ele>2402.6666666666665</ele><time>2026-04-08T09:54:08.998Z</time></trkpt><trkpt lat="45.686827314898856" lon="6.907097577629283"><ele>2402.5</ele><time>2026-04-08T09:54:09.997Z</time></trkpt><trkpt lat="45.68686238994893" lon="6.9070013393373495"><ele>2402.333333333333</ele><time>2026-04-08T09:54:10.998Z</time></trkpt><trkpt lat="45.68690649869858" lon="6.906901775201132"><ele>2402.1666666666665</ele><time>2026-04-08T09:54:11.998Z</time></trkpt><trkpt lat="45.686945059067625" lon="6.906814461342923"><ele>2402.0</ele><time>2026-04-08T09:54:12.998Z</time></trkpt><trkpt lat="45.68697581856136" lon="6.906735582178318"><ele>2402.4</ele><time>2026-04-08T09:54:13.998Z</time></trkpt><trkpt lat="45.68702558624116" lon="6.9065974324934825"><ele>2402.7999999999997</ele><time>2026-04-08T09:54:15.998Z</time></trkpt><trkpt lat="45.68707201354174" lon="6.9064617842473535"><ele>2403.2</ele><time>2026-04-08T09:54:17.998Z</time></trkpt><trkpt lat="45.68710761750168" lon="6.906343651255207"><ele>2403.6</ele><time>2026-04-08T09:54:19.998Z</time></trkpt><trkpt lat="45.68713824723875" lon="6.90622900599239"><ele>2404.0</ele><time>2026-04-08T09:54:21.998Z</time></trkpt><trkpt lat="45.68717375424805" lon="6.9061364254827105"><ele>2404.0</ele><time>2026-04-08T09:54:23.998Z</time></trkpt><trkpt lat="45.68720479389255" lon="6.906038730222018"><ele>2404.0</ele><time>2026-04-08T09:54:26.998Z</time></trkpt><trkpt lat="45.687250292548214" lon="6.905940882219617"><ele>2404.0</ele><time>2026-04-08T09:54:29.998Z</time></trkpt><trkpt lat="45.68727464689117" lon="6.905835457108652"><ele>2404.0</ele><time>2026-04-08T09:54:34.998Z</time></trkpt><trkpt lat="45.68730643908437" lon="6.905752780763431"><ele>2404.0</ele><time>2026-04-08T09:54:38.998Z</time></trkpt><trkpt lat="45.68733295815125" lon="6.905665361301321"><ele>2404.0</ele><time>2026-04-08T09:54:45.997Z</time></trkpt><trkpt lat="45.68736427411877" lon="6.905579125275089"><ele>2404.0</ele><time>2026-04-08T09:54:51.997Z</time></trkpt><trkpt lat="45.68739171952868" lon="6.905482182194829"><ele>2404.3333333333335</ele><time>2026-04-08T09:54:57.997Z</time></trkpt><trkpt lat="45.68740551346916" lon="6.905389983513134"><ele>2404.666666666667</ele><time>2026-04-08T09:55:02.997Z</time></trkpt><trkpt lat="45.68742268257487" lon="6.905302757233585"><ele>2405.0</ele><time>2026-04-08T09:55:06.997Z</time></trkpt><trkpt lat="45.68742956870112" lon="6.905187748192587"><ele>2405.3333333333335</ele><time>2026-04-08T09:55:10.997Z</time></trkpt><trkpt lat="45.68742583533726" lon="6.90507789886531"><ele>2405.6666666666665</ele><time>2026-04-08T09:55:13.997Z</time></trkpt><trkpt lat="45.68740820928085" lon="6.904936855290947"><ele>2406.0</ele><time>2026-04-08T09:55:16.997Z</time></trkpt><trkpt lat="45.687400439179065" lon="6.9047993507723"><ele>2406.0</ele><time>2026-04-08T09:55:18.997Z</time></trkpt><trkpt lat="45.68742868622486" lon="6.904632681527055"><ele>2406.0</ele><time>2026-04-08T09:55:20.997Z</time></trkpt><trkpt lat="45.687499800304764" lon="6.904497071536187"><ele>2406.0</ele><time>2026-04-08T09:55:22.997Z</time></trkpt><trkpt lat="45.68745230526727" lon="6.904350662071344"><ele>2406.0</ele><time>2026-04-08T09:55:24.997Z</time></trkpt><trkpt lat="45.687428484129526" lon="6.904248827946374"><ele>2406.0</ele><time>2026-04-08T09:55:25.997Z</time></trkpt><trkpt lat="45.687437036619734" lon="6.9041469886038795"><ele>2403.2</ele><time>2026-04-08T09:55:26.997Z</time></trkpt><trkpt lat="45.687446018419195" lon="6.904041911407456"><ele>2400.3999999999996</ele><time>2026-04-08T09:55:27.997Z</time></trkpt><trkpt lat="45.68734441566401" lon="6.9039168572704375"><ele>2397.6</ele><time>2026-04-08T09:55:29.997Z</time></trkpt><trkpt lat="45.687271038511795" lon="6.9038490152352585"><ele>2394.7999999999997</ele><time>2026-04-08T09:55:30.997Z</time></trkpt><trkpt lat="45.68719247514514" lon="6.903777277986127"><ele>2392.0</ele><time>2026-04-08T09:55:31.997Z</time></trkpt><trkpt lat="45.687110811968715" lon="6.903677272082906"><ele>2392.0</ele><time>2026-04-08T09:55:32.997Z</time></trkpt><trkpt lat="45.68702348221021" lon="6.9035774284756855"><ele>2392.0</ele><time>2026-04-08T09:55:33.997Z</time></trkpt><trkpt lat="45.68693640054739" lon="6.903466457514107"><ele>2392.0</ele><time>2026-04-08T09:55:34.997Z</time></trkpt><trkpt lat="45.686859678872615" lon="6.903354823550409"><ele>2392.0</ele><time>2026-04-08T09:55:35.997Z</time></trkpt><trkpt lat="45.686793058276265" lon="6.903264769705139"><ele>2392.0</ele><time>2026-04-08T09:55:36.997Z</time></trkpt><trkpt lat="45.68672658683379" lon="6.9031748318788395"><ele>2389.166666666667</ele><time>2026-04-08T09:55:37.997Z</time></trkpt><trkpt lat="45.686666372783485" lon="6.903101036307481"><ele>2386.3333333333335</ele><time>2026-04-08T09:55:38.997Z</time></trkpt><trkpt lat="45.68660481328437" lon="6.90300777421888"><ele>2383.5</ele><time>2026-04-08T09:55:39.997Z</time></trkpt><trkpt lat="45.68654292317193" lon="6.902923648214222"><ele>2380.6666666666665</ele><time>2026-04-08T09:55:40.997Z</time></trkpt><trkpt lat="45.686484482683575" lon="6.902827397114415"><ele>2377.833333333333</ele><time>2026-04-08T09:55:41.997Z</time></trkpt><trkpt lat="45.686446684990344" lon="6.902712487041791"><ele>2375.0</ele><time>2026-04-08T09:55:42.997Z</time></trkpt><trkpt lat="45.68644536552624" lon="6.9026161198003"><ele>2374.0</ele><time>2026-04-08T09:55:43.997Z</time></trkpt><trkpt lat="45.68646997993651" lon="6.902520897605645"><ele>2373.0</ele><time>2026-04-08T09:55:44.997Z</time></trkpt><trkpt lat="45.68650169726403" lon="6.902439103436477"><ele>2372.0</ele><time>2026-04-08T09:55:45.997Z</time></trkpt><trkpt lat="45.686506905478524" lon="6.902337823192681"><ele>2371.0</ele><time>2026-04-08T09:55:46.997Z</time></trkpt><trkpt lat="45.68651818707016" lon="6.902223920506419"><ele>2370.0</ele><time>2026-04-08T09:55:47.997Z</time></trkpt><trkpt lat="45.68656180203385" lon="6.902130325794265"><ele>2369.0</ele><time>2026-04-08T09:55:48.997Z</time></trkpt><trkpt lat="45.68662206177773" lon="6.902080883186669"><ele>2368.0</ele><time>2026-04-08T09:55:49.997Z</time></trkpt><trkpt lat="45.68666980783028" lon="6.901992983318127"><ele>2368.0</ele><time>2026-04-08T09:55:50.997Z</time></trkpt><trkpt lat="45.686683500658454" lon="6.901877198175884"><ele>2368.0</ele><time>2026-04-08T09:55:51.997Z</time></trkpt><trkpt lat="45.68669697626879" lon="6.901769082807813"><ele>2368.0</ele><time>2026-04-08T09:55:52.997Z</time></trkpt><trkpt lat="45.6867429107739" lon="6.901682383203508"><ele>2368.0</ele><time>2026-04-08T09:55:53.997Z</time></trkpt><trkpt lat="45.68686674661483" lon="6.901602941970383"><ele>2368.0</ele><time>2026-04-08T09:55:55.997Z</time></trkpt><trkpt lat="45.68690853007502" lon="6.901519389544128"><ele>2368.0</ele><time>2026-04-08T09:55:56.997Z</time></trkpt><trkpt lat="45.68690173810272" lon="6.901415222160272"><ele>2365.4</ele><time>2026-04-08T09:55:57.997Z</time></trkpt><trkpt lat="45.68690071157436" lon="6.901309157424723"><ele>2362.8</ele><time>2026-04-08T09:55:58.997Z</time></trkpt><trkpt lat="45.68693183824972" lon="6.9012140489018226"><ele>2360.2</ele><time>2026-04-08T09:55:59.997Z</time></trkpt><trkpt lat="45.687035287363784" lon="6.9011105217003506"><ele>2357.6</ele><time>2026-04-08T09:56:01.997Z</time></trkpt><trkpt lat="45.687054476351754" lon="6.900966798106229"><ele>2355.0</ele><time>2026-04-08T09:56:03.997Z</time></trkpt><trkpt lat="45.687109061328734" lon="6.900877767003218"><ele>2350.8</ele><time>2026-04-08T09:56:05.997Z</time></trkpt><trkpt lat="45.68720206131849" lon="6.900809731638585"><ele>2346.6</ele><time>2026-04-08T09:56:07.997Z</time></trkpt><trkpt lat="45.687194348405434" lon="6.900652550958842"><ele>2342.4</ele><time>2026-04-08T09:56:09.997Z</time></trkpt><trkpt lat="45.68728288239779" lon="6.9005665508024"><ele>2338.2</ele><time>2026-04-08T09:56:11.997Z</time></trkpt><trkpt lat="45.68730956757276" lon="6.90043260573145"><ele>2334.0</ele><time>2026-04-08T09:56:13.997Z</time></trkpt><trkpt lat="45.68730219614875" lon="6.900332295911004"><ele>2334.0</ele><time>2026-04-08T09:56:14.997Z</time></trkpt><trkpt lat="45.68737766432352" lon="6.900249325280196"><ele>2334.0</ele><time>2026-04-08T09:56:16.997Z</time></trkpt><trkpt lat="45.687421425801915" lon="6.900183716925035"><ele>2334.0</ele><time>2026-04-08T09:56:17.997Z</time></trkpt><trkpt lat="45.687396885675874" lon="6.900066397749082"><ele>2334.0</ele><time>2026-04-08T09:56:19.998Z</time></trkpt><trkpt lat="45.687456048357824" lon="6.899835652838828"><ele>2334.0</ele><time>2026-04-08T09:56:39.997Z</time></trkpt><trkpt lat="45.68755148025055" lon="6.899810841606315"><ele>2330.2</ele><time>2026-04-08T09:56:41.997Z</time></trkpt><trkpt lat="45.68761867217517" lon="6.899758357517975"><ele>2326.4</ele><time>2026-04-08T09:56:42.997Z</time></trkpt><trkpt lat="45.68760514263363" lon="6.8996039096432575"><ele>2322.6</ele><time>2026-04-08T09:56:44.997Z</time></trkpt><trkpt lat="45.68758649424528" lon="6.899421062356977"><ele>2318.8</ele><time>2026-04-08T09:56:46.997Z</time></trkpt><trkpt lat="45.68761252495918" lon="6.899324588558601"><ele>2315.0</ele><time>2026-04-08T09:56:47.997Z</time></trkpt><trkpt lat="45.68765004033707" lon="6.899237671961849"><ele>2312.6</ele><time>2026-04-08T09:56:48.997Z</time></trkpt><trkpt lat="45.687640120317624" lon="6.899147394185665"><ele>2310.2</ele><time>2026-04-08T09:56:49.997Z</time></trkpt><trkpt lat="45.68761498633848" lon="6.8990593899269985"><ele>2307.8</ele><time>2026-04-08T09:56:50.997Z</time></trkpt><trkpt lat="45.68756330742793" lon="6.898900732125061"><ele>2305.4</ele><time>2026-04-08T09:56:52.997Z</time></trkpt><trkpt lat="45.687556693656134" lon="6.898717448042541"><ele>2303.0</ele><time>2026-04-08T09:56:54.997Z</time></trkpt><trkpt lat="45.687642925141034" lon="6.898605154697201"><ele>2303.0</ele><time>2026-04-08T09:56:56.997Z</time></trkpt><trkpt lat="45.68766418780924" lon="6.898519708579195"><ele>2303.0</ele><time>2026-04-08T09:56:57.997Z</time></trkpt><trkpt lat="45.68761885322221" lon="6.898342351158204"><ele>2303.0</ele><time>2026-04-08T09:56:59.997Z</time></trkpt><trkpt lat="45.687595642000645" lon="6.898242368394994"><ele>2303.0</ele><time>2026-04-08T09:57:00.997Z</time></trkpt><trkpt lat="45.68760081543614" lon="6.898142739549452"><ele>2303.0</ele><time>2026-04-08T09:57:01.997Z</time></trkpt><trkpt lat="45.68767670349055" lon="6.898062943388001"><ele>2303.0</ele><time>2026-04-08T09:57:03.997Z</time></trkpt><trkpt lat="45.68774618064146" lon="6.898010485021583"><ele>2301.4</ele><time>2026-04-08T09:57:04.997Z</time></trkpt><trkpt lat="45.68773329860225" lon="6.897851373726404"><ele>2299.8</ele><time>2026-04-08T09:57:06.997Z</time></trkpt><trkpt lat="45.68775916503396" lon="6.897755781779965"><ele>2298.2</ele><time>2026-04-08T09:57:07.997Z</time></trkpt><trkpt lat="45.68785364271216" lon="6.897729222951931"><ele>2296.6</ele><time>2026-04-08T09:57:09.997Z</time></trkpt><trkpt lat="45.68792428163292" lon="6.897732201714418"><ele>2295.0</ele><time>2026-04-08T09:57:10.997Z</time></trkpt><trkpt lat="45.6880333370347" lon="6.897608406720787"><ele>2291.8</ele><time>2026-04-08T09:57:12.997Z</time></trkpt><trkpt lat="45.6881096014257" lon="6.897601943113237"><ele>2288.6</ele><time>2026-04-08T09:57:13.997Z</time></trkpt><trkpt lat="45.68821510394398" lon="6.8976347809131315"><ele>2285.4</ele><time>2026-04-08T09:57:14.997Z</time></trkpt><trkpt lat="45.68831065554958" lon="6.8976441841970315"><ele>2282.2</ele><time>2026-04-08T09:57:15.997Z</time></trkpt><trkpt lat="45.68842965834828" lon="6.897649992536638"><ele>2279.0</ele><time>2026-04-08T09:57:16.997Z</time></trkpt><trkpt lat="45.68854793009631" lon="6.89766470450882"><ele>2274.8</ele><time>2026-04-08T09:57:17.997Z</time></trkpt><trkpt lat="45.68865616391579" lon="6.897689119840739"><ele>2270.6000000000004</ele><time>2026-04-08T09:57:18.997Z</time></trkpt><trkpt lat="45.68877270316267" lon="6.897732420753121"><ele>2266.4</ele><time>2026-04-08T09:57:19.997Z</time></trkpt><trkpt lat="45.68888000134702" lon="6.897788492485148"><ele>2262.2000000000003</ele><time>2026-04-08T09:57:20.997Z</time></trkpt><trkpt lat="45.6889744321568" lon="6.897842279686698"><ele>2258.0</ele><time>2026-04-08T09:57:21.997Z</time></trkpt><trkpt lat="45.689063475309396" lon="6.897892157488136"><ele>2258.0</ele><time>2026-04-08T09:57:22.997Z</time></trkpt><trkpt lat="45.68912867989128" lon="6.897945874266968"><ele>2258.0</ele><time>2026-04-08T09:57:23.997Z</time></trkpt><trkpt lat="45.68918804973328" lon="6.898007875439692"><ele>2258.0</ele><time>2026-04-08T09:57:24.997Z</time></trkpt><trkpt lat="45.68924853287607" lon="6.8980638631404565"><ele>2258.0</ele><time>2026-04-08T09:57:25.997Z</time></trkpt><trkpt lat="45.68931095403329" lon="6.898099066357521"><ele>2258.0</ele><time>2026-04-08T09:57:26.997Z</time></trkpt><trkpt lat="45.689450603366915" lon="6.898010426137556"><ele>2258.0</ele><time>2026-04-08T09:57:28.997Z</time></trkpt><trkpt lat="45.68949919153727" lon="6.89794270576889"><ele>2256.142857142857</ele><time>2026-04-08T09:57:29.997Z</time></trkpt><trkpt lat="45.68956278533775" lon="6.897905299099157"><ele>2254.285714285714</ele><time>2026-04-08T09:57:30.997Z</time></trkpt><trkpt lat="45.68963348105213" lon="6.897914026839058"><ele>2252.4285714285716</ele><time>2026-04-08T09:57:31.997Z</time></trkpt><trkpt lat="45.68970133471248" lon="6.8979494330385345"><ele>2250.5714285714284</ele><time>2026-04-08T09:57:32.997Z</time></trkpt><trkpt lat="45.68977669703019" lon="6.89799549728569"><ele>2248.714285714286</ele><time>2026-04-08T09:57:33.997Z</time></trkpt><trkpt lat="45.689848161995776" lon="6.898052508153494"><ele>2246.8571428571427</ele><time>2026-04-08T09:57:34.997Z</time></trkpt><trkpt lat="45.68991021560036" lon="6.898108525798924"><ele>2245.0</ele><time>2026-04-08T09:57:35.997Z</time></trkpt><trkpt lat="45.69004278844182" lon="6.89808770602795"><ele>2245.0</ele><time>2026-04-08T09:57:37.997Z</time></trkpt><trkpt lat="45.69013845512824" lon="6.898113663757398"><ele>2245.0</ele><time>2026-04-08T09:57:38.997Z</time></trkpt><trkpt lat="45.69019901461088" lon="6.8981657052118255"><ele>2245.0</ele><time>2026-04-08T09:57:39.997Z</time></trkpt><trkpt lat="45.69033485538537" lon="6.898181730458263"><ele>2245.0</ele><time>2026-04-08T09:57:41.997Z</time></trkpt><trkpt lat="45.69040724015699" lon="6.8982216226070205"><ele>2245.0</ele><time>2026-04-08T09:57:42.997Z</time></trkpt><trkpt lat="45.69047525836641" lon="6.898274334623079"><ele>2242.5</ele><time>2026-04-08T09:57:43.997Z</time></trkpt><trkpt lat="45.690542361948374" lon="6.898267241303042"><ele>2240.0</ele><time>2026-04-08T09:57:44.997Z</time></trkpt><trkpt lat="45.69062107641001" lon="6.898246689844927"><ele>2237.5</ele><time>2026-04-08T09:57:45.997Z</time></trkpt><trkpt lat="45.69073027659703" lon="6.898325713922663"><ele>2235.0</ele><time>2026-04-08T09:57:47.997Z</time></trkpt><trkpt lat="45.690786635095044" lon="6.898371119697265"><ele>2232.5</ele><time>2026-04-08T09:57:48.997Z</time></trkpt><trkpt lat="45.6908866304446" lon="6.8983300618950425"><ele>2230.0</ele><time>2026-04-08T09:57:50.997Z</time></trkpt><trkpt lat="45.69098933923292" lon="6.8983827312900745"><ele>2225.0</ele><time>2026-04-08T09:57:52.997Z</time></trkpt><trkpt lat="45.691098171693646" lon="6.898463637310934"><ele>2220.0</ele><time>2026-04-08T09:57:54.997Z</time></trkpt><trkpt lat="45.69120083409335" lon="6.8983573012404715"><ele>2215.0</ele><time>2026-04-08T09:57:56.997Z</time></trkpt><trkpt lat="45.69131618077609" lon="6.898372869453508"><ele>2210.0</ele><time>2026-04-08T09:57:58.996Z</time></trkpt><trkpt lat="45.6914205647466" lon="6.898370350472686"><ele>2208.25</ele><time>2026-04-08T09:58:00.996Z</time></trkpt><trkpt lat="45.69149389708346" lon="6.898319602677688"><ele>2206.5</ele><time>2026-04-08T09:58:01.996Z</time></trkpt><trkpt lat="45.69172414906646" lon="6.8982810490264574"><ele>2204.75</ele><time>2026-04-08T09:58:05.996Z</time></trkpt><trkpt lat="45.691834697630846" lon="6.898270223023004"><ele>2203.0</ele><time>2026-04-08T09:58:07.996Z</time></trkpt><trkpt lat="45.69197534729844" lon="6.898310041265642"><ele>2196.25</ele><time>2026-04-08T09:58:10.996Z</time></trkpt><trkpt lat="45.69213988552066" lon="6.898371602000833"><ele>2189.5</ele><time>2026-04-08T09:58:14.997Z</time></trkpt><trkpt lat="45.692221244112254" lon="6.898248092437565"><ele>2182.75</ele><time>2026-04-08T09:58:16.997Z</time></trkpt><trkpt lat="45.69224228781509" lon="6.898130921963872"><ele>2176.0</ele><time>2026-04-08T09:58:18.997Z</time></trkpt><trkpt lat="45.69235151125661" lon="6.898119113604175"><ele>2176.0</ele><time>2026-04-08T09:58:30.997Z</time></trkpt><trkpt lat="45.69241394279459" lon="6.8982290560134265"><ele>2176.0</ele><time>2026-04-08T09:58:32.997Z</time></trkpt><trkpt lat="45.69245734240056" lon="6.898366783847496"><ele>2176.0</ele><time>2026-04-08T09:58:34.997Z</time></trkpt><trkpt lat="45.69258951779549" lon="6.898228141774653"><ele>2176.0</ele><time>2026-04-08T09:58:37.997Z</time></trkpt><trkpt lat="45.69268310577258" lon="6.898254506046554"><ele>2167.2</ele><time>2026-04-08T09:58:39.997Z</time></trkpt><trkpt lat="45.69276654757474" lon="6.898230563694687"><ele>2158.3999999999996</ele><time>2026-04-08T09:58:41.997Z</time></trkpt><trkpt lat="45.69284650158302" lon="6.898241845966388"><ele>2149.6</ele><time>2026-04-08T09:58:44.997Z</time></trkpt><trkpt lat="45.69297006201482" lon="6.8982638033495665"><ele>2140.7999999999997</ele><time>2026-04-08T09:58:48.997Z</time></trkpt><trkpt lat="45.69307101892157" lon="6.898276045710009"><ele>2132.0</ele><time>2026-04-08T09:58:51.997Z</time></trkpt><trkpt lat="45.69313551905032" lon="6.898371140044396"><ele>2132.0</ele><time>2026-04-08T09:58:53.997Z</time></trkpt><trkpt lat="45.693210696674186" lon="6.898244258551744"><ele>2132.0</ele><time>2026-04-08T09:58:55.997Z</time></trkpt><trkpt lat="45.6932702330963" lon="6.898179796125551"><ele>2132.0</ele><time>2026-04-08T09:58:57.997Z</time></trkpt><trkpt lat="45.69333090526493" lon="6.8982511952401095"><ele>2132.0</ele><time>2026-04-08T09:58:59.997Z</time></trkpt><trkpt lat="45.693407901973785" lon="6.898349599765098"><ele>2132.0</ele><time>2026-04-08T09:59:01.997Z</time></trkpt><trkpt lat="45.693501724946074" lon="6.898261385395529"><ele>2132.0</ele><time>2026-04-08T09:59:03.997Z</time></trkpt><trkpt lat="45.69355628084487" lon="6.898210262047695"><ele>2132.0</ele><time>2026-04-08T09:59:04.997Z</time></trkpt><trkpt lat="45.69365964845809" lon="6.898265280393703"><ele>2132.0</ele><time>2026-04-08T09:59:06.997Z</time></trkpt><trkpt lat="45.6937156904633" lon="6.8983127176015255"><ele>2132.0</ele><time>2026-04-08T09:59:07.997Z</time></trkpt><trkpt lat="45.69378854389798" lon="6.898238651848002"><ele>2132.0</ele><time>2026-04-08T09:59:09.997Z</time></trkpt><trkpt lat="45.69382097884381" lon="6.898135709508044"><ele>2132.0</ele><time>2026-04-08T09:59:11.997Z</time></trkpt><trkpt lat="45.69390538025448" lon="6.898116607341823"><ele>2124.5</ele><time>2026-04-08T09:59:25.997Z</time></trkpt><trkpt lat="45.69396790777235" lon="6.8981452722692085"><ele>2117.0</ele><time>2026-04-08T09:59:26.997Z</time></trkpt><trkpt lat="45.693998214327884" lon="6.89826009070482"><ele>2109.5</ele><time>2026-04-08T09:59:28.997Z</time></trkpt><trkpt lat="45.694034168982796" lon="6.898349160809809"><ele>2102.0</ele><time>2026-04-08T09:59:30.997Z</time></trkpt><trkpt lat="45.694122303605894" lon="6.898307389191406"><ele>2094.5</ele><time>2026-04-08T09:59:32.997Z</time></trkpt><trkpt lat="45.69418950388928" lon="6.898166074386713"><ele>2087.0</ele><time>2026-04-08T09:59:34.997Z</time></trkpt><trkpt lat="45.69430454236566" lon="6.898178804507378"><ele>2087.0</ele><time>2026-04-08T09:59:36.997Z</time></trkpt><trkpt lat="45.69437042242221" lon="6.898303841394791"><ele>2087.0</ele><time>2026-04-08T09:59:38.997Z</time></trkpt><trkpt lat="45.69447361738707" lon="6.898301372129338"><ele>2087.0</ele><time>2026-04-08T09:59:40.996Z</time></trkpt><trkpt lat="45.69454298811099" lon="6.898268141174787"><ele>2087.0</ele><time>2026-04-08T09:59:41.996Z</time></trkpt><trkpt lat="45.6946316043197" lon="6.898321606490186"><ele>2087.0</ele><time>2026-04-08T09:59:42.996Z</time></trkpt><trkpt lat="45.69468380748252" lon="6.898399826919235"><ele>2082.4</ele><time>2026-04-08T09:59:43.996Z</time></trkpt><trkpt lat="45.694743291639895" lon="6.898494554147097"><ele>2077.7999999999997</ele><time>2026-04-08T09:59:44.996Z</time></trkpt><trkpt lat="45.6948244320406" lon="6.898612059047064"><ele>2073.2</ele><time>2026-04-08T09:59:45.996Z</time></trkpt><trkpt lat="45.69489786628617" lon="6.898708669208219"><ele>2068.6</ele><time>2026-04-08T09:59:46.996Z</time></trkpt><trkpt lat="45.694962070495066" lon="6.8987938590728906"><ele>2064.0</ele><time>2026-04-08T09:59:47.996Z</time></trkpt><trkpt lat="45.6950369973896" lon="6.898889376554386"><ele>2064.0</ele><time>2026-04-08T09:59:48.996Z</time></trkpt><trkpt lat="45.69509192907404" lon="6.8989631909805675"><ele>2064.0</ele><time>2026-04-08T09:59:49.996Z</time></trkpt><trkpt lat="45.69514962314493" lon="6.89904673530145"><ele>2064.0</ele><time>2026-04-08T09:59:50.996Z</time></trkpt><trkpt lat="45.69521200900479" lon="6.899131851072115"><ele>2064.0</ele><time>2026-04-08T09:59:51.996Z</time></trkpt><trkpt lat="45.695263377988006" lon="6.8992064018324895"><ele>2064.0</ele><time>2026-04-08T09:59:52.996Z</time></trkpt><trkpt lat="45.695312864340764" lon="6.899278019288106"><ele>2064.0</ele><time>2026-04-08T09:59:53.996Z</time></trkpt><trkpt lat="45.69536282300032" lon="6.899350242747759"><ele>2062.2</ele><time>2026-04-08T09:59:54.996Z</time></trkpt><trkpt lat="45.69541280517608" lon="6.899427103797927"><ele>2060.4</ele><time>2026-04-08T09:59:55.996Z</time></trkpt><trkpt lat="45.69545637188675" lon="6.8994931925480705"><ele>2058.6</ele><time>2026-04-08T09:59:56.996Z</time></trkpt><trkpt lat="45.695538155906284" lon="6.899612825676842"><ele>2056.8</ele><time>2026-04-08T09:59:58.996Z</time></trkpt><trkpt lat="45.695620474853655" lon="6.899727807500476"><ele>2055.0</ele><time>2026-04-08T10:00:00.996Z</time></trkpt><trkpt lat="45.69569757512369" lon="6.899844020577137"><ele>2055.0</ele><time>2026-04-08T10:00:02.996Z</time></trkpt><trkpt lat="45.69577159505432" lon="6.899951654928398"><ele>2055.0</ele><time>2026-04-08T10:00:04.996Z</time></trkpt><trkpt lat="45.69584062679507" lon="6.900057364418394"><ele>2055.0</ele><time>2026-04-08T10:00:06.996Z</time></trkpt><trkpt lat="45.69590530908639" lon="6.90016007095125"><ele>2055.0</ele><time>2026-04-08T10:00:08.996Z</time></trkpt><trkpt lat="45.69595406505769" lon="6.900261160449127"><ele>2055.0</ele><time>2026-04-08T10:00:10.996Z</time></trkpt><trkpt lat="45.6960094382033" lon="6.900389755812411"><ele>2055.8333333333335</ele><time>2026-04-08T10:00:12.996Z</time></trkpt><trkpt lat="45.69607377174898" lon="6.900521096714186"><ele>2056.6666666666665</ele><time>2026-04-08T10:00:14.996Z</time></trkpt><trkpt lat="45.696104360483325" lon="6.900602331576282"><ele>2057.5</ele><time>2026-04-08T10:00:15.996Z</time></trkpt><trkpt lat="45.69613580293673" lon="6.900680579781309"><ele>2058.333333333333</ele><time>2026-04-08T10:00:16.996Z</time></trkpt><trkpt lat="45.696168818180595" lon="6.90075761344153"><ele>2059.1666666666665</ele><time>2026-04-08T10:00:17.996Z</time></trkpt><trkpt lat="45.69621090515476" lon="6.900845553118481"><ele>2060.0</ele><time>2026-04-08T10:00:18.996Z</time></trkpt><trkpt lat="45.696247644587466" lon="6.900938998422536"><ele>2056.6</ele><time>2026-04-08T10:00:19.996Z</time></trkpt><trkpt lat="45.69628024256384" lon="6.90104659993117"><ele>2053.2</ele><time>2026-04-08T10:00:20.996Z</time></trkpt><trkpt lat="45.69632098424708" lon="6.901149218271885"><ele>2049.8</ele><time>2026-04-08T10:00:21.997Z</time></trkpt><trkpt lat="45.69637921159384" lon="6.9012757854749935"><ele>2046.4</ele><time>2026-04-08T10:00:22.997Z</time></trkpt><trkpt lat="45.696425745634684" lon="6.9013958264459365"><ele>2043.0</ele><time>2026-04-08T10:00:23.997Z</time></trkpt><trkpt lat="45.69647658803587" lon="6.901499166176769"><ele>2043.0</ele><time>2026-04-08T10:00:24.996Z</time></trkpt><trkpt lat="45.69652551889105" lon="6.901603066185305"><ele>2043.0</ele><time>2026-04-08T10:00:25.996Z</time></trkpt><trkpt lat="45.69656558165483" lon="6.901681950191751"><ele>2043.0</ele><time>2026-04-08T10:00:26.996Z</time></trkpt><trkpt lat="45.6966167539977" lon="6.9017829111720035"><ele>2043.0</ele><time>2026-04-08T10:00:27.996Z</time></trkpt><trkpt lat="45.696651820424044" lon="6.90186562976074"><ele>2043.0</ele><time>2026-04-08T10:00:28.997Z</time></trkpt><trkpt lat="45.696690367621876" lon="6.901942352716069"><ele>2043.0</ele><time>2026-04-08T10:00:29.997Z</time></trkpt><trkpt lat="45.696731579030995" lon="6.902033832026268"><ele>2043.2</ele><time>2026-04-08T10:00:30.997Z</time></trkpt><trkpt lat="45.6967625958414" lon="6.902122328478345"><ele>2043.4</ele><time>2026-04-08T10:00:31.997Z</time></trkpt><trkpt lat="45.696793726766046" lon="6.902201526679832"><ele>2043.6000000000001</ele><time>2026-04-08T10:00:32.997Z</time></trkpt><trkpt lat="45.69684707049117" lon="6.902342344926281"><ele>2043.8000000000002</ele><time>2026-04-08T10:00:34.997Z</time></trkpt><trkpt lat="45.69691413715687" lon="6.902490162354909"><ele>2044.0</ele><time>2026-04-08T10:00:36.997Z</time></trkpt><trkpt lat="45.69697102414115" lon="6.9026192789551635"><ele>2041.6666666666667</ele><time>2026-04-08T10:00:38.997Z</time></trkpt><trkpt lat="45.697047511838576" lon="6.902764307962525"><ele>2039.3333333333335</ele><time>2026-04-08T10:00:40.997Z</time></trkpt><trkpt lat="45.69709221349292" lon="6.902842119416622"><ele>2037.0</ele><time>2026-04-08T10:00:41.997Z</time></trkpt><trkpt lat="45.697134374906" lon="6.902917160059685"><ele>2034.6666666666665</ele><time>2026-04-08T10:00:42.997Z</time></trkpt><trkpt lat="45.69717595893501" lon="6.9029917451255605"><ele>2032.3333333333333</ele><time>2026-04-08T10:00:43.997Z</time></trkpt><trkpt lat="45.697227341521085" lon="6.903062611267857"><ele>2030.0</ele><time>2026-04-08T10:00:44.997Z</time></trkpt><trkpt lat="45.697279817156286" lon="6.903137737113015"><ele>2029.9999999999998</ele><time>2026-04-08T10:00:45.997Z</time></trkpt><trkpt lat="45.69732661758672" lon="6.9032065115297865"><ele>2030.0</ele><time>2026-04-08T10:00:46.997Z</time></trkpt><trkpt lat="45.697373608530924" lon="6.903280989081034"><ele>2030.0</ele><time>2026-04-08T10:00:47.997Z</time></trkpt><trkpt lat="45.69742862982801" lon="6.903361868107487"><ele>2030.0</ele><time>2026-04-08T10:00:48.997Z</time></trkpt><trkpt lat="45.69748704574646" lon="6.903438921499961"><ele>2029.9999999999998</ele><time>2026-04-08T10:00:49.997Z</time></trkpt><trkpt lat="45.69754248874482" lon="6.903515470215853"><ele>2030.0</ele><time>2026-04-08T10:00:50.997Z</time></trkpt><trkpt lat="45.6976093099103" lon="6.903603955023956"><ele>2030.4999999999998</ele><time>2026-04-08T10:00:51.997Z</time></trkpt><trkpt lat="45.69767242304283" lon="6.903689227005595"><ele>2031.0</ele><time>2026-04-08T10:00:52.997Z</time></trkpt><trkpt lat="45.697726637141464" lon="6.903768398924438"><ele>2031.5</ele><time>2026-04-08T10:00:53.997Z</time></trkpt><trkpt lat="45.69780098781289" lon="6.9038611754428905"><ele>2032.0</ele><time>2026-04-08T10:00:54.997Z</time></trkpt><trkpt lat="45.69786967303703" lon="6.903938177413944"><ele>2032.4999999999998</ele><time>2026-04-08T10:00:55.997Z</time></trkpt><trkpt lat="45.69793095567792" lon="6.904006219497792"><ele>2033.0</ele><time>2026-04-08T10:00:56.997Z</time></trkpt><trkpt lat="45.69800051836784" lon="6.904084033971731"><ele>2029.8000000000002</ele><time>2026-04-08T10:00:57.997Z</time></trkpt><trkpt lat="45.69806777465161" lon="6.904147690244935"><ele>2026.6000000000001</ele><time>2026-04-08T10:00:58.997Z</time></trkpt><trkpt lat="45.69812850614227" lon="6.904203750947244"><ele>2023.3999999999999</ele><time>2026-04-08T10:00:59.997Z</time></trkpt><trkpt lat="45.69822895824209" lon="6.904312040622553"><ele>2020.1999999999998</ele><time>2026-04-08T10:01:01.997Z</time></trkpt><trkpt lat="45.69833420859477" lon="6.904406040534279"><ele>2017.0</ele><time>2026-04-08T10:01:03.997Z</time></trkpt><trkpt lat="45.69841435117995" lon="6.904483941364746"><ele>2016.8571428571431</ele><time>2026-04-08T10:01:05.997Z</time></trkpt><trkpt lat="45.69846684766509" lon="6.904536960017251"><ele>2016.7142857142858</ele><time>2026-04-08T10:01:07.997Z</time></trkpt><trkpt lat="45.69852688416979" lon="6.904609174947732"><ele>2016.5714285714287</ele><time>2026-04-08T10:01:09.997Z</time></trkpt><trkpt lat="45.6986080506181" lon="6.904670007020312"><ele>2016.4285714285716</ele><time>2026-04-08T10:01:12.997Z</time></trkpt><trkpt lat="45.69866712747817" lon="6.904731780808234"><ele>2016.2857142857142</ele><time>2026-04-08T10:01:15.997Z</time></trkpt><trkpt lat="45.6986388929615" lon="6.904817916064299"><ele>2016.142857142857</ele><time>2026-04-08T10:01:31.996Z</time></trkpt><trkpt lat="45.698579103166324" lon="6.904858160241219"><ele>2016.0</ele><time>2026-04-08T10:01:46.996Z</time></trkpt><trkpt lat="45.69851398545103" lon="6.904873042523791"><ele>2015.5714285714284</ele><time>2026-04-08T10:02:05.996Z</time></trkpt><trkpt lat="45.69844598879158" lon="6.904863578377226"><ele>2015.142857142857</ele><time>2026-04-08T10:02:17.996Z</time></trkpt><trkpt lat="45.69837218854563" lon="6.904921252244922"><ele>2014.7142857142858</ele><time>2026-04-08T10:02:22.996Z</time></trkpt><trkpt lat="45.69830356667449" lon="6.904961367630463"><ele>2014.2857142857142</ele><time>2026-04-08T10:02:24.996Z</time></trkpt><trkpt lat="45.6982443513487" lon="6.905013286923298"><ele>2013.8571428571427</ele><time>2026-04-08T10:02:26.997Z</time></trkpt><trkpt lat="45.698183675970036" lon="6.905041828653335"><ele>2013.4285714285713</ele><time>2026-04-08T10:02:28.997Z</time></trkpt><trkpt lat="45.69812258185283" lon="6.905071163086897"><ele>2013.0</ele><time>2026-04-08T10:02:30.997Z</time></trkpt><trkpt lat="45.69803913099931" lon="6.905117799244023"><ele>2015.0</ele><time>2026-04-08T10:02:33.997Z</time></trkpt><trkpt lat="45.697957304206106" lon="6.905171761337483"><ele>2017.0</ele><time>2026-04-08T10:02:36.996Z</time></trkpt><trkpt lat="45.697873208168936" lon="6.905203695939068"><ele>2019.0</ele><time>2026-04-08T10:02:39.996Z</time></trkpt><trkpt lat="45.697795817821614" lon="6.905247316316432"><ele>2021.0</ele><time>2026-04-08T10:02:42.996Z</time></trkpt><trkpt lat="45.69771038413923" lon="6.905295053826539"><ele>2023.0</ele><time>2026-04-08T10:02:45.996Z</time></trkpt><trkpt lat="45.69762480053043" lon="6.905330623903223"><ele>2025.0</ele><time>2026-04-08T10:02:48.996Z</time></trkpt><trkpt lat="45.69755410960627" lon="6.90536347508635"><ele>2031.0</ele><time>2026-04-08T10:02:50.996Z</time></trkpt><trkpt lat="45.69747333785262" lon="6.90540119759896"><ele>2037.0</ele><time>2026-04-08T10:02:53.996Z</time></trkpt><trkpt lat="45.69738381717033" lon="6.905449926086557"><ele>2043.0</ele><time>2026-04-08T10:02:56.996Z</time></trkpt><trkpt lat="45.69730423902973" lon="6.905493074538896"><ele>2049.0</ele><time>2026-04-08T10:02:59.996Z</time></trkpt><trkpt lat="45.69722005436456" lon="6.9055462630151645"><ele>2055.0</ele><time>2026-04-08T10:03:02.996Z</time></trkpt><trkpt lat="45.697142510738345" lon="6.905576816468854"><ele>2061.0</ele><time>2026-04-08T10:03:05.996Z</time></trkpt><trkpt lat="45.69705623110658" lon="6.905619962128691"><ele>2061.0</ele><time>2026-04-08T10:03:08.996Z</time></trkpt><trkpt lat="45.6969954082062" lon="6.905643920731806"><ele>2061.0</ele><time>2026-04-08T10:03:10.996Z</time></trkpt><trkpt lat="45.69691780481217" lon="6.905687326364478"><ele>2061.0</ele><time>2026-04-08T10:03:13.996Z</time></trkpt><trkpt lat="45.6968585506861" lon="6.905728040880093"><ele>2061.0</ele><time>2026-04-08T10:03:15.996Z</time></trkpt><trkpt lat="45.696797306196515" lon="6.905756996928024"><ele>2061.0</ele><time>2026-04-08T10:03:17.996Z</time></trkpt><trkpt lat="45.69670657083494" lon="6.905793908066056"><ele>2061.0</ele><time>2026-04-08T10:03:20.996Z</time></trkpt><trkpt lat="45.69662336913557" lon="6.905836160979987"><ele>2067.1666666666665</ele><time>2026-04-08T10:03:23.996Z</time></trkpt><trkpt lat="45.69656032924963" lon="6.905879230375017"><ele>2073.3333333333335</ele><time>2026-04-08T10:03:25.996Z</time></trkpt><trkpt lat="45.69646772151317" lon="6.905929657173714"><ele>2079.5</ele><time>2026-04-08T10:03:28.996Z</time></trkpt><trkpt lat="45.696386676017184" lon="6.905957744202996"><ele>2085.666666666667</ele><time>2026-04-08T10:03:31.996Z</time></trkpt><trkpt lat="45.69630117562642" lon="6.905995680011668"><ele>2091.8333333333335</ele><time>2026-04-08T10:03:34.996Z</time></trkpt><trkpt lat="45.69623902266817" lon="6.906026402895585"><ele>2098.0</ele><time>2026-04-08T10:03:36.996Z</time></trkpt><trkpt lat="45.69617899625129" lon="6.9060568058789515"><ele>2101.0</ele><time>2026-04-08T10:03:38.996Z</time></trkpt><trkpt lat="45.69610532469028" lon="6.906094557326057"><ele>2104.0</ele><time>2026-04-08T10:03:41.996Z</time></trkpt><trkpt lat="45.69601981878255" lon="6.906129843714746"><ele>2107.0</ele><time>2026-04-08T10:03:44.996Z</time></trkpt><trkpt lat="45.69594370069084" lon="6.906168759646605"><ele>2110.0</ele><time>2026-04-08T10:03:47.996Z</time></trkpt><trkpt lat="45.6958529895613" lon="6.906227887095928"><ele>2113.0</ele><time>2026-04-08T10:03:50.996Z</time></trkpt><trkpt lat="45.69578347310842" lon="6.906249288630478"><ele>2116.0</ele><time>2026-04-08T10:03:53.996Z</time></trkpt><trkpt lat="45.69571748516162" lon="6.906279069162323"><ele>2120.857142857143</ele><time>2026-04-08T10:03:55.996Z</time></trkpt><trkpt lat="45.6956224118474" lon="6.906318614580068"><ele>2125.714285714286</ele><time>2026-04-08T10:03:58.996Z</time></trkpt><trkpt lat="45.695560166689745" lon="6.906338658165091"><ele>2130.5714285714284</ele><time>2026-04-08T10:04:00.995Z</time></trkpt><trkpt lat="45.69549830695661" lon="6.906386653902594"><ele>2135.4285714285716</ele><time>2026-04-08T10:04:02.995Z</time></trkpt><trkpt lat="45.69543372909271" lon="6.906420054648448"><ele>2140.285714285714</ele><time>2026-04-08T10:04:04.995Z</time></trkpt><trkpt lat="45.69536567798526" lon="6.9064626894648296"><ele>2145.1428571428573</ele><time>2026-04-08T10:04:06.995Z</time></trkpt><trkpt lat="45.69529766916469" lon="6.906493129765269"><ele>2150.0</ele><time>2026-04-08T10:04:08.995Z</time></trkpt><trkpt lat="45.695231116812685" lon="6.906529197488035"><ele>2151.0000000000005</ele><time>2026-04-08T10:04:10.995Z</time></trkpt><trkpt lat="45.69516486855719" lon="6.9065617099411165"><ele>2152.0</ele><time>2026-04-08T10:04:12.995Z</time></trkpt><trkpt lat="45.695100036286206" lon="6.906599320077776"><ele>2153.0</ele><time>2026-04-08T10:04:14.995Z</time></trkpt><trkpt lat="45.69502871778146" lon="6.9066322071683075"><ele>2154.0</ele><time>2026-04-08T10:04:16.995Z</time></trkpt><trkpt lat="45.694962982811404" lon="6.906662930942707"><ele>2155.0</ele><time>2026-04-08T10:04:18.995Z</time></trkpt><trkpt lat="45.69487525695337" lon="6.906706867800154"><ele>2156.0000000000005</ele><time>2026-04-08T10:04:21.995Z</time></trkpt><trkpt lat="45.6948128661748" lon="6.906734287239078"><ele>2157.0</ele><time>2026-04-08T10:04:23.995Z</time></trkpt><trkpt lat="45.6947391652631" lon="6.906769600221689"><ele>2157.5</ele><time>2026-04-08T10:04:25.995Z</time></trkpt><trkpt lat="45.69465814789603" lon="6.906819810055169"><ele>2158.0</ele><time>2026-04-08T10:04:28.995Z</time></trkpt><trkpt lat="45.694581909096854" lon="6.906847991367022"><ele>2158.5</ele><time>2026-04-08T10:04:30.997Z</time></trkpt><trkpt lat="45.69451722020224" lon="6.906881712585542"><ele>2159.0</ele><time>2026-04-08T10:04:32.997Z</time></trkpt><trkpt lat="45.6944549359153" lon="6.906916181564475"><ele>2159.5</ele><time>2026-04-08T10:04:34.997Z</time></trkpt><trkpt lat="45.69437252775627" lon="6.906963650563058"><ele>2160.0</ele><time>2026-04-08T10:04:37.996Z</time></trkpt><trkpt lat="45.69430992739453" lon="6.90700119837969"><ele>2165.1666666666665</ele><time>2026-04-08T10:04:39.997Z</time></trkpt><trkpt lat="45.694222444969235" lon="6.907045613254445"><ele>2170.3333333333335</ele><time>2026-04-08T10:04:42.997Z</time></trkpt><trkpt lat="45.694138716959635" lon="6.907090630720605"><ele>2175.5</ele><time>2026-04-08T10:04:45.997Z</time></trkpt><trkpt lat="45.69405481708203" lon="6.9071301826118034"><ele>2180.666666666667</ele><time>2026-04-08T10:04:48.997Z</time></trkpt><trkpt lat="45.69399529948471" lon="6.907162258640322"><ele>2185.8333333333335</ele><time>2026-04-08T10:04:50.996Z</time></trkpt><trkpt lat="45.693911423400806" lon="6.907201456180602"><ele>2191.0</ele><time>2026-04-08T10:04:53.996Z</time></trkpt><trkpt lat="45.69383030079842" lon="6.907243003107322"><ele>2191.0</ele><time>2026-04-08T10:04:56.996Z</time></trkpt><trkpt lat="45.69374676375308" lon="6.907292567546294"><ele>2191.0</ele><time>2026-04-08T10:04:59.996Z</time></trkpt><trkpt lat="45.693686758857396" lon="6.907328699974526"><ele>2191.0</ele><time>2026-04-08T10:05:01.996Z</time></trkpt><trkpt lat="45.69360639084823" lon="6.907370385518867"><ele>2191.0</ele><time>2026-04-08T10:05:04.996Z</time></trkpt><trkpt lat="45.693544567145395" lon="6.90739923939307"><ele>2191.0</ele><time>2026-04-08T10:05:06.996Z</time></trkpt><trkpt lat="45.69345847221858" lon="6.907441757101484"><ele>2191.0</ele><time>2026-04-08T10:05:09.996Z</time></trkpt><trkpt lat="45.69337591483674" lon="6.907481655025074"><ele>2197.0</ele><time>2026-04-08T10:05:12.996Z</time></trkpt><trkpt lat="45.693284486535006" lon="6.907531172127841"><ele>2203.0</ele><time>2026-04-08T10:05:15.996Z</time></trkpt><trkpt lat="45.693224917073444" lon="6.907567800503348"><ele>2209.0</ele><time>2026-04-08T10:05:17.996Z</time></trkpt><trkpt lat="45.69314011197324" lon="6.907602801264619"><ele>2215.0</ele><time>2026-04-08T10:05:20.996Z</time></trkpt><trkpt lat="45.6930595738533" lon="6.907646235309755"><ele>2221.0</ele><time>2026-04-08T10:05:23.996Z</time></trkpt><trkpt lat="45.692971460132306" lon="6.9076831774291065"><ele>2227.0</ele><time>2026-04-08T10:05:26.996Z</time></trkpt><trkpt lat="45.692901890583464" lon="6.907710124052372"><ele>2229.571428571429</ele><time>2026-04-08T10:05:29.996Z</time></trkpt><trkpt lat="45.692831822181795" lon="6.9077383748317995"><ele>2232.1428571428573</ele><time>2026-04-08T10:05:31.996Z</time></trkpt><trkpt lat="45.69276849708564" lon="6.907771058007562"><ele>2234.714285714286</ele><time>2026-04-08T10:05:33.996Z</time></trkpt><trkpt lat="45.69270530625472" lon="6.907811547425128"><ele>2237.2857142857147</ele><time>2026-04-08T10:05:35.996Z</time></trkpt><trkpt lat="45.69264266244034" lon="6.907842594871192"><ele>2239.857142857143</ele><time>2026-04-08T10:05:37.996Z</time></trkpt><trkpt lat="45.6925783257036" lon="6.907872343332043"><ele>2242.4285714285716</ele><time>2026-04-08T10:05:39.996Z</time></trkpt><trkpt lat="45.69251061679139" lon="6.907908802618887"><ele>2245.0</ele><time>2026-04-08T10:05:41.996Z</time></trkpt><trkpt lat="45.69241764056877" lon="6.907951537835889"><ele>2248.5714285714284</ele><time>2026-04-08T10:05:44.996Z</time></trkpt><trkpt lat="45.69235495997766" lon="6.9079913913517315"><ele>2252.1428571428573</ele><time>2026-04-08T10:05:46.996Z</time></trkpt><trkpt lat="45.69229223238386" lon="6.9080245889128475"><ele>2255.714285714286</ele><time>2026-04-08T10:05:48.996Z</time></trkpt><trkpt lat="45.692230348342875" lon="6.908053690388792"><ele>2259.285714285714</ele><time>2026-04-08T10:05:50.996Z</time></trkpt><trkpt lat="45.69216470375582" lon="6.908080633537417"><ele>2262.8571428571427</ele><time>2026-04-08T10:05:52.996Z</time></trkpt><trkpt lat="45.692095998782875" lon="6.90812881413882"><ele>2266.4285714285716</ele><time>2026-04-08T10:05:54.996Z</time></trkpt><trkpt lat="45.692033996388645" lon="6.908164831871897"><ele>2270.0</ele><time>2026-04-08T10:05:56.996Z</time></trkpt><trkpt lat="45.691969128232394" lon="6.908203071580121"><ele>2272.5</ele><time>2026-04-08T10:05:58.996Z</time></trkpt><trkpt lat="45.69190656269248" lon="6.908222441499288"><ele>2275.0</ele><time>2026-04-08T10:06:00.996Z</time></trkpt><trkpt lat="45.69184134625206" lon="6.908243298447103"><ele>2277.5</ele><time>2026-04-08T10:06:02.996Z</time></trkpt><trkpt lat="45.691751888587966" lon="6.908293283677912"><ele>2280.0</ele><time>2026-04-08T10:06:05.996Z</time></trkpt><trkpt lat="45.691658062832346" lon="6.908335198693437"><ele>2282.5</ele><time>2026-04-08T10:06:08.996Z</time></trkpt><trkpt lat="45.69159965638238" lon="6.908381913707195"><ele>2285.0</ele><time>2026-04-08T10:06:10.996Z</time></trkpt><trkpt lat="45.69153518155874" lon="6.90840761653571"><ele>2286.857142857143</ele><time>2026-04-08T10:06:12.996Z</time></trkpt><trkpt lat="45.69145060119401" lon="6.908446544259647"><ele>2288.714285714286</ele><time>2026-04-08T10:06:15.996Z</time></trkpt><trkpt lat="45.6913643057651" lon="6.908481822247001"><ele>2290.5714285714284</ele><time>2026-04-08T10:06:18.995Z</time></trkpt><trkpt lat="45.69129897528934" lon="6.908506503985249"><ele>2292.4285714285716</ele><time>2026-04-08T10:06:20.995Z</time></trkpt><trkpt lat="45.69123785777817" lon="6.9085398915072895"><ele>2294.285714285714</ele><time>2026-04-08T10:06:22.995Z</time></trkpt><trkpt lat="45.691176898427045" lon="6.9085713987172275"><ele>2296.1428571428573</ele><time>2026-04-08T10:06:24.995Z</time></trkpt><trkpt lat="45.691109986746106" lon="6.908608547481908"><ele>2298.0</ele><time>2026-04-08T10:06:26.995Z</time></trkpt><trkpt lat="45.69104661429748" lon="6.908647546521095"><ele>2300.0</ele><time>2026-04-08T10:06:28.995Z</time></trkpt><trkpt lat="45.690976598938036" lon="6.908685649386569"><ele>2302.0</ele><time>2026-04-08T10:06:30.995Z</time></trkpt><trkpt lat="45.69089342127295" lon="6.908736991477913"><ele>2304.0</ele><time>2026-04-08T10:06:33.995Z</time></trkpt><trkpt lat="45.690829956984594" lon="6.908752663582258"><ele>2306.0</ele><time>2026-04-08T10:06:35.995Z</time></trkpt><trkpt lat="45.69076671871591" lon="6.908793203587046"><ele>2308.0</ele><time>2026-04-08T10:06:37.997Z</time></trkpt><trkpt lat="45.690704662414646" lon="6.908818946806858"><ele>2310.0</ele><time>2026-04-08T10:06:39.996Z</time></trkpt><trkpt lat="45.69064346526925" lon="6.908841400802306"><ele>2312.0</ele><time>2026-04-08T10:06:41.996Z</time></trkpt><trkpt lat="45.69057780581404" lon="6.908885084282018"><ele>2312.0</ele><time>2026-04-08T10:06:43.997Z</time></trkpt><trkpt lat="45.69049142956373" lon="6.908909469750935"><ele>2312.0</ele><time>2026-04-08T10:06:46.997Z</time></trkpt><trkpt lat="45.690423951029125" lon="6.9089507821058005"><ele>2312.0</ele><time>2026-04-08T10:06:48.997Z</time></trkpt><trkpt lat="45.69034036857212" lon="6.908987306211043"><ele>2312.0</ele><time>2026-04-08T10:06:51.996Z</time></trkpt><trkpt lat="45.690274841239635" lon="6.9090322296926825"><ele>2312.0</ele><time>2026-04-08T10:06:53.996Z</time></trkpt><trkpt lat="45.69019297277961" lon="6.909070766778037"><ele>2312.0</ele><time>2026-04-08T10:06:56.996Z</time></trkpt><trkpt lat="45.69013228752691" lon="6.9091062769240725"><ele>2317.333333333333</ele><time>2026-04-08T10:06:58.996Z</time></trkpt><trkpt lat="45.69005335526538" lon="6.90914871154805"><ele>2322.6666666666665</ele><time>2026-04-08T10:07:01.996Z</time></trkpt><trkpt lat="45.689991146697615" lon="6.909184831203246"><ele>2328.0</ele><time>2026-04-08T10:07:03.996Z</time></trkpt><trkpt lat="45.689914778302814" lon="6.909209522571357"><ele>2333.3333333333335</ele><time>2026-04-08T10:07:06.996Z</time></trkpt><trkpt lat="45.689822048948216" lon="6.9092623449377335"><ele>2338.666666666667</ele><time>2026-04-08T10:07:09.996Z</time></trkpt><trkpt lat="45.6897605420185" lon="6.9092856205762345"><ele>2344.0</ele><time>2026-04-08T10:07:11.996Z</time></trkpt><trkpt lat="45.68966869367831" lon="6.909329385306251"><ele>2348.25</ele><time>2026-04-08T10:07:14.996Z</time></trkpt><trkpt lat="45.68959852178433" lon="6.909355330953866"><ele>2352.5</ele><time>2026-04-08T10:07:17.996Z</time></trkpt><trkpt lat="45.689520456801816" lon="6.909392663022455"><ele>2356.75</ele><time>2026-04-08T10:07:58.995Z</time></trkpt><trkpt lat="45.68926784592651" lon="6.909527232714739"><ele>2361.0</ele><time>2026-04-08T10:07:59.995Z</time></trkpt><trkpt lat="45.68918514061777" lon="6.909567810293686"><ele>2363.5</ele><time>2026-04-08T10:08:02.995Z</time></trkpt><trkpt lat="45.689097007900806" lon="6.909602702048306"><ele>2366.0</ele><time>2026-04-08T10:08:05.995Z</time></trkpt><trkpt lat="45.68902049833882" lon="6.909657819174645"><ele>2368.5</ele><time>2026-04-08T10:08:07.995Z</time></trkpt><trkpt lat="45.68895093650474" lon="6.909694087094178"><ele>2371.0</ele><time>2026-04-08T10:08:09.995Z</time></trkpt><trkpt lat="45.68888979685886" lon="6.909724682411757"><ele>2373.5</ele><time>2026-04-08T10:08:11.995Z</time></trkpt><trkpt lat="45.68880141808288" lon="6.90977474458187"><ele>2376.0</ele><time>2026-04-08T10:08:14.995Z</time></trkpt><trkpt lat="45.688732299616284" lon="6.909794211020826"><ele>2376.0</ele><time>2026-04-08T10:08:16.995Z</time></trkpt><trkpt lat="45.688667406014545" lon="6.909828475151085"><ele>2376.0</ele><time>2026-04-08T10:08:18.995Z</time></trkpt><trkpt lat="45.688602790800516" lon="6.909860717413161"><ele>2376.0</ele><time>2026-04-08T10:08:20.995Z</time></trkpt><trkpt lat="45.68853891720214" lon="6.909891733562073"><ele>2376.0</ele><time>2026-04-08T10:08:23.995Z</time></trkpt><trkpt lat="45.688442795551" lon="6.909940384352412"><ele>2376.0</ele><time>2026-04-08T10:08:26.995Z</time></trkpt><trkpt lat="45.68837832188187" lon="6.909974194632263"><ele>2376.0</ele><time>2026-04-08T10:08:28.995Z</time></trkpt><trkpt lat="45.68831547990035" lon="6.910004868746625"><ele>2376.0</ele><time>2026-04-08T10:08:30.995Z</time></trkpt><trkpt lat="45.688252939582135" lon="6.910041767990541"><ele>2378.1666666666665</ele><time>2026-04-08T10:08:32.995Z</time></trkpt><trkpt lat="45.68819040090695" lon="6.910072986647144"><ele>2380.3333333333335</ele><time>2026-04-08T10:08:34.995Z</time></trkpt><trkpt lat="45.68810443902754" lon="6.910121658750925"><ele>2382.5</ele><time>2026-04-08T10:08:37.995Z</time></trkpt><trkpt lat="45.688042199982" lon="6.91015748651409"><ele>2384.666666666667</ele><time>2026-04-08T10:08:39.995Z</time></trkpt><trkpt lat="45.687981050195944" lon="6.910192461278117"><ele>2386.8333333333335</ele><time>2026-04-08T10:08:41.995Z</time></trkpt><trkpt lat="45.68790085193445" lon="6.9102353015020945"><ele>2389.0</ele><time>2026-04-08T10:08:44.996Z</time></trkpt><trkpt lat="45.68781030679933" lon="6.910272319354804"><ele>2396.8333333333335</ele><time>2026-04-08T10:08:47.996Z</time></trkpt><trkpt lat="45.68772500943837" lon="6.910309931272412"><ele>2404.666666666667</ele><time>2026-04-08T10:08:50.996Z</time></trkpt><trkpt lat="45.68765708239837" lon="6.910339937339744"><ele>2412.5</ele><time>2026-04-08T10:08:53.996Z</time></trkpt><trkpt lat="45.687591986909055" lon="6.910375686042877"><ele>2420.3333333333335</ele><time>2026-04-08T10:08:55.996Z</time></trkpt><trkpt lat="45.68749947996212" lon="6.910414424572536"><ele>2428.1666666666665</ele><time>2026-04-08T10:08:58.996Z</time></trkpt><trkpt lat="45.687431607589524" lon="6.910446534954784"><ele>2436.0</ele><time>2026-04-08T10:09:00.996Z</time></trkpt><trkpt lat="45.687360595268515" lon="6.910485701520877"><ele>2436.0</ele><time>2026-04-08T10:09:02.996Z</time></trkpt><trkpt lat="45.687298004248774" lon="6.910524407433316"><ele>2436.0</ele><time>2026-04-08T10:09:04.996Z</time></trkpt><trkpt lat="45.687234591650515" lon="6.910549061656374"><ele>2436.0</ele><time>2026-04-08T10:09:06.996Z</time></trkpt><trkpt lat="45.6871705858901" lon="6.910583346826059"><ele>2436.0</ele><time>2026-04-08T10:09:08.996Z</time></trkpt><trkpt lat="45.68710968086151" lon="6.910617458748663"><ele>2436.0</ele><time>2026-04-08T10:09:10.996Z</time></trkpt><trkpt lat="45.68703982458425" lon="6.910667104645312"><ele>2436.0</ele><time>2026-04-08T10:09:12.996Z</time></trkpt><trkpt lat="45.686964940491066" lon="6.910703362272778"><ele>2436.0</ele><time>2026-04-08T10:09:15.996Z</time></trkpt><trkpt lat="45.686898095350955" lon="6.9107474775369955"><ele>2438.1428571428573</ele><time>2026-04-08T10:09:17.996Z</time></trkpt><trkpt lat="45.68681325588165" lon="6.910775441159113"><ele>2440.285714285714</ele><time>2026-04-08T10:09:20.996Z</time></trkpt><trkpt lat="45.686748868558354" lon="6.910816952400753"><ele>2442.4285714285716</ele><time>2026-04-08T10:09:22.996Z</time></trkpt><trkpt lat="45.686681000517396" lon="6.910846007975686"><ele>2444.5714285714284</ele><time>2026-04-08T10:09:24.996Z</time></trkpt><trkpt lat="45.68661396441822" lon="6.910870686972505"><ele>2446.714285714286</ele><time>2026-04-08T10:09:26.996Z</time></trkpt><trkpt lat="45.68655010320542" lon="6.910907795483327"><ele>2448.857142857143</ele><time>2026-04-08T10:09:28.996Z</time></trkpt><trkpt lat="45.686487834164254" lon="6.910931409541055"><ele>2451.0</ele><time>2026-04-08T10:09:30.996Z</time></trkpt><trkpt lat="45.686404062635624" lon="6.91096551938443"><ele>2454.6666666666665</ele><time>2026-04-08T10:09:33.996Z</time></trkpt><trkpt lat="45.68633934073896" lon="6.910989028256776"><ele>2458.3333333333335</ele><time>2026-04-08T10:09:35.996Z</time></trkpt><trkpt lat="45.686256332549696" lon="6.911027308793518"><ele>2462.0</ele><time>2026-04-08T10:09:38.996Z</time></trkpt><trkpt lat="45.68618927719234" lon="6.911070585316256"><ele>2465.666666666667</ele><time>2026-04-08T10:09:41.996Z</time></trkpt><trkpt lat="45.68610010466669" lon="6.911120926573961"><ele>2469.3333333333335</ele><time>2026-04-08T10:09:44.996Z</time></trkpt><trkpt lat="45.68602926658493" lon="6.911143899707775"><ele>2473.0</ele><time>2026-04-08T10:09:46.996Z</time></trkpt><trkpt lat="45.68596801957793" lon="6.911171245672324"><ele>2473.0</ele><time>2026-04-08T10:09:51.996Z</time></trkpt><trkpt lat="45.68589636211827" lon="6.911213081419535"><ele>2473.0</ele><time>2026-04-08T10:09:56.996Z</time></trkpt><trkpt lat="45.68591121645131" lon="6.911307100310458"><ele>2473.0</ele><time>2026-04-08T10:10:05.996Z</time></trkpt><trkpt lat="45.68597791877871" lon="6.911341262351097"><ele>2473.0</ele><time>2026-04-08T10:10:14.996Z</time></trkpt><trkpt lat="45.68604667004663" lon="6.911354807423185"><ele>2473.0</ele><time>2026-04-08T10:10:42.995Z</time></trkpt><trkpt lat="45.68611245754539" lon="6.911352665436627"><ele>2473.0</ele><time>2026-04-08T10:10:54.996Z</time></trkpt><trkpt lat="45.68618671213928" lon="6.911413717633863"><ele>2473.0</ele><time>2026-04-08T10:10:57.996Z</time></trkpt><trkpt lat="45.68624385942531" lon="6.911457281843626"><ele>2473.0</ele><time>2026-04-08T10:10:59.996Z</time></trkpt><trkpt lat="45.6863224752472" lon="6.911513465865532"><ele>2473.0</ele><time>2026-04-08T10:11:02.996Z</time></trkpt><trkpt lat="45.686407674820614" lon="6.91158085430868"><ele>2473.0</ele><time>2026-04-08T10:11:05.996Z</time></trkpt><trkpt lat="45.686504115459954" lon="6.911620072162654"><ele>2473.0</ele><time>2026-04-08T10:11:08.996Z</time></trkpt><trkpt lat="45.686587053903445" lon="6.911661703020833"><ele>2473.0</ele><time>2026-04-08T10:11:10.996Z</time></trkpt><trkpt lat="45.68666692257194" lon="6.911664788592103"><ele>2473.0</ele><time>2026-04-08T10:11:12.996Z</time></trkpt><trkpt lat="45.68676507773309" lon="6.911666621435564"><ele>2473.0</ele><time>2026-04-08T10:11:14.996Z</time></trkpt><trkpt lat="45.68685801304936" lon="6.911628529585187"><ele>2473.0</ele><time>2026-04-08T10:11:16.996Z</time></trkpt><trkpt lat="45.68696255116879" lon="6.911647717856096"><ele>2473.0</ele><time>2026-04-08T10:11:18.996Z</time></trkpt><trkpt lat="45.68704007713039" lon="6.911622454985618"><ele>2473.0</ele><time>2026-04-08T10:11:19.996Z</time></trkpt><trkpt lat="45.6871065503244" lon="6.911620248835688"><ele>2473.0</ele><time>2026-04-08T10:11:20.996Z</time></trkpt><trkpt lat="45.68716880577467" lon="6.911586504752511"><ele>2473.0</ele><time>2026-04-08T10:11:21.996Z</time></trkpt><trkpt lat="45.687176285757594" lon="6.911496992607763"><ele>2473.0</ele><time>2026-04-08T10:11:23.996Z</time></trkpt><trkpt lat="45.68710736874078" lon="6.911459651175296"><ele>2473.0</ele><time>2026-04-08T10:11:44.995Z</time></trkpt><trkpt lat="45.68703148202712" lon="6.911398057394642"><ele>2473.0</ele><time>2026-04-08T10:11:46.995Z</time></trkpt><trkpt lat="45.68694772598646" lon="6.91135062499648"><ele>2473.0</ele><time>2026-04-08T10:11:48.995Z</time></trkpt><trkpt lat="45.68687584552256" lon="6.911203032957141"><ele>2473.0</ele><time>2026-04-08T10:11:50.995Z</time></trkpt><trkpt lat="45.68676914710381" lon="6.911112163052376"><ele>2473.0</ele><time>2026-04-08T10:11:52.995Z</time></trkpt><trkpt lat="45.6867701350708" lon="6.910964561615365"><ele>2473.0</ele><time>2026-04-08T10:11:53.995Z</time></trkpt><trkpt lat="45.686655530309885" lon="6.910839236513577"><ele>2473.0</ele><time>2026-04-08T10:11:55.995Z</time></trkpt><trkpt lat="45.68657366345848" lon="6.910728608621498"><ele>2473.0</ele><time>2026-04-08T10:11:57.995Z</time></trkpt><trkpt lat="45.68653036949982" lon="6.910648558306781"><ele>2473.0</ele><time>2026-04-08T10:11:58.995Z</time></trkpt><trkpt lat="45.68647950987493" lon="6.910561878612646"><ele>2469.857142857143</ele><time>2026-04-08T10:11:59.995Z</time></trkpt><trkpt lat="45.68642115509053" lon="6.910502797340484"><ele>2466.714285714286</ele><time>2026-04-08T10:12:00.995Z</time></trkpt><trkpt lat="45.68636422603199" lon="6.9104250651729515"><ele>2463.5714285714284</ele><time>2026-04-08T10:12:01.995Z</time></trkpt><trkpt lat="45.686331835864344" lon="6.910334129840195"><ele>2460.4285714285716</ele><time>2026-04-08T10:12:02.995Z</time></trkpt><trkpt lat="45.68630758840208" lon="6.910232257709477"><ele>2457.285714285714</ele><time>2026-04-08T10:12:03.995Z</time></trkpt><trkpt lat="45.68626686902137" lon="6.9101430300369024"><ele>2454.1428571428573</ele><time>2026-04-08T10:12:04.995Z</time></trkpt><trkpt lat="45.68622026725669" lon="6.910064873120549"><ele>2451.0</ele><time>2026-04-08T10:12:05.995Z</time></trkpt><trkpt lat="45.68617441469014" lon="6.909974729532056"><ele>2450.0</ele><time>2026-04-08T10:12:06.995Z</time></trkpt><trkpt lat="45.68613546335302" lon="6.9098734335861876"><ele>2449.0</ele><time>2026-04-08T10:12:07.995Z</time></trkpt><trkpt lat="45.686099985286305" lon="6.909784243847595"><ele>2448.0</ele><time>2026-04-08T10:12:08.995Z</time></trkpt><trkpt lat="45.68607706311965" lon="6.90969751205536"><ele>2447.0</ele><time>2026-04-08T10:12:09.995Z</time></trkpt><trkpt lat="45.68608884032741" lon="6.909573413778636"><ele>2446.0</ele><time>2026-04-08T10:12:10.995Z</time></trkpt><trkpt lat="45.68608812807346" lon="6.909459388528808"><ele>2445.0</ele><time>2026-04-08T10:12:11.995Z</time></trkpt><trkpt lat="45.686065215453404" lon="6.9093485794954175"><ele>2441.0</ele><time>2026-04-08T10:12:12.995Z</time></trkpt><trkpt lat="45.68605713312466" lon="6.909235718529412"><ele>2437.0</ele><time>2026-04-08T10:12:13.995Z</time></trkpt><trkpt lat="45.68608581896521" lon="6.909119399737272"><ele>2433.0</ele><time>2026-04-08T10:12:14.995Z</time></trkpt><trkpt lat="45.6861383579673" lon="6.909002755897193"><ele>2429.0</ele><time>2026-04-08T10:12:15.995Z</time></trkpt><trkpt lat="45.68618440367889" lon="6.908845253478358"><ele>2425.0</ele><time>2026-04-08T10:12:16.995Z</time></trkpt><trkpt lat="45.686245327219204" lon="6.908682087412558"><ele>2422.5</ele><time>2026-04-08T10:12:17.995Z</time></trkpt><trkpt lat="45.686305431148966" lon="6.908511324818511"><ele>2420.0</ele><time>2026-04-08T10:12:18.995Z</time></trkpt><trkpt lat="45.68637415066202" lon="6.908345564830069"><ele>2417.5</ele><time>2026-04-08T10:12:19.995Z</time></trkpt><trkpt lat="45.686434699168984" lon="6.908192540576903"><ele>2415.0</ele><time>2026-04-08T10:12:20.995Z</time></trkpt><trkpt lat="45.68649791373224" lon="6.908057347267578"><ele>2412.6</ele><time>2026-04-08T10:12:21.995Z</time></trkpt><trkpt lat="45.686558649201274" lon="6.907915809587171"><ele>2410.2</ele><time>2026-04-08T10:12:22.995Z</time></trkpt><trkpt lat="45.686615452445714" lon="6.90776666859441"><ele>2407.8</ele><time>2026-04-08T10:12:23.995Z</time></trkpt><trkpt lat="45.68666490114782" lon="6.9076275900093345"><ele>2405.4</ele><time>2026-04-08T10:12:24.995Z</time></trkpt><trkpt lat="45.68671021746088" lon="6.907499816816172"><ele>2403.0</ele><time>2026-04-08T10:12:25.995Z</time></trkpt><trkpt lat="45.68675842581225" lon="6.907371043577686"><ele>2402.8333333333335</ele><time>2026-04-08T10:12:26.995Z</time></trkpt><trkpt lat="45.686805810240266" lon="6.9072631087208105"><ele>2402.6666666666665</ele><time>2026-04-08T10:12:27.995Z</time></trkpt><trkpt lat="45.68685106420318" lon="6.90716970890542"><ele>2402.5</ele><time>2026-04-08T10:12:28.995Z</time></trkpt><trkpt lat="45.686891118118126" lon="6.90707886202877"><ele>2402.333333333333</ele><time>2026-04-08T10:12:29.995Z</time></trkpt><trkpt lat="45.686929494175416" lon="6.906999028079709"><ele>2402.1666666666665</ele><time>2026-04-08T10:12:30.995Z</time></trkpt><trkpt lat="45.686995162006745" lon="6.906851651696283"><ele>2402.0</ele><time>2026-04-08T10:12:32.995Z</time></trkpt><trkpt lat="45.68703927959715" lon="6.906733780207795"><ele>2402.4</ele><time>2026-04-08T10:12:34.995Z</time></trkpt><trkpt lat="45.68710328505586" lon="6.9066440996457885"><ele>2402.7999999999997</ele><time>2026-04-08T10:12:36.995Z</time></trkpt><trkpt lat="45.68716517036078" lon="6.906618835214287"><ele>2403.2</ele><time>2026-04-08T10:12:38.995Z</time></trkpt><trkpt lat="45.68726062940733" lon="6.9065975898218825"><ele>2403.6</ele><time>2026-04-08T10:12:41.995Z</time></trkpt><trkpt lat="45.68745383381535" lon="6.9065852224648845"><ele>2404.0</ele><time>2026-04-08T10:12:47.995Z</time></trkpt><trkpt lat="45.68754252703357" lon="6.9065832943923935"><ele>2404.0</ele><time>2026-04-08T10:12:49.995Z</time></trkpt><trkpt lat="45.68762115225771" lon="6.9065653459558405"><ele>2404.0</ele><time>2026-04-08T10:12:51.994Z</time></trkpt><trkpt lat="45.68770588029975" lon="6.906534525119837"><ele>2404.0</ele><time>2026-04-08T10:12:53.993Z</time></trkpt><trkpt lat="45.68776242922859" lon="6.9064856022829355"><ele>2404.0</ele><time>2026-04-08T10:12:55.993Z</time></trkpt><trkpt lat="45.68770382849872" lon="6.9064474562634715"><ele>2404.0</ele><time>2026-04-08T10:13:08.987Z</time></trkpt><trkpt lat="45.68763926671984" lon="6.906416218143159"><ele>2404.0</ele><time>2026-04-08T10:13:15.986Z</time></trkpt><trkpt lat="45.68757024755513" lon="6.90639302998399"><ele>2404.0</ele><time>2026-04-08T10:13:26.984Z</time></trkpt><trkpt lat="45.68750381136651" lon="6.906339357692993"><ele>2404.0</ele><time>2026-04-08T10:13:31.984Z</time></trkpt><trkpt lat="45.68744063237151" lon="6.906298485374099"><ele>2404.0</ele><time>2026-04-08T10:13:35.984Z</time></trkpt><trkpt lat="45.68737128428112" lon="6.906267614863604"><ele>2404.0</ele><time>2026-04-08T10:13:39.983Z</time></trkpt><trkpt lat="45.687300705805626" lon="6.906228201434042"><ele>2404.0</ele><time>2026-04-08T10:13:43.983Z</time></trkpt><trkpt lat="45.687239539913485" lon="6.906193717583636"><ele>2404.0</ele><time>2026-04-08T10:13:46.983Z</time></trkpt><trkpt lat="45.68716055304902" lon="6.906158158237905"><ele>2404.0</ele><time>2026-04-08T10:13:50.983Z</time></trkpt><trkpt lat="45.68708800599025" lon="6.9061198473471945"><ele>2404.0</ele><time>2026-04-08T10:13:54.983Z</time></trkpt><trkpt lat="45.68702339462565" lon="6.906094440405318"><ele>2404.0</ele><time>2026-04-08T10:13:57.983Z</time></trkpt><trkpt lat="45.68694871652352" lon="6.906052306284168"><ele>2404.0</ele><time>2026-04-08T10:14:01.983Z</time></trkpt><trkpt lat="45.68687810619505" lon="6.906011107094715"><ele>2404.0</ele><time>2026-04-08T10:14:05.983Z</time></trkpt><trkpt lat="45.68681238263171" lon="6.905969034499145"><ele>2404.0</ele><time>2026-04-08T10:14:09.982Z</time></trkpt><trkpt lat="45.68673924674813" lon="6.905938223366468"><ele>2404.0</ele><time>2026-04-08T10:14:13.982Z</time></trkpt><trkpt lat="45.68666292514245" lon="6.905907852539544"><ele>2404.0</ele><time>2026-04-08T10:14:17.982Z</time></trkpt><trkpt lat="45.68659732073793" lon="6.905868377344789"><ele>2404.8571428571427</ele><time>2026-04-08T10:14:21.982Z</time></trkpt><trkpt lat="45.68653564452651" lon="6.905838053224742"><ele>2405.714285714286</ele><time>2026-04-08T10:14:24.982Z</time></trkpt><trkpt lat="45.686463024700615" lon="6.90580048275434"><ele>2406.5714285714284</ele><time>2026-04-08T10:14:28.982Z</time></trkpt><trkpt lat="45.68639179843373" lon="6.905765677840012"><ele>2407.4285714285716</ele><time>2026-04-08T10:14:32.982Z</time></trkpt><trkpt lat="45.68633146600931" lon="6.90573983250743"><ele>2408.285714285714</ele><time>2026-04-08T10:14:35.982Z</time></trkpt><trkpt lat="45.68626313676508" lon="6.905702637229049"><ele>2409.1428571428573</ele><time>2026-04-08T10:14:39.982Z</time></trkpt><trkpt lat="45.686196186968516" lon="6.905671528500264"><ele>2410.0</ele><time>2026-04-08T10:14:43.982Z</time></trkpt><trkpt lat="45.68613222801114" lon="6.905631310279495"><ele>2412.1428571428573</ele><time>2026-04-08T10:14:48.982Z</time></trkpt><trkpt lat="45.68607043567245" lon="6.905611066778455"><ele>2414.285714285714</ele><time>2026-04-08T10:14:52.982Z</time></trkpt><trkpt lat="45.6860031233368" lon="6.905566576200147"><ele>2416.4285714285716</ele><time>2026-04-08T10:14:57.982Z</time></trkpt><trkpt lat="45.68592874537977" lon="6.905538527069467"><ele>2418.5714285714284</ele><time>2026-04-08T10:15:01.983Z</time></trkpt><trkpt lat="45.68585656013799" lon="6.9055033022989845"><ele>2420.714285714286</ele><time>2026-04-08T10:15:05.983Z</time></trkpt><trkpt lat="45.6857840014922" lon="6.905469915451589"><ele>2422.8571428571427</ele><time>2026-04-08T10:15:09.983Z</time></trkpt><trkpt lat="45.68571420533001" lon="6.905423694783019"><ele>2425.0</ele><time>2026-04-08T10:15:13.983Z</time></trkpt><trkpt lat="45.68563946193048" lon="6.905377944856725"><ele>2425.0</ele><time>2026-04-08T10:15:17.983Z</time></trkpt><trkpt lat="45.68556459368823" lon="6.905355000535524"><ele>2425.0</ele><time>2026-04-08T10:15:21.982Z</time></trkpt><trkpt lat="45.6854959107498" lon="6.905318454342872"><ele>2425.0</ele><time>2026-04-08T10:15:25.982Z</time></trkpt><trkpt lat="45.6854241198932" lon="6.905287254786812"><ele>2425.0</ele><time>2026-04-08T10:15:29.982Z</time></trkpt><trkpt lat="45.68535538923597" lon="6.905246529607744"><ele>2425.0</ele><time>2026-04-08T10:15:33.982Z</time></trkpt><trkpt lat="45.68529523595919" lon="6.905217137888697"><ele>2425.0</ele><time>2026-04-08T10:15:36.982Z</time></trkpt><trkpt lat="45.68522671751241" lon="6.905185293075449"><ele>2425.0</ele><time>2026-04-08T10:15:40.982Z</time></trkpt><trkpt lat="45.68514969648287" lon="6.905153602378292"><ele>2428.0</ele><time>2026-04-08T10:15:44.982Z</time></trkpt><trkpt lat="45.685071774012705" lon="6.905113563631344"><ele>2431.0</ele><time>2026-04-08T10:15:48.982Z</time></trkpt><trkpt lat="45.68499944292452" lon="6.905078304045409"><ele>2434.0</ele><time>2026-04-08T10:15:52.982Z</time></trkpt><trkpt lat="45.6849369785055" lon="6.905054665064896"><ele>2437.0</ele><time>2026-04-08T10:15:55.982Z</time></trkpt><trkpt lat="45.68486990289621" lon="6.905017209142847"><ele>2440.0</ele><time>2026-04-08T10:15:59.982Z</time></trkpt><trkpt lat="45.684798016997206" lon="6.904980810353765"><ele>2443.0</ele><time>2026-04-08T10:16:03.982Z</time></trkpt><trkpt lat="45.684730528182875" lon="6.9049401119940965"><ele>2446.0</ele><time>2026-04-08T10:16:07.982Z</time></trkpt><trkpt lat="45.684666705459556" lon="6.904903023091985"><ele>2446.0</ele><time>2026-04-08T10:16:11.982Z</time></trkpt><trkpt lat="45.684595153865295" lon="6.90486985635347"><ele>2446.0</ele><time>2026-04-08T10:16:15.982Z</time></trkpt><trkpt lat="45.68452213820687" lon="6.904834752637364"><ele>2446.0</ele><time>2026-04-08T10:16:19.981Z</time></trkpt><trkpt lat="45.684455952409444" lon="6.9047978795135405"><ele>2446.0</ele><time>2026-04-08T10:16:23.981Z</time></trkpt><trkpt lat="45.684380787981276" lon="6.904762370862883"><ele>2446.0</ele><time>2026-04-08T10:16:27.981Z</time></trkpt><trkpt lat="45.684309189946894" lon="6.904725604715201"><ele>2446.0</ele><time>2026-04-08T10:16:31.981Z</time></trkpt><trkpt lat="45.68424400238741" lon="6.904686483010242"><ele>2446.0</ele><time>2026-04-08T10:16:35.981Z</time></trkpt><trkpt lat="45.68417461735143" lon="6.904656310146581"><ele>2452.0</ele><time>2026-04-08T10:16:39.981Z</time></trkpt><trkpt lat="45.68411026240816" lon="6.904610259757771"><ele>2458.0</ele><time>2026-04-08T10:16:43.981Z</time></trkpt><trkpt lat="45.684047097742535" lon="6.9045696838977"><ele>2464.0</ele><time>2026-04-08T10:16:47.981Z</time></trkpt><trkpt lat="45.68397763122342" lon="6.904538309323359"><ele>2470.0</ele><time>2026-04-08T10:16:51.981Z</time></trkpt><trkpt lat="45.68391217751623" lon="6.904507912515164"><ele>2476.0</ele><time>2026-04-08T10:16:55.981Z</time></trkpt><trkpt lat="45.68384694699527" lon="6.90447583043389"><ele>2482.0</ele><time>2026-04-08T10:16:59.981Z</time></trkpt><trkpt lat="45.68377295214008" lon="6.9044383810826835"><ele>2488.0</ele><time>2026-04-08T10:17:03.981Z</time></trkpt><trkpt lat="45.68369950965196" lon="6.904404678583659"><ele>2488.0</ele><time>2026-04-08T10:17:07.982Z</time></trkpt><trkpt lat="45.68362735719165" lon="6.904366988447758"><ele>2488.0</ele><time>2026-04-08T10:17:11.982Z</time></trkpt><trkpt lat="45.68355715756302" lon="6.904325916419495"><ele>2488.0</ele><time>2026-04-08T10:17:15.982Z</time></trkpt><trkpt lat="45.683489211741" lon="6.904293531457815"><ele>2488.0</ele><time>2026-04-08T10:17:19.982Z</time></trkpt><trkpt lat="45.68341887501733" lon="6.904256972303048"><ele>2488.0</ele><time>2026-04-08T10:17:23.982Z</time></trkpt><trkpt lat="45.68334852719754" lon="6.904216047708011"><ele>2488.0</ele><time>2026-04-08T10:17:27.981Z</time></trkpt><trkpt lat="45.683282772841785" lon="6.904178702038877"><ele>2488.0</ele><time>2026-04-08T10:17:31.981Z</time></trkpt><trkpt lat="45.68321405080466" lon="6.9041459928831745"><ele>2493.142857142857</ele><time>2026-04-08T10:17:35.981Z</time></trkpt><trkpt lat="45.68314194749774" lon="6.904113777779778"><ele>2498.2857142857147</ele><time>2026-04-08T10:17:39.981Z</time></trkpt><trkpt lat="45.683067684988615" lon="6.904078872065101"><ele>2503.4285714285716</ele><time>2026-04-08T10:17:43.981Z</time></trkpt><trkpt lat="45.68299918390408" lon="6.904042723313897"><ele>2508.5714285714284</ele><time>2026-04-08T10:17:47.981Z</time></trkpt><trkpt lat="45.6829267334557" lon="6.904011696058195"><ele>2513.7142857142853</ele><time>2026-04-08T10:17:51.981Z</time></trkpt><trkpt lat="45.68286037761881" lon="6.903985454458656"><ele>2518.857142857143</ele><time>2026-04-08T10:17:55.981Z</time></trkpt><trkpt lat="45.682794549506646" lon="6.903953557691101"><ele>2524.0</ele><time>2026-04-08T10:17:59.981Z</time></trkpt><trkpt lat="45.68272438443173" lon="6.903923087729511"><ele>2530.285714285714</ele><time>2026-04-08T10:18:03.981Z</time></trkpt><trkpt lat="45.68265777364441" lon="6.903901221816008"><ele>2536.5714285714284</ele><time>2026-04-08T10:18:07.981Z</time></trkpt><trkpt lat="45.682591683746" lon="6.903868125588445"><ele>2542.8571428571427</ele><time>2026-04-08T10:18:11.981Z</time></trkpt><trkpt lat="45.68252508793578" lon="6.903841557451528"><ele>2549.142857142857</ele><time>2026-04-08T10:18:15.981Z</time></trkpt><trkpt lat="45.68246457068814" lon="6.903794988505275"><ele>2555.4285714285716</ele><time>2026-04-08T10:18:19.981Z</time></trkpt><trkpt lat="45.68240379837911" lon="6.903751523806129"><ele>2561.7142857142853</ele><time>2026-04-08T10:18:23.98Z</time></trkpt><trkpt lat="45.682332748112856" lon="6.903709627316462"><ele>2568.0</ele><time>2026-04-08T10:18:27.98Z</time></trkpt><trkpt lat="45.68226009705895" lon="6.903674371426795"><ele>2568.0</ele><time>2026-04-08T10:18:31.98Z</time></trkpt><trkpt lat="45.68218775175767" lon="6.903638512580611"><ele>2568.0</ele><time>2026-04-08T10:18:35.98Z</time></trkpt><trkpt lat="45.682113943963905" lon="6.903600064602369"><ele>2568.0</ele><time>2026-04-08T10:18:39.98Z</time></trkpt><trkpt lat="45.6820350989338" lon="6.9035608757037705"><ele>2568.0</ele><time>2026-04-08T10:18:43.98Z</time></trkpt><trkpt lat="45.681963607880405" lon="6.9035235735803635"><ele>2568.0</ele><time>2026-04-08T10:18:47.98Z</time></trkpt><trkpt lat="45.68188567191778" lon="6.903494625359136"><ele>2568.0</ele><time>2026-04-08T10:18:51.98Z</time></trkpt><trkpt lat="45.681815519192064" lon="6.903458379047759"><ele>2569.1666666666665</ele><time>2026-04-08T10:18:55.98Z</time></trkpt><trkpt lat="45.681758445979916" lon="6.9034191328435455"><ele>2570.3333333333335</ele><time>2026-04-08T10:18:59.98Z</time></trkpt><trkpt lat="45.68168299611926" lon="6.90338036251735"><ele>2571.5</ele><time>2026-04-08T10:19:03.98Z</time></trkpt><trkpt lat="45.68161074287091" lon="6.903340613000464"><ele>2572.666666666667</ele><time>2026-04-08T10:19:07.98Z</time></trkpt><trkpt lat="45.6815497893946" lon="6.90331232240128"><ele>2573.8333333333335</ele><time>2026-04-08T10:19:09.98Z</time></trkpt><trkpt lat="45.68151421656362" lon="6.903233966457702"><ele>2575.0</ele><time>2026-04-08T10:19:11.98Z</time></trkpt><trkpt lat="45.68165237980283" lon="6.903206107931039"><ele>2573.6</ele><time>2026-04-08T10:20:24.979Z</time></trkpt><trkpt lat="45.68178868708412" lon="6.903233439789556"><ele>2572.2</ele><time>2026-04-08T10:20:34.979Z</time></trkpt><trkpt lat="45.68185588036419" lon="6.903278386573737"><ele>2570.8</ele><time>2026-04-08T10:20:36.979Z</time></trkpt><trkpt lat="45.681884225393546" lon="6.903377672167846"><ele>2569.4</ele><time>2026-04-08T10:20:38.979Z</time></trkpt><trkpt lat="45.681949049823544" lon="6.903447936673858"><ele>2568.0</ele><time>2026-04-08T10:20:40.979Z</time></trkpt><trkpt lat="45.681986371472206" lon="6.903580104473648"><ele>2568.0</ele><time>2026-04-08T10:20:42.979Z</time></trkpt><trkpt lat="45.682051403184914" lon="6.903657807646499"><ele>2568.0</ele><time>2026-04-08T10:20:44.979Z</time></trkpt><trkpt lat="45.682082505849706" lon="6.903765550744764"><ele>2568.0</ele><time>2026-04-08T10:20:46.979Z</time></trkpt><trkpt lat="45.68216797240352" lon="6.903870778428399"><ele>2568.0</ele><time>2026-04-08T10:20:48.979Z</time></trkpt><trkpt lat="45.682205712461055" lon="6.904004233478488"><ele>2568.0</ele><time>2026-04-08T10:20:50.979Z</time></trkpt><trkpt lat="45.68222524472" lon="6.9041393088172045"><ele>2568.0</ele><time>2026-04-08T10:20:53.979Z</time></trkpt><trkpt lat="45.68229444862438" lon="6.904245481327925"><ele>2568.0</ele><time>2026-04-08T10:20:55.979Z</time></trkpt><trkpt lat="45.68238289493952" lon="6.904306833781438"><ele>2568.0</ele><time>2026-04-08T10:20:57.979Z</time></trkpt><trkpt lat="45.682377485544436" lon="6.904419692843416"><ele>2568.0</ele><time>2026-04-08T10:20:59.979Z</time></trkpt><trkpt lat="45.6824623575586" lon="6.904479339966563"><ele>2568.0</ele><time>2026-04-08T10:21:01.979Z</time></trkpt><trkpt lat="45.68247279031504" lon="6.904601030812935"><ele>2565.8333333333335</ele><time>2026-04-08T10:21:03.979Z</time></trkpt><trkpt lat="45.68253799500585" lon="6.904622193002361"><ele>2563.6666666666665</ele><time>2026-04-08T10:21:05.979Z</time></trkpt><trkpt lat="45.682606316995034" lon="6.904654401640776"><ele>2561.5</ele><time>2026-04-08T10:21:07.979Z</time></trkpt><trkpt lat="45.68258589304707" lon="6.904790138969738"><ele>2559.333333333333</ele><time>2026-04-08T10:21:09.979Z</time></trkpt><trkpt lat="45.68265021317663" lon="6.9047726391149045"><ele>2557.1666666666665</ele><time>2026-04-08T10:21:12.978Z</time></trkpt><trkpt lat="45.68276081045463" lon="6.904816499796184"><ele>2555.0</ele><time>2026-04-08T10:21:47.979Z</time></trkpt><trkpt lat="45.682761679651556" lon="6.904952271376104"><ele>2549.333333333333</ele><time>2026-04-08T10:21:49.979Z</time></trkpt><trkpt lat="45.682836766071226" lon="6.9049831365264716"><ele>2543.6666666666665</ele><time>2026-04-08T10:21:51.979Z</time></trkpt><trkpt lat="45.68290100573516" lon="6.904883591184554"><ele>2538.0</ele><time>2026-04-08T10:21:53.979Z</time></trkpt><trkpt lat="45.68293250341786" lon="6.904803959686664"><ele>2532.3333333333335</ele><time>2026-04-08T10:21:56.979Z</time></trkpt><trkpt lat="45.683011869533665" lon="6.904826763204249"><ele>2526.666666666667</ele><time>2026-04-08T10:23:00.978Z</time></trkpt><trkpt lat="45.68302669256098" lon="6.904948021385895"><ele>2521.0</ele><time>2026-04-08T10:23:02.978Z</time></trkpt><trkpt lat="45.68306799755062" lon="6.905043387047492"><ele>2521.0</ele><time>2026-04-08T10:23:04.978Z</time></trkpt><trkpt lat="45.68326578177903" lon="6.9049968373481345"><ele>2521.0</ele><time>2026-04-08T10:23:09.978Z</time></trkpt><trkpt lat="45.68336063402955" lon="6.905072186313684"><ele>2521.0</ele><time>2026-04-08T10:23:11.978Z</time></trkpt><trkpt lat="45.68347510904376" lon="6.9050894593905685"><ele>2521.0</ele><time>2026-04-08T10:23:14.978Z</time></trkpt><trkpt lat="45.68353693816477" lon="6.905182095905009"><ele>2514.2</ele><time>2026-04-08T10:23:16.978Z</time></trkpt><trkpt lat="45.683672710615916" lon="6.905139407573217"><ele>2507.3999999999996</ele><time>2026-04-08T10:23:19.978Z</time></trkpt><trkpt lat="45.6837530719321" lon="6.905241893431494"><ele>2500.6</ele><time>2026-04-08T10:23:21.978Z</time></trkpt><trkpt lat="45.68381621232405" lon="6.905305270692582"><ele>2493.7999999999997</ele><time>2026-04-08T10:23:22.978Z</time></trkpt><trkpt lat="45.683882831633134" lon="6.905303701235355"><ele>2487.0</ele><time>2026-04-08T10:23:23.978Z</time></trkpt><trkpt lat="45.683944996962175" lon="6.90534553323529"><ele>2487.0</ele><time>2026-04-08T10:23:24.979Z</time></trkpt><trkpt lat="45.68399543325537" lon="6.90541009145062"><ele>2487.0</ele><time>2026-04-08T10:23:25.979Z</time></trkpt><trkpt lat="45.68409335020158" lon="6.905425862790923"><ele>2487.0</ele><time>2026-04-08T10:23:27.979Z</time></trkpt><trkpt lat="45.684207539935414" lon="6.9054682979232505"><ele>2487.0</ele><time>2026-04-08T10:23:29.979Z</time></trkpt><trkpt lat="45.68424429265658" lon="6.9055435681545605"><ele>2487.0</ele><time>2026-04-08T10:23:30.979Z</time></trkpt><trkpt lat="45.68428746413403" lon="6.905609453005929"><ele>2487.0</ele><time>2026-04-08T10:23:31.978Z</time></trkpt><trkpt lat="45.684463693976085" lon="6.9056230585955225"><ele>2478.25</ele><time>2026-04-08T10:23:36.979Z</time></trkpt><trkpt lat="45.68461205201829" lon="6.905582343100302"><ele>2469.5</ele><time>2026-04-08T10:23:39.979Z</time></trkpt><trkpt lat="45.684730923731415" lon="6.90566447793034"><ele>2460.75</ele><time>2026-04-08T10:23:42.979Z</time></trkpt><trkpt lat="45.68479614058858" lon="6.90558155178488"><ele>2452.0</ele><time>2026-04-08T10:23:52.979Z</time></trkpt><trkpt lat="45.684929205136314" lon="6.905592058649606"><ele>2452.0</ele><time>2026-04-08T10:23:54.979Z</time></trkpt><trkpt lat="45.685006840708255" lon="6.905736213962691"><ele>2452.0</ele><time>2026-04-08T10:23:56.979Z</time></trkpt><trkpt lat="45.68507753434099" lon="6.90571300706166"><ele>2452.0</ele><time>2026-04-08T10:23:57.979Z</time></trkpt><trkpt lat="45.685190714899974" lon="6.905643990223393"><ele>2452.0</ele><time>2026-04-08T10:23:59.979Z</time></trkpt><trkpt lat="45.68527919628056" lon="6.905743057187027"><ele>2452.0</ele><time>2026-04-08T10:24:01.979Z</time></trkpt><trkpt lat="45.685371906591264" lon="6.905709835876081"><ele>2446.6</ele><time>2026-04-08T10:24:03.979Z</time></trkpt><trkpt lat="45.685484667512334" lon="6.905745088319881"><ele>2441.2</ele><time>2026-04-08T10:24:05.979Z</time></trkpt><trkpt lat="45.68557215685243" lon="6.905711799770548"><ele>2435.8</ele><time>2026-04-08T10:24:13.979Z</time></trkpt><trkpt lat="45.68570692695002" lon="6.905681797778314"><ele>2430.4</ele><time>2026-04-08T10:24:16.979Z</time></trkpt><trkpt lat="45.685763036232444" lon="6.905723522615082"><ele>2425.0</ele><time>2026-04-08T10:24:17.979Z</time></trkpt><trkpt lat="45.685824762003016" lon="6.905752135160804"><ele>2425.0</ele><time>2026-04-08T10:24:18.979Z</time></trkpt><trkpt lat="45.68592457080438" lon="6.9056730739295356"><ele>2425.0</ele><time>2026-04-08T10:24:20.978Z</time></trkpt><trkpt lat="45.68604671841569" lon="6.905700306475384"><ele>2425.0</ele><time>2026-04-08T10:24:22.978Z</time></trkpt><trkpt lat="45.686162304928494" lon="6.90559009277538"><ele>2425.0</ele><time>2026-04-08T10:24:24.978Z</time></trkpt><trkpt lat="45.686228673609314" lon="6.905549505681462"><ele>2425.0</ele><time>2026-04-08T10:24:25.978Z</time></trkpt><trkpt lat="45.68631794779481" lon="6.905581868202161"><ele>2422.5</ele><time>2026-04-08T10:24:26.978Z</time></trkpt><trkpt lat="45.68641555113243" lon="6.905650641764453"><ele>2420.0</ele><time>2026-04-08T10:24:28.978Z</time></trkpt><trkpt lat="45.68647925972902" lon="6.905616688238813"><ele>2417.5</ele><time>2026-04-08T10:24:29.978Z</time></trkpt><trkpt lat="45.6865195990891" lon="6.905544312471709"><ele>2415.0</ele><time>2026-04-08T10:24:30.978Z</time></trkpt><trkpt lat="45.6865723773987" lon="6.905470940156743"><ele>2412.5</ele><time>2026-04-08T10:24:31.978Z</time></trkpt><trkpt lat="45.686643947162985" lon="6.9054055600506254"><ele>2410.0</ele><time>2026-04-08T10:24:32.978Z</time></trkpt><trkpt lat="45.686708914911314" lon="6.905349398866247"><ele>2410.0</ele><time>2026-04-08T10:24:33.978Z</time></trkpt><trkpt lat="45.68678920425657" lon="6.905319007564635"><ele>2410.0</ele><time>2026-04-08T10:24:34.978Z</time></trkpt><trkpt lat="45.68685138719881" lon="6.90533805199198"><ele>2410.0</ele><time>2026-04-08T10:24:35.978Z</time></trkpt><trkpt lat="45.68690966172036" lon="6.905382807325585"><ele>2410.0</ele><time>2026-04-08T10:24:36.978Z</time></trkpt><trkpt lat="45.68701662434044" lon="6.905388071165577"><ele>2410.0</ele><time>2026-04-08T10:24:38.978Z</time></trkpt><trkpt lat="45.687077023062606" lon="6.905342711695073"><ele>2410.0</ele><time>2026-04-08T10:24:39.978Z</time></trkpt><trkpt lat="45.68728026610696" lon="6.905326094431657"><ele>2409.3333333333335</ele><time>2026-04-08T10:24:42.978Z</time></trkpt><trkpt lat="45.687344643023316" lon="6.905177465930243"><ele>2408.666666666667</ele><time>2026-04-08T10:24:44.978Z</time></trkpt><trkpt lat="45.68737143092949" lon="6.905093217282032"><ele>2408.0</ele><time>2026-04-08T10:24:45.978Z</time></trkpt><trkpt lat="45.68740552185768" lon="6.9050101328512445"><ele>2407.3333333333335</ele><time>2026-04-08T10:24:46.978Z</time></trkpt><trkpt lat="45.68744212262795" lon="6.904924965091387"><ele>2406.6666666666665</ele><time>2026-04-08T10:24:47.978Z</time></trkpt><trkpt lat="45.687470163782166" lon="6.904832835232352"><ele>2406.0</ele><time>2026-04-08T10:24:48.978Z</time></trkpt><trkpt lat="45.6874986199517" lon="6.904739276133967"><ele>2406.0</ele><time>2026-04-08T10:24:49.978Z</time></trkpt><trkpt lat="45.68751666013777" lon="6.904630138058058"><ele>2406.0</ele><time>2026-04-08T10:24:50.978Z</time></trkpt><trkpt lat="45.68751925076751" lon="6.90453032242828"><ele>2406.0</ele><time>2026-04-08T10:24:51.978Z</time></trkpt><trkpt lat="45.687470338036746" lon="6.904447643242713"><ele>2406.0</ele><time>2026-04-08T10:24:52.978Z</time></trkpt><trkpt lat="45.687438331900125" lon="6.904362072459088"><ele>2406.0</ele><time>2026-04-08T10:24:53.978Z</time></trkpt><trkpt lat="45.687479119866246" lon="6.904205300343454"><ele>2406.0</ele><time>2026-04-08T10:24:55.978Z</time></trkpt><trkpt lat="45.687452011576276" lon="6.904064543722799"><ele>2403.6666666666665</ele><time>2026-04-08T10:24:57.978Z</time></trkpt><trkpt lat="45.687391292346085" lon="6.9040143017833655"><ele>2401.3333333333335</ele><time>2026-04-08T10:24:58.978Z</time></trkpt><trkpt lat="45.687331582146356" lon="6.903964203858202"><ele>2399.0</ele><time>2026-04-08T10:24:59.978Z</time></trkpt><trkpt lat="45.68726899001836" lon="6.903890883549136"><ele>2396.666666666667</ele><time>2026-04-08T10:25:00.978Z</time></trkpt><trkpt lat="45.68719728693522" lon="6.9037970650422915"><ele>2394.3333333333335</ele><time>2026-04-08T10:25:01.978Z</time></trkpt><trkpt lat="45.687120463867316" lon="6.903692459135643"><ele>2392.0</ele><time>2026-04-08T10:25:02.978Z</time></trkpt><trkpt lat="45.68703784586221" lon="6.903587967593369"><ele>2392.0</ele><time>2026-04-08T10:25:03.978Z</time></trkpt><trkpt lat="45.68694923966804" lon="6.903467184564861"><ele>2392.0</ele><time>2026-04-08T10:25:04.978Z</time></trkpt><trkpt lat="45.686871377661625" lon="6.903375648108006"><ele>2392.0</ele><time>2026-04-08T10:25:05.978Z</time></trkpt><trkpt lat="45.68679839852376" lon="6.903281447811068"><ele>2392.0</ele><time>2026-04-08T10:25:06.978Z</time></trkpt><trkpt lat="45.6867331308655" lon="6.903187375394404"><ele>2392.0</ele><time>2026-04-08T10:25:07.978Z</time></trkpt><trkpt lat="45.68667327980351" lon="6.903105381123772"><ele>2389.166666666667</ele><time>2026-04-08T10:25:08.978Z</time></trkpt><trkpt lat="45.686610873314656" lon="6.903027221579703"><ele>2386.3333333333335</ele><time>2026-04-08T10:25:09.978Z</time></trkpt><trkpt lat="45.68654906582264" lon="6.9029421587375355"><ele>2383.5</ele><time>2026-04-08T10:25:10.978Z</time></trkpt><trkpt lat="45.68649522866716" lon="6.902852625029199"><ele>2380.6666666666665</ele><time>2026-04-08T10:25:11.978Z</time></trkpt><trkpt lat="45.68644136967833" lon="6.902757990421029"><ele>2377.833333333333</ele><time>2026-04-08T10:25:12.978Z</time></trkpt><trkpt lat="45.68639742384205" lon="6.902660895040104"><ele>2375.0</ele><time>2026-04-08T10:25:13.978Z</time></trkpt><trkpt lat="45.68638324830866" lon="6.902543298202477"><ele>2373.6</ele><time>2026-04-08T10:25:14.977Z</time></trkpt><trkpt lat="45.686406390532255" lon="6.902454253876759"><ele>2372.2</ele><time>2026-04-08T10:25:15.977Z</time></trkpt><trkpt lat="45.68651430085427" lon="6.902363940565045"><ele>2370.8</ele><time>2026-04-08T10:25:17.977Z</time></trkpt><trkpt lat="45.686588836990296" lon="6.902212890478871"><ele>2369.4</ele><time>2026-04-08T10:25:19.977Z</time></trkpt><trkpt lat="45.686591003780755" lon="6.902111566838448"><ele>2368.0</ele><time>2026-04-08T10:25:20.977Z</time></trkpt><trkpt lat="45.68661033465666" lon="6.902009404709652"><ele>2368.0</ele><time>2026-04-08T10:25:21.977Z</time></trkpt><trkpt lat="45.68665419154454" lon="6.901940781947358"><ele>2368.0</ele><time>2026-04-08T10:25:22.977Z</time></trkpt><trkpt lat="45.68671969294912" lon="6.901902413713294"><ele>2368.0</ele><time>2026-04-08T10:25:23.977Z</time></trkpt><trkpt lat="45.68675368695154" lon="6.901731960519436"><ele>2368.0</ele><time>2026-04-08T10:25:25.977Z</time></trkpt><trkpt lat="45.68678216835614" lon="6.901636380120427"><ele>2368.0</ele><time>2026-04-08T10:25:26.977Z</time></trkpt><trkpt lat="45.686895237534024" lon="6.901548430380263"><ele>2364.4</ele><time>2026-04-08T10:25:28.977Z</time></trkpt><trkpt lat="45.686942594156626" lon="6.901477461096818"><ele>2360.8</ele><time>2026-04-08T10:25:29.977Z</time></trkpt><trkpt lat="45.68693172390685" lon="6.901383168196142"><ele>2357.2</ele><time>2026-04-08T10:25:30.978Z</time></trkpt><trkpt lat="45.68698167688697" lon="6.901219395225959"><ele>2353.6</ele><time>2026-04-08T10:25:32.978Z</time></trkpt><trkpt lat="45.68708221077065" lon="6.901131143385517"><ele>2350.0</ele><time>2026-04-08T10:25:34.977Z</time></trkpt><trkpt lat="45.687055582779756" lon="6.900969469987903"><ele>2346.8</ele><time>2026-04-08T10:25:36.978Z</time></trkpt><trkpt lat="45.68706180433403" lon="6.900799330017261"><ele>2343.6</ele><time>2026-04-08T10:25:38.978Z</time></trkpt><trkpt lat="45.68716321600964" lon="6.900748711427325"><ele>2340.4</ele><time>2026-04-08T10:25:40.978Z</time></trkpt><trkpt lat="45.68722885157451" lon="6.900652352897265"><ele>2337.2</ele><time>2026-04-08T10:25:42.978Z</time></trkpt><trkpt lat="45.68726254992404" lon="6.900474735572694"><ele>2334.0</ele><time>2026-04-08T10:25:44.978Z</time></trkpt><trkpt lat="45.68737915665189" lon="6.900491823428432"><ele>2334.0</ele><time>2026-04-08T10:25:46.978Z</time></trkpt><trkpt lat="45.687435819237216" lon="6.900368999278442"><ele>2334.0</ele><time>2026-04-08T10:25:48.978Z</time></trkpt><trkpt lat="45.68739391833047" lon="6.900281486456673"><ele>2334.0</ele><time>2026-04-08T10:25:49.978Z</time></trkpt><trkpt lat="45.687366486197604" lon="6.900116291691657"><ele>2334.0</ele><time>2026-04-08T10:25:51.978Z</time></trkpt><trkpt lat="45.68741769740994" lon="6.899996811549956"><ele>2334.0</ele><time>2026-04-08T10:25:53.978Z</time></trkpt><trkpt lat="45.68753908599027" lon="6.9000283186794436"><ele>2330.8333333333335</ele><time>2026-04-08T10:25:55.978Z</time></trkpt><trkpt lat="45.68756009812265" lon="6.899879852367013"><ele>2327.6666666666665</ele><time>2026-04-08T10:25:57.978Z</time></trkpt><trkpt lat="45.68757144908739" lon="6.89978975050658"><ele>2324.5</ele><time>2026-04-08T10:25:58.978Z</time></trkpt><trkpt lat="45.68762079996957" lon="6.899724670264777"><ele>2321.333333333333</ele><time>2026-04-08T10:25:59.978Z</time></trkpt><trkpt lat="45.687685708574236" lon="6.899654258740644"><ele>2318.1666666666665</ele><time>2026-04-08T10:26:01.978Z</time></trkpt><trkpt lat="45.687648701903164" lon="6.899490615607688"><ele>2315.0</ele><time>2026-04-08T10:26:03.978Z</time></trkpt><trkpt lat="45.68763660993972" lon="6.899386410392023"><ele>2315.0</ele><time>2026-04-08T10:26:04.978Z</time></trkpt><trkpt lat="45.6876128809418" lon="6.899264758265675"><ele>2315.0</ele><time>2026-04-08T10:26:05.978Z</time></trkpt><trkpt lat="45.68759192850486" lon="6.899151277110129"><ele>2315.0</ele><time>2026-04-08T10:26:06.978Z</time></trkpt><trkpt lat="45.68757240876391" lon="6.899023877357352"><ele>2315.0</ele><time>2026-04-08T10:26:07.978Z</time></trkpt><trkpt lat="45.68756880021932" lon="6.8989100561554"><ele>2315.0</ele><time>2026-04-08T10:26:08.978Z</time></trkpt><trkpt lat="45.68759538734319" lon="6.898826511873718"><ele>2315.0</ele><time>2026-04-08T10:26:09.978Z</time></trkpt><trkpt lat="45.68766448407263" lon="6.898737499740222"><ele>2313.0</ele><time>2026-04-08T10:26:11.978Z</time></trkpt><trkpt lat="45.687629062203975" lon="6.898605759792533"><ele>2311.0</ele><time>2026-04-08T10:26:13.978Z</time></trkpt><trkpt lat="45.68761218004551" lon="6.898514571133937"><ele>2309.0</ele><time>2026-04-08T10:26:14.978Z</time></trkpt><trkpt lat="45.687594308846286" lon="6.898423631044005"><ele>2307.0</ele><time>2026-04-08T10:26:15.978Z</time></trkpt><trkpt lat="45.68757739599163" lon="6.898330058270314"><ele>2305.0</ele><time>2026-04-08T10:26:16.978Z</time></trkpt><trkpt lat="45.68759251190082" lon="6.898236180150535"><ele>2303.0</ele><time>2026-04-08T10:26:17.978Z</time></trkpt><trkpt lat="45.68769730827251" lon="6.898185957580694"><ele>2301.6666666666665</ele><time>2026-04-08T10:26:19.978Z</time></trkpt><trkpt lat="45.68770719581041" lon="6.898061785075912"><ele>2300.333333333333</ele><time>2026-04-08T10:26:21.978Z</time></trkpt><trkpt lat="45.68769026378484" lon="6.897966699323302"><ele>2299.0</ele><time>2026-04-08T10:26:22.978Z</time></trkpt><trkpt lat="45.68769388851072" lon="6.897867225966195"><ele>2297.6666666666665</ele><time>2026-04-08T10:26:23.978Z</time></trkpt><trkpt lat="45.68777708076433" lon="6.8977891763891215"><ele>2296.3333333333335</ele><time>2026-04-08T10:26:25.977Z</time></trkpt><trkpt lat="45.68784057567286" lon="6.8978104518011145"><ele>2295.0</ele><time>2026-04-08T10:26:26.977Z</time></trkpt><trkpt lat="45.6879312086831" lon="6.8976958704127105"><ele>2291.8</ele><time>2026-04-08T10:26:28.977Z</time></trkpt><trkpt lat="45.68799037471064" lon="6.897550708191754"><ele>2288.6</ele><time>2026-04-08T10:26:30.977Z</time></trkpt><trkpt lat="45.68805570228849" lon="6.897555564498239"><ele>2285.4</ele><time>2026-04-08T10:26:31.977Z</time></trkpt><trkpt lat="45.68813995603974" lon="6.89757751216984"><ele>2282.2</ele><time>2026-04-08T10:26:32.977Z</time></trkpt><trkpt lat="45.68823291919227" lon="6.897591543907509"><ele>2279.0</ele><time>2026-04-08T10:26:33.977Z</time></trkpt><trkpt lat="45.68832958667191" lon="6.8976061518025436"><ele>2279.0</ele><time>2026-04-08T10:26:34.977Z</time></trkpt><trkpt lat="45.6884462951384" lon="6.8976281159861905"><ele>2279.0</ele><time>2026-04-08T10:26:35.977Z</time></trkpt><trkpt lat="45.688547442776816" lon="6.897655924384071"><ele>2279.0</ele><time>2026-04-08T10:26:36.977Z</time></trkpt><trkpt lat="45.68866084504725" lon="6.897694434485656"><ele>2279.0</ele><time>2026-04-08T10:26:37.977Z</time></trkpt><trkpt lat="45.688775389782364" lon="6.897729105855847"><ele>2274.8</ele><time>2026-04-08T10:26:38.977Z</time></trkpt><trkpt lat="45.68887263708019" lon="6.897760016054992"><ele>2270.6000000000004</ele><time>2026-04-08T10:26:39.977Z</time></trkpt><trkpt lat="45.68898194466644" lon="6.897799734863762"><ele>2266.4</ele><time>2026-04-08T10:26:40.977Z</time></trkpt><trkpt lat="45.689078322614556" lon="6.897830146750255"><ele>2262.2000000000003</ele><time>2026-04-08T10:26:41.977Z</time></trkpt><trkpt lat="45.689169974072" lon="6.897864771037311"><ele>2258.0</ele><time>2026-04-08T10:26:42.977Z</time></trkpt><trkpt lat="45.6892396012687" lon="6.897901565103675"><ele>2258.0</ele><time>2026-04-08T10:26:43.977Z</time></trkpt><trkpt lat="45.68931278108186" lon="6.897934350264741"><ele>2258.0</ele><time>2026-04-08T10:26:44.977Z</time></trkpt><trkpt lat="45.68939992567253" lon="6.897957809451573"><ele>2258.0</ele><time>2026-04-08T10:26:45.977Z</time></trkpt><trkpt lat="45.68948795144959" lon="6.897955990676711"><ele>2258.0</ele><time>2026-04-08T10:26:46.977Z</time></trkpt><trkpt lat="45.68957029696499" lon="6.897956829389981"><ele>2258.0</ele><time>2026-04-08T10:26:47.977Z</time></trkpt><trkpt lat="45.68965870853573" lon="6.8979567114545635"><ele>2258.0</ele><time>2026-04-08T10:26:48.977Z</time></trkpt><trkpt lat="45.68974788420456" lon="6.897950390798146"><ele>2256.142857142857</ele><time>2026-04-08T10:26:49.977Z</time></trkpt><trkpt lat="45.689835293192" lon="6.897959173833691"><ele>2254.285714285714</ele><time>2026-04-08T10:26:50.977Z</time></trkpt><trkpt lat="45.68991181233432" lon="6.89800596355485"><ele>2252.4285714285716</ele><time>2026-04-08T10:26:51.977Z</time></trkpt><trkpt lat="45.68995648202172" lon="6.898073836932171"><ele>2250.5714285714284</ele><time>2026-04-08T10:26:52.977Z</time></trkpt><trkpt lat="45.690015419990836" lon="6.898115030766598"><ele>2248.714285714286</ele><time>2026-04-08T10:26:53.977Z</time></trkpt><trkpt lat="45.690072161466034" lon="6.898062369686522"><ele>2246.8571428571427</ele><time>2026-04-08T10:26:54.977Z</time></trkpt><trkpt lat="45.69013936854712" lon="6.898019647174426"><ele>2245.0</ele><time>2026-04-08T10:26:55.977Z</time></trkpt><trkpt lat="45.69021587731912" lon="6.897993068995198"><ele>2242.0</ele><time>2026-04-08T10:26:56.977Z</time></trkpt><trkpt lat="45.69030016710197" lon="6.897974579332202"><ele>2239.0</ele><time>2026-04-08T10:26:57.977Z</time></trkpt><trkpt lat="45.69037683131332" lon="6.897970174522987"><ele>2236.0</ele><time>2026-04-08T10:26:58.977Z</time></trkpt><trkpt lat="45.6904598332431" lon="6.8980023961454"><ele>2233.0</ele><time>2026-04-08T10:26:59.977Z</time></trkpt><trkpt lat="45.690548138662784" lon="6.89815954830183"><ele>2230.0</ele><time>2026-04-08T10:27:01.977Z</time></trkpt><trkpt lat="45.690665154315376" lon="6.898182589669489"><ele>2230.0</ele><time>2026-04-08T10:27:03.977Z</time></trkpt><trkpt lat="45.690734849076534" lon="6.898164884409164"><ele>2230.0</ele><time>2026-04-08T10:27:04.977Z</time></trkpt><trkpt lat="45.690809629305775" lon="6.898183732853087"><ele>2230.0</ele><time>2026-04-08T10:27:05.977Z</time></trkpt><trkpt lat="45.69086718118672" lon="6.898225026258973"><ele>2230.0</ele><time>2026-04-08T10:27:06.977Z</time></trkpt><trkpt lat="45.690920417855175" lon="6.898357317543264"><ele>2230.0</ele><time>2026-04-08T10:27:08.977Z</time></trkpt><trkpt lat="45.69101253023332" lon="6.898434959216021"><ele>2230.0</ele><time>2026-04-08T10:27:10.977Z</time></trkpt><trkpt lat="45.691120276187405" lon="6.898326603179433"><ele>2224.6</ele><time>2026-04-08T10:27:12.977Z</time></trkpt><trkpt lat="45.69124976095472" lon="6.898315097380003"><ele>2219.2</ele><time>2026-04-08T10:27:14.977Z</time></trkpt><trkpt lat="45.69131902801508" lon="6.898351671452201"><ele>2213.8</ele><time>2026-04-08T10:27:15.977Z</time></trkpt><trkpt lat="45.691419243468026" lon="6.898264814863319"><ele>2208.4</ele><time>2026-04-08T10:27:17.977Z</time></trkpt><trkpt lat="45.691507643968755" lon="6.898292255589727"><ele>2203.0</ele><time>2026-04-08T10:27:19.977Z</time></trkpt><trkpt lat="45.69159767877046" lon="6.898321177867961"><ele>2203.0</ele><time>2026-04-08T10:27:21.976Z</time></trkpt><trkpt lat="45.691655050803575" lon="6.8982728752943325"><ele>2203.0</ele><time>2026-04-08T10:27:22.976Z</time></trkpt><trkpt lat="45.69174612985739" lon="6.898330761198782"><ele>2203.0</ele><time>2026-04-08T10:27:24.976Z</time></trkpt><trkpt lat="45.691836319733476" lon="6.898311108769952"><ele>2203.0</ele><time>2026-04-08T10:27:26.976Z</time></trkpt><trkpt lat="45.69190261856024" lon="6.898202165157867"><ele>2203.0</ele><time>2026-04-08T10:27:28.976Z</time></trkpt><trkpt lat="45.692041568060645" lon="6.898307803661544"><ele>2196.25</ele><time>2026-04-08T10:27:31.976Z</time></trkpt><trkpt lat="45.69219904532393" lon="6.898194287577281"><ele>2189.5</ele><time>2026-04-08T10:27:35.976Z</time></trkpt><trkpt lat="45.69226977491455" lon="6.898325213156414"><ele>2182.75</ele><time>2026-04-08T10:27:37.977Z</time></trkpt><trkpt lat="45.692390080940484" lon="6.898237150517577"><ele>2176.0</ele><time>2026-04-08T10:27:40.977Z</time></trkpt><trkpt lat="45.692465914589434" lon="6.898148087882627"><ele>2176.0</ele><time>2026-04-08T10:27:42.977Z</time></trkpt><trkpt lat="45.692589622163396" lon="6.898319527434716"><ele>2176.0</ele><time>2026-04-08T10:27:45.977Z</time></trkpt><trkpt lat="45.692676764278715" lon="6.898227223226863"><ele>2176.0</ele><time>2026-04-08T10:27:47.977Z</time></trkpt><trkpt lat="45.69270933918253" lon="6.898142917283458"><ele>2176.0</ele><time>2026-04-08T10:28:29.976Z</time></trkpt><trkpt lat="45.69277726719161" lon="6.8981318319438145"><ele>2176.0</ele><time>2026-04-08T10:28:31.976Z</time></trkpt><trkpt lat="45.69284693643298" lon="6.898227688745688"><ele>2165.0</ele><time>2026-04-08T10:28:33.976Z</time></trkpt><trkpt lat="45.692895886065216" lon="6.89833775452907"><ele>2154.0</ele><time>2026-04-08T10:28:35.976Z</time></trkpt><trkpt lat="45.69304527325223" lon="6.898160815819237"><ele>2143.0</ele><time>2026-04-08T10:28:39.976Z</time></trkpt><trkpt lat="45.69315534444287" lon="6.898303233142507"><ele>2132.0</ele><time>2026-04-08T10:28:42.976Z</time></trkpt><trkpt lat="45.69328864654439" lon="6.898240593085276"><ele>2132.0</ele><time>2026-04-08T10:28:45.976Z</time></trkpt><trkpt lat="45.69338651672663" lon="6.898265948070748"><ele>2132.0</ele><time>2026-04-08T10:28:47.976Z</time></trkpt><trkpt lat="45.6934399068415" lon="6.898319831901305"><ele>2132.0</ele><time>2026-04-08T10:28:48.976Z</time></trkpt><trkpt lat="45.69352202347357" lon="6.898408759916435"><ele>2132.0</ele><time>2026-04-08T10:28:50.976Z</time></trkpt><trkpt lat="45.69357355835455" lon="6.898346797326413"><ele>2132.0</ele><time>2026-04-08T10:28:51.976Z</time></trkpt><trkpt lat="45.69360851300115" lon="6.898250463363499"><ele>2132.0</ele><time>2026-04-08T10:28:52.976Z</time></trkpt><trkpt lat="45.693732534886486" lon="6.8982253528880095"><ele>2125.6</ele><time>2026-04-08T10:28:54.976Z</time></trkpt><trkpt lat="45.693773854761524" lon="6.898321228582163"><ele>2119.2</ele><time>2026-04-08T10:28:55.975Z</time></trkpt><trkpt lat="45.6938360902079" lon="6.898420493074619"><ele>2112.8</ele><time>2026-04-08T10:28:57.975Z</time></trkpt><trkpt lat="45.693942608165486" lon="6.898325783564598"><ele>2106.4</ele><time>2026-04-08T10:28:59.975Z</time></trkpt><trkpt lat="45.694063748306384" lon="6.898339053825883"><ele>2100.0</ele><time>2026-04-08T10:29:01.975Z</time></trkpt><trkpt lat="45.694187341899614" lon="6.898352061133819"><ele>2097.8333333333335</ele><time>2026-04-08T10:29:03.975Z</time></trkpt><trkpt lat="45.694235506272165" lon="6.89829058328162"><ele>2095.6666666666665</ele><time>2026-04-08T10:29:04.975Z</time></trkpt><trkpt lat="45.69431805999089" lon="6.898300823999739"><ele>2093.5</ele><time>2026-04-08T10:29:05.975Z</time></trkpt><trkpt lat="45.69442796314649" lon="6.898400266082317"><ele>2091.333333333333</ele><time>2026-04-08T10:29:07.975Z</time></trkpt><trkpt lat="45.69450512747258" lon="6.8983833444770575"><ele>2089.1666666666665</ele><time>2026-04-08T10:29:08.975Z</time></trkpt><trkpt lat="45.69459612916718" lon="6.898413064194267"><ele>2087.0</ele><time>2026-04-08T10:29:09.975Z</time></trkpt><trkpt lat="45.694679253391904" lon="6.898485659803523"><ele>2082.4</ele><time>2026-04-08T10:29:10.975Z</time></trkpt><trkpt lat="45.69476590242436" lon="6.898569872953017"><ele>2077.7999999999997</ele><time>2026-04-08T10:29:11.975Z</time></trkpt><trkpt lat="45.69484787615481" lon="6.89866657624997"><ele>2073.2</ele><time>2026-04-08T10:29:12.975Z</time></trkpt><trkpt lat="45.69493829525484" lon="6.898789550788065"><ele>2068.6</ele><time>2026-04-08T10:29:13.975Z</time></trkpt><trkpt lat="45.69501305608747" lon="6.898901277292953"><ele>2064.0</ele><time>2026-04-08T10:29:14.975Z</time></trkpt><trkpt lat="45.695079588784694" lon="6.898999773106387"><ele>2064.0</ele><time>2026-04-08T10:29:15.975Z</time></trkpt><trkpt lat="45.69513976817341" lon="6.899079860746739"><ele>2064.0</ele><time>2026-04-08T10:29:16.975Z</time></trkpt><trkpt lat="45.69519801958225" lon="6.89916249230761"><ele>2064.0</ele><time>2026-04-08T10:29:17.975Z</time></trkpt><trkpt lat="45.69524937141419" lon="6.899235998299138"><ele>2064.0</ele><time>2026-04-08T10:29:18.975Z</time></trkpt><trkpt lat="45.69530401608183" lon="6.899315779173875"><ele>2064.0</ele><time>2026-04-08T10:29:19.975Z</time></trkpt><trkpt lat="45.69535994728637" lon="6.899391181923022"><ele>2064.0</ele><time>2026-04-08T10:29:20.975Z</time></trkpt><trkpt lat="45.69543287060816" lon="6.899518042023742"><ele>2062.2</ele><time>2026-04-08T10:29:22.975Z</time></trkpt><trkpt lat="45.69550273987763" lon="6.899623653675823"><ele>2060.4</ele><time>2026-04-08T10:29:24.975Z</time></trkpt><trkpt lat="45.69557928694141" lon="6.899737097971986"><ele>2058.6</ele><time>2026-04-08T10:29:26.975Z</time></trkpt><trkpt lat="45.69563639400204" lon="6.899812161394778"><ele>2056.8</ele><time>2026-04-08T10:29:28.975Z</time></trkpt><trkpt lat="45.69569072578107" lon="6.899893714610342"><ele>2055.0</ele><time>2026-04-08T10:29:30.975Z</time></trkpt><trkpt lat="45.69575299820632" lon="6.899989424046334"><ele>2055.0</ele><time>2026-04-08T10:29:32.975Z</time></trkpt><trkpt lat="45.69580914579216" lon="6.900077738508293"><ele>2055.0</ele><time>2026-04-08T10:29:34.975Z</time></trkpt><trkpt lat="45.695854916628456" lon="6.900157477815478"><ele>2055.0</ele><time>2026-04-08T10:29:36.975Z</time></trkpt><trkpt lat="45.695913287243684" lon="6.900269505552372"><ele>2055.0</ele><time>2026-04-08T10:29:39.975Z</time></trkpt><trkpt lat="45.69597651587802" lon="6.900385658466411"><ele>2055.0</ele><time>2026-04-08T10:29:42.976Z</time></trkpt><trkpt lat="45.69602286969062" lon="6.900482991980834"><ele>2055.0</ele><time>2026-04-08T10:29:44.976Z</time></trkpt><trkpt lat="45.69606235909533" lon="6.900585604535257"><ele>2052.8</ele><time>2026-04-08T10:29:46.976Z</time></trkpt><trkpt lat="45.696120532964166" lon="6.900701149150502"><ele>2050.6</ele><time>2026-04-08T10:29:48.976Z</time></trkpt><trkpt lat="45.6961823990497" lon="6.900824324333682"><ele>2048.4</ele><time>2026-04-08T10:29:50.976Z</time></trkpt><trkpt lat="45.696242530244945" lon="6.9009674414334325"><ele>2046.2</ele><time>2026-04-08T10:29:52.976Z</time></trkpt><trkpt lat="45.69627534403859" lon="6.901046277413586"><ele>2044.0</ele><time>2026-04-08T10:29:53.976Z</time></trkpt><trkpt lat="45.69630935000973" lon="6.901129265292862"><ele>2043.8333333333335</ele><time>2026-04-08T10:29:54.976Z</time></trkpt><trkpt lat="45.69634804131074" lon="6.901205777568609"><ele>2043.6666666666667</ele><time>2026-04-08T10:29:55.976Z</time></trkpt><trkpt lat="45.696389386496165" lon="6.901298594152212"><ele>2043.5</ele><time>2026-04-08T10:29:56.976Z</time></trkpt><trkpt lat="45.69642969069196" lon="6.901394224394169"><ele>2043.3333333333335</ele><time>2026-04-08T10:29:57.976Z</time></trkpt><trkpt lat="45.696474984744384" lon="6.9014785681612345"><ele>2043.1666666666667</ele><time>2026-04-08T10:29:58.976Z</time></trkpt><trkpt lat="45.69651296053548" lon="6.901553727750661"><ele>2043.0</ele><time>2026-04-08T10:29:59.976Z</time></trkpt><trkpt lat="45.69655702472685" lon="6.901671362080315"><ele>2043.0</ele><time>2026-04-08T10:30:01.976Z</time></trkpt><trkpt lat="45.69659753793042" lon="6.901743396000355"><ele>2043.0000000000002</ele><time>2026-04-08T10:30:02.976Z</time></trkpt><trkpt lat="45.696653007491" lon="6.901872243630631"><ele>2043.0000000000002</ele><time>2026-04-08T10:30:04.976Z</time></trkpt><trkpt lat="45.69670777595131" lon="6.901999598415567"><ele>2043.0</ele><time>2026-04-08T10:30:06.976Z</time></trkpt><trkpt lat="45.69676188866804" lon="6.902114586628013"><ele>2043.0</ele><time>2026-04-08T10:30:08.976Z</time></trkpt><trkpt lat="45.696813259744296" lon="6.902226863553641"><ele>2043.2</ele><time>2026-04-08T10:30:10.976Z</time></trkpt><trkpt lat="45.6968673001804" lon="6.902344644680566"><ele>2043.4</ele><time>2026-04-08T10:30:12.976Z</time></trkpt><trkpt lat="45.696910016365536" lon="6.902438020136098"><ele>2043.6000000000001</ele><time>2026-04-08T10:30:14.976Z</time></trkpt><trkpt lat="45.69697023042994" lon="6.902553058215732"><ele>2043.8000000000002</ele><time>2026-04-08T10:30:16.976Z</time></trkpt><trkpt lat="45.69704113975653" lon="6.902668603262326"><ele>2044.0</ele><time>2026-04-08T10:30:18.976Z</time></trkpt><trkpt lat="45.69711650961999" lon="6.902806255547004"><ele>2041.6666666666667</ele><time>2026-04-08T10:30:20.976Z</time></trkpt><trkpt lat="45.697187283914595" lon="6.902937992594318"><ele>2039.3333333333335</ele><time>2026-04-08T10:30:22.976Z</time></trkpt><trkpt lat="45.69723076494682" lon="6.9030074870564215"><ele>2037.0</ele><time>2026-04-08T10:30:23.976Z</time></trkpt><trkpt lat="45.69730097902161" lon="6.903134786850635"><ele>2034.6666666666665</ele><time>2026-04-08T10:30:25.976Z</time></trkpt><trkpt lat="45.6973482523765" lon="6.903204974707122"><ele>2032.3333333333333</ele><time>2026-04-08T10:30:26.976Z</time></trkpt><trkpt lat="45.69739434431868" lon="6.9032741854681"><ele>2030.0</ele><time>2026-04-08T10:30:27.976Z</time></trkpt><trkpt lat="45.697440233339044" lon="6.903342430755358"><ele>2029.9999999999998</ele><time>2026-04-08T10:30:28.976Z</time></trkpt><trkpt lat="45.69748702102046" lon="6.90340921061534"><ele>2030.0</ele><time>2026-04-08T10:30:29.976Z</time></trkpt><trkpt lat="45.697544881765346" lon="6.903488872479103"><ele>2030.0</ele><time>2026-04-08T10:30:30.976Z</time></trkpt><trkpt lat="45.69759299298266" lon="6.903558800322175"><ele>2030.0</ele><time>2026-04-08T10:30:31.976Z</time></trkpt><trkpt lat="45.69764406830008" lon="6.9036302584516"><ele>2029.9999999999998</ele><time>2026-04-08T10:30:32.975Z</time></trkpt><trkpt lat="45.697704600391226" lon="6.903710932369852"><ele>2030.0</ele><time>2026-04-08T10:30:33.975Z</time></trkpt><trkpt lat="45.69778054660369" lon="6.90379858742912"><ele>2027.8333333333333</ele><time>2026-04-08T10:30:34.975Z</time></trkpt><trkpt lat="45.697839281113886" lon="6.903867448895966"><ele>2025.6666666666665</ele><time>2026-04-08T10:30:35.975Z</time></trkpt><trkpt lat="45.69790347007978" lon="6.903930765629081"><ele>2023.5</ele><time>2026-04-08T10:30:36.975Z</time></trkpt><trkpt lat="45.69797222315451" lon="6.903994399361402"><ele>2021.3333333333335</ele><time>2026-04-08T10:30:37.975Z</time></trkpt><trkpt lat="45.698027463321694" lon="6.9040496785271666"><ele>2019.1666666666667</ele><time>2026-04-08T10:30:38.975Z</time></trkpt><trkpt lat="45.69808164656152" lon="6.904105799978573"><ele>2017.0</ele><time>2026-04-08T10:30:39.975Z</time></trkpt><trkpt lat="45.69817400057176" lon="6.904197173517195"><ele>2016.8571428571431</ele><time>2026-04-08T10:30:41.975Z</time></trkpt><trkpt lat="45.69826111849477" lon="6.904284364751739"><ele>2016.7142857142858</ele><time>2026-04-08T10:30:43.975Z</time></trkpt><trkpt lat="45.69833335319523" lon="6.904338033852662"><ele>2016.5714285714287</ele><time>2026-04-08T10:30:45.975Z</time></trkpt><trkpt lat="45.69838834421205" lon="6.904394194138311"><ele>2016.4285714285716</ele><time>2026-04-08T10:30:47.975Z</time></trkpt><trkpt lat="45.69844015876384" lon="6.904447359549217"><ele>2016.2857142857142</ele><time>2026-04-08T10:30:49.975Z</time></trkpt><trkpt lat="45.69849030859403" lon="6.904503000527541"><ele>2016.142857142857</ele><time>2026-04-08T10:30:52.975Z</time></trkpt><trkpt lat="45.69854078527052" lon="6.904561042302145"><ele>2016.0</ele><time>2026-04-08T10:30:55.975Z</time></trkpt><trkpt lat="45.698594394353606" lon="6.904635491130812"><ele>2016.0</ele><time>2026-04-08T10:30:58.975Z</time></trkpt><trkpt lat="45.69863332092841" lon="6.90470717947673"><ele>2016.0</ele><time>2026-04-08T10:31:01.975Z</time></trkpt><trkpt lat="45.69867323543983" lon="6.9047812453813755"><ele>2016.0</ele><time>2026-04-08T10:31:05.975Z</time></trkpt><trkpt lat="45.698613888201336" lon="6.904830434005417"><ele>2016.0</ele><time>2026-04-08T10:31:15.975Z</time></trkpt><trkpt lat="45.6985502736519" lon="6.904852471895981"><ele>2016.0</ele><time>2026-04-08T10:31:24.975Z</time></trkpt><trkpt lat="45.698484712779724" lon="6.9048562234606505"><ele>2016.0</ele><time>2026-04-08T10:31:34.974Z</time></trkpt><trkpt lat="45.69841686212846" lon="6.904866172644903"><ele>2016.0</ele><time>2026-04-08T10:31:39.974Z</time></trkpt><trkpt lat="45.69833074630016" lon="6.9049235253918315"><ele>2015.5</ele><time>2026-04-08T10:31:41.974Z</time></trkpt><trkpt lat="45.69825315571213" lon="6.904961181324218"><ele>2015.0</ele><time>2026-04-08T10:31:44.974Z</time></trkpt><trkpt lat="45.69818187056475" lon="6.905025534443142"><ele>2014.5</ele><time>2026-04-08T10:31:46.974Z</time></trkpt><trkpt lat="45.69811336824109" lon="6.905065608482395"><ele>2014.0</ele><time>2026-04-08T10:31:48.976Z</time></trkpt><trkpt lat="45.69803837625283" lon="6.905098595928444"><ele>2013.5</ele><time>2026-04-08T10:31:51.975Z</time></trkpt><trkpt lat="45.69797657897175" lon="6.905134716641565"><ele>2013.0</ele><time>2026-04-08T10:31:53.975Z</time></trkpt><trkpt lat="45.697896534779964" lon="6.905187497739163"><ele>2015.0</ele><time>2026-04-08T10:31:56.976Z</time></trkpt><trkpt lat="45.69781487006089" lon="6.905252077050553"><ele>2017.0</ele><time>2026-04-08T10:31:59.975Z</time></trkpt><trkpt lat="45.697733017530496" lon="6.90530577194625"><ele>2019.0</ele><time>2026-04-08T10:32:02.975Z</time></trkpt><trkpt lat="45.69766194250111" lon="6.905348308137851"><ele>2021.0</ele><time>2026-04-08T10:32:04.975Z</time></trkpt><trkpt lat="45.69757507466303" lon="6.905386291851085"><ele>2023.0</ele><time>2026-04-08T10:32:07.975Z</time></trkpt><trkpt lat="45.69751541922204" lon="6.905420158003459"><ele>2025.0</ele><time>2026-04-08T10:32:09.975Z</time></trkpt><trkpt lat="45.69742967274881" lon="6.90544977469198"><ele>2031.0</ele><time>2026-04-08T10:32:12.975Z</time></trkpt><trkpt lat="45.697341250215956" lon="6.905490404386603"><ele>2037.0</ele><time>2026-04-08T10:32:15.975Z</time></trkpt><trkpt lat="45.697256553242624" lon="6.905531204001963"><ele>2043.0</ele><time>2026-04-08T10:32:18.975Z</time></trkpt><trkpt lat="45.69718263266415" lon="6.905568883983915"><ele>2049.0</ele><time>2026-04-08T10:32:21.975Z</time></trkpt><trkpt lat="45.69709753223642" lon="6.905598428419307"><ele>2055.0</ele><time>2026-04-08T10:32:24.975Z</time></trkpt><trkpt lat="45.697014579555045" lon="6.905634304042282"><ele>2061.0</ele><time>2026-04-08T10:32:27.975Z</time></trkpt><trkpt lat="45.69695369629964" lon="6.905664535320039"><ele>2067.1666666666665</ele><time>2026-04-08T10:32:29.974Z</time></trkpt><trkpt lat="45.69687559175723" lon="6.9057191117421715"><ele>2073.3333333333335</ele><time>2026-04-08T10:32:32.974Z</time></trkpt><trkpt lat="45.6968044314515" lon="6.905760432044581"><ele>2079.5</ele><time>2026-04-08T10:32:34.974Z</time></trkpt><trkpt lat="45.69672228135136" lon="6.90580050879368"><ele>2085.666666666667</ele><time>2026-04-08T10:32:37.974Z</time></trkpt><trkpt lat="45.696660876635846" lon="6.905831634199705"><ele>2091.8333333333335</ele><time>2026-04-08T10:32:39.974Z</time></trkpt><trkpt lat="45.69657322094811" lon="6.905870829808702"><ele>2098.0</ele><time>2026-04-08T10:32:42.974Z</time></trkpt><trkpt lat="45.69648496438765" lon="6.905926296195268"><ele>2101.0</ele><time>2026-04-08T10:32:45.974Z</time></trkpt><trkpt lat="45.69639908820412" lon="6.905964146206244"><ele>2104.0</ele><time>2026-04-08T10:32:48.974Z</time></trkpt><trkpt lat="45.69633742719729" lon="6.905991629714877"><ele>2107.0</ele><time>2026-04-08T10:32:50.974Z</time></trkpt><trkpt lat="45.69624775866632" lon="6.906028669701193"><ele>2110.0</ele><time>2026-04-08T10:32:53.974Z</time></trkpt><trkpt lat="45.696163236192056" lon="6.906077303925218"><ele>2113.0</ele><time>2026-04-08T10:32:56.974Z</time></trkpt><trkpt lat="45.696080395279175" lon="6.906108159959169"><ele>2116.0</ele><time>2026-04-08T10:32:59.974Z</time></trkpt><trkpt lat="45.696000330570364" lon="6.906148157196385"><ele>2121.666666666667</ele><time>2026-04-08T10:33:02.974Z</time></trkpt><trkpt lat="45.6959161610293" lon="6.906193417857075"><ele>2127.3333333333335</ele><time>2026-04-08T10:33:05.974Z</time></trkpt><trkpt lat="45.69582997723349" lon="6.906230228245989"><ele>2133.0</ele><time>2026-04-08T10:33:08.974Z</time></trkpt><trkpt lat="45.69574682684347" lon="6.906269525458097"><ele>2138.6666666666665</ele><time>2026-04-08T10:33:11.974Z</time></trkpt><trkpt lat="45.69568391195529" lon="6.906304045789068"><ele>2144.333333333333</ele><time>2026-04-08T10:33:13.974Z</time></trkpt><trkpt lat="45.695619504879815" lon="6.906346957853325"><ele>2150.0</ele><time>2026-04-08T10:33:15.974Z</time></trkpt><trkpt lat="45.695556541386495" lon="6.906384081570002"><ele>2150.0000000000005</ele><time>2026-04-08T10:33:17.974Z</time></trkpt><trkpt lat="45.695490207517445" lon="6.90641754096346"><ele>2150.0</ele><time>2026-04-08T10:33:19.974Z</time></trkpt><trkpt lat="45.69542822345169" lon="6.9064498094026225"><ele>2150.0</ele><time>2026-04-08T10:33:21.974Z</time></trkpt><trkpt lat="45.69536236559266" lon="6.906482532807778"><ele>2150.0</ele><time>2026-04-08T10:33:23.973Z</time></trkpt><trkpt lat="45.69529634121018" lon="6.906509927182639"><ele>2150.0</ele><time>2026-04-08T10:33:25.973Z</time></trkpt><trkpt lat="45.695234725130526" lon="6.906544461323939"><ele>2150.0000000000005</ele><time>2026-04-08T10:33:27.973Z</time></trkpt><trkpt lat="45.695168716012624" lon="6.906578715622082"><ele>2150.0</ele><time>2026-04-08T10:33:29.973Z</time></trkpt><trkpt lat="45.695100513322444" lon="6.906599851864733"><ele>2151.0000000000005</ele><time>2026-04-08T10:33:31.973Z</time></trkpt><trkpt lat="45.69503814180558" lon="6.906635883518271"><ele>2152.0</ele><time>2026-04-08T10:33:33.973Z</time></trkpt><trkpt lat="45.694976356565455" lon="6.9066746875112095"><ele>2153.0</ele><time>2026-04-08T10:33:35.973Z</time></trkpt><trkpt lat="45.69488541909088" lon="6.906714006612106"><ele>2154.0</ele><time>2026-04-08T10:33:38.973Z</time></trkpt><trkpt lat="45.69482040201857" lon="6.906739234228905"><ele>2155.0</ele><time>2026-04-08T10:33:40.973Z</time></trkpt><trkpt lat="45.69476067075941" lon="6.906788181392098"><ele>2156.0000000000005</ele><time>2026-04-08T10:33:42.973Z</time></trkpt><trkpt lat="45.69470167024805" lon="6.9068292949153705"><ele>2157.0</ele><time>2026-04-08T10:33:44.973Z</time></trkpt><trkpt lat="45.69461424670791" lon="6.906870125341036"><ele>2157.5</ele><time>2026-04-08T10:33:47.973Z</time></trkpt><trkpt lat="45.694540283944434" lon="6.906897122232836"><ele>2158.0</ele><time>2026-04-08T10:33:49.973Z</time></trkpt><trkpt lat="45.69445869145514" lon="6.906941440559942"><ele>2158.5</ele><time>2026-04-08T10:33:52.973Z</time></trkpt><trkpt lat="45.69439390150907" lon="6.906971492794509"><ele>2159.0</ele><time>2026-04-08T10:33:54.975Z</time></trkpt><trkpt lat="45.694330783954136" lon="6.906993005361397"><ele>2159.5</ele><time>2026-04-08T10:33:56.975Z</time></trkpt><trkpt lat="45.694248438897226" lon="6.9070379065201974"><ele>2160.0</ele><time>2026-04-08T10:33:59.974Z</time></trkpt><trkpt lat="45.69416246147224" lon="6.907080225315591"><ele>2165.1666666666665</ele><time>2026-04-08T10:34:02.974Z</time></trkpt><trkpt lat="45.69407756831609" lon="6.907105026812289"><ele>2170.3333333333335</ele><time>2026-04-08T10:34:05.975Z</time></trkpt><trkpt lat="45.694019530764116" lon="6.907153995364908"><ele>2175.5</ele><time>2026-04-08T10:34:07.974Z</time></trkpt><trkpt lat="45.69393197657971" lon="6.907198204955816"><ele>2180.666666666667</ele><time>2026-04-08T10:34:10.974Z</time></trkpt><trkpt lat="45.693853979882014" lon="6.907244811745338"><ele>2185.8333333333335</ele><time>2026-04-08T10:34:13.974Z</time></trkpt><trkpt lat="45.69376676871713" lon="6.907276588356099"><ele>2191.0</ele><time>2026-04-08T10:34:16.974Z</time></trkpt><trkpt lat="45.69368766580824" lon="6.907304240801087"><ele>2191.0</ele><time>2026-04-08T10:34:19.974Z</time></trkpt><trkpt lat="45.69362355146432" lon="6.907338630086374"><ele>2191.0</ele><time>2026-04-08T10:34:21.974Z</time></trkpt><trkpt lat="45.69356161099945" lon="6.907372177260799"><ele>2191.0</ele><time>2026-04-08T10:34:23.974Z</time></trkpt><trkpt lat="45.693473704742374" lon="6.907425044809877"><ele>2191.0</ele><time>2026-04-08T10:34:26.974Z</time></trkpt><trkpt lat="45.69338749304379" lon="6.907468233805707"><ele>2191.0</ele><time>2026-04-08T10:34:29.974Z</time></trkpt><trkpt lat="45.693326793333846" lon="6.907510810809077"><ele>2191.0</ele><time>2026-04-08T10:34:31.974Z</time></trkpt><trkpt lat="45.693234509332875" lon="6.907538738690887"><ele>2197.0</ele><time>2026-04-08T10:34:34.974Z</time></trkpt><trkpt lat="45.693174095663686" lon="6.907570279796156"><ele>2203.0</ele><time>2026-04-08T10:34:36.974Z</time></trkpt><trkpt lat="45.69308493996223" lon="6.9076331660706565"><ele>2209.0</ele><time>2026-04-08T10:34:39.974Z</time></trkpt><trkpt lat="45.69300259711625" lon="6.90765313699915"><ele>2215.0</ele><time>2026-04-08T10:34:42.973Z</time></trkpt><trkpt lat="45.69291653765325" lon="6.907698880861254"><ele>2221.0</ele><time>2026-04-08T10:34:45.973Z</time></trkpt><trkpt lat="45.69285681449459" lon="6.907742474451413"><ele>2227.0</ele><time>2026-04-08T10:34:47.973Z</time></trkpt><trkpt lat="45.69279598024975" lon="6.907777358054142"><ele>2233.1428571428573</ele><time>2026-04-08T10:34:49.973Z</time></trkpt><trkpt lat="45.69273621632184" lon="6.907818429980362"><ele>2239.285714285714</ele><time>2026-04-08T10:34:51.973Z</time></trkpt><trkpt lat="45.692670603097824" lon="6.907853432785819"><ele>2245.4285714285716</ele><time>2026-04-08T10:34:53.973Z</time></trkpt><trkpt lat="45.692608367712026" lon="6.9078756423212555"><ele>2251.5714285714284</ele><time>2026-04-08T10:34:55.973Z</time></trkpt><trkpt lat="45.692546683281094" lon="6.907903150314126"><ele>2257.714285714286</ele><time>2026-04-08T10:34:57.973Z</time></trkpt><trkpt lat="45.69248351583747" lon="6.907934891686179"><ele>2263.857142857143</ele><time>2026-04-08T10:34:59.973Z</time></trkpt><trkpt lat="45.692422754452195" lon="6.9079671961715805"><ele>2270.0</ele><time>2026-04-08T10:35:01.973Z</time></trkpt><trkpt lat="45.69235679994523" lon="6.907988382005361"><ele>2270.0</ele><time>2026-04-08T10:35:03.973Z</time></trkpt><trkpt lat="45.69229267864828" lon="6.908016475163066"><ele>2270.0</ele><time>2026-04-08T10:35:05.973Z</time></trkpt><trkpt lat="45.69223051996631" lon="6.908057011187292"><ele>2270.0</ele><time>2026-04-08T10:35:08.973Z</time></trkpt><trkpt lat="45.69214861947449" lon="6.908098315792104"><ele>2270.0</ele><time>2026-04-08T10:35:11.973Z</time></trkpt><trkpt lat="45.692066826258355" lon="6.908149801858229"><ele>2270.0</ele><time>2026-04-08T10:35:14.973Z</time></trkpt><trkpt lat="45.692003473002906" lon="6.908176045723335"><ele>2270.0</ele><time>2026-04-08T10:35:16.973Z</time></trkpt><trkpt lat="45.69194297100656" lon="6.908203010352501"><ele>2270.0</ele><time>2026-04-08T10:35:18.973Z</time></trkpt><trkpt lat="45.6918753381223" lon="6.908230300847348"><ele>2272.1428571428573</ele><time>2026-04-08T10:35:20.973Z</time></trkpt><trkpt lat="45.691813630174835" lon="6.908260769738947"><ele>2274.285714285714</ele><time>2026-04-08T10:35:22.973Z</time></trkpt><trkpt lat="45.69174616112746" lon="6.908285851228312"><ele>2276.4285714285716</ele><time>2026-04-08T10:35:24.973Z</time></trkpt><trkpt lat="45.691686127859136" lon="6.908325902753434"><ele>2278.5714285714284</ele><time>2026-04-08T10:35:26.973Z</time></trkpt><trkpt lat="45.69161733030619" lon="6.908344704708799"><ele>2280.714285714286</ele><time>2026-04-08T10:35:28.973Z</time></trkpt><trkpt lat="45.69155449087961" lon="6.90837210474901"><ele>2282.857142857143</ele><time>2026-04-08T10:35:30.973Z</time></trkpt><trkpt lat="45.691493477239064" lon="6.908412154293191"><ele>2285.0</ele><time>2026-04-08T10:35:32.973Z</time></trkpt><trkpt lat="45.69140595436952" lon="6.90846363559463"><ele>2286.857142857143</ele><time>2026-04-08T10:35:35.973Z</time></trkpt><trkpt lat="45.69134383552298" lon="6.90849054501214"><ele>2288.714285714286</ele><time>2026-04-08T10:35:37.973Z</time></trkpt><trkpt lat="45.691283001450856" lon="6.908520349778804"><ele>2290.5714285714284</ele><time>2026-04-08T10:35:39.972Z</time></trkpt><trkpt lat="45.69119250353922" lon="6.908561283376043"><ele>2292.4285714285716</ele><time>2026-04-08T10:35:42.972Z</time></trkpt><trkpt lat="45.69112479262828" lon="6.908593032723492"><ele>2294.285714285714</ele><time>2026-04-08T10:35:44.972Z</time></trkpt><trkpt lat="45.69105700690689" lon="6.908636005254483"><ele>2296.1428571428573</ele><time>2026-04-08T10:35:46.972Z</time></trkpt><trkpt lat="45.69099282914735" lon="6.9086534790680085"><ele>2298.0</ele><time>2026-04-08T10:35:48.972Z</time></trkpt><trkpt lat="45.69093286498411" lon="6.908690571899087"><ele>2300.0</ele><time>2026-04-08T10:35:50.972Z</time></trkpt><trkpt lat="45.69085076114608" lon="6.908735870291065"><ele>2302.0</ele><time>2026-04-08T10:35:53.972Z</time></trkpt><trkpt lat="45.690789809911756" lon="6.908768607350121"><ele>2304.0</ele><time>2026-04-08T10:35:55.972Z</time></trkpt><trkpt lat="45.690728191513166" lon="6.908796995328018"><ele>2306.0</ele><time>2026-04-08T10:35:57.972Z</time></trkpt><trkpt lat="45.690670165160704" lon="6.908836498112102"><ele>2308.0</ele><time>2026-04-08T10:35:59.972Z</time></trkpt><trkpt lat="45.69060362383129" lon="6.908860017550536"><ele>2310.0</ele><time>2026-04-08T10:36:01.973Z</time></trkpt><trkpt lat="45.69051955957069" lon="6.9089124745571295"><ele>2312.0</ele><time>2026-04-08T10:36:04.974Z</time></trkpt><trkpt lat="45.690432369818524" lon="6.908951411286418"><ele>2312.0</ele><time>2026-04-08T10:36:07.974Z</time></trkpt><trkpt lat="45.69037046096193" lon="6.90897447217381"><ele>2312.0</ele><time>2026-04-08T10:36:09.974Z</time></trkpt><trkpt lat="45.690312231934655" lon="6.90901290371749"><ele>2312.0</ele><time>2026-04-08T10:36:11.973Z</time></trkpt><trkpt lat="45.69025258485633" lon="6.909049622104016"><ele>2312.0</ele><time>2026-04-08T10:36:13.973Z</time></trkpt><trkpt lat="45.69019200370226" lon="6.9090966071792375"><ele>2312.0</ele><time>2026-04-08T10:36:15.973Z</time></trkpt><trkpt lat="45.69010967596688" lon="6.90912290018722"><ele>2312.0</ele><time>2026-04-08T10:36:18.973Z</time></trkpt><trkpt lat="45.6900247573594" lon="6.909167048230483"><ele>2312.0</ele><time>2026-04-08T10:36:21.973Z</time></trkpt><trkpt lat="45.68993437002893" lon="6.909209231368784"><ele>2316.5714285714284</ele><time>2026-04-08T10:36:24.973Z</time></trkpt><trkpt lat="45.689871867343086" lon="6.909241063914861"><ele>2321.142857142857</ele><time>2026-04-08T10:36:26.973Z</time></trkpt><trkpt lat="45.689809637638845" lon="6.909281607107847"><ele>2325.7142857142853</ele><time>2026-04-08T10:36:28.973Z</time></trkpt><trkpt lat="45.689741409653564" lon="6.909306444233973"><ele>2330.285714285714</ele><time>2026-04-08T10:36:30.973Z</time></trkpt><trkpt lat="45.6896793524527" lon="6.909338155805864"><ele>2334.8571428571427</ele><time>2026-04-08T10:36:32.973Z</time></trkpt><trkpt lat="45.68958651063535" lon="6.909381997535489"><ele>2339.428571428571</ele><time>2026-04-08T10:36:35.973Z</time></trkpt><trkpt lat="45.689526860651405" lon="6.909414742175444"><ele>2344.0</ele><time>2026-04-08T10:36:37.973Z</time></trkpt><trkpt lat="45.68946118248658" lon="6.9094438610756965"><ele>2348.5714285714284</ele><time>2026-04-08T10:36:39.973Z</time></trkpt><trkpt lat="45.68940280967393" lon="6.909493660259816"><ele>2353.142857142857</ele><time>2026-04-08T10:36:41.973Z</time></trkpt><trkpt lat="45.68933900635946" lon="6.909530536617807"><ele>2357.714285714286</ele><time>2026-04-08T10:36:43.973Z</time></trkpt><trkpt lat="45.68927080358715" lon="6.909558196511473"><ele>2362.285714285714</ele><time>2026-04-08T10:36:45.973Z</time></trkpt><trkpt lat="45.68920865381711" lon="6.909585583686003"><ele>2366.857142857143</ele><time>2026-04-08T10:36:47.973Z</time></trkpt><trkpt lat="45.68914732542383" lon="6.909621017171984"><ele>2371.4285714285716</ele><time>2026-04-08T10:36:49.973Z</time></trkpt><trkpt lat="45.689084946880996" lon="6.90964919227175"><ele>2376.0</ele><time>2026-04-08T10:36:51.973Z</time></trkpt><trkpt lat="45.68902100938609" lon="6.90967522634351"><ele>2376.0</ele><time>2026-04-08T10:36:53.973Z</time></trkpt><trkpt lat="45.688958816432645" lon="6.909713005696238"><ele>2376.0</ele><time>2026-04-08T10:36:55.973Z</time></trkpt><trkpt lat="45.68889141916557" lon="6.909750646059138"><ele>2376.0</ele><time>2026-04-08T10:36:57.973Z</time></trkpt><trkpt lat="45.68882612768784" lon="6.909781199404178"><ele>2376.0</ele><time>2026-04-08T10:36:59.973Z</time></trkpt><trkpt lat="45.68876395153095" lon="6.909811388770771"><ele>2376.0</ele><time>2026-04-08T10:37:01.973Z</time></trkpt><trkpt lat="45.688702077345695" lon="6.9098461031691105"><ele>2376.0</ele><time>2026-04-08T10:37:03.972Z</time></trkpt><trkpt lat="45.68863357541653" lon="6.909866625795449"><ele>2376.0</ele><time>2026-04-08T10:37:05.972Z</time></trkpt><trkpt lat="45.688573511462096" lon="6.909896817487169"><ele>2377.857142857143</ele><time>2026-04-08T10:37:07.972Z</time></trkpt><trkpt lat="45.68851449054273" lon="6.909929404560511"><ele>2379.714285714286</ele><time>2026-04-08T10:37:09.972Z</time></trkpt><trkpt lat="45.68842568175777" lon="6.9099766523820145"><ele>2381.5714285714284</ele><time>2026-04-08T10:37:12.972Z</time></trkpt><trkpt lat="45.68834068868979" lon="6.910011419435116"><ele>2383.4285714285716</ele><time>2026-04-08T10:37:15.972Z</time></trkpt><trkpt lat="45.6882804604618" lon="6.910041402290188"><ele>2385.285714285714</ele><time>2026-04-08T10:37:17.972Z</time></trkpt><trkpt lat="45.68821874908107" lon="6.910068977156227"><ele>2387.1428571428573</ele><time>2026-04-08T10:37:19.972Z</time></trkpt><trkpt lat="45.68815648450878" lon="6.910098703455534"><ele>2389.0</ele><time>2026-04-08T10:37:21.972Z</time></trkpt><trkpt lat="45.68807271353287" lon="6.910151178047599"><ele>2391.3333333333335</ele><time>2026-04-08T10:37:24.972Z</time></trkpt><trkpt lat="45.68800982716014" lon="6.910166492052572"><ele>2393.666666666667</ele><time>2026-04-08T10:37:26.972Z</time></trkpt><trkpt lat="45.687922503371375" lon="6.910201585332219"><ele>2396.0</ele><time>2026-04-08T10:37:29.972Z</time></trkpt><trkpt lat="45.687863619191894" lon="6.910233995019351"><ele>2398.3333333333335</ele><time>2026-04-08T10:37:31.972Z</time></trkpt><trkpt lat="45.68780279885645" lon="6.910265573467626"><ele>2400.6666666666665</ele><time>2026-04-08T10:37:33.972Z</time></trkpt><trkpt lat="45.68771103337648" lon="6.910303830872644"><ele>2403.0</ele><time>2026-04-08T10:37:36.972Z</time></trkpt><trkpt lat="45.687632512909474" lon="6.910338998154123"><ele>2408.5</ele><time>2026-04-08T10:37:39.972Z</time></trkpt><trkpt lat="45.68756195427077" lon="6.910378460961341"><ele>2414.0</ele><time>2026-04-08T10:37:41.972Z</time></trkpt><trkpt lat="45.68747500605662" lon="6.910432247453486"><ele>2419.5</ele><time>2026-04-08T10:37:44.972Z</time></trkpt><trkpt lat="45.68738416634972" lon="6.91047853851093"><ele>2425.0</ele><time>2026-04-08T10:37:47.972Z</time></trkpt><trkpt lat="45.68732173975029" lon="6.910505995140776"><ele>2430.5</ele><time>2026-04-08T10:37:49.972Z</time></trkpt><trkpt lat="45.68725757293236" lon="6.910536861313477"><ele>2436.0</ele><time>2026-04-08T10:37:51.972Z</time></trkpt><trkpt lat="45.687198910243524" lon="6.910569825264733"><ele>2436.0</ele><time>2026-04-08T10:37:53.972Z</time></trkpt><trkpt lat="45.68712757351052" lon="6.910603116199618"><ele>2436.0</ele><time>2026-04-08T10:37:55.972Z</time></trkpt><trkpt lat="45.687062084465275" lon="6.910638871219869"><ele>2436.0</ele><time>2026-04-08T10:37:57.971Z</time></trkpt><trkpt lat="45.686978251218044" lon="6.910686631624695"><ele>2436.0</ele><time>2026-04-08T10:38:00.971Z</time></trkpt><trkpt lat="45.68688833096624" lon="6.910721170152793"><ele>2436.0</ele><time>2026-04-08T10:38:03.971Z</time></trkpt><trkpt lat="45.686830773860024" lon="6.910768320793623"><ele>2436.0</ele><time>2026-04-08T10:38:05.971Z</time></trkpt><trkpt lat="45.68674271424257" lon="6.910807455681904"><ele>2438.1428571428573</ele><time>2026-04-08T10:38:08.973Z</time></trkpt><trkpt lat="45.686679762463704" lon="6.910831449153938"><ele>2440.285714285714</ele><time>2026-04-08T10:38:10.973Z</time></trkpt><trkpt lat="45.6865922983055" lon="6.910877337614507"><ele>2442.4285714285716</ele><time>2026-04-08T10:38:13.973Z</time></trkpt><trkpt lat="45.68653045267445" lon="6.910911278679116"><ele>2444.5714285714284</ele><time>2026-04-08T10:38:15.973Z</time></trkpt><trkpt lat="45.686465796627786" lon="6.910940047981174"><ele>2446.714285714286</ele><time>2026-04-08T10:38:17.972Z</time></trkpt><trkpt lat="45.686402223537904" lon="6.910963001034817"><ele>2448.857142857143</ele><time>2026-04-08T10:38:19.973Z</time></trkpt><trkpt lat="45.68633691538596" lon="6.910984816655926"><ele>2451.0</ele><time>2026-04-08T10:38:21.973Z</time></trkpt><trkpt lat="45.68625324508192" lon="6.911023378448215"><ele>2454.6666666666665</ele><time>2026-04-08T10:38:24.973Z</time></trkpt><trkpt lat="45.68618480325488" lon="6.911055766895353"><ele>2458.3333333333335</ele><time>2026-04-08T10:38:26.973Z</time></trkpt><trkpt lat="45.68609876852251" lon="6.911114487147813"><ele>2462.0</ele><time>2026-04-08T10:38:29.973Z</time></trkpt><trkpt lat="45.68603639199345" lon="6.911140935207238"><ele>2465.666666666667</ele><time>2026-04-08T10:38:32.973Z</time></trkpt><trkpt lat="45.685957402479886" lon="6.911201840995859"><ele>2469.3333333333335</ele><time>2026-04-08T10:38:35.973Z</time></trkpt><trkpt lat="45.68589142475912" lon="6.911232518970628"><ele>2473.0</ele><time>2026-04-08T10:38:42.972Z</time></trkpt><trkpt lat="45.68586279131217" lon="6.911315761587047"><ele>2473.166666666667</ele><time>2026-04-08T10:38:57.972Z</time></trkpt><trkpt lat="45.68584786011576" lon="6.9114308400334705"><ele>2473.3333333333335</ele><time>2026-04-08T10:39:17.972Z</time></trkpt><trkpt lat="45.68582896530653" lon="6.911571713510622"><ele>2473.5</ele><time>2026-04-08T10:39:19.972Z</time></trkpt><trkpt lat="45.685781429461635" lon="6.911651321074269"><ele>2473.6666666666665</ele><time>2026-04-08T10:39:20.972Z</time></trkpt><trkpt lat="45.685748940450814" lon="6.911757390673029"><ele>2473.833333333333</ele><time>2026-04-08T10:39:21.972Z</time></trkpt><trkpt lat="45.68571796016689" lon="6.911898121736102"><ele>2474.0</ele><time>2026-04-08T10:39:22.972Z</time></trkpt><trkpt lat="45.68568625344726" lon="6.912030421799539"><ele>2470.5</ele><time>2026-04-08T10:39:23.972Z</time></trkpt><trkpt lat="45.685647194214184" lon="6.9121772540053765"><ele>2467.0</ele><time>2026-04-08T10:39:24.972Z</time></trkpt><trkpt lat="45.68561026223367" lon="6.912333363676718"><ele>2463.5</ele><time>2026-04-08T10:39:25.972Z</time></trkpt><trkpt lat="45.68557229571153" lon="6.912492724091835"><ele>2460.0</ele><time>2026-04-08T10:39:26.972Z</time></trkpt><trkpt lat="45.6855308721953" lon="6.912661813001679"><ele>2456.25</ele><time>2026-04-08T10:39:27.972Z</time></trkpt><trkpt lat="45.685494844444904" lon="6.912823885445891"><ele>2452.5</ele><time>2026-04-08T10:39:28.972Z</time></trkpt><trkpt lat="45.685452053012604" lon="6.912999953194205"><ele>2448.75</ele><time>2026-04-08T10:39:29.972Z</time></trkpt><trkpt lat="45.68540570841866" lon="6.91317745925807"><ele>2445.0</ele><time>2026-04-08T10:39:30.972Z</time></trkpt><trkpt lat="45.685368902965756" lon="6.913344914649697"><ele>2443.5</ele><time>2026-04-08T10:39:31.972Z</time></trkpt><trkpt lat="45.68533851371659" lon="6.913538492143323"><ele>2442.0</ele><time>2026-04-08T10:39:32.972Z</time></trkpt><trkpt lat="45.68532783529029" lon="6.9137310999982455"><ele>2440.5</ele><time>2026-04-08T10:39:33.972Z</time></trkpt><trkpt lat="45.685332636121764" lon="6.913899547654174"><ele>2439.0</ele><time>2026-04-08T10:39:34.972Z</time></trkpt><trkpt lat="45.685382110177024" lon="6.9140469973796925"><ele>2439.0</ele><time>2026-04-08T10:39:35.971Z</time></trkpt><trkpt lat="45.68543209184647" lon="6.914169675901415"><ele>2439.0</ele><time>2026-04-08T10:39:36.971Z</time></trkpt><trkpt lat="45.68548379596906" lon="6.914293953226224"><ele>2439.0</ele><time>2026-04-08T10:39:37.971Z</time></trkpt><trkpt lat="45.685529661785054" lon="6.914426058460311"><ele>2439.0</ele><time>2026-04-08T10:39:38.971Z</time></trkpt><trkpt lat="45.685582719654505" lon="6.914563256660137"><ele>2439.0</ele><time>2026-04-08T10:39:39.971Z</time></trkpt><trkpt lat="45.68564540199004" lon="6.914684686223117"><ele>2437.2</ele><time>2026-04-08T10:39:40.971Z</time></trkpt><trkpt lat="45.685708913453205" lon="6.914799755560553"><ele>2435.4</ele><time>2026-04-08T10:39:41.971Z</time></trkpt><trkpt lat="45.68578100365754" lon="6.914915854114429"><ele>2433.6</ele><time>2026-04-08T10:39:42.971Z</time></trkpt><trkpt lat="45.685859891383515" lon="6.915036925198307"><ele>2431.8</ele><time>2026-04-08T10:39:43.971Z</time></trkpt><trkpt lat="45.68593642074858" lon="6.915156310815683"><ele>2430.0</ele><time>2026-04-08T10:39:44.971Z</time></trkpt><trkpt lat="45.68600787038551" lon="6.915293371403004"><ele>2429.25</ele><time>2026-04-08T10:39:45.971Z</time></trkpt><trkpt lat="45.68606777000505" lon="6.91543534539656"><ele>2428.5</ele><time>2026-04-08T10:39:46.971Z</time></trkpt><trkpt lat="45.686125416543206" lon="6.915596100747173"><ele>2427.75</ele><time>2026-04-08T10:39:47.971Z</time></trkpt><trkpt lat="45.68618233027484" lon="6.915759232625361"><ele>2427.0</ele><time>2026-04-08T10:39:48.971Z</time></trkpt><trkpt lat="45.68623086081652" lon="6.915930857975245"><ele>2426.5</ele><time>2026-04-08T10:39:49.971Z</time></trkpt><trkpt lat="45.686273885299904" lon="6.916109957164494"><ele>2426.0</ele><time>2026-04-08T10:39:50.971Z</time></trkpt><trkpt lat="45.68630369733613" lon="6.916290249705848"><ele>2425.5</ele><time>2026-04-08T10:39:51.971Z</time></trkpt><trkpt lat="45.68632996278343" lon="6.916458011067552"><ele>2425.0</ele><time>2026-04-08T10:39:52.971Z</time></trkpt><trkpt lat="45.68634182115411" lon="6.91664259621557"><ele>2424.2</ele><time>2026-04-08T10:39:53.971Z</time></trkpt><trkpt lat="45.68633600741832" lon="6.916793366779334"><ele>2423.4</ele><time>2026-04-08T10:39:54.971Z</time></trkpt><trkpt lat="45.68631036140665" lon="6.916943445019063"><ele>2422.6</ele><time>2026-04-08T10:39:55.971Z</time></trkpt><trkpt lat="45.686315068342466" lon="6.917109015556366"><ele>2421.8</ele><time>2026-04-08T10:39:56.971Z</time></trkpt><trkpt lat="45.68633086933116" lon="6.917238091472639"><ele>2421.0</ele><time>2026-04-08T10:39:57.971Z</time></trkpt><trkpt lat="45.686346250341614" lon="6.917353913458638"><ele>2421.0</ele><time>2026-04-08T10:39:58.971Z</time></trkpt><trkpt lat="45.68637643869817" lon="6.917502389670829"><ele>2421.0</ele><time>2026-04-08T10:39:59.971Z</time></trkpt><trkpt lat="45.686388217306785" lon="6.917617860731578"><ele>2421.0</ele><time>2026-04-08T10:40:00.971Z</time></trkpt><trkpt lat="45.68640305103851" lon="6.917719808653716"><ele>2421.0</ele><time>2026-04-08T10:40:01.971Z</time></trkpt><trkpt lat="45.68641614367797" lon="6.917813933648043"><ele>2421.0</ele><time>2026-04-08T10:40:02.971Z</time></trkpt><trkpt lat="45.686438115869215" lon="6.917976833531177"><ele>2421.0</ele><time>2026-04-08T10:40:04.971Z</time></trkpt><trkpt lat="45.68645202384563" lon="6.918067241543726"><ele>2419.5</ele><time>2026-04-08T10:40:05.971Z</time></trkpt><trkpt lat="45.68646658161771" lon="6.918156687714186"><ele>2418.0</ele><time>2026-04-08T10:40:06.971Z</time></trkpt><trkpt lat="45.686480526795194" lon="6.918313377995968"><ele>2416.5</ele><time>2026-04-08T10:40:08.971Z</time></trkpt><trkpt lat="45.68647845072161" lon="6.918464133869285"><ele>2415.0</ele><time>2026-04-08T10:40:10.971Z</time></trkpt><trkpt lat="45.6864791592698" lon="6.918559150141879"><ele>2413.5</ele><time>2026-04-08T10:40:11.971Z</time></trkpt><trkpt lat="45.68647578572482" lon="6.918684822804675"><ele>2412.0</ele><time>2026-04-08T10:40:13.972Z</time></trkpt><trkpt lat="45.68649016876292" lon="6.918817294706673"><ele>2411.6666666666665</ele><time>2026-04-08T10:40:15.972Z</time></trkpt><trkpt lat="45.68648266680128" lon="6.918937486119084"><ele>2411.3333333333335</ele><time>2026-04-08T10:40:17.972Z</time></trkpt><trkpt lat="45.68648039775685" lon="6.919054386616032"><ele>2411.0</ele><time>2026-04-08T10:40:19.971Z</time></trkpt><trkpt lat="45.68646875450041" lon="6.919151725479625"><ele>2410.666666666667</ele><time>2026-04-08T10:40:21.971Z</time></trkpt><trkpt lat="45.68647654091003" lon="6.919280102996274"><ele>2410.3333333333335</ele><time>2026-04-08T10:40:23.971Z</time></trkpt><trkpt lat="45.68649610296247" lon="6.919422992399828"><ele>2410.0</ele><time>2026-04-08T10:40:25.972Z</time></trkpt><trkpt lat="45.68653159889589" lon="6.919594282023395"><ele>2408.714285714286</ele><time>2026-04-08T10:40:27.972Z</time></trkpt><trkpt lat="45.68655644015053" lon="6.919686883921619"><ele>2407.4285714285716</ele><time>2026-04-08T10:40:28.972Z</time></trkpt><trkpt lat="45.68659758163917" lon="6.919776382835624"><ele>2406.142857142857</ele><time>2026-04-08T10:40:29.972Z</time></trkpt><trkpt lat="45.686617454616126" lon="6.919883033064277"><ele>2404.857142857143</ele><time>2026-04-08T10:40:30.972Z</time></trkpt><trkpt lat="45.68666349410311" lon="6.9199646852814025"><ele>2403.5714285714284</ele><time>2026-04-08T10:40:31.972Z</time></trkpt><trkpt lat="45.68670243131228" lon="6.920037206304252"><ele>2402.285714285714</ele><time>2026-04-08T10:40:32.972Z</time></trkpt><trkpt lat="45.68674810888993" lon="6.920111797533484"><ele>2401.0</ele><time>2026-04-08T10:40:33.972Z</time></trkpt><trkpt lat="45.68680252619673" lon="6.920176991436706"><ele>2399.166666666667</ele><time>2026-04-08T10:40:34.972Z</time></trkpt><trkpt lat="45.68685965798994" lon="6.920235754800336"><ele>2397.3333333333335</ele><time>2026-04-08T10:40:35.972Z</time></trkpt><trkpt lat="45.686923610046655" lon="6.920287597841555"><ele>2395.5</ele><time>2026-04-08T10:40:36.972Z</time></trkpt><trkpt lat="45.68698573528409" lon="6.920330217743843"><ele>2393.6666666666665</ele><time>2026-04-08T10:40:37.972Z</time></trkpt><trkpt lat="45.68705759938059" lon="6.920381664965867"><ele>2391.833333333333</ele><time>2026-04-08T10:40:38.972Z</time></trkpt><trkpt lat="45.687155029535454" lon="6.920451820567752"><ele>2390.0</ele><time>2026-04-08T10:40:39.972Z</time></trkpt><trkpt lat="45.68723612781441" lon="6.920527499423677"><ele>2390.0</ele><time>2026-04-08T10:40:40.972Z</time></trkpt><trkpt lat="45.687331783207156" lon="6.920631175427675"><ele>2390.0</ele><time>2026-04-08T10:40:41.972Z</time></trkpt><trkpt lat="45.68741912876636" lon="6.920752706271446"><ele>2390.0</ele><time>2026-04-08T10:40:42.971Z</time></trkpt><trkpt lat="45.68747756428086" lon="6.920845596891324"><ele>2390.0</ele><time>2026-04-08T10:40:43.971Z</time></trkpt><trkpt lat="45.687531163140754" lon="6.920930798929133"><ele>2390.0</ele><time>2026-04-08T10:40:44.971Z</time></trkpt><trkpt lat="45.687595425646144" lon="6.921033373675497"><ele>2391.333333333333</ele><time>2026-04-08T10:40:45.971Z</time></trkpt><trkpt lat="45.68764711541767" lon="6.921121143574989"><ele>2392.6666666666665</ele><time>2026-04-08T10:40:46.971Z</time></trkpt><trkpt lat="45.687734865253915" lon="6.9212566593046185"><ele>2394.0</ele><time>2026-04-08T10:40:48.971Z</time></trkpt><trkpt lat="45.68790845296447" lon="6.921665249990927"><ele>2393.0</ele><time>2026-04-08T10:40:49.971Z</time></trkpt><trkpt lat="45.68792391145849" lon="6.921814284116189"><ele>2392.0</ele><time>2026-04-08T10:40:51.971Z</time></trkpt><trkpt lat="45.68795258061926" lon="6.92189954183886"><ele>2391.0</ele><time>2026-04-08T10:40:58.971Z</time></trkpt><trkpt lat="45.68798162452872" lon="6.9219799246319935"><ele>2390.0</ele><time>2026-04-08T10:41:16.971Z</time></trkpt><trkpt lat="45.68801280128929" lon="6.9220634749616865"><ele>2389.0</ele><time>2026-04-08T10:41:32.971Z</time></trkpt><trkpt lat="45.68804338753578" lon="6.922150010638734"><ele>2388.0</ele><time>2026-04-08T10:41:47.97Z</time></trkpt><trkpt lat="45.688066877570606" lon="6.922236282692629"><ele>2387.0</ele><time>2026-04-08T10:41:58.97Z</time></trkpt><trkpt lat="45.68808783114513" lon="6.922326486698192"><ele>2387.0</ele><time>2026-04-08T10:42:18.97Z</time></trkpt><trkpt lat="45.688113070497366" lon="6.922417903184373"><ele>2387.0</ele><time>2026-04-08T10:42:25.97Z</time></trkpt><trkpt lat="45.6882294053329" lon="6.922462466011774"><ele>2387.0</ele><time>2026-04-08T10:42:31.97Z</time></trkpt><trkpt lat="45.68830694489684" lon="6.9225062544718154"><ele>2387.0</ele><time>2026-04-08T10:42:35.97Z</time></trkpt><trkpt lat="45.68835861540975" lon="6.9225599176910295"><ele>2387.0</ele><time>2026-04-08T10:42:38.97Z</time></trkpt><trkpt lat="45.688419563137536" lon="6.922528708554104"><ele>2387.0</ele><time>2026-04-08T10:42:40.97Z</time></trkpt><trkpt lat="45.6885099877643" lon="6.922539221249517"><ele>2385.5</ele><time>2026-04-08T10:42:43.97Z</time></trkpt><trkpt lat="45.68859407127046" lon="6.922537219720559"><ele>2384.0</ele><time>2026-04-08T10:42:46.97Z</time></trkpt><trkpt lat="45.68865599873947" lon="6.922520276354645"><ele>2382.5</ele><time>2026-04-08T10:42:50.97Z</time></trkpt><trkpt lat="45.688716772252455" lon="6.92246838739131"><ele>2381.0</ele><time>2026-04-08T10:43:05.969Z</time></trkpt><trkpt lat="45.68878198229502" lon="6.922404626317322"><ele>2379.5</ele><time>2026-04-08T10:43:09.969Z</time></trkpt><trkpt lat="45.68887257690933" lon="6.922319591137388"><ele>2378.0</ele><time>2026-04-08T10:43:12.969Z</time></trkpt><trkpt lat="45.68893921594013" lon="6.922276561054603"><ele>2378.0</ele><time>2026-04-08T10:43:13.969Z</time></trkpt><trkpt lat="45.689077285559314" lon="6.922252631099284"><ele>2378.0</ele><time>2026-04-08T10:43:14.969Z</time></trkpt><trkpt lat="45.68914345538789" lon="6.92227631534846"><ele>2378.0</ele><time>2026-04-08T10:43:15.969Z</time></trkpt><trkpt lat="45.68920670749587" lon="6.922302402249317"><ele>2378.0</ele><time>2026-04-08T10:43:16.969Z</time></trkpt><trkpt lat="45.689274251460986" lon="6.922332792160877"><ele>2378.0</ele><time>2026-04-08T10:43:17.969Z</time></trkpt><trkpt lat="45.68934124190904" lon="6.922365265536423"><ele>2378.0</ele><time>2026-04-08T10:43:18.969Z</time></trkpt><trkpt lat="45.68940887969944" lon="6.922398052654806"><ele>2377.2000000000003</ele><time>2026-04-08T10:43:19.969Z</time></trkpt><trkpt lat="45.68947060748926" lon="6.922427032249948"><ele>2376.4</ele><time>2026-04-08T10:43:20.969Z</time></trkpt><trkpt lat="45.68954185871703" lon="6.922464186327913"><ele>2375.6000000000004</ele><time>2026-04-08T10:43:21.969Z</time></trkpt><trkpt lat="45.68961476113729" lon="6.922581637912341"><ele>2374.8</ele><time>2026-04-08T10:43:22.969Z</time></trkpt><trkpt lat="45.68967609662689" lon="6.922698500843287"><ele>2374.0</ele><time>2026-04-08T10:43:24.969Z</time></trkpt><trkpt lat="45.68976562045456" lon="6.922751842241443"><ele>2370.3333333333335</ele><time>2026-04-08T10:43:26.969Z</time></trkpt><trkpt lat="45.689877558843975" lon="6.922789759479879"><ele>2366.666666666667</ele><time>2026-04-08T10:43:28.969Z</time></trkpt><trkpt lat="45.68996676931482" lon="6.922814807680216"><ele>2363.0</ele><time>2026-04-08T10:43:30.969Z</time></trkpt><trkpt lat="45.690032818153135" lon="6.922811962046372"><ele>2359.3333333333335</ele><time>2026-04-08T10:43:32.969Z</time></trkpt><trkpt lat="45.69010068383809" lon="6.922803698169413"><ele>2355.6666666666665</ele><time>2026-04-08T10:43:34.969Z</time></trkpt><trkpt lat="45.69017077224392" lon="6.922751815245666"><ele>2352.0</ele><time>2026-04-08T10:43:37.969Z</time></trkpt><trkpt lat="45.69025569461715" lon="6.9226904419078785"><ele>2353.3333333333335</ele><time>2026-04-08T10:43:39.969Z</time></trkpt><trkpt lat="45.69035186315025" lon="6.922634811682295"><ele>2354.6666666666665</ele><time>2026-04-08T10:43:41.969Z</time></trkpt><trkpt lat="45.69047112061879" lon="6.922576248716651"><ele>2356.0</ele><time>2026-04-08T10:43:43.969Z</time></trkpt><trkpt lat="45.69054025378786" lon="6.922548828470566"><ele>2357.333333333333</ele><time>2026-04-08T10:43:44.969Z</time></trkpt><trkpt lat="45.69060595090088" lon="6.922531454493978"><ele>2358.6666666666665</ele><time>2026-04-08T10:43:45.969Z</time></trkpt><trkpt lat="45.690675309588705" lon="6.922523045443208"><ele>2360.0</ele><time>2026-04-08T10:43:46.969Z</time></trkpt><trkpt lat="45.69075088762893" lon="6.9225266777011205"><ele>2360.0</ele><time>2026-04-08T10:43:47.969Z</time></trkpt><trkpt lat="45.69082283496964" lon="6.922544815301017"><ele>2360.0</ele><time>2026-04-08T10:43:48.969Z</time></trkpt><trkpt lat="45.69089026571075" lon="6.9225802582170965"><ele>2360.0</ele><time>2026-04-08T10:43:49.969Z</time></trkpt><trkpt lat="45.69095181996878" lon="6.922643260476095"><ele>2360.0</ele><time>2026-04-08T10:43:50.969Z</time></trkpt><trkpt lat="45.691000116378625" lon="6.922708223997425"><ele>2360.0</ele><time>2026-04-08T10:43:51.969Z</time></trkpt><trkpt lat="45.691103901814806" lon="6.922819734121125"><ele>2360.0</ele><time>2026-04-08T10:43:53.969Z</time></trkpt><trkpt lat="45.691145872330836" lon="6.922889725010214"><ele>2359.333333333333</ele><time>2026-04-08T10:43:54.969Z</time></trkpt><trkpt lat="45.691187477680856" lon="6.92297635984392"><ele>2358.6666666666665</ele><time>2026-04-08T10:43:55.968Z</time></trkpt><trkpt lat="45.691219964830424" lon="6.923072994923434"><ele>2358.0</ele><time>2026-04-08T10:43:56.968Z</time></trkpt><trkpt lat="45.69125138357201" lon="6.92317086038372"><ele>2357.3333333333335</ele><time>2026-04-08T10:43:57.968Z</time></trkpt><trkpt lat="45.69128195151325" lon="6.923285366666258"><ele>2356.666666666667</ele><time>2026-04-08T10:43:58.968Z</time></trkpt><trkpt lat="45.69131005875036" lon="6.923398606621181"><ele>2356.0</ele><time>2026-04-08T10:43:59.968Z</time></trkpt><trkpt lat="45.69133182221117" lon="6.923500144377711"><ele>2354.166666666667</ele><time>2026-04-08T10:44:00.968Z</time></trkpt><trkpt lat="45.69134977703517" lon="6.92360548685037"><ele>2352.3333333333335</ele><time>2026-04-08T10:44:01.968Z</time></trkpt><trkpt lat="45.69137853807855" lon="6.923771161711316"><ele>2350.5</ele><time>2026-04-08T10:44:03.968Z</time></trkpt><trkpt lat="45.69140993314534" lon="6.923913148295187"><ele>2348.6666666666665</ele><time>2026-04-08T10:44:05.968Z</time></trkpt><trkpt lat="45.69143315372793" lon="6.924006371151697"><ele>2346.833333333333</ele><time>2026-04-08T10:44:07.968Z</time></trkpt><trkpt lat="45.69145311263624" lon="6.924105858627689"><ele>2345.0</ele><time>2026-04-08T10:44:09.968Z</time></trkpt><trkpt lat="45.6914619068329" lon="6.924206653810538"><ele>2342.6666666666665</ele><time>2026-04-08T10:44:11.968Z</time></trkpt><trkpt lat="45.69148177695219" lon="6.924295179985057"><ele>2340.333333333333</ele><time>2026-04-08T10:44:13.968Z</time></trkpt><trkpt lat="45.69151301259204" lon="6.924390483040089"><ele>2338.0</ele><time>2026-04-08T10:44:15.968Z</time></trkpt><trkpt lat="45.691538418988074" lon="6.924512781562988"><ele>2335.6666666666665</ele><time>2026-04-08T10:44:17.968Z</time></trkpt><trkpt lat="45.69158409624254" lon="6.924633622285647"><ele>2333.3333333333335</ele><time>2026-04-08T10:44:19.968Z</time></trkpt><trkpt lat="45.69163841158894" lon="6.924731150147099"><ele>2331.0</ele><time>2026-04-08T10:44:21.968Z</time></trkpt><trkpt lat="45.69168480533072" lon="6.924810394744552"><ele>2331.0</ele><time>2026-04-08T10:44:23.968Z</time></trkpt><trkpt lat="45.691730619164744" lon="6.924887407233788"><ele>2331.0</ele><time>2026-04-08T10:44:25.969Z</time></trkpt><trkpt lat="45.691779479582394" lon="6.9249726306397585"><ele>2331.0</ele><time>2026-04-08T10:44:27.969Z</time></trkpt><trkpt lat="45.69183769986497" lon="6.925051606653824"><ele>2331.0</ele><time>2026-04-08T10:44:29.969Z</time></trkpt><trkpt lat="45.69190878615624" lon="6.925111071677959"><ele>2331.0</ele><time>2026-04-08T10:44:31.969Z</time></trkpt><trkpt lat="45.69197588705943" lon="6.925162281073078"><ele>2331.0</ele><time>2026-04-08T10:44:33.969Z</time></trkpt><trkpt lat="45.69204497516933" lon="6.925186574667209"><ele>2329.2</ele><time>2026-04-08T10:44:35.969Z</time></trkpt><trkpt lat="45.69209443175735" lon="6.925108997926234"><ele>2327.3999999999996</ele><time>2026-04-08T10:44:45.961Z</time></trkpt><trkpt lat="45.692129602268906" lon="6.925019022799064"><ele>2325.6</ele><time>2026-04-08T10:44:47.958Z</time></trkpt><trkpt lat="45.69218341040273" lon="6.924912154492228"><ele>2323.7999999999997</ele><time>2026-04-08T10:44:49.956Z</time></trkpt><trkpt lat="45.69224859921824" lon="6.924773640071308"><ele>2322.0</ele><time>2026-04-08T10:44:52.953Z</time></trkpt><trkpt lat="45.692327501191166" lon="6.9246598772212975"><ele>2322.0</ele><time>2026-04-08T10:44:54.951Z</time></trkpt><trkpt lat="45.69243363598425" lon="6.924665894747481"><ele>2322.0</ele><time>2026-04-08T10:44:56.949Z</time></trkpt><trkpt lat="45.692506740162955" lon="6.924685682878111"><ele>2322.0</ele><time>2026-04-08T10:44:57.949Z</time></trkpt><trkpt lat="45.69257101774709" lon="6.924693948252432"><ele>2322.0</ele><time>2026-04-08T10:44:58.948Z</time></trkpt><trkpt lat="45.69264483952782" lon="6.924714315764238"><ele>2322.0</ele><time>2026-04-08T10:44:59.947Z</time></trkpt><trkpt lat="45.69272341032736" lon="6.92472956327141"><ele>2322.0</ele><time>2026-04-08T10:45:00.947Z</time></trkpt><trkpt lat="45.69279547544556" lon="6.924761230879893"><ele>2323.0</ele><time>2026-04-08T10:45:01.946Z</time></trkpt><trkpt lat="45.69287409471916" lon="6.924805904939012"><ele>2324.0</ele><time>2026-04-08T10:45:02.946Z</time></trkpt><trkpt lat="45.69295263902486" lon="6.9248824586511475"><ele>2325.0</ele><time>2026-04-08T10:45:03.945Z</time></trkpt><trkpt lat="45.69300047186718" lon="6.924970217875229"><ele>2326.0</ele><time>2026-04-08T10:45:04.945Z</time></trkpt><trkpt lat="45.693034560709435" lon="6.925058594911496"><ele>2327.0</ele><time>2026-04-08T10:45:05.944Z</time></trkpt><trkpt lat="45.693056865521505" lon="6.925147109836873"><ele>2328.0</ele><time>2026-04-08T10:45:06.944Z</time></trkpt><trkpt lat="45.693093645744824" lon="6.925294319883177"><ele>2325.8333333333335</ele><time>2026-04-08T10:45:08.943Z</time></trkpt><trkpt lat="45.69315721261196" lon="6.925424617828997"><ele>2323.6666666666665</ele><time>2026-04-08T10:45:10.943Z</time></trkpt><trkpt lat="45.69320261226749" lon="6.92549851143882"><ele>2321.5</ele><time>2026-04-08T10:45:12.942Z</time></trkpt><trkpt lat="45.69328226397777" lon="6.925421962588664"><ele>2319.333333333333</ele><time>2026-04-08T10:46:53.937Z</time></trkpt><trkpt lat="45.6933460414925" lon="6.9254616503625455"><ele>2317.1666666666665</ele><time>2026-04-08T10:51:18.926Z</time></trkpt><trkpt lat="45.693284576169724" lon="6.9254159369932164"><ele>2315.0</ele><time>2026-04-08T11:02:05.911Z</time></trkpt><trkpt lat="45.69321395502296" lon="6.925599830309311"><ele>2315.0</ele><time>2026-04-08T11:08:30.911Z</time></trkpt><trkpt lat="45.69325072487956" lon="6.9256932689597965"><ele>2315.0</ele><time>2026-04-08T11:08:38.91Z</time></trkpt><trkpt lat="45.69327208714105" lon="6.925789878693831"><ele>2315.0</ele><time>2026-04-08T11:08:41.91Z</time></trkpt><trkpt lat="45.69331097126674" lon="6.9258787190347535"><ele>2315.0</ele><time>2026-04-08T11:08:44.91Z</time></trkpt><trkpt lat="45.6933507382069" lon="6.925980902534496"><ele>2315.0</ele><time>2026-04-08T11:08:47.91Z</time></trkpt><trkpt lat="45.6933965138463" lon="6.92607058183"><ele>2315.0</ele><time>2026-04-08T11:08:50.91Z</time></trkpt><trkpt lat="45.693436616950166" lon="6.92617102027876"><ele>2315.4285714285716</ele><time>2026-04-08T11:08:53.91Z</time></trkpt><trkpt lat="45.69348019878125" lon="6.926263886957806"><ele>2315.857142857143</ele><time>2026-04-08T11:08:56.91Z</time></trkpt><trkpt lat="45.69352670875265" lon="6.926343262188059"><ele>2316.2857142857147</ele><time>2026-04-08T11:08:59.91Z</time></trkpt><trkpt lat="45.69357655482287" lon="6.926426146985771"><ele>2316.714285714286</ele><time>2026-04-08T11:09:02.91Z</time></trkpt><trkpt lat="45.6936270938311" lon="6.926506986649701"><ele>2317.1428571428573</ele><time>2026-04-08T11:09:05.91Z</time></trkpt><trkpt lat="45.69366362263196" lon="6.926589790409615"><ele>2317.571428571429</ele><time>2026-04-08T11:09:07.91Z</time></trkpt><trkpt lat="45.69368053218946" lon="6.926696473750543"><ele>2318.0</ele><time>2026-04-08T11:09:10.91Z</time></trkpt><trkpt lat="45.69370722997206" lon="6.926806245933314"><ele>2315.2000000000003</ele><time>2026-04-08T11:09:12.91Z</time></trkpt><trkpt lat="45.69373761637287" lon="6.926937054087497"><ele>2312.4</ele><time>2026-04-08T11:09:14.91Z</time></trkpt><trkpt lat="45.69377101570548" lon="6.927078455947697"><ele>2309.6000000000004</ele><time>2026-04-08T11:09:16.909Z</time></trkpt><trkpt lat="45.69379071466269" lon="6.927224897986776"><ele>2306.8</ele><time>2026-04-08T11:09:18.909Z</time></trkpt><trkpt lat="45.69379828997399" lon="6.927394044437247"><ele>2304.0</ele><time>2026-04-08T11:09:20.909Z</time></trkpt><trkpt lat="45.69382449334082" lon="6.927582648419232"><ele>2303.2857142857147</ele><time>2026-04-08T11:09:22.909Z</time></trkpt><trkpt lat="45.693847100830396" lon="6.92767518470595"><ele>2302.5714285714284</ele><time>2026-04-08T11:09:23.909Z</time></trkpt><trkpt lat="45.69387079061663" lon="6.927770528207271"><ele>2301.857142857143</ele><time>2026-04-08T11:09:24.909Z</time></trkpt><trkpt lat="45.693891381246765" lon="6.92785933265687"><ele>2301.1428571428573</ele><time>2026-04-08T11:09:25.909Z</time></trkpt><trkpt lat="45.693915444472566" lon="6.927949270818997"><ele>2300.4285714285716</ele><time>2026-04-08T11:09:26.909Z</time></trkpt><trkpt lat="45.69393822602535" lon="6.92804017697051"><ele>2299.714285714286</ele><time>2026-04-08T11:09:27.909Z</time></trkpt><trkpt lat="45.69396230894528" lon="6.9281289505508274"><ele>2299.0</ele><time>2026-04-08T11:09:28.909Z</time></trkpt><trkpt lat="45.69398337027689" lon="6.928222170039564"><ele>2299.0</ele><time>2026-04-08T11:09:29.909Z</time></trkpt><trkpt lat="45.694006189131244" lon="6.9283137768352185"><ele>2299.0</ele><time>2026-04-08T11:09:30.909Z</time></trkpt><trkpt lat="45.69403139917198" lon="6.928402772223901"><ele>2299.0</ele><time>2026-04-08T11:09:31.909Z</time></trkpt><trkpt lat="45.69408327269668" lon="6.92855771297631"><ele>2299.0</ele><time>2026-04-08T11:09:33.909Z</time></trkpt><trkpt lat="45.694108135048694" lon="6.92864228110953"><ele>2299.0</ele><time>2026-04-08T11:09:34.909Z</time></trkpt><trkpt lat="45.694121518080465" lon="6.928732347123784"><ele>2299.0</ele><time>2026-04-08T11:09:35.909Z</time></trkpt><trkpt lat="45.694161668411525" lon="6.928889974615907"><ele>2297.8333333333335</ele><time>2026-04-08T11:09:37.909Z</time></trkpt><trkpt lat="45.694209927935944" lon="6.928953872908436"><ele>2296.666666666667</ele><time>2026-04-08T11:09:38.909Z</time></trkpt><trkpt lat="45.694255760991005" lon="6.929032026457639"><ele>2295.5</ele><time>2026-04-08T11:09:39.908Z</time></trkpt><trkpt lat="45.69430173128532" lon="6.929127265509375"><ele>2294.3333333333335</ele><time>2026-04-08T11:09:40.908Z</time></trkpt><trkpt lat="45.6943472985736" lon="6.929223491453238"><ele>2293.1666666666665</ele><time>2026-04-08T11:09:41.908Z</time></trkpt><trkpt lat="45.69438424192898" lon="6.929327787281517"><ele>2292.0</ele><time>2026-04-08T11:09:42.908Z</time></trkpt><trkpt lat="45.69441133907603" lon="6.92944321433332"><ele>2291.1428571428573</ele><time>2026-04-08T11:09:43.909Z</time></trkpt><trkpt lat="45.694434560582174" lon="6.929538722982723"><ele>2290.2857142857147</ele><time>2026-04-08T11:09:44.909Z</time></trkpt><trkpt lat="45.69448918056471" lon="6.9296228874011"><ele>2289.4285714285716</ele><time>2026-04-08T11:09:45.908Z</time></trkpt><trkpt lat="45.69449899539484" lon="6.929721315331723"><ele>2288.5714285714284</ele><time>2026-04-08T11:09:46.908Z</time></trkpt><trkpt lat="45.69451444641522" lon="6.929823235838268"><ele>2287.7142857142853</ele><time>2026-04-08T11:09:47.908Z</time></trkpt><trkpt lat="45.69453539473644" lon="6.929918205225562"><ele>2286.8571428571427</ele><time>2026-04-08T11:09:48.908Z</time></trkpt><trkpt lat="45.694565714794585" lon="6.930012478464087"><ele>2286.0</ele><time>2026-04-08T11:09:49.908Z</time></trkpt><trkpt lat="45.69462897211486" lon="6.930188445164682"><ele>2284.3333333333335</ele><time>2026-04-08T11:09:51.908Z</time></trkpt><trkpt lat="45.694660753737296" lon="6.930271273348565"><ele>2282.6666666666665</ele><time>2026-04-08T11:09:52.908Z</time></trkpt><trkpt lat="45.694701096709004" lon="6.93042004193865"><ele>2281.0</ele><time>2026-04-08T11:09:54.908Z</time></trkpt><trkpt lat="45.69474486419616" lon="6.930507234511895"><ele>2279.333333333333</ele><time>2026-04-08T11:10:05.908Z</time></trkpt><trkpt lat="45.6947788631465" lon="6.930605630092557"><ele>2277.6666666666665</ele><time>2026-04-08T11:10:07.908Z</time></trkpt><trkpt lat="45.69479801841308" lon="6.930737694647593"><ele>2276.0</ele><time>2026-04-08T11:10:09.908Z</time></trkpt><trkpt lat="45.69480798863513" lon="6.930827651460238"><ele>2274.5</ele><time>2026-04-08T11:10:10.908Z</time></trkpt><trkpt lat="45.694819667124044" lon="6.930921358501027"><ele>2273.0</ele><time>2026-04-08T11:10:11.908Z</time></trkpt><trkpt lat="45.694872117636585" lon="6.931072069563387"><ele>2271.5</ele><time>2026-04-08T11:10:13.908Z</time></trkpt><trkpt lat="45.69489523830925" lon="6.931162240498298"><ele>2270.0</ele><time>2026-04-08T11:10:14.907Z</time></trkpt><trkpt lat="45.694913611167514" lon="6.9312642913022104"><ele>2268.5</ele><time>2026-04-08T11:10:15.907Z</time></trkpt><trkpt lat="45.69503390078881" lon="6.931287679965764"><ele>2267.0</ele><time>2026-04-08T11:10:16.907Z</time></trkpt><trkpt lat="45.69494306378453" lon="6.931548287942859"><ele>2267.0</ele><time>2026-04-08T11:10:17.907Z</time></trkpt><trkpt lat="45.694976258350266" lon="6.931688443072699"><ele>2267.0</ele><time>2026-04-08T11:10:18.907Z</time></trkpt><trkpt lat="45.695023525544066" lon="6.931799994239148"><ele>2267.0</ele><time>2026-04-08T11:10:19.907Z</time></trkpt><trkpt lat="45.695079574925764" lon="6.931905292135052"><ele>2267.0</ele><time>2026-04-08T11:10:20.907Z</time></trkpt><trkpt lat="45.69513088079663" lon="6.932002885251555"><ele>2267.0</ele><time>2026-04-08T11:10:21.907Z</time></trkpt><trkpt lat="45.6951794879578" lon="6.932086153754681"><ele>2267.0</ele><time>2026-04-08T11:10:22.907Z</time></trkpt><trkpt lat="45.69522554209218" lon="6.932173871140593"><ele>2265.333333333333</ele><time>2026-04-08T11:10:23.907Z</time></trkpt><trkpt lat="45.69527041502236" lon="6.932261235665225"><ele>2263.6666666666665</ele><time>2026-04-08T11:10:24.907Z</time></trkpt><trkpt lat="45.695324829633776" lon="6.932344368194874"><ele>2262.0</ele><time>2026-04-08T11:10:25.907Z</time></trkpt><trkpt lat="45.69538559784803" lon="6.932420186902542"><ele>2260.3333333333335</ele><time>2026-04-08T11:10:26.907Z</time></trkpt><trkpt lat="45.69544974509114" lon="6.9325121775109535"><ele>2258.666666666667</ele><time>2026-04-08T11:10:27.907Z</time></trkpt><trkpt lat="45.69550698456413" lon="6.932591062597558"><ele>2257.0</ele><time>2026-04-08T11:10:28.907Z</time></trkpt><trkpt lat="45.695559396468354" lon="6.932653135296338"><ele>2256.1428571428573</ele><time>2026-04-08T11:10:29.907Z</time></trkpt><trkpt lat="45.695621517542484" lon="6.932710912374548"><ele>2255.2857142857147</ele><time>2026-04-08T11:10:30.907Z</time></trkpt><trkpt lat="45.69566838844414" lon="6.932788393564598"><ele>2254.4285714285716</ele><time>2026-04-08T11:10:31.907Z</time></trkpt><trkpt lat="45.695694041079086" lon="6.932878915283122"><ele>2253.5714285714284</ele><time>2026-04-08T11:10:32.907Z</time></trkpt><trkpt lat="45.6957170513786" lon="6.932978341269295"><ele>2252.7142857142853</ele><time>2026-04-08T11:10:33.907Z</time></trkpt><trkpt lat="45.69574598416288" lon="6.933065316853438"><ele>2251.8571428571427</ele><time>2026-04-08T11:10:34.907Z</time></trkpt><trkpt lat="45.69578272496557" lon="6.933154800539582"><ele>2251.0</ele><time>2026-04-08T11:10:35.907Z</time></trkpt><trkpt lat="45.69582368795209" lon="6.933245123621406"><ele>2251.0</ele><time>2026-04-08T11:10:36.907Z</time></trkpt><trkpt lat="45.69587325781496" lon="6.933322436068962"><ele>2251.0</ele><time>2026-04-08T11:10:37.907Z</time></trkpt><trkpt lat="45.69593453990998" lon="6.933391934410203"><ele>2251.0</ele><time>2026-04-08T11:10:38.907Z</time></trkpt><trkpt lat="45.69600052038125" lon="6.933453191634136"><ele>2251.0</ele><time>2026-04-08T11:10:39.907Z</time></trkpt><trkpt lat="45.696062525026974" lon="6.933516641432965"><ele>2251.0</ele><time>2026-04-08T11:10:40.907Z</time></trkpt><trkpt lat="45.69611870663281" lon="6.933586523715997"><ele>2251.0</ele><time>2026-04-08T11:10:41.907Z</time></trkpt><trkpt lat="45.69617388510929" lon="6.933669344812682"><ele>2249.3333333333335</ele><time>2026-04-08T11:10:42.907Z</time></trkpt><trkpt lat="45.6962203315581" lon="6.933753344963825"><ele>2247.666666666667</ele><time>2026-04-08T11:10:43.907Z</time></trkpt><trkpt lat="45.696263958442756" lon="6.933837145478661"><ele>2246.0</ele><time>2026-04-08T11:10:44.907Z</time></trkpt><trkpt lat="45.696310844797644" lon="6.93391933253493"><ele>2244.3333333333335</ele><time>2026-04-08T11:10:45.907Z</time></trkpt><trkpt lat="45.69635743773007" lon="6.934003614407586"><ele>2242.6666666666665</ele><time>2026-04-08T11:10:46.907Z</time></trkpt><trkpt lat="45.696383502353925" lon="6.934097443386602"><ele>2241.0</ele><time>2026-04-08T11:10:47.907Z</time></trkpt><trkpt lat="45.696403301267175" lon="6.934266672366003"><ele>2238.6666666666665</ele><time>2026-04-08T11:10:49.907Z</time></trkpt><trkpt lat="45.6964625646187" lon="6.934320140305598"><ele>2236.3333333333335</ele><time>2026-04-08T11:10:50.907Z</time></trkpt><trkpt lat="45.69651215385307" lon="6.934383814235988"><ele>2234.0</ele><time>2026-04-08T11:10:51.907Z</time></trkpt><trkpt lat="45.696557341435344" lon="6.934475445289441"><ele>2231.666666666667</ele><time>2026-04-08T11:10:52.907Z</time></trkpt><trkpt lat="45.69660535362734" lon="6.93456290269534"><ele>2229.3333333333335</ele><time>2026-04-08T11:10:53.907Z</time></trkpt><trkpt lat="45.69663782634324" lon="6.934656549608616"><ele>2227.0</ele><time>2026-04-08T11:10:54.907Z</time></trkpt><trkpt lat="45.69662330248398" lon="6.934817196584955"><ele>2227.0</ele><time>2026-04-08T11:10:56.906Z</time></trkpt><trkpt lat="45.69668005268227" lon="6.934947717731367"><ele>2227.0</ele><time>2026-04-08T11:10:58.906Z</time></trkpt><trkpt lat="45.696746006723906" lon="6.9350983649258975"><ele>2227.0</ele><time>2026-04-08T11:11:00.906Z</time></trkpt><trkpt lat="45.696745260320924" lon="6.935239164381162"><ele>2227.0</ele><time>2026-04-08T11:11:02.906Z</time></trkpt><trkpt lat="45.69677352641064" lon="6.935364431606109"><ele>2227.0</ele><time>2026-04-08T11:11:04.906Z</time></trkpt><trkpt lat="45.69684852182855" lon="6.935490690218618"><ele>2225.0</ele><time>2026-04-08T11:11:06.906Z</time></trkpt><trkpt lat="45.69686259677639" lon="6.935681492984511"><ele>2223.0</ele><time>2026-04-08T11:11:08.906Z</time></trkpt><trkpt lat="45.696884976165414" lon="6.935843391681648"><ele>2221.0</ele><time>2026-04-08T11:11:10.906Z</time></trkpt><trkpt lat="45.6969694504173" lon="6.93594923595938"><ele>2219.0</ele><time>2026-04-08T11:11:12.906Z</time></trkpt><trkpt lat="45.6970616781914" lon="6.936061190278092"><ele>2216.4</ele><time>2026-04-08T11:11:14.906Z</time></trkpt><trkpt lat="45.69709458332624" lon="6.936218302528805"><ele>2213.8</ele><time>2026-04-08T11:11:16.906Z</time></trkpt><trkpt lat="45.69707733605722" lon="6.936384466330362"><ele>2211.2</ele><time>2026-04-08T11:11:18.906Z</time></trkpt><trkpt lat="45.69715606788273" lon="6.93647801211859"><ele>2208.6</ele><time>2026-04-08T11:11:20.906Z</time></trkpt><trkpt lat="45.69721938854197" lon="6.9365716014749825"><ele>2206.0</ele><time>2026-04-08T11:11:22.906Z</time></trkpt><trkpt lat="45.697255336894926" lon="6.936724821084964"><ele>2203.8</ele><time>2026-04-08T11:11:24.906Z</time></trkpt><trkpt lat="45.6972678649535" lon="6.936857714328303"><ele>2201.6</ele><time>2026-04-08T11:11:26.906Z</time></trkpt><trkpt lat="45.69735132471684" lon="6.936955226031409"><ele>2199.4</ele><time>2026-04-08T11:11:28.906Z</time></trkpt><trkpt lat="45.6974183318368" lon="6.937088649398386"><ele>2197.2</ele><time>2026-04-08T11:11:30.906Z</time></trkpt><trkpt lat="45.69737805645551" lon="6.937204920231174"><ele>2195.0</ele><time>2026-04-08T11:11:32.906Z</time></trkpt><trkpt lat="45.697378056150505" lon="6.937350685504566"><ele>2195.0</ele><time>2026-04-08T11:11:34.906Z</time></trkpt><trkpt lat="45.69743991926042" lon="6.93747724127768"><ele>2195.0</ele><time>2026-04-08T11:11:36.906Z</time></trkpt><trkpt lat="45.69744461554958" lon="6.937599514655601"><ele>2195.0</ele><time>2026-04-08T11:11:38.905Z</time></trkpt><trkpt lat="45.6975076871714" lon="6.937659929290211"><ele>2195.0</ele><time>2026-04-08T11:11:40.905Z</time></trkpt><trkpt lat="45.69760387811606" lon="6.937753316391383"><ele>2195.0</ele><time>2026-04-08T11:11:42.905Z</time></trkpt><trkpt lat="45.69766626812364" lon="6.93778678329568"><ele>2191.5</ele><time>2026-04-08T11:11:43.905Z</time></trkpt><trkpt lat="45.69776668023754" lon="6.93782518689915"><ele>2188.0</ele><time>2026-04-08T11:11:45.905Z</time></trkpt><trkpt lat="45.69797566483715" lon="6.937836970628443"><ele>2184.5</ele><time>2026-04-08T11:11:50.905Z</time></trkpt><trkpt lat="45.69809622801547" lon="6.937854865804496"><ele>2181.0</ele><time>2026-04-08T11:11:52.904Z</time></trkpt><trkpt lat="45.698181610021464" lon="6.937898733149319"><ele>2181.0</ele><time>2026-04-08T11:11:54.905Z</time></trkpt><trkpt lat="45.698188782703134" lon="6.938017116562711"><ele>2181.0</ele><time>2026-04-08T11:11:56.905Z</time></trkpt><trkpt lat="45.69825762093829" lon="6.9380636211228115"><ele>2181.0</ele><time>2026-04-08T11:11:58.905Z</time></trkpt><trkpt lat="45.69832050086053" lon="6.938135482847923"><ele>2181.0</ele><time>2026-04-08T11:12:00.905Z</time></trkpt><trkpt lat="45.69837768005497" lon="6.938281146828694"><ele>2181.0</ele><time>2026-04-08T11:12:02.905Z</time></trkpt><trkpt lat="45.698332093583076" lon="6.938398351049433"><ele>2179.75</ele><time>2026-04-08T11:12:04.905Z</time></trkpt><trkpt lat="45.69833641516218" lon="6.938539144232505"><ele>2178.5</ele><time>2026-04-08T11:12:07.905Z</time></trkpt><trkpt lat="45.69830901125422" lon="6.938687058582687"><ele>2177.25</ele><time>2026-04-08T11:12:09.905Z</time></trkpt><trkpt lat="45.698305297781644" lon="6.93879438299201"><ele>2176.0</ele><time>2026-04-08T11:12:14.905Z</time></trkpt><trkpt lat="45.69832431441678" lon="6.939115568173256"><ele>2176.0</ele><time>2026-04-08T11:13:58.455Z</time></trkpt><trkpt lat="45.69833146917341" lon="6.939213145183126"><ele>2176.0</ele><time>2026-04-08T11:14:04.471Z</time></trkpt><trkpt lat="45.698313812651" lon="6.939335294214347"><ele>2176.0</ele><time>2026-04-08T11:14:10.466Z</time></trkpt><trkpt lat="45.69837185556638" lon="6.939570806272806"><ele>2176.0</ele><time>2026-04-08T11:15:06.043Z</time></trkpt><trkpt lat="45.69831676661295" lon="6.939629636085706"><ele>2176.0</ele><time>2026-04-08T11:15:27.9Z</time></trkpt><trkpt lat="45.698322592971664" lon="6.939743650554336"><ele>2173.2</ele><time>2026-04-08T11:15:30.9Z</time></trkpt><trkpt lat="45.6984476613547" lon="6.939801314501697"><ele>2170.3999999999996</ele><time>2026-04-08T11:15:49.899Z</time></trkpt><trkpt lat="45.698527182174196" lon="6.939791233199362"><ele>2167.6</ele><time>2026-04-08T11:16:13.899Z</time></trkpt><trkpt lat="45.69859036093954" lon="6.939714019511266"><ele>2164.7999999999997</ele><time>2026-04-08T11:16:16.899Z</time></trkpt><trkpt lat="45.698659571865036" lon="6.939742361607146"><ele>2162.0</ele><time>2026-04-08T11:16:18.899Z</time></trkpt><trkpt lat="45.69875190574628" lon="6.939789763615668"><ele>2159.5</ele><time>2026-04-08T11:16:20.899Z</time></trkpt><trkpt lat="45.69882277083505" lon="6.939851510700167"><ele>2157.0</ele><time>2026-04-08T11:16:22.899Z</time></trkpt><trkpt lat="45.69889269994165" lon="6.939905035130483"><ele>2154.5</ele><time>2026-04-08T11:16:24.899Z</time></trkpt><trkpt lat="45.698978797732096" lon="6.939967707188752"><ele>2152.0</ele><time>2026-04-08T11:16:26.899Z</time></trkpt><trkpt lat="45.69903697486187" lon="6.940011456262093"><ele>2149.5</ele><time>2026-04-08T11:16:28.899Z</time></trkpt><trkpt lat="45.69910262929704" lon="6.94006077489249"><ele>2147.0</ele><time>2026-04-08T11:16:30.899Z</time></trkpt><trkpt lat="45.699174849907415" lon="6.940110203944524"><ele>2143.285714285714</ele><time>2026-04-08T11:16:32.899Z</time></trkpt><trkpt lat="45.69924454869766" lon="6.940155204425429"><ele>2139.5714285714284</ele><time>2026-04-08T11:16:34.899Z</time></trkpt><trkpt lat="45.699319915042075" lon="6.940188871613559"><ele>2135.857142857143</ele><time>2026-04-08T11:16:36.899Z</time></trkpt><trkpt lat="45.699382642693294" lon="6.940233915438157"><ele>2132.142857142857</ele><time>2026-04-08T11:16:38.899Z</time></trkpt><trkpt lat="45.69944315129253" lon="6.940279114419644"><ele>2128.4285714285716</ele><time>2026-04-08T11:16:40.899Z</time></trkpt><trkpt lat="45.69950538829465" lon="6.940323357487048"><ele>2124.714285714286</ele><time>2026-04-08T11:16:42.899Z</time></trkpt><trkpt lat="45.69957400819918" lon="6.940372740474679"><ele>2121.0</ele><time>2026-04-08T11:16:44.899Z</time></trkpt><trkpt lat="45.699642933538705" lon="6.94041986741504"><ele>2116.714285714286</ele><time>2026-04-08T11:16:46.899Z</time></trkpt><trkpt lat="45.699708026726995" lon="6.94046213653774"><ele>2112.4285714285716</ele><time>2026-04-08T11:16:48.899Z</time></trkpt><trkpt lat="45.699774506416894" lon="6.940511069279941"><ele>2108.142857142857</ele><time>2026-04-08T11:16:50.899Z</time></trkpt><trkpt lat="45.699844520471" lon="6.94055060803896"><ele>2103.857142857143</ele><time>2026-04-08T11:16:52.899Z</time></trkpt><trkpt lat="45.69991211291297" lon="6.9405929453141075"><ele>2099.5714285714284</ele><time>2026-04-08T11:16:54.899Z</time></trkpt><trkpt lat="45.69997585769595" lon="6.940637054308595"><ele>2095.285714285714</ele><time>2026-04-08T11:16:56.898Z</time></trkpt><trkpt lat="45.700047483383564" lon="6.9406740388785515"><ele>2091.0</ele><time>2026-04-08T11:16:58.898Z</time></trkpt><trkpt lat="45.700133835918535" lon="6.940737102262335"><ele>2091.0</ele><time>2026-04-08T11:17:01.898Z</time></trkpt><trkpt lat="45.70020224181401" lon="6.940781240888598"><ele>2091.0</ele><time>2026-04-08T11:17:03.898Z</time></trkpt><trkpt lat="45.700281602880615" lon="6.940853286872088"><ele>2091.0</ele><time>2026-04-08T11:17:06.898Z</time></trkpt><trkpt lat="45.700344786755004" lon="6.940907876689036"><ele>2091.0</ele><time>2026-04-08T11:17:08.898Z</time></trkpt><trkpt lat="45.700410472702195" lon="6.940952716639352"><ele>2091.0</ele><time>2026-04-08T11:17:10.898Z</time></trkpt><trkpt lat="45.700467490770805" lon="6.940995284456264"><ele>2091.0</ele><time>2026-04-08T11:17:12.898Z</time></trkpt><trkpt lat="45.70055347677602" lon="6.941064644436354"><ele>2083.3333333333335</ele><time>2026-04-08T11:17:15.898Z</time></trkpt><trkpt lat="45.70063419388962" lon="6.941114026685242"><ele>2075.6666666666665</ele><time>2026-04-08T11:17:17.898Z</time></trkpt><trkpt lat="45.70069318133402" lon="6.941163389345487"><ele>2068.0</ele><time>2026-04-08T11:17:19.898Z</time></trkpt><trkpt lat="45.70074407635223" lon="6.941216748144284"><ele>2060.333333333333</ele><time>2026-04-08T11:17:21.898Z</time></trkpt><trkpt lat="45.70080124525397" lon="6.941276050526339"><ele>2052.6666666666665</ele><time>2026-04-08T11:17:23.898Z</time></trkpt><trkpt lat="45.70088401049687" lon="6.941338195317559"><ele>2045.0</ele><time>2026-04-08T11:17:26.898Z</time></trkpt><trkpt lat="45.700942840136975" lon="6.94138938044571"><ele>2045.0000000000002</ele><time>2026-04-08T11:17:28.898Z</time></trkpt><trkpt lat="45.701005534888175" lon="6.941441537604543"><ele>2045.0</ele><time>2026-04-08T11:17:30.898Z</time></trkpt><trkpt lat="45.7010647075462" lon="6.9414934343808286"><ele>2045.0000000000002</ele><time>2026-04-08T11:17:32.898Z</time></trkpt><trkpt lat="45.70112655723467" lon="6.9415368932698"><ele>2045.0000000000002</ele><time>2026-04-08T11:17:34.898Z</time></trkpt><trkpt lat="45.70119002394164" lon="6.941578717717403"><ele>2045.0</ele><time>2026-04-08T11:17:36.897Z</time></trkpt><trkpt lat="45.70124601538031" lon="6.941623415622402"><ele>2045.0000000000002</ele><time>2026-04-08T11:17:38.897Z</time></trkpt><trkpt lat="45.701315796270855" lon="6.94165506397471"><ele>2045.0000000000002</ele><time>2026-04-08T11:17:40.897Z</time></trkpt><trkpt lat="45.70137414494618" lon="6.9416897395477015"><ele>2042.4285714285716</ele><time>2026-04-08T11:17:42.897Z</time></trkpt><trkpt lat="45.70143300533068" lon="6.941739097586229"><ele>2039.857142857143</ele><time>2026-04-08T11:17:44.897Z</time></trkpt><trkpt lat="45.701494985005894" lon="6.941784742110547"><ele>2037.2857142857142</ele><time>2026-04-08T11:17:46.897Z</time></trkpt><trkpt lat="45.7015618700751" lon="6.941833588596064"><ele>2034.7142857142858</ele><time>2026-04-08T11:17:48.897Z</time></trkpt><trkpt lat="45.701623345207295" lon="6.941880289802331"><ele>2032.1428571428569</ele><time>2026-04-08T11:17:50.897Z</time></trkpt><trkpt lat="45.70168433465879" lon="6.941925609410907"><ele>2029.5714285714284</ele><time>2026-04-08T11:17:52.897Z</time></trkpt><trkpt lat="45.70175663233447" lon="6.9419680520472316"><ele>2027.0</ele><time>2026-04-08T11:17:54.897Z</time></trkpt><trkpt lat="45.70181929285171" lon="6.942010085986224"><ele>2027.0</ele><time>2026-04-08T11:17:56.897Z</time></trkpt><trkpt lat="45.701884416829586" lon="6.942051072929853"><ele>2027.0</ele><time>2026-04-08T11:17:58.897Z</time></trkpt><trkpt lat="45.70197023700598" lon="6.942133892323108"><ele>2029.0</ele><time>2026-04-08T11:18:01.897Z</time></trkpt></trkseg></trk></gpx>